<?xml version="1.0" encoding="UTF-8" standalone="no" ?>
<gpx xmlns="http://www.topografix.com/GPX/1/1" xmlns:xsi="http://www.w3.org/2001/XMLSchema-instance" xsi:schemaLocation="http://www.topografix.com/GPX/1/1 http://www.topografix.com/GPX/1/1/gpx.xsd" version="1.1" creator="VisuGPX - https://www.visugpx.com">
  <metadata>
    <name>Montrodeix</name>
  </metadata>
  <trk>
    <name><![CDATA[ITI0008]]></name>
    <extensions>
      <line xmlns="http://www.topografix.com/GPX/gpx_style/0/2">
        <color>0000FF</color>
        <width>4</width>
      </line>
    </extensions>
    <trkseg>
      <trkpt lat="45.78315" lon="3.01168">
        <ele>834.6</ele>
        <time>2017-07-18T15:53:51Z</time>
      </trkpt>
      <trkpt lat="45.78314" lon="3.01167">
        <ele>834.6</ele>
        <time>2017-07-18T15:53:51Z</time>
      </trkpt>
      <trkpt lat="45.78313" lon="3.01166">
        <ele>834.6</ele>
        <time>2017-07-18T15:53:51Z</time>
      </trkpt>
      <trkpt lat="45.78313" lon="3.01164">
        <ele>834.7</ele>
        <time>2017-07-18T15:53:51Z</time>
      </trkpt>
      <trkpt lat="45.78313" lon="3.01161">
        <ele>834.9</ele>
        <time>2017-07-18T15:53:51Z</time>
      </trkpt>
      <trkpt lat="45.78313" lon="3.01158">
        <ele>835.1</ele>
        <time>2017-07-18T15:53:51Z</time>
      </trkpt>
      <trkpt lat="45.78314" lon="3.01154">
        <ele>835.3</ele>
        <time>2017-07-18T15:53:51Z</time>
      </trkpt>
      <trkpt lat="45.78315" lon="3.01151">
        <ele>835.6</ele>
        <time>2017-07-18T15:53:51Z</time>
      </trkpt>
      <trkpt lat="45.78316" lon="3.01149">
        <ele>835.8</ele>
        <time>2017-07-18T15:53:51Z</time>
      </trkpt>
      <trkpt lat="45.78317" lon="3.01146">
        <ele>836</ele>
        <time>2017-07-18T15:53:51Z</time>
      </trkpt>
      <trkpt lat="45.78318" lon="3.01142">
        <ele>836.2</ele>
        <time>2017-07-18T15:53:51Z</time>
      </trkpt>
      <trkpt lat="45.78319" lon="3.0114">
        <ele>836.4</ele>
        <time>2017-07-18T15:53:51Z</time>
      </trkpt>
      <trkpt lat="45.7832" lon="3.01137">
        <ele>836.6</ele>
        <time>2017-07-18T15:53:51Z</time>
      </trkpt>
      <trkpt lat="45.78321" lon="3.01134">
        <ele>836.8</ele>
        <time>2017-07-18T15:53:51Z</time>
      </trkpt>
      <trkpt lat="45.78322" lon="3.01131">
        <ele>837</ele>
        <time>2017-07-18T15:53:51Z</time>
      </trkpt>
      <trkpt lat="45.78324" lon="3.01128">
        <ele>837.1</ele>
        <time>2017-07-18T15:53:51Z</time>
      </trkpt>
      <trkpt lat="45.78326" lon="3.01124">
        <ele>837.4</ele>
        <time>2017-07-18T15:53:51Z</time>
      </trkpt>
      <trkpt lat="45.78327" lon="3.01121">
        <ele>837.5</ele>
        <time>2017-07-18T15:53:51Z</time>
      </trkpt>
      <trkpt lat="45.78329" lon="3.01118">
        <ele>837.7</ele>
        <time>2017-07-18T15:53:51Z</time>
      </trkpt>
      <trkpt lat="45.7833" lon="3.01116">
        <ele>837.8</ele>
        <time>2017-07-18T15:53:51Z</time>
      </trkpt>
      <trkpt lat="45.78331" lon="3.01113">
        <ele>837.9</ele>
        <time>2017-07-18T15:53:51Z</time>
      </trkpt>
      <trkpt lat="45.78332" lon="3.0111">
        <ele>838</ele>
        <time>2017-07-18T15:53:51Z</time>
      </trkpt>
      <trkpt lat="45.78334" lon="3.01106">
        <ele>838.1</ele>
        <time>2017-07-18T15:53:51Z</time>
      </trkpt>
      <trkpt lat="45.78336" lon="3.01104">
        <ele>838.2</ele>
        <time>2017-07-18T15:53:51Z</time>
      </trkpt>
      <trkpt lat="45.78337" lon="3.01101">
        <ele>838.2</ele>
        <time>2017-07-18T15:53:51Z</time>
      </trkpt>
      <trkpt lat="45.78338" lon="3.01098">
        <ele>838.3</ele>
        <time>2017-07-18T15:53:51Z</time>
      </trkpt>
      <trkpt lat="45.78339" lon="3.01095">
        <ele>838.4</ele>
        <time>2017-07-18T15:53:51Z</time>
      </trkpt>
      <trkpt lat="45.78341" lon="3.01093">
        <ele>838.4</ele>
        <time>2017-07-18T15:53:51Z</time>
      </trkpt>
      <trkpt lat="45.78342" lon="3.0109">
        <ele>838.5</ele>
        <time>2017-07-18T15:53:51Z</time>
      </trkpt>
      <trkpt lat="45.78343" lon="3.01087">
        <ele>838.5</ele>
        <time>2017-07-18T15:53:51Z</time>
      </trkpt>
      <trkpt lat="45.78344" lon="3.01084">
        <ele>838.6</ele>
        <time>2017-07-18T15:53:51Z</time>
      </trkpt>
      <trkpt lat="45.78345" lon="3.01081">
        <ele>838.8</ele>
        <time>2017-07-18T15:53:51Z</time>
      </trkpt>
      <trkpt lat="45.78347" lon="3.01078">
        <ele>839.1</ele>
        <time>2017-07-18T15:53:51Z</time>
      </trkpt>
      <trkpt lat="45.78348" lon="3.01076">
        <ele>839.5</ele>
        <time>2017-07-18T15:53:51Z</time>
      </trkpt>
      <trkpt lat="45.7835" lon="3.01073">
        <ele>839.8</ele>
        <time>2017-07-18T15:53:51Z</time>
      </trkpt>
      <trkpt lat="45.78352" lon="3.01071">
        <ele>839.9</ele>
        <time>2017-07-18T15:53:51Z</time>
      </trkpt>
      <trkpt lat="45.78353" lon="3.01068">
        <ele>840.2</ele>
        <time>2017-07-18T15:53:51Z</time>
      </trkpt>
      <trkpt lat="45.78354" lon="3.01065">
        <ele>840.5</ele>
        <time>2017-07-18T15:53:51Z</time>
      </trkpt>
      <trkpt lat="45.78355" lon="3.01064">
        <ele>840.6</ele>
        <time>2017-07-18T15:53:51Z</time>
      </trkpt>
      <trkpt lat="45.78357" lon="3.01062">
        <ele>840.7</ele>
        <time>2017-07-18T15:53:51Z</time>
      </trkpt>
      <trkpt lat="45.78359" lon="3.0106">
        <ele>840.9</ele>
        <time>2017-07-18T15:53:51Z</time>
      </trkpt>
      <trkpt lat="45.78361" lon="3.01058">
        <ele>840.9</ele>
        <time>2017-07-18T15:53:51Z</time>
      </trkpt>
      <trkpt lat="45.78363" lon="3.01056">
        <ele>841.1</ele>
        <time>2017-07-18T15:53:51Z</time>
      </trkpt>
      <trkpt lat="45.78364" lon="3.01053">
        <ele>841.4</ele>
        <time>2017-07-18T15:53:51Z</time>
      </trkpt>
      <trkpt lat="45.78366" lon="3.01051">
        <ele>841.4</ele>
        <time>2017-07-18T15:53:51Z</time>
      </trkpt>
      <trkpt lat="45.78368" lon="3.01049">
        <ele>841.5</ele>
        <time>2017-07-18T15:53:51Z</time>
      </trkpt>
      <trkpt lat="45.78369" lon="3.01047">
        <ele>841.6</ele>
        <time>2017-07-18T15:53:51Z</time>
      </trkpt>
      <trkpt lat="45.78371" lon="3.01045">
        <ele>841.7</ele>
        <time>2017-07-18T15:53:51Z</time>
      </trkpt>
      <trkpt lat="45.78373" lon="3.01043">
        <ele>841.8</ele>
        <time>2017-07-18T15:53:51Z</time>
      </trkpt>
      <trkpt lat="45.78375" lon="3.0104">
        <ele>841.9</ele>
        <time>2017-07-18T15:53:51Z</time>
      </trkpt>
      <trkpt lat="45.78377" lon="3.01038">
        <ele>842</ele>
        <time>2017-07-18T15:53:51Z</time>
      </trkpt>
      <trkpt lat="45.78379" lon="3.01035">
        <ele>842.1</ele>
        <time>2017-07-18T15:53:51Z</time>
      </trkpt>
      <trkpt lat="45.7838" lon="3.01033">
        <ele>842.2</ele>
        <time>2017-07-18T15:53:51Z</time>
      </trkpt>
      <trkpt lat="45.78382" lon="3.0103">
        <ele>842.3</ele>
        <time>2017-07-18T15:53:51Z</time>
      </trkpt>
      <trkpt lat="45.78384" lon="3.01027">
        <ele>842.4</ele>
        <time>2017-07-18T15:53:51Z</time>
      </trkpt>
      <trkpt lat="45.78386" lon="3.01025">
        <ele>842.4</ele>
        <time>2017-07-18T15:53:51Z</time>
      </trkpt>
      <trkpt lat="45.78388" lon="3.01022">
        <ele>842.5</ele>
        <time>2017-07-18T15:53:51Z</time>
      </trkpt>
      <trkpt lat="45.78389" lon="3.0102">
        <ele>842.5</ele>
        <time>2017-07-18T15:53:51Z</time>
      </trkpt>
      <trkpt lat="45.78391" lon="3.01017">
        <ele>842.6</ele>
        <time>2017-07-18T15:53:51Z</time>
      </trkpt>
      <trkpt lat="45.78393" lon="3.01015">
        <ele>842.5</ele>
        <time>2017-07-18T15:53:51Z</time>
      </trkpt>
      <trkpt lat="45.78395" lon="3.01013">
        <ele>842.5</ele>
        <time>2017-07-18T15:53:51Z</time>
      </trkpt>
      <trkpt lat="45.78397" lon="3.01012">
        <ele>842.4</ele>
        <time>2017-07-18T15:53:51Z</time>
      </trkpt>
      <trkpt lat="45.78399" lon="3.0101">
        <ele>842.3</ele>
        <time>2017-07-18T15:53:51Z</time>
      </trkpt>
      <trkpt lat="45.78401" lon="3.01008">
        <ele>842.2</ele>
        <time>2017-07-18T15:53:51Z</time>
      </trkpt>
      <trkpt lat="45.78403" lon="3.01006">
        <ele>842.2</ele>
        <time>2017-07-18T15:53:51Z</time>
      </trkpt>
      <trkpt lat="45.78405" lon="3.01004">
        <ele>842.1</ele>
        <time>2017-07-18T15:53:51Z</time>
      </trkpt>
      <trkpt lat="45.78407" lon="3.01002">
        <ele>842</ele>
        <time>2017-07-18T15:53:51Z</time>
      </trkpt>
      <trkpt lat="45.78409" lon="3.01">
        <ele>841.9</ele>
        <time>2017-07-18T15:53:51Z</time>
      </trkpt>
      <trkpt lat="45.78411" lon="3.00997">
        <ele>841.7</ele>
        <time>2017-07-18T15:53:51Z</time>
      </trkpt>
      <trkpt lat="45.78413" lon="3.00995">
        <ele>841.6</ele>
        <time>2017-07-18T15:53:51Z</time>
      </trkpt>
      <trkpt lat="45.78414" lon="3.00992">
        <ele>841.5</ele>
        <time>2017-07-18T15:53:51Z</time>
      </trkpt>
      <trkpt lat="45.78416" lon="3.0099">
        <ele>841.3</ele>
        <time>2017-07-18T15:53:51Z</time>
      </trkpt>
      <trkpt lat="45.78418" lon="3.00988">
        <ele>841.3</ele>
        <time>2017-07-18T15:53:51Z</time>
      </trkpt>
      <trkpt lat="45.78419" lon="3.00985">
        <ele>841.4</ele>
        <time>2017-07-18T15:53:51Z</time>
      </trkpt>
      <trkpt lat="45.78421" lon="3.00983">
        <ele>841.4</ele>
        <time>2017-07-18T15:53:51Z</time>
      </trkpt>
      <trkpt lat="45.78423" lon="3.00982">
        <ele>841.5</ele>
        <time>2017-07-18T15:53:51Z</time>
      </trkpt>
      <trkpt lat="45.78425" lon="3.0098">
        <ele>841.5</ele>
        <time>2017-07-18T15:53:51Z</time>
      </trkpt>
      <trkpt lat="45.78427" lon="3.00979">
        <ele>841.6</ele>
        <time>2017-07-18T15:53:51Z</time>
      </trkpt>
      <trkpt lat="45.78429" lon="3.00977">
        <ele>841.6</ele>
        <time>2017-07-18T15:53:51Z</time>
      </trkpt>
      <trkpt lat="45.7843" lon="3.00976">
        <ele>841.7</ele>
        <time>2017-07-18T15:53:51Z</time>
      </trkpt>
      <trkpt lat="45.7843" lon="3.00976">
        <ele>841.7</ele>
        <time>2017-07-18T15:53:51Z</time>
      </trkpt>
      <trkpt lat="45.7843" lon="3.00976">
        <ele>841.7</ele>
        <time>2017-07-18T15:53:51Z</time>
      </trkpt>
      <trkpt lat="45.7843" lon="3.00976">
        <ele>841.7</ele>
        <time>2017-07-18T15:53:51Z</time>
      </trkpt>
      <trkpt lat="45.78429" lon="3.00974">
        <ele>841.7</ele>
        <time>2017-07-18T15:53:51Z</time>
      </trkpt>
      <trkpt lat="45.78427" lon="3.00969">
        <ele>841.9</ele>
        <time>2017-07-18T15:53:51Z</time>
      </trkpt>
      <trkpt lat="45.78427" lon="3.00968">
        <ele>841.9</ele>
        <time>2017-07-18T15:53:51Z</time>
      </trkpt>
      <trkpt lat="45.78427" lon="3.00966">
        <ele>841.9</ele>
        <time>2017-07-18T15:53:51Z</time>
      </trkpt>
      <trkpt lat="45.78428" lon="3.00963">
        <ele>842</ele>
        <time>2017-07-18T15:53:51Z</time>
      </trkpt>
      <trkpt lat="45.78428" lon="3.0096">
        <ele>842.1</ele>
        <time>2017-07-18T15:53:51Z</time>
      </trkpt>
      <trkpt lat="45.78428" lon="3.00957">
        <ele>842.2</ele>
        <time>2017-07-18T15:53:51Z</time>
      </trkpt>
      <trkpt lat="45.78429" lon="3.00954">
        <ele>842.3</ele>
        <time>2017-07-18T15:53:51Z</time>
      </trkpt>
      <trkpt lat="45.78429" lon="3.00951">
        <ele>842.3</ele>
        <time>2017-07-18T15:53:51Z</time>
      </trkpt>
      <trkpt lat="45.7843" lon="3.00948">
        <ele>842.4</ele>
        <time>2017-07-18T15:53:51Z</time>
      </trkpt>
      <trkpt lat="45.7843" lon="3.00945">
        <ele>842.5</ele>
        <time>2017-07-18T15:53:51Z</time>
      </trkpt>
      <trkpt lat="45.78429" lon="3.00941">
        <ele>842.6</ele>
        <time>2017-07-18T15:53:51Z</time>
      </trkpt>
      <trkpt lat="45.78429" lon="3.00938">
        <ele>842.7</ele>
        <time>2017-07-18T15:53:51Z</time>
      </trkpt>
      <trkpt lat="45.78428" lon="3.00934">
        <ele>842.8</ele>
        <time>2017-07-18T15:53:51Z</time>
      </trkpt>
      <trkpt lat="45.78428" lon="3.00931">
        <ele>842.9</ele>
        <time>2017-07-18T15:53:51Z</time>
      </trkpt>
      <trkpt lat="45.78428" lon="3.00928">
        <ele>843</ele>
        <time>2017-07-18T15:53:51Z</time>
      </trkpt>
      <trkpt lat="45.78428" lon="3.00926">
        <ele>843</ele>
        <time>2017-07-18T15:53:51Z</time>
      </trkpt>
      <trkpt lat="45.78428" lon="3.00923">
        <ele>843.1</ele>
        <time>2017-07-18T15:53:51Z</time>
      </trkpt>
      <trkpt lat="45.78428" lon="3.0092">
        <ele>843.2</ele>
        <time>2017-07-18T15:53:51Z</time>
      </trkpt>
      <trkpt lat="45.78428" lon="3.00917">
        <ele>843.3</ele>
        <time>2017-07-18T15:53:51Z</time>
      </trkpt>
      <trkpt lat="45.78427" lon="3.00913">
        <ele>843.5</ele>
        <time>2017-07-18T15:53:51Z</time>
      </trkpt>
      <trkpt lat="45.78427" lon="3.0091">
        <ele>843.8</ele>
        <time>2017-07-18T15:53:51Z</time>
      </trkpt>
      <trkpt lat="45.78427" lon="3.00906">
        <ele>844.1</ele>
        <time>2017-07-18T15:53:51Z</time>
      </trkpt>
      <trkpt lat="45.78427" lon="3.00902">
        <ele>844.4</ele>
        <time>2017-07-18T15:53:51Z</time>
      </trkpt>
      <trkpt lat="45.78427" lon="3.00899">
        <ele>844.7</ele>
        <time>2017-07-18T15:53:51Z</time>
      </trkpt>
      <trkpt lat="45.78427" lon="3.00895">
        <ele>844.9</ele>
        <time>2017-07-18T15:53:51Z</time>
      </trkpt>
      <trkpt lat="45.78427" lon="3.00891">
        <ele>845.2</ele>
        <time>2017-07-18T15:53:51Z</time>
      </trkpt>
      <trkpt lat="45.78427" lon="3.00888">
        <ele>845.5</ele>
        <time>2017-07-18T15:53:51Z</time>
      </trkpt>
      <trkpt lat="45.78427" lon="3.00884">
        <ele>845.8</ele>
        <time>2017-07-18T15:53:51Z</time>
      </trkpt>
      <trkpt lat="45.78427" lon="3.00881">
        <ele>846</ele>
        <time>2017-07-18T15:53:51Z</time>
      </trkpt>
      <trkpt lat="45.78427" lon="3.00877">
        <ele>846.3</ele>
        <time>2017-07-18T15:53:51Z</time>
      </trkpt>
      <trkpt lat="45.78427" lon="3.00874">
        <ele>846.6</ele>
        <time>2017-07-18T15:53:51Z</time>
      </trkpt>
      <trkpt lat="45.78426" lon="3.0087">
        <ele>846.9</ele>
        <time>2017-07-18T15:53:51Z</time>
      </trkpt>
      <trkpt lat="45.78426" lon="3.00866">
        <ele>847.2</ele>
        <time>2017-07-18T15:53:51Z</time>
      </trkpt>
      <trkpt lat="45.78426" lon="3.00863">
        <ele>847.4</ele>
        <time>2017-07-18T15:53:51Z</time>
      </trkpt>
      <trkpt lat="45.78426" lon="3.0086">
        <ele>847.7</ele>
        <time>2017-07-18T15:53:51Z</time>
      </trkpt>
      <trkpt lat="45.78425" lon="3.00856">
        <ele>848</ele>
        <time>2017-07-18T15:53:51Z</time>
      </trkpt>
      <trkpt lat="45.78425" lon="3.00852">
        <ele>848.4</ele>
        <time>2017-07-18T15:53:51Z</time>
      </trkpt>
      <trkpt lat="45.78424" lon="3.00847">
        <ele>848.8</ele>
        <time>2017-07-18T15:53:51Z</time>
      </trkpt>
      <trkpt lat="45.78424" lon="3.00843">
        <ele>849.1</ele>
        <time>2017-07-18T15:53:51Z</time>
      </trkpt>
      <trkpt lat="45.78424" lon="3.0084">
        <ele>849.3</ele>
        <time>2017-07-18T15:53:51Z</time>
      </trkpt>
      <trkpt lat="45.78425" lon="3.00836">
        <ele>849.6</ele>
        <time>2017-07-18T15:53:51Z</time>
      </trkpt>
      <trkpt lat="45.78425" lon="3.00833">
        <ele>849.9</ele>
        <time>2017-07-18T15:53:51Z</time>
      </trkpt>
      <trkpt lat="45.78424" lon="3.0083">
        <ele>850</ele>
        <time>2017-07-18T15:53:51Z</time>
      </trkpt>
      <trkpt lat="45.78424" lon="3.00828">
        <ele>850.2</ele>
        <time>2017-07-18T15:53:51Z</time>
      </trkpt>
      <trkpt lat="45.78423" lon="3.00824">
        <ele>850.5</ele>
        <time>2017-07-18T15:53:51Z</time>
      </trkpt>
      <trkpt lat="45.78423" lon="3.00821">
        <ele>850.7</ele>
        <time>2017-07-18T15:53:51Z</time>
      </trkpt>
      <trkpt lat="45.78421" lon="3.00817">
        <ele>851.1</ele>
        <time>2017-07-18T15:53:51Z</time>
      </trkpt>
      <trkpt lat="45.78421" lon="3.00814">
        <ele>851.3</ele>
        <time>2017-07-18T15:53:51Z</time>
      </trkpt>
      <trkpt lat="45.7842" lon="3.00812">
        <ele>851.5</ele>
        <time>2017-07-18T15:53:51Z</time>
      </trkpt>
      <trkpt lat="45.7842" lon="3.00809">
        <ele>851.7</ele>
        <time>2017-07-18T15:53:51Z</time>
      </trkpt>
      <trkpt lat="45.78419" lon="3.00806">
        <ele>851.9</ele>
        <time>2017-07-18T15:53:51Z</time>
      </trkpt>
      <trkpt lat="45.78418" lon="3.00802">
        <ele>852.2</ele>
        <time>2017-07-18T15:53:51Z</time>
      </trkpt>
      <trkpt lat="45.78417" lon="3.00798">
        <ele>852.5</ele>
        <time>2017-07-18T15:53:51Z</time>
      </trkpt>
      <trkpt lat="45.78417" lon="3.00795">
        <ele>852.8</ele>
        <time>2017-07-18T15:53:51Z</time>
      </trkpt>
      <trkpt lat="45.78417" lon="3.00792">
        <ele>853</ele>
        <time>2017-07-18T15:53:51Z</time>
      </trkpt>
      <trkpt lat="45.78418" lon="3.00789">
        <ele>853.1</ele>
        <time>2017-07-18T15:53:51Z</time>
      </trkpt>
      <trkpt lat="45.78417" lon="3.00785">
        <ele>853.5</ele>
        <time>2017-07-18T15:53:51Z</time>
      </trkpt>
      <trkpt lat="45.78415" lon="3.00782">
        <ele>853.9</ele>
        <time>2017-07-18T15:53:51Z</time>
      </trkpt>
      <trkpt lat="45.78414" lon="3.00777">
        <ele>854.4</ele>
        <time>2017-07-18T15:53:51Z</time>
      </trkpt>
      <trkpt lat="45.78412" lon="3.00774">
        <ele>854.8</ele>
        <time>2017-07-18T15:53:51Z</time>
      </trkpt>
      <trkpt lat="45.78411" lon="3.00771">
        <ele>855.2</ele>
        <time>2017-07-18T15:53:51Z</time>
      </trkpt>
      <trkpt lat="45.7841" lon="3.00768">
        <ele>855.6</ele>
        <time>2017-07-18T15:53:51Z</time>
      </trkpt>
      <trkpt lat="45.7841" lon="3.00765">
        <ele>855.8</ele>
        <time>2017-07-18T15:53:51Z</time>
      </trkpt>
      <trkpt lat="45.78409" lon="3.00762">
        <ele>856.1</ele>
        <time>2017-07-18T15:53:51Z</time>
      </trkpt>
      <trkpt lat="45.78409" lon="3.00759">
        <ele>856.3</ele>
        <time>2017-07-18T15:53:51Z</time>
      </trkpt>
      <trkpt lat="45.78409" lon="3.00756">
        <ele>856.5</ele>
        <time>2017-07-18T15:53:51Z</time>
      </trkpt>
      <trkpt lat="45.7841" lon="3.00754">
        <ele>856.5</ele>
        <time>2017-07-18T15:53:51Z</time>
      </trkpt>
      <trkpt lat="45.7841" lon="3.00752">
        <ele>856.6</ele>
        <time>2017-07-18T15:53:51Z</time>
      </trkpt>
      <trkpt lat="45.7841" lon="3.0075">
        <ele>856.9</ele>
        <time>2017-07-18T15:53:51Z</time>
      </trkpt>
      <trkpt lat="45.7841" lon="3.00747">
        <ele>857</ele>
        <time>2017-07-18T15:53:51Z</time>
      </trkpt>
      <trkpt lat="45.7841" lon="3.00743">
        <ele>857.1</ele>
        <time>2017-07-18T15:53:51Z</time>
      </trkpt>
      <trkpt lat="45.78409" lon="3.0074">
        <ele>857.3</ele>
        <time>2017-07-18T15:53:51Z</time>
      </trkpt>
      <trkpt lat="45.7841" lon="3.00739">
        <ele>857.2</ele>
        <time>2017-07-18T15:53:51Z</time>
      </trkpt>
      <trkpt lat="45.78411" lon="3.00736">
        <ele>857.2</ele>
        <time>2017-07-18T15:53:51Z</time>
      </trkpt>
      <trkpt lat="45.78412" lon="3.00734">
        <ele>857.1</ele>
        <time>2017-07-18T15:53:51Z</time>
      </trkpt>
      <trkpt lat="45.78412" lon="3.00731">
        <ele>857</ele>
        <time>2017-07-18T15:53:51Z</time>
      </trkpt>
      <trkpt lat="45.78413" lon="3.00729">
        <ele>857</ele>
        <time>2017-07-18T15:53:51Z</time>
      </trkpt>
      <trkpt lat="45.78413" lon="3.00727">
        <ele>857</ele>
        <time>2017-07-18T15:53:51Z</time>
      </trkpt>
      <trkpt lat="45.78413" lon="3.00723">
        <ele>857.2</ele>
        <time>2017-07-18T15:53:51Z</time>
      </trkpt>
      <trkpt lat="45.78412" lon="3.00721">
        <ele>857.4</ele>
        <time>2017-07-18T15:53:51Z</time>
      </trkpt>
      <trkpt lat="45.7841" lon="3.00718">
        <ele>857.7</ele>
        <time>2017-07-18T15:53:51Z</time>
      </trkpt>
      <trkpt lat="45.78408" lon="3.00719">
        <ele>858</ele>
        <time>2017-07-18T15:53:51Z</time>
      </trkpt>
      <trkpt lat="45.78407" lon="3.0072">
        <ele>858.1</ele>
        <time>2017-07-18T15:53:51Z</time>
      </trkpt>
      <trkpt lat="45.78407" lon="3.00721">
        <ele>858.1</ele>
        <time>2017-07-18T15:53:51Z</time>
      </trkpt>
      <trkpt lat="45.78406" lon="3.00723">
        <ele>858.2</ele>
        <time>2017-07-18T15:53:51Z</time>
      </trkpt>
      <trkpt lat="45.78405" lon="3.00724">
        <ele>858.4</ele>
        <time>2017-07-18T15:53:51Z</time>
      </trkpt>
      <trkpt lat="45.78401" lon="3.00725">
        <ele>858.9</ele>
        <time>2017-07-18T15:53:51Z</time>
      </trkpt>
      <trkpt lat="45.784" lon="3.00727">
        <ele>859</ele>
        <time>2017-07-18T15:53:51Z</time>
      </trkpt>
      <trkpt lat="45.78399" lon="3.00728">
        <ele>859.1</ele>
        <time>2017-07-18T15:53:51Z</time>
      </trkpt>
      <trkpt lat="45.78397" lon="3.0073">
        <ele>859.3</ele>
        <time>2017-07-18T15:53:51Z</time>
      </trkpt>
      <trkpt lat="45.78395" lon="3.00731">
        <ele>859.5</ele>
        <time>2017-07-18T15:53:51Z</time>
      </trkpt>
      <trkpt lat="45.78393" lon="3.00733">
        <ele>859.7</ele>
        <time>2017-07-18T15:53:51Z</time>
      </trkpt>
      <trkpt lat="45.78392" lon="3.00735">
        <ele>859.9</ele>
        <time>2017-07-18T15:53:51Z</time>
      </trkpt>
      <trkpt lat="45.7839" lon="3.00736">
        <ele>860.1</ele>
        <time>2017-07-18T15:53:51Z</time>
      </trkpt>
      <trkpt lat="45.78389" lon="3.00737">
        <ele>860.2</ele>
        <time>2017-07-18T15:53:51Z</time>
      </trkpt>
      <trkpt lat="45.78388" lon="3.00739">
        <ele>860.2</ele>
        <time>2017-07-18T15:53:51Z</time>
      </trkpt>
      <trkpt lat="45.78387" lon="3.0074">
        <ele>860.4</ele>
        <time>2017-07-18T15:53:51Z</time>
      </trkpt>
      <trkpt lat="45.78386" lon="3.00741">
        <ele>860.4</ele>
        <time>2017-07-18T15:53:51Z</time>
      </trkpt>
      <trkpt lat="45.78386" lon="3.00743">
        <ele>860.4</ele>
        <time>2017-07-18T15:53:51Z</time>
      </trkpt>
      <trkpt lat="45.78384" lon="3.00744">
        <ele>860.6</ele>
        <time>2017-07-18T15:53:51Z</time>
      </trkpt>
      <trkpt lat="45.78382" lon="3.00746">
        <ele>860.8</ele>
        <time>2017-07-18T15:53:51Z</time>
      </trkpt>
      <trkpt lat="45.7838" lon="3.00747">
        <ele>861</ele>
        <time>2017-07-18T15:53:51Z</time>
      </trkpt>
      <trkpt lat="45.78378" lon="3.00748">
        <ele>861.2</ele>
        <time>2017-07-18T15:53:51Z</time>
      </trkpt>
      <trkpt lat="45.78374" lon="3.00749">
        <ele>861.6</ele>
        <time>2017-07-18T15:53:51Z</time>
      </trkpt>
      <trkpt lat="45.78371" lon="3.0075">
        <ele>861.9</ele>
        <time>2017-07-18T15:53:51Z</time>
      </trkpt>
      <trkpt lat="45.78368" lon="3.00751">
        <ele>862.3</ele>
        <time>2017-07-18T15:53:51Z</time>
      </trkpt>
      <trkpt lat="45.78366" lon="3.00752">
        <ele>862.6</ele>
        <time>2017-07-18T15:53:51Z</time>
      </trkpt>
      <trkpt lat="45.78364" lon="3.00751">
        <ele>862.9</ele>
        <time>2017-07-18T15:53:51Z</time>
      </trkpt>
      <trkpt lat="45.78361" lon="3.00751">
        <ele>863.2</ele>
        <time>2017-07-18T15:53:51Z</time>
      </trkpt>
      <trkpt lat="45.78359" lon="3.00751">
        <ele>863.5</ele>
        <time>2017-07-18T15:53:51Z</time>
      </trkpt>
      <trkpt lat="45.78355" lon="3.00752">
        <ele>864</ele>
        <time>2017-07-18T15:53:51Z</time>
      </trkpt>
      <trkpt lat="45.78353" lon="3.00752">
        <ele>864.2</ele>
        <time>2017-07-18T15:53:51Z</time>
      </trkpt>
      <trkpt lat="45.7835" lon="3.00752">
        <ele>864.7</ele>
        <time>2017-07-18T15:53:51Z</time>
      </trkpt>
      <trkpt lat="45.78347" lon="3.00752">
        <ele>865</ele>
        <time>2017-07-18T15:53:51Z</time>
      </trkpt>
      <trkpt lat="45.78345" lon="3.00752">
        <ele>865.2</ele>
        <time>2017-07-18T15:53:51Z</time>
      </trkpt>
      <trkpt lat="45.78343" lon="3.00752">
        <ele>865.6</ele>
        <time>2017-07-18T15:53:51Z</time>
      </trkpt>
      <trkpt lat="45.78341" lon="3.00753">
        <ele>865.8</ele>
        <time>2017-07-18T15:53:51Z</time>
      </trkpt>
      <trkpt lat="45.7834" lon="3.00753">
        <ele>865.9</ele>
        <time>2017-07-18T15:53:51Z</time>
      </trkpt>
      <trkpt lat="45.78339" lon="3.00754">
        <ele>866</ele>
        <time>2017-07-18T15:53:51Z</time>
      </trkpt>
      <trkpt lat="45.78336" lon="3.00755">
        <ele>866.2</ele>
        <time>2017-07-18T15:53:51Z</time>
      </trkpt>
      <trkpt lat="45.78334" lon="3.00756">
        <ele>866.4</ele>
        <time>2017-07-18T15:53:51Z</time>
      </trkpt>
      <trkpt lat="45.78333" lon="3.00756">
        <ele>866.5</ele>
        <time>2017-07-18T15:53:51Z</time>
      </trkpt>
      <trkpt lat="45.7833" lon="3.00756">
        <ele>866.6</ele>
        <time>2017-07-18T15:53:51Z</time>
      </trkpt>
      <trkpt lat="45.78327" lon="3.00756">
        <ele>866.7</ele>
        <time>2017-07-18T15:53:51Z</time>
      </trkpt>
      <trkpt lat="45.78324" lon="3.00755">
        <ele>866.8</ele>
        <time>2017-07-18T15:53:51Z</time>
      </trkpt>
      <trkpt lat="45.78323" lon="3.00756">
        <ele>866.8</ele>
        <time>2017-07-18T15:53:51Z</time>
      </trkpt>
      <trkpt lat="45.78321" lon="3.00756">
        <ele>866.9</ele>
        <time>2017-07-18T15:53:51Z</time>
      </trkpt>
      <trkpt lat="45.78319" lon="3.00755">
        <ele>866.9</ele>
        <time>2017-07-18T15:53:51Z</time>
      </trkpt>
      <trkpt lat="45.78317" lon="3.00755">
        <ele>867</ele>
        <time>2017-07-18T15:53:51Z</time>
      </trkpt>
      <trkpt lat="45.78316" lon="3.00755">
        <ele>867.1</ele>
        <time>2017-07-18T15:53:51Z</time>
      </trkpt>
      <trkpt lat="45.78314" lon="3.00754">
        <ele>867.2</ele>
        <time>2017-07-18T15:53:51Z</time>
      </trkpt>
      <trkpt lat="45.78311" lon="3.00753">
        <ele>867.3</ele>
        <time>2017-07-18T15:53:51Z</time>
      </trkpt>
      <trkpt lat="45.78308" lon="3.00753">
        <ele>867.4</ele>
        <time>2017-07-18T15:53:51Z</time>
      </trkpt>
      <trkpt lat="45.78306" lon="3.00752">
        <ele>867.5</ele>
        <time>2017-07-18T15:53:51Z</time>
      </trkpt>
      <trkpt lat="45.78304" lon="3.00751">
        <ele>867.7</ele>
        <time>2017-07-18T15:53:51Z</time>
      </trkpt>
      <trkpt lat="45.78301" lon="3.00749">
        <ele>867.8</ele>
        <time>2017-07-18T15:53:51Z</time>
      </trkpt>
      <trkpt lat="45.78299" lon="3.00747">
        <ele>868</ele>
        <time>2017-07-18T15:53:51Z</time>
      </trkpt>
      <trkpt lat="45.78298" lon="3.00746">
        <ele>868.1</ele>
        <time>2017-07-18T15:53:51Z</time>
      </trkpt>
      <trkpt lat="45.78296" lon="3.00744">
        <ele>868.3</ele>
        <time>2017-07-18T15:53:51Z</time>
      </trkpt>
      <trkpt lat="45.78295" lon="3.00742">
        <ele>868.4</ele>
        <time>2017-07-18T15:53:51Z</time>
      </trkpt>
      <trkpt lat="45.78293" lon="3.0074">
        <ele>868.5</ele>
        <time>2017-07-18T15:53:51Z</time>
      </trkpt>
      <trkpt lat="45.78292" lon="3.00739">
        <ele>868.7</ele>
        <time>2017-07-18T15:53:51Z</time>
      </trkpt>
      <trkpt lat="45.78291" lon="3.00736">
        <ele>868.9</ele>
        <time>2017-07-18T15:53:51Z</time>
      </trkpt>
      <trkpt lat="45.78289" lon="3.00734">
        <ele>869</ele>
        <time>2017-07-18T15:53:51Z</time>
      </trkpt>
      <trkpt lat="45.78287" lon="3.00731">
        <ele>869.2</ele>
        <time>2017-07-18T15:53:51Z</time>
      </trkpt>
      <trkpt lat="45.78285" lon="3.00729">
        <ele>869.4</ele>
        <time>2017-07-18T15:53:51Z</time>
      </trkpt>
      <trkpt lat="45.78284" lon="3.00726">
        <ele>869.6</ele>
        <time>2017-07-18T15:53:51Z</time>
      </trkpt>
      <trkpt lat="45.78281" lon="3.00724">
        <ele>869.7</ele>
        <time>2017-07-18T15:53:51Z</time>
      </trkpt>
      <trkpt lat="45.7828" lon="3.00722">
        <ele>869.9</ele>
        <time>2017-07-18T15:53:51Z</time>
      </trkpt>
      <trkpt lat="45.78279" lon="3.0072">
        <ele>870</ele>
        <time>2017-07-18T15:53:51Z</time>
      </trkpt>
      <trkpt lat="45.78277" lon="3.00717">
        <ele>870.2</ele>
        <time>2017-07-18T15:53:51Z</time>
      </trkpt>
      <trkpt lat="45.78275" lon="3.00715">
        <ele>870.3</ele>
        <time>2017-07-18T15:53:51Z</time>
      </trkpt>
      <trkpt lat="45.78273" lon="3.00713">
        <ele>870.5</ele>
        <time>2017-07-18T15:53:51Z</time>
      </trkpt>
      <trkpt lat="45.78271" lon="3.00711">
        <ele>870.6</ele>
        <time>2017-07-18T15:53:51Z</time>
      </trkpt>
      <trkpt lat="45.78269" lon="3.0071">
        <ele>870.7</ele>
        <time>2017-07-18T15:53:51Z</time>
      </trkpt>
      <trkpt lat="45.78267" lon="3.00707">
        <ele>870.8</ele>
        <time>2017-07-18T15:53:51Z</time>
      </trkpt>
      <trkpt lat="45.78264" lon="3.00705">
        <ele>871</ele>
        <time>2017-07-18T15:53:51Z</time>
      </trkpt>
      <trkpt lat="45.78262" lon="3.00704">
        <ele>871.1</ele>
        <time>2017-07-18T15:53:51Z</time>
      </trkpt>
      <trkpt lat="45.7826" lon="3.00702">
        <ele>871.2</ele>
        <time>2017-07-18T15:53:51Z</time>
      </trkpt>
      <trkpt lat="45.78257" lon="3.007">
        <ele>871.3</ele>
        <time>2017-07-18T15:53:51Z</time>
      </trkpt>
      <trkpt lat="45.78256" lon="3.00699">
        <ele>871.4</ele>
        <time>2017-07-18T15:53:51Z</time>
      </trkpt>
      <trkpt lat="45.78254" lon="3.00697">
        <ele>871.5</ele>
        <time>2017-07-18T15:53:51Z</time>
      </trkpt>
      <trkpt lat="45.78252" lon="3.00696">
        <ele>871.6</ele>
        <time>2017-07-18T15:53:51Z</time>
      </trkpt>
      <trkpt lat="45.7825" lon="3.00694">
        <ele>871.7</ele>
        <time>2017-07-18T15:53:51Z</time>
      </trkpt>
      <trkpt lat="45.78248" lon="3.00692">
        <ele>871.9</ele>
        <time>2017-07-18T15:53:51Z</time>
      </trkpt>
      <trkpt lat="45.78245" lon="3.0069">
        <ele>872.1</ele>
        <time>2017-07-18T15:53:51Z</time>
      </trkpt>
      <trkpt lat="45.78243" lon="3.00688">
        <ele>872.3</ele>
        <time>2017-07-18T15:53:51Z</time>
      </trkpt>
      <trkpt lat="45.78241" lon="3.00687">
        <ele>872.4</ele>
        <time>2017-07-18T15:53:51Z</time>
      </trkpt>
      <trkpt lat="45.78238" lon="3.00686">
        <ele>872.6</ele>
        <time>2017-07-18T15:53:51Z</time>
      </trkpt>
      <trkpt lat="45.78236" lon="3.00685">
        <ele>872.7</ele>
        <time>2017-07-18T15:53:51Z</time>
      </trkpt>
      <trkpt lat="45.78234" lon="3.00684">
        <ele>872.9</ele>
        <time>2017-07-18T15:53:51Z</time>
      </trkpt>
      <trkpt lat="45.78232" lon="3.00684">
        <ele>873</ele>
        <time>2017-07-18T15:53:51Z</time>
      </trkpt>
      <trkpt lat="45.78229" lon="3.00682">
        <ele>873.1</ele>
        <time>2017-07-18T15:53:51Z</time>
      </trkpt>
      <trkpt lat="45.78227" lon="3.00681">
        <ele>873.3</ele>
        <time>2017-07-18T15:53:51Z</time>
      </trkpt>
      <trkpt lat="45.78225" lon="3.00679">
        <ele>873.4</ele>
        <time>2017-07-18T15:53:51Z</time>
      </trkpt>
      <trkpt lat="45.78224" lon="3.00678">
        <ele>873.6</ele>
        <time>2017-07-18T15:53:51Z</time>
      </trkpt>
      <trkpt lat="45.78222" lon="3.00677">
        <ele>873.7</ele>
        <time>2017-07-18T15:53:51Z</time>
      </trkpt>
      <trkpt lat="45.7822" lon="3.00675">
        <ele>873.8</ele>
        <time>2017-07-18T15:53:51Z</time>
      </trkpt>
      <trkpt lat="45.78218" lon="3.00674">
        <ele>873.9</ele>
        <time>2017-07-18T15:53:51Z</time>
      </trkpt>
      <trkpt lat="45.78216" lon="3.00672">
        <ele>874.1</ele>
        <time>2017-07-18T15:53:51Z</time>
      </trkpt>
      <trkpt lat="45.78214" lon="3.00671">
        <ele>874.2</ele>
        <time>2017-07-18T15:53:51Z</time>
      </trkpt>
      <trkpt lat="45.78212" lon="3.0067">
        <ele>874.3</ele>
        <time>2017-07-18T15:53:51Z</time>
      </trkpt>
      <trkpt lat="45.78211" lon="3.00668">
        <ele>874.4</ele>
        <time>2017-07-18T15:53:51Z</time>
      </trkpt>
      <trkpt lat="45.78209" lon="3.00666">
        <ele>874.5</ele>
        <time>2017-07-18T15:53:51Z</time>
      </trkpt>
      <trkpt lat="45.78206" lon="3.00663">
        <ele>874.6</ele>
        <time>2017-07-18T15:53:51Z</time>
      </trkpt>
      <trkpt lat="45.78204" lon="3.00661">
        <ele>874.6</ele>
        <time>2017-07-18T15:53:51Z</time>
      </trkpt>
      <trkpt lat="45.78203" lon="3.00659">
        <ele>874.6</ele>
        <time>2017-07-18T15:53:51Z</time>
      </trkpt>
      <trkpt lat="45.78201" lon="3.00658">
        <ele>874.7</ele>
        <time>2017-07-18T15:53:51Z</time>
      </trkpt>
      <trkpt lat="45.78199" lon="3.00657">
        <ele>874.7</ele>
        <time>2017-07-18T15:53:51Z</time>
      </trkpt>
      <trkpt lat="45.78198" lon="3.00656">
        <ele>874.8</ele>
        <time>2017-07-18T15:53:51Z</time>
      </trkpt>
      <trkpt lat="45.78198" lon="3.00657">
        <ele>874.8</ele>
        <time>2017-07-18T15:53:51Z</time>
      </trkpt>
      <trkpt lat="45.78199" lon="3.00658">
        <ele>874.7</ele>
        <time>2017-07-18T15:53:51Z</time>
      </trkpt>
      <trkpt lat="45.782" lon="3.00658">
        <ele>874.7</ele>
        <time>2017-07-18T15:53:51Z</time>
      </trkpt>
      <trkpt lat="45.782" lon="3.00658">
        <ele>874.7</ele>
        <time>2017-07-18T15:53:51Z</time>
      </trkpt>
      <trkpt lat="45.78199" lon="3.00652">
        <ele>874.7</ele>
        <time>2017-07-18T15:53:51Z</time>
      </trkpt>
      <trkpt lat="45.78198" lon="3.0065">
        <ele>874.7</ele>
        <time>2017-07-18T15:53:51Z</time>
      </trkpt>
      <trkpt lat="45.78197" lon="3.00649">
        <ele>874.7</ele>
        <time>2017-07-18T15:53:51Z</time>
      </trkpt>
      <trkpt lat="45.78196" lon="3.00648">
        <ele>874.7</ele>
        <time>2017-07-18T15:53:51Z</time>
      </trkpt>
      <trkpt lat="45.78194" lon="3.00646">
        <ele>874.8</ele>
        <time>2017-07-18T15:53:51Z</time>
      </trkpt>
      <trkpt lat="45.78192" lon="3.00644">
        <ele>874.8</ele>
        <time>2017-07-18T15:53:51Z</time>
      </trkpt>
      <trkpt lat="45.7819" lon="3.00642">
        <ele>874.8</ele>
        <time>2017-07-18T15:53:51Z</time>
      </trkpt>
      <trkpt lat="45.78188" lon="3.00641">
        <ele>874.8</ele>
        <time>2017-07-18T15:53:51Z</time>
      </trkpt>
      <trkpt lat="45.78187" lon="3.00639">
        <ele>874.9</ele>
        <time>2017-07-18T15:53:51Z</time>
      </trkpt>
      <trkpt lat="45.78185" lon="3.00637">
        <ele>874.9</ele>
        <time>2017-07-18T15:53:51Z</time>
      </trkpt>
      <trkpt lat="45.78183" lon="3.00636">
        <ele>874.9</ele>
        <time>2017-07-18T15:53:51Z</time>
      </trkpt>
      <trkpt lat="45.78181" lon="3.00634">
        <ele>874.9</ele>
        <time>2017-07-18T15:53:51Z</time>
      </trkpt>
      <trkpt lat="45.78179" lon="3.00633">
        <ele>874.9</ele>
        <time>2017-07-18T15:53:51Z</time>
      </trkpt>
      <trkpt lat="45.78177" lon="3.00631">
        <ele>874.9</ele>
        <time>2017-07-18T15:53:51Z</time>
      </trkpt>
      <trkpt lat="45.78175" lon="3.0063">
        <ele>874.9</ele>
        <time>2017-07-18T15:53:51Z</time>
      </trkpt>
      <trkpt lat="45.78173" lon="3.00628">
        <ele>875</ele>
        <time>2017-07-18T15:53:51Z</time>
      </trkpt>
      <trkpt lat="45.7817" lon="3.00627">
        <ele>875</ele>
        <time>2017-07-18T15:53:51Z</time>
      </trkpt>
      <trkpt lat="45.78168" lon="3.00626">
        <ele>875</ele>
        <time>2017-07-18T15:53:51Z</time>
      </trkpt>
      <trkpt lat="45.78166" lon="3.00625">
        <ele>874.9</ele>
        <time>2017-07-18T15:53:51Z</time>
      </trkpt>
      <trkpt lat="45.78164" lon="3.00624">
        <ele>874.6</ele>
        <time>2017-07-18T15:53:51Z</time>
      </trkpt>
      <trkpt lat="45.78162" lon="3.00623">
        <ele>874.3</ele>
        <time>2017-07-18T15:53:51Z</time>
      </trkpt>
      <trkpt lat="45.7816" lon="3.00621">
        <ele>874.1</ele>
        <time>2017-07-18T15:53:51Z</time>
      </trkpt>
      <trkpt lat="45.78158" lon="3.0062">
        <ele>873.8</ele>
        <time>2017-07-18T15:53:51Z</time>
      </trkpt>
      <trkpt lat="45.78156" lon="3.00619">
        <ele>873.5</ele>
        <time>2017-07-18T15:53:51Z</time>
      </trkpt>
      <trkpt lat="45.78154" lon="3.00618">
        <ele>873.2</ele>
        <time>2017-07-18T15:53:51Z</time>
      </trkpt>
      <trkpt lat="45.78152" lon="3.00617">
        <ele>872.9</ele>
        <time>2017-07-18T15:53:51Z</time>
      </trkpt>
      <trkpt lat="45.7815" lon="3.00616">
        <ele>872.6</ele>
        <time>2017-07-18T15:53:51Z</time>
      </trkpt>
      <trkpt lat="45.78148" lon="3.00615">
        <ele>872.3</ele>
        <time>2017-07-18T15:53:51Z</time>
      </trkpt>
      <trkpt lat="45.78146" lon="3.00614">
        <ele>872</ele>
        <time>2017-07-18T15:53:51Z</time>
      </trkpt>
      <trkpt lat="45.78144" lon="3.00614">
        <ele>871.7</ele>
        <time>2017-07-18T15:53:51Z</time>
      </trkpt>
      <trkpt lat="45.78141" lon="3.00613">
        <ele>871.4</ele>
        <time>2017-07-18T15:53:51Z</time>
      </trkpt>
      <trkpt lat="45.78139" lon="3.00613">
        <ele>871.1</ele>
        <time>2017-07-18T15:53:51Z</time>
      </trkpt>
      <trkpt lat="45.78137" lon="3.00612">
        <ele>870.8</ele>
        <time>2017-07-18T15:53:51Z</time>
      </trkpt>
      <trkpt lat="45.78136" lon="3.00612">
        <ele>870.6</ele>
        <time>2017-07-18T15:53:51Z</time>
      </trkpt>
      <trkpt lat="45.78134" lon="3.00612">
        <ele>870.3</ele>
        <time>2017-07-18T15:53:51Z</time>
      </trkpt>
      <trkpt lat="45.78133" lon="3.00611">
        <ele>870.2</ele>
        <time>2017-07-18T15:53:51Z</time>
      </trkpt>
      <trkpt lat="45.78132" lon="3.00611">
        <ele>870.1</ele>
        <time>2017-07-18T15:53:51Z</time>
      </trkpt>
      <trkpt lat="45.78133" lon="3.00611">
        <ele>870.2</ele>
        <time>2017-07-18T15:53:51Z</time>
      </trkpt>
      <trkpt lat="45.78132" lon="3.00611">
        <ele>870.1</ele>
        <time>2017-07-18T15:53:51Z</time>
      </trkpt>
      <trkpt lat="45.7813" lon="3.0061">
        <ele>869.8</ele>
        <time>2017-07-18T15:53:51Z</time>
      </trkpt>
      <trkpt lat="45.78128" lon="3.00609">
        <ele>869.5</ele>
        <time>2017-07-18T15:53:51Z</time>
      </trkpt>
      <trkpt lat="45.78126" lon="3.00609">
        <ele>869.2</ele>
        <time>2017-07-18T15:53:51Z</time>
      </trkpt>
      <trkpt lat="45.78123" lon="3.00608">
        <ele>868.8</ele>
        <time>2017-07-18T15:53:51Z</time>
      </trkpt>
      <trkpt lat="45.78121" lon="3.00608">
        <ele>868.5</ele>
        <time>2017-07-18T15:53:51Z</time>
      </trkpt>
      <trkpt lat="45.78118" lon="3.00607">
        <ele>868.2</ele>
        <time>2017-07-18T15:53:51Z</time>
      </trkpt>
      <trkpt lat="45.78116" lon="3.00607">
        <ele>867.9</ele>
        <time>2017-07-18T15:53:51Z</time>
      </trkpt>
      <trkpt lat="45.78114" lon="3.00606">
        <ele>867.6</ele>
        <time>2017-07-18T15:53:51Z</time>
      </trkpt>
      <trkpt lat="45.78112" lon="3.00605">
        <ele>867.3</ele>
        <time>2017-07-18T15:53:51Z</time>
      </trkpt>
      <trkpt lat="45.7811" lon="3.00604">
        <ele>867.1</ele>
        <time>2017-07-18T15:53:51Z</time>
      </trkpt>
      <trkpt lat="45.78108" lon="3.00603">
        <ele>866.8</ele>
        <time>2017-07-18T15:53:51Z</time>
      </trkpt>
      <trkpt lat="45.78107" lon="3.00602">
        <ele>866.5</ele>
        <time>2017-07-18T15:53:51Z</time>
      </trkpt>
      <trkpt lat="45.78104" lon="3.006">
        <ele>866.2</ele>
        <time>2017-07-18T15:53:51Z</time>
      </trkpt>
      <trkpt lat="45.78102" lon="3.00598">
        <ele>865.9</ele>
        <time>2017-07-18T15:53:51Z</time>
      </trkpt>
      <trkpt lat="45.78101" lon="3.00596">
        <ele>865.6</ele>
        <time>2017-07-18T15:53:51Z</time>
      </trkpt>
      <trkpt lat="45.78099" lon="3.00594">
        <ele>865.3</ele>
        <time>2017-07-18T15:53:51Z</time>
      </trkpt>
      <trkpt lat="45.78098" lon="3.00591">
        <ele>865.1</ele>
        <time>2017-07-18T15:53:51Z</time>
      </trkpt>
      <trkpt lat="45.78097" lon="3.00588">
        <ele>864.9</ele>
        <time>2017-07-18T15:53:51Z</time>
      </trkpt>
      <trkpt lat="45.78096" lon="3.00584">
        <ele>864.7</ele>
        <time>2017-07-18T15:53:51Z</time>
      </trkpt>
      <trkpt lat="45.78095" lon="3.00581">
        <ele>864.6</ele>
        <time>2017-07-18T15:53:51Z</time>
      </trkpt>
      <trkpt lat="45.78094" lon="3.00578">
        <ele>864.6</ele>
        <time>2017-07-18T15:53:51Z</time>
      </trkpt>
      <trkpt lat="45.78094" lon="3.00574">
        <ele>864.5</ele>
        <time>2017-07-18T15:53:51Z</time>
      </trkpt>
      <trkpt lat="45.78093" lon="3.00571">
        <ele>864.5</ele>
        <time>2017-07-18T15:53:51Z</time>
      </trkpt>
      <trkpt lat="45.78092" lon="3.00568">
        <ele>864.5</ele>
        <time>2017-07-18T15:53:51Z</time>
      </trkpt>
      <trkpt lat="45.78092" lon="3.00565">
        <ele>864.5</ele>
        <time>2017-07-18T15:53:51Z</time>
      </trkpt>
      <trkpt lat="45.78091" lon="3.00563">
        <ele>864.5</ele>
        <time>2017-07-18T15:53:51Z</time>
      </trkpt>
      <trkpt lat="45.7809" lon="3.0056">
        <ele>864.4</ele>
        <time>2017-07-18T15:53:51Z</time>
      </trkpt>
      <trkpt lat="45.7809" lon="3.00557">
        <ele>864.4</ele>
        <time>2017-07-18T15:53:51Z</time>
      </trkpt>
      <trkpt lat="45.78089" lon="3.00554">
        <ele>864.3</ele>
        <time>2017-07-18T15:53:51Z</time>
      </trkpt>
      <trkpt lat="45.78088" lon="3.00551">
        <ele>864.3</ele>
        <time>2017-07-18T15:53:51Z</time>
      </trkpt>
      <trkpt lat="45.78088" lon="3.00548">
        <ele>864.3</ele>
        <time>2017-07-18T15:53:51Z</time>
      </trkpt>
      <trkpt lat="45.78087" lon="3.00545">
        <ele>864.4</ele>
        <time>2017-07-18T15:53:51Z</time>
      </trkpt>
      <trkpt lat="45.78087" lon="3.00543">
        <ele>864.4</ele>
        <time>2017-07-18T15:53:51Z</time>
      </trkpt>
      <trkpt lat="45.78086" lon="3.00541">
        <ele>864.3</ele>
        <time>2017-07-18T15:53:51Z</time>
      </trkpt>
      <trkpt lat="45.78085" lon="3.00538">
        <ele>864.2</ele>
        <time>2017-07-18T15:53:51Z</time>
      </trkpt>
      <trkpt lat="45.78084" lon="3.00534">
        <ele>864.3</ele>
        <time>2017-07-18T15:53:51Z</time>
      </trkpt>
      <trkpt lat="45.78084" lon="3.00532">
        <ele>864.3</ele>
        <time>2017-07-18T15:53:51Z</time>
      </trkpt>
      <trkpt lat="45.78084" lon="3.00529">
        <ele>864.3</ele>
        <time>2017-07-18T15:53:51Z</time>
      </trkpt>
      <trkpt lat="45.78084" lon="3.00526">
        <ele>864.4</ele>
        <time>2017-07-18T15:53:51Z</time>
      </trkpt>
      <trkpt lat="45.78084" lon="3.00524">
        <ele>864.5</ele>
        <time>2017-07-18T15:53:51Z</time>
      </trkpt>
      <trkpt lat="45.78083" lon="3.00522">
        <ele>864.5</ele>
        <time>2017-07-18T15:53:51Z</time>
      </trkpt>
      <trkpt lat="45.78083" lon="3.00519">
        <ele>864.5</ele>
        <time>2017-07-18T15:53:51Z</time>
      </trkpt>
      <trkpt lat="45.78083" lon="3.00517">
        <ele>864.6</ele>
        <time>2017-07-18T15:53:51Z</time>
      </trkpt>
      <trkpt lat="45.78083" lon="3.00517">
        <ele>864.6</ele>
        <time>2017-07-18T15:53:51Z</time>
      </trkpt>
      <trkpt lat="45.7808" lon="3.00513">
        <ele>864.1</ele>
        <time>2017-07-18T15:53:51Z</time>
      </trkpt>
      <trkpt lat="45.78079" lon="3.0051">
        <ele>864.1</ele>
        <time>2017-07-18T15:53:51Z</time>
      </trkpt>
      <trkpt lat="45.78078" lon="3.00507">
        <ele>864.1</ele>
        <time>2017-07-18T15:53:51Z</time>
      </trkpt>
      <trkpt lat="45.78077" lon="3.00505">
        <ele>864</ele>
        <time>2017-07-18T15:53:51Z</time>
      </trkpt>
      <trkpt lat="45.78077" lon="3.00502">
        <ele>864</ele>
        <time>2017-07-18T15:53:51Z</time>
      </trkpt>
      <trkpt lat="45.78076" lon="3.005">
        <ele>864</ele>
        <time>2017-07-18T15:53:51Z</time>
      </trkpt>
      <trkpt lat="45.78075" lon="3.00497">
        <ele>863.9</ele>
        <time>2017-07-18T15:53:51Z</time>
      </trkpt>
      <trkpt lat="45.78073" lon="3.00494">
        <ele>863.6</ele>
        <time>2017-07-18T15:53:51Z</time>
      </trkpt>
      <trkpt lat="45.78072" lon="3.00492">
        <ele>863.5</ele>
        <time>2017-07-18T15:53:51Z</time>
      </trkpt>
      <trkpt lat="45.7807" lon="3.0049">
        <ele>863.4</ele>
        <time>2017-07-18T15:53:51Z</time>
      </trkpt>
      <trkpt lat="45.78069" lon="3.00488">
        <ele>863.3</ele>
        <time>2017-07-18T15:53:51Z</time>
      </trkpt>
      <trkpt lat="45.78067" lon="3.00485">
        <ele>863.1</ele>
        <time>2017-07-18T15:53:51Z</time>
      </trkpt>
      <trkpt lat="45.78066" lon="3.00483">
        <ele>862.9</ele>
        <time>2017-07-18T15:53:51Z</time>
      </trkpt>
      <trkpt lat="45.78064" lon="3.00482">
        <ele>862.7</ele>
        <time>2017-07-18T15:53:51Z</time>
      </trkpt>
      <trkpt lat="45.78062" lon="3.00479">
        <ele>862.5</ele>
        <time>2017-07-18T15:53:51Z</time>
      </trkpt>
      <trkpt lat="45.78061" lon="3.00478">
        <ele>862.3</ele>
        <time>2017-07-18T15:53:51Z</time>
      </trkpt>
      <trkpt lat="45.78059" lon="3.00476">
        <ele>862.2</ele>
        <time>2017-07-18T15:53:51Z</time>
      </trkpt>
      <trkpt lat="45.78058" lon="3.00474">
        <ele>862</ele>
        <time>2017-07-18T15:53:51Z</time>
      </trkpt>
      <trkpt lat="45.78056" lon="3.00471">
        <ele>861.9</ele>
        <time>2017-07-18T15:53:51Z</time>
      </trkpt>
      <trkpt lat="45.78055" lon="3.00468">
        <ele>861.8</ele>
        <time>2017-07-18T15:53:51Z</time>
      </trkpt>
      <trkpt lat="45.78054" lon="3.00464">
        <ele>861.7</ele>
        <time>2017-07-18T15:53:51Z</time>
      </trkpt>
      <trkpt lat="45.78053" lon="3.00461">
        <ele>861.7</ele>
        <time>2017-07-18T15:53:51Z</time>
      </trkpt>
      <trkpt lat="45.78052" lon="3.00458">
        <ele>861.7</ele>
        <time>2017-07-18T15:53:51Z</time>
      </trkpt>
      <trkpt lat="45.78051" lon="3.00455">
        <ele>861.7</ele>
        <time>2017-07-18T15:53:51Z</time>
      </trkpt>
      <trkpt lat="45.7805" lon="3.00452">
        <ele>861.6</ele>
        <time>2017-07-18T15:53:51Z</time>
      </trkpt>
      <trkpt lat="45.78049" lon="3.0045">
        <ele>861.5</ele>
        <time>2017-07-18T15:53:51Z</time>
      </trkpt>
      <trkpt lat="45.78048" lon="3.00447">
        <ele>861.4</ele>
        <time>2017-07-18T15:53:51Z</time>
      </trkpt>
      <trkpt lat="45.78047" lon="3.00444">
        <ele>861.4</ele>
        <time>2017-07-18T15:53:51Z</time>
      </trkpt>
      <trkpt lat="45.78045" lon="3.00441">
        <ele>861.2</ele>
        <time>2017-07-18T15:53:51Z</time>
      </trkpt>
      <trkpt lat="45.78045" lon="3.00439">
        <ele>861.2</ele>
        <time>2017-07-18T15:53:51Z</time>
      </trkpt>
      <trkpt lat="45.78042" lon="3.00435">
        <ele>861.1</ele>
        <time>2017-07-18T15:53:51Z</time>
      </trkpt>
      <trkpt lat="45.78041" lon="3.00432">
        <ele>860.9</ele>
        <time>2017-07-18T15:53:51Z</time>
      </trkpt>
      <trkpt lat="45.7804" lon="3.00428">
        <ele>860.9</ele>
        <time>2017-07-18T15:53:51Z</time>
      </trkpt>
      <trkpt lat="45.7804" lon="3.00426">
        <ele>861</ele>
        <time>2017-07-18T15:53:51Z</time>
      </trkpt>
      <trkpt lat="45.78042" lon="3.00424">
        <ele>861.3</ele>
        <time>2017-07-18T15:53:51Z</time>
      </trkpt>
      <trkpt lat="45.78041" lon="3.00422">
        <ele>861.3</ele>
        <time>2017-07-18T15:53:51Z</time>
      </trkpt>
      <trkpt lat="45.78041" lon="3.00419">
        <ele>861.3</ele>
        <time>2017-07-18T15:53:51Z</time>
      </trkpt>
      <trkpt lat="45.78039" lon="3.00416">
        <ele>861.1</ele>
        <time>2017-07-18T15:53:51Z</time>
      </trkpt>
      <trkpt lat="45.78038" lon="3.00414">
        <ele>861.1</ele>
        <time>2017-07-18T15:53:51Z</time>
      </trkpt>
      <trkpt lat="45.78037" lon="3.0041">
        <ele>861</ele>
        <time>2017-07-18T15:53:51Z</time>
      </trkpt>
      <trkpt lat="45.78034" lon="3.00407">
        <ele>860.7</ele>
        <time>2017-07-18T15:53:51Z</time>
      </trkpt>
      <trkpt lat="45.78033" lon="3.00405">
        <ele>860.7</ele>
        <time>2017-07-18T15:53:51Z</time>
      </trkpt>
      <trkpt lat="45.78036" lon="3.00405">
        <ele>861.1</ele>
        <time>2017-07-18T15:53:51Z</time>
      </trkpt>
      <trkpt lat="45.78037" lon="3.00404">
        <ele>861.2</ele>
        <time>2017-07-18T15:53:51Z</time>
      </trkpt>
      <trkpt lat="45.78035" lon="3.00401">
        <ele>861</ele>
        <time>2017-07-18T15:53:51Z</time>
      </trkpt>
      <trkpt lat="45.78034" lon="3.00401">
        <ele>860.9</ele>
        <time>2017-07-18T15:53:51Z</time>
      </trkpt>
      <trkpt lat="45.78032" lon="3.00399">
        <ele>860.7</ele>
        <time>2017-07-18T15:53:51Z</time>
      </trkpt>
      <trkpt lat="45.78031" lon="3.00397">
        <ele>860.6</ele>
        <time>2017-07-18T15:53:51Z</time>
      </trkpt>
      <trkpt lat="45.78029" lon="3.00395">
        <ele>860.4</ele>
        <time>2017-07-18T15:53:51Z</time>
      </trkpt>
      <trkpt lat="45.78027" lon="3.00394">
        <ele>860.2</ele>
        <time>2017-07-18T15:53:51Z</time>
      </trkpt>
      <trkpt lat="45.78027" lon="3.00393">
        <ele>860.3</ele>
        <time>2017-07-18T15:53:51Z</time>
      </trkpt>
      <trkpt lat="45.78027" lon="3.00379">
        <ele>860.6</ele>
        <time>2017-07-18T15:53:51Z</time>
      </trkpt>
      <trkpt lat="45.78027" lon="3.00377">
        <ele>860.7</ele>
        <time>2017-07-18T15:53:51Z</time>
      </trkpt>
      <trkpt lat="45.78026" lon="3.00374">
        <ele>860.7</ele>
        <time>2017-07-18T15:53:51Z</time>
      </trkpt>
      <trkpt lat="45.78027" lon="3.00372">
        <ele>860.9</ele>
        <time>2017-07-18T15:53:51Z</time>
      </trkpt>
      <trkpt lat="45.78028" lon="3.00369">
        <ele>861.1</ele>
        <time>2017-07-18T15:53:51Z</time>
      </trkpt>
      <trkpt lat="45.78029" lon="3.00367">
        <ele>861.2</ele>
        <time>2017-07-18T15:53:51Z</time>
      </trkpt>
      <trkpt lat="45.7803" lon="3.00363">
        <ele>861.5</ele>
        <time>2017-07-18T15:53:51Z</time>
      </trkpt>
      <trkpt lat="45.78031" lon="3.00359">
        <ele>861.7</ele>
        <time>2017-07-18T15:53:51Z</time>
      </trkpt>
      <trkpt lat="45.78033" lon="3.00356">
        <ele>861.9</ele>
        <time>2017-07-18T15:53:51Z</time>
      </trkpt>
      <trkpt lat="45.78034" lon="3.00353">
        <ele>862.1</ele>
        <time>2017-07-18T15:53:51Z</time>
      </trkpt>
      <trkpt lat="45.78034" lon="3.0035">
        <ele>862.3</ele>
        <time>2017-07-18T15:53:51Z</time>
      </trkpt>
      <trkpt lat="45.78035" lon="3.00347">
        <ele>862.5</ele>
        <time>2017-07-18T15:53:51Z</time>
      </trkpt>
      <trkpt lat="45.78036" lon="3.00343">
        <ele>862.7</ele>
        <time>2017-07-18T15:53:51Z</time>
      </trkpt>
      <trkpt lat="45.78037" lon="3.0034">
        <ele>862.9</ele>
        <time>2017-07-18T15:53:51Z</time>
      </trkpt>
      <trkpt lat="45.78038" lon="3.00337">
        <ele>863</ele>
        <time>2017-07-18T15:53:51Z</time>
      </trkpt>
      <trkpt lat="45.78038" lon="3.00333">
        <ele>863.1</ele>
        <time>2017-07-18T15:53:51Z</time>
      </trkpt>
      <trkpt lat="45.78039" lon="3.00331">
        <ele>863.2</ele>
        <time>2017-07-18T15:53:51Z</time>
      </trkpt>
      <trkpt lat="45.7804" lon="3.00328">
        <ele>863.3</ele>
        <time>2017-07-18T15:53:51Z</time>
      </trkpt>
      <trkpt lat="45.78041" lon="3.00325">
        <ele>863.5</ele>
        <time>2017-07-18T15:53:51Z</time>
      </trkpt>
      <trkpt lat="45.78042" lon="3.00321">
        <ele>863.6</ele>
        <time>2017-07-18T15:53:51Z</time>
      </trkpt>
      <trkpt lat="45.78043" lon="3.00319">
        <ele>863.7</ele>
        <time>2017-07-18T15:53:51Z</time>
      </trkpt>
      <trkpt lat="45.78044" lon="3.00315">
        <ele>863.8</ele>
        <time>2017-07-18T15:53:51Z</time>
      </trkpt>
      <trkpt lat="45.78046" lon="3.00312">
        <ele>864</ele>
        <time>2017-07-18T15:53:51Z</time>
      </trkpt>
      <trkpt lat="45.78047" lon="3.00308">
        <ele>864.1</ele>
        <time>2017-07-18T15:53:51Z</time>
      </trkpt>
      <trkpt lat="45.78048" lon="3.00305">
        <ele>864.2</ele>
        <time>2017-07-18T15:53:51Z</time>
      </trkpt>
      <trkpt lat="45.78049" lon="3.00302">
        <ele>864.3</ele>
        <time>2017-07-18T15:53:51Z</time>
      </trkpt>
      <trkpt lat="45.7805" lon="3.00298">
        <ele>864.5</ele>
        <time>2017-07-18T15:53:51Z</time>
      </trkpt>
      <trkpt lat="45.78051" lon="3.00294">
        <ele>864.6</ele>
        <time>2017-07-18T15:53:51Z</time>
      </trkpt>
      <trkpt lat="45.78053" lon="3.00291">
        <ele>864.7</ele>
        <time>2017-07-18T15:53:51Z</time>
      </trkpt>
      <trkpt lat="45.78054" lon="3.00289">
        <ele>864.9</ele>
        <time>2017-07-18T15:53:51Z</time>
      </trkpt>
      <trkpt lat="45.78055" lon="3.00285">
        <ele>865</ele>
        <time>2017-07-18T15:53:51Z</time>
      </trkpt>
      <trkpt lat="45.78056" lon="3.00282">
        <ele>865.1</ele>
        <time>2017-07-18T15:53:51Z</time>
      </trkpt>
      <trkpt lat="45.78057" lon="3.00279">
        <ele>865.1</ele>
        <time>2017-07-18T15:53:51Z</time>
      </trkpt>
      <trkpt lat="45.78058" lon="3.00276">
        <ele>865.2</ele>
        <time>2017-07-18T15:53:51Z</time>
      </trkpt>
      <trkpt lat="45.78059" lon="3.00273">
        <ele>865.3</ele>
        <time>2017-07-18T15:53:51Z</time>
      </trkpt>
      <trkpt lat="45.78059" lon="3.00269">
        <ele>865.3</ele>
        <time>2017-07-18T15:53:51Z</time>
      </trkpt>
      <trkpt lat="45.7806" lon="3.00266">
        <ele>865.4</ele>
        <time>2017-07-18T15:53:51Z</time>
      </trkpt>
      <trkpt lat="45.78061" lon="3.00263">
        <ele>865.4</ele>
        <time>2017-07-18T15:53:51Z</time>
      </trkpt>
      <trkpt lat="45.78062" lon="3.0026">
        <ele>865.5</ele>
        <time>2017-07-18T15:53:51Z</time>
      </trkpt>
      <trkpt lat="45.78063" lon="3.00257">
        <ele>865.5</ele>
        <time>2017-07-18T15:53:51Z</time>
      </trkpt>
      <trkpt lat="45.78064" lon="3.00254">
        <ele>865.6</ele>
        <time>2017-07-18T15:53:51Z</time>
      </trkpt>
      <trkpt lat="45.78065" lon="3.00251">
        <ele>865.7</ele>
        <time>2017-07-18T15:53:51Z</time>
      </trkpt>
      <trkpt lat="45.78066" lon="3.00248">
        <ele>865.9</ele>
        <time>2017-07-18T15:53:51Z</time>
      </trkpt>
      <trkpt lat="45.78067" lon="3.00244">
        <ele>866.2</ele>
        <time>2017-07-18T15:53:51Z</time>
      </trkpt>
      <trkpt lat="45.78068" lon="3.00241">
        <ele>866.5</ele>
        <time>2017-07-18T15:53:51Z</time>
      </trkpt>
      <trkpt lat="45.78069" lon="3.00238">
        <ele>866.9</ele>
        <time>2017-07-18T15:53:51Z</time>
      </trkpt>
      <trkpt lat="45.7807" lon="3.00235">
        <ele>867.2</ele>
        <time>2017-07-18T15:53:51Z</time>
      </trkpt>
      <trkpt lat="45.78072" lon="3.00232">
        <ele>867.5</ele>
        <time>2017-07-18T15:53:51Z</time>
      </trkpt>
      <trkpt lat="45.78073" lon="3.0023">
        <ele>867.8</ele>
        <time>2017-07-18T15:53:51Z</time>
      </trkpt>
      <trkpt lat="45.78075" lon="3.00228">
        <ele>868</ele>
        <time>2017-07-18T15:53:51Z</time>
      </trkpt>
      <trkpt lat="45.78076" lon="3.00225">
        <ele>868.3</ele>
        <time>2017-07-18T15:53:51Z</time>
      </trkpt>
      <trkpt lat="45.78077" lon="3.00223">
        <ele>868.6</ele>
        <time>2017-07-18T15:53:51Z</time>
      </trkpt>
      <trkpt lat="45.78079" lon="3.00219">
        <ele>868.9</ele>
        <time>2017-07-18T15:53:51Z</time>
      </trkpt>
      <trkpt lat="45.7808" lon="3.00216">
        <ele>869.2</ele>
        <time>2017-07-18T15:53:51Z</time>
      </trkpt>
      <trkpt lat="45.78081" lon="3.00213">
        <ele>869.5</ele>
        <time>2017-07-18T15:53:51Z</time>
      </trkpt>
      <trkpt lat="45.78082" lon="3.0021">
        <ele>869.8</ele>
        <time>2017-07-18T15:53:51Z</time>
      </trkpt>
      <trkpt lat="45.78084" lon="3.00208">
        <ele>870.1</ele>
        <time>2017-07-18T15:53:51Z</time>
      </trkpt>
      <trkpt lat="45.78085" lon="3.00205">
        <ele>870.4</ele>
        <time>2017-07-18T15:53:51Z</time>
      </trkpt>
      <trkpt lat="45.78087" lon="3.00202">
        <ele>870.6</ele>
        <time>2017-07-18T15:53:51Z</time>
      </trkpt>
      <trkpt lat="45.78088" lon="3.00199">
        <ele>870.9</ele>
        <time>2017-07-18T15:53:51Z</time>
      </trkpt>
      <trkpt lat="45.78089" lon="3.00196">
        <ele>871.2</ele>
        <time>2017-07-18T15:53:51Z</time>
      </trkpt>
      <trkpt lat="45.7809" lon="3.00193">
        <ele>871.5</ele>
        <time>2017-07-18T15:53:51Z</time>
      </trkpt>
      <trkpt lat="45.7809" lon="3.00188">
        <ele>871.8</ele>
        <time>2017-07-18T15:53:51Z</time>
      </trkpt>
      <trkpt lat="45.78091" lon="3.00184">
        <ele>872.2</ele>
        <time>2017-07-18T15:53:51Z</time>
      </trkpt>
      <trkpt lat="45.78092" lon="3.00181">
        <ele>872.4</ele>
        <time>2017-07-18T15:53:51Z</time>
      </trkpt>
      <trkpt lat="45.78092" lon="3.00177">
        <ele>872.7</ele>
        <time>2017-07-18T15:53:51Z</time>
      </trkpt>
      <trkpt lat="45.78093" lon="3.00174">
        <ele>873</ele>
        <time>2017-07-18T15:53:51Z</time>
      </trkpt>
      <trkpt lat="45.78093" lon="3.0017">
        <ele>873.2</ele>
        <time>2017-07-18T15:53:51Z</time>
      </trkpt>
      <trkpt lat="45.78094" lon="3.00167">
        <ele>873.5</ele>
        <time>2017-07-18T15:53:51Z</time>
      </trkpt>
      <trkpt lat="45.78094" lon="3.00163">
        <ele>873.7</ele>
        <time>2017-07-18T15:53:51Z</time>
      </trkpt>
      <trkpt lat="45.78093" lon="3.00159">
        <ele>874</ele>
        <time>2017-07-18T15:53:51Z</time>
      </trkpt>
      <trkpt lat="45.78092" lon="3.00155">
        <ele>874.3</ele>
        <time>2017-07-18T15:53:51Z</time>
      </trkpt>
      <trkpt lat="45.78092" lon="3.00151">
        <ele>874.5</ele>
        <time>2017-07-18T15:53:51Z</time>
      </trkpt>
      <trkpt lat="45.78092" lon="3.00148">
        <ele>874.7</ele>
        <time>2017-07-18T15:53:51Z</time>
      </trkpt>
      <trkpt lat="45.78091" lon="3.00145">
        <ele>874.9</ele>
        <time>2017-07-18T15:53:51Z</time>
      </trkpt>
      <trkpt lat="45.78091" lon="3.00141">
        <ele>875.1</ele>
        <time>2017-07-18T15:53:51Z</time>
      </trkpt>
      <trkpt lat="45.78091" lon="3.00138">
        <ele>875.4</ele>
        <time>2017-07-18T15:53:51Z</time>
      </trkpt>
      <trkpt lat="45.78091" lon="3.00135">
        <ele>875.6</ele>
        <time>2017-07-18T15:53:51Z</time>
      </trkpt>
      <trkpt lat="45.78091" lon="3.00131">
        <ele>875.9</ele>
        <time>2017-07-18T15:53:51Z</time>
      </trkpt>
      <trkpt lat="45.78092" lon="3.00126">
        <ele>876.2</ele>
        <time>2017-07-18T15:53:51Z</time>
      </trkpt>
      <trkpt lat="45.78093" lon="3.00123">
        <ele>876.5</ele>
        <time>2017-07-18T15:53:51Z</time>
      </trkpt>
      <trkpt lat="45.78094" lon="3.0012">
        <ele>876.7</ele>
        <time>2017-07-18T15:53:51Z</time>
      </trkpt>
      <trkpt lat="45.78095" lon="3.00117">
        <ele>877</ele>
        <time>2017-07-18T15:53:51Z</time>
      </trkpt>
      <trkpt lat="45.78096" lon="3.00114">
        <ele>877.2</ele>
        <time>2017-07-18T15:53:51Z</time>
      </trkpt>
      <trkpt lat="45.78097" lon="3.00111">
        <ele>877.5</ele>
        <time>2017-07-18T15:53:51Z</time>
      </trkpt>
      <trkpt lat="45.78098" lon="3.00109">
        <ele>877.6</ele>
        <time>2017-07-18T15:53:51Z</time>
      </trkpt>
      <trkpt lat="45.78099" lon="3.00107">
        <ele>877.8</ele>
        <time>2017-07-18T15:53:51Z</time>
      </trkpt>
      <trkpt lat="45.781" lon="3.00104">
        <ele>878</ele>
        <time>2017-07-18T15:53:51Z</time>
      </trkpt>
      <trkpt lat="45.78101" lon="3.001">
        <ele>878.3</ele>
        <time>2017-07-18T15:53:51Z</time>
      </trkpt>
      <trkpt lat="45.78102" lon="3.00097">
        <ele>878.6</ele>
        <time>2017-07-18T15:53:51Z</time>
      </trkpt>
      <trkpt lat="45.78104" lon="3.00093">
        <ele>878.9</ele>
        <time>2017-07-18T15:53:51Z</time>
      </trkpt>
      <trkpt lat="45.78105" lon="3.00089">
        <ele>879.1</ele>
        <time>2017-07-18T15:53:51Z</time>
      </trkpt>
      <trkpt lat="45.78106" lon="3.00088">
        <ele>879.2</ele>
        <time>2017-07-18T15:53:51Z</time>
      </trkpt>
      <trkpt lat="45.78094" lon="3.00089">
        <ele>878.9</ele>
        <time>2017-07-18T15:53:51Z</time>
      </trkpt>
      <trkpt lat="45.78094" lon="3.00087">
        <ele>879</ele>
        <time>2017-07-18T15:53:51Z</time>
      </trkpt>
      <trkpt lat="45.78096" lon="3.00085">
        <ele>879.2</ele>
        <time>2017-07-18T15:53:51Z</time>
      </trkpt>
      <trkpt lat="45.78097" lon="3.00081">
        <ele>879.4</ele>
        <time>2017-07-18T15:53:51Z</time>
      </trkpt>
      <trkpt lat="45.78098" lon="3.00078">
        <ele>879.5</ele>
        <time>2017-07-18T15:53:51Z</time>
      </trkpt>
      <trkpt lat="45.78098" lon="3.00075">
        <ele>879.6</ele>
        <time>2017-07-18T15:53:51Z</time>
      </trkpt>
      <trkpt lat="45.78098" lon="3.00071">
        <ele>879.7</ele>
        <time>2017-07-18T15:53:51Z</time>
      </trkpt>
      <trkpt lat="45.78098" lon="3.00068">
        <ele>879.8</ele>
        <time>2017-07-18T15:53:51Z</time>
      </trkpt>
      <trkpt lat="45.78098" lon="3.00064">
        <ele>879.9</ele>
        <time>2017-07-18T15:53:51Z</time>
      </trkpt>
      <trkpt lat="45.78097" lon="3.0006">
        <ele>879.9</ele>
        <time>2017-07-18T15:53:51Z</time>
      </trkpt>
      <trkpt lat="45.78097" lon="3.00057">
        <ele>880</ele>
        <time>2017-07-18T15:53:51Z</time>
      </trkpt>
      <trkpt lat="45.78098" lon="3.00053">
        <ele>880.1</ele>
        <time>2017-07-18T15:53:51Z</time>
      </trkpt>
      <trkpt lat="45.78099" lon="3.0005">
        <ele>880.3</ele>
        <time>2017-07-18T15:53:51Z</time>
      </trkpt>
      <trkpt lat="45.781" lon="3.00045">
        <ele>880.4</ele>
        <time>2017-07-18T15:53:51Z</time>
      </trkpt>
      <trkpt lat="45.78101" lon="3.00042">
        <ele>880.5</ele>
        <time>2017-07-18T15:53:51Z</time>
      </trkpt>
      <trkpt lat="45.781" lon="3.00038">
        <ele>880.6</ele>
        <time>2017-07-18T15:53:51Z</time>
      </trkpt>
      <trkpt lat="45.781" lon="3.00035">
        <ele>880.7</ele>
        <time>2017-07-18T15:53:51Z</time>
      </trkpt>
      <trkpt lat="45.781" lon="3.00032">
        <ele>880.8</ele>
        <time>2017-07-18T15:53:51Z</time>
      </trkpt>
      <trkpt lat="45.781" lon="3.00028">
        <ele>880.9</ele>
        <time>2017-07-18T15:53:51Z</time>
      </trkpt>
      <trkpt lat="45.781" lon="3.00024">
        <ele>881</ele>
        <time>2017-07-18T15:53:51Z</time>
      </trkpt>
      <trkpt lat="45.781" lon="3.00021">
        <ele>881</ele>
        <time>2017-07-18T15:53:51Z</time>
      </trkpt>
      <trkpt lat="45.781" lon="3.00018">
        <ele>881.1</ele>
        <time>2017-07-18T15:53:51Z</time>
      </trkpt>
      <trkpt lat="45.781" lon="3.00014">
        <ele>881.3</ele>
        <time>2017-07-18T15:53:51Z</time>
      </trkpt>
      <trkpt lat="45.781" lon="3.0001">
        <ele>881.3</ele>
        <time>2017-07-18T15:53:51Z</time>
      </trkpt>
      <trkpt lat="45.78101" lon="3.00007">
        <ele>881.4</ele>
        <time>2017-07-18T15:53:51Z</time>
      </trkpt>
      <trkpt lat="45.781" lon="3.00003">
        <ele>881.5</ele>
        <time>2017-07-18T15:53:51Z</time>
      </trkpt>
      <trkpt lat="45.781" lon="2.99999">
        <ele>881.6</ele>
        <time>2017-07-18T15:53:51Z</time>
      </trkpt>
      <trkpt lat="45.78101" lon="2.99996">
        <ele>881.7</ele>
        <time>2017-07-18T15:53:51Z</time>
      </trkpt>
      <trkpt lat="45.78101" lon="2.99992">
        <ele>881.8</ele>
        <time>2017-07-18T15:53:51Z</time>
      </trkpt>
      <trkpt lat="45.78101" lon="2.99989">
        <ele>881.9</ele>
        <time>2017-07-18T15:53:51Z</time>
      </trkpt>
      <trkpt lat="45.78101" lon="2.99985">
        <ele>882</ele>
        <time>2017-07-18T15:53:51Z</time>
      </trkpt>
      <trkpt lat="45.78101" lon="2.99982">
        <ele>882.1</ele>
        <time>2017-07-18T15:53:51Z</time>
      </trkpt>
      <trkpt lat="45.78101" lon="2.99978">
        <ele>882.2</ele>
        <time>2017-07-18T15:53:51Z</time>
      </trkpt>
      <trkpt lat="45.78102" lon="2.99975">
        <ele>882.3</ele>
        <time>2017-07-18T15:53:51Z</time>
      </trkpt>
      <trkpt lat="45.78103" lon="2.99971">
        <ele>882.4</ele>
        <time>2017-07-18T15:53:51Z</time>
      </trkpt>
      <trkpt lat="45.78104" lon="2.99968">
        <ele>882.5</ele>
        <time>2017-07-18T15:53:51Z</time>
      </trkpt>
      <trkpt lat="45.78104" lon="2.99964">
        <ele>882.6</ele>
        <time>2017-07-18T15:53:51Z</time>
      </trkpt>
      <trkpt lat="45.78104" lon="2.99961">
        <ele>882.7</ele>
        <time>2017-07-18T15:53:51Z</time>
      </trkpt>
      <trkpt lat="45.78104" lon="2.99957">
        <ele>882.8</ele>
        <time>2017-07-18T15:53:51Z</time>
      </trkpt>
      <trkpt lat="45.78105" lon="2.99954">
        <ele>882.9</ele>
        <time>2017-07-18T15:53:51Z</time>
      </trkpt>
      <trkpt lat="45.78105" lon="2.99951">
        <ele>883</ele>
        <time>2017-07-18T15:53:51Z</time>
      </trkpt>
      <trkpt lat="45.78106" lon="2.99947">
        <ele>883.1</ele>
        <time>2017-07-18T15:53:51Z</time>
      </trkpt>
      <trkpt lat="45.78107" lon="2.99943">
        <ele>883.2</ele>
        <time>2017-07-18T15:53:51Z</time>
      </trkpt>
      <trkpt lat="45.78107" lon="2.9994">
        <ele>883.3</ele>
        <time>2017-07-18T15:53:51Z</time>
      </trkpt>
      <trkpt lat="45.78108" lon="2.99936">
        <ele>883.4</ele>
        <time>2017-07-18T15:53:51Z</time>
      </trkpt>
      <trkpt lat="45.78108" lon="2.99932">
        <ele>883.5</ele>
        <time>2017-07-18T15:53:51Z</time>
      </trkpt>
      <trkpt lat="45.78109" lon="2.99928">
        <ele>883.6</ele>
        <time>2017-07-18T15:53:51Z</time>
      </trkpt>
      <trkpt lat="45.78109" lon="2.99924">
        <ele>883.7</ele>
        <time>2017-07-18T15:53:51Z</time>
      </trkpt>
      <trkpt lat="45.78109" lon="2.9992">
        <ele>883.9</ele>
        <time>2017-07-18T15:53:51Z</time>
      </trkpt>
      <trkpt lat="45.7811" lon="2.99916">
        <ele>884</ele>
        <time>2017-07-18T15:53:51Z</time>
      </trkpt>
      <trkpt lat="45.7811" lon="2.99912">
        <ele>884.1</ele>
        <time>2017-07-18T15:53:51Z</time>
      </trkpt>
      <trkpt lat="45.78111" lon="2.99909">
        <ele>884.1</ele>
        <time>2017-07-18T15:53:51Z</time>
      </trkpt>
      <trkpt lat="45.78111" lon="2.99905">
        <ele>884.2</ele>
        <time>2017-07-18T15:53:51Z</time>
      </trkpt>
      <trkpt lat="45.78112" lon="2.99902">
        <ele>884.3</ele>
        <time>2017-07-18T15:53:51Z</time>
      </trkpt>
      <trkpt lat="45.78112" lon="2.99898">
        <ele>884.4</ele>
        <time>2017-07-18T15:53:51Z</time>
      </trkpt>
      <trkpt lat="45.78113" lon="2.99895">
        <ele>884.5</ele>
        <time>2017-07-18T15:53:51Z</time>
      </trkpt>
      <trkpt lat="45.78113" lon="2.99891">
        <ele>884.6</ele>
        <time>2017-07-18T15:53:51Z</time>
      </trkpt>
      <trkpt lat="45.78114" lon="2.99888">
        <ele>884.7</ele>
        <time>2017-07-18T15:53:51Z</time>
      </trkpt>
      <trkpt lat="45.78114" lon="2.99884">
        <ele>884.7</ele>
        <time>2017-07-18T15:53:51Z</time>
      </trkpt>
      <trkpt lat="45.78114" lon="2.99881">
        <ele>884.8</ele>
        <time>2017-07-18T15:53:51Z</time>
      </trkpt>
      <trkpt lat="45.78115" lon="2.99877">
        <ele>884.9</ele>
        <time>2017-07-18T15:53:51Z</time>
      </trkpt>
      <trkpt lat="45.78116" lon="2.99872">
        <ele>885</ele>
        <time>2017-07-18T15:53:51Z</time>
      </trkpt>
      <trkpt lat="45.78117" lon="2.99869">
        <ele>885.1</ele>
        <time>2017-07-18T15:53:51Z</time>
      </trkpt>
      <trkpt lat="45.78119" lon="2.99866">
        <ele>885.2</ele>
        <time>2017-07-18T15:53:51Z</time>
      </trkpt>
      <trkpt lat="45.7812" lon="2.99863">
        <ele>885.3</ele>
        <time>2017-07-18T15:53:51Z</time>
      </trkpt>
      <trkpt lat="45.7812" lon="2.9986">
        <ele>885.4</ele>
        <time>2017-07-18T15:53:51Z</time>
      </trkpt>
      <trkpt lat="45.78122" lon="2.99855">
        <ele>885.5</ele>
        <time>2017-07-18T15:53:51Z</time>
      </trkpt>
      <trkpt lat="45.78123" lon="2.99851">
        <ele>885.6</ele>
        <time>2017-07-18T15:53:51Z</time>
      </trkpt>
      <trkpt lat="45.78123" lon="2.99848">
        <ele>885.7</ele>
        <time>2017-07-18T15:53:51Z</time>
      </trkpt>
      <trkpt lat="45.78125" lon="2.99845">
        <ele>885.8</ele>
        <time>2017-07-18T15:53:51Z</time>
      </trkpt>
      <trkpt lat="45.78126" lon="2.9984">
        <ele>885.9</ele>
        <time>2017-07-18T15:53:51Z</time>
      </trkpt>
      <trkpt lat="45.78127" lon="2.99836">
        <ele>886</ele>
        <time>2017-07-18T15:53:51Z</time>
      </trkpt>
      <trkpt lat="45.78128" lon="2.99831">
        <ele>886.2</ele>
        <time>2017-07-18T15:53:51Z</time>
      </trkpt>
      <trkpt lat="45.78129" lon="2.99828">
        <ele>886.3</ele>
        <time>2017-07-18T15:53:51Z</time>
      </trkpt>
      <trkpt lat="45.78131" lon="2.99824">
        <ele>886.5</ele>
        <time>2017-07-18T15:53:51Z</time>
      </trkpt>
      <trkpt lat="45.78132" lon="2.99821">
        <ele>886.7</ele>
        <time>2017-07-18T15:53:51Z</time>
      </trkpt>
      <trkpt lat="45.78134" lon="2.99817">
        <ele>886.9</ele>
        <time>2017-07-18T15:53:51Z</time>
      </trkpt>
      <trkpt lat="45.78136" lon="2.99813">
        <ele>887.1</ele>
        <time>2017-07-18T15:53:51Z</time>
      </trkpt>
      <trkpt lat="45.78138" lon="2.99809">
        <ele>887.3</ele>
        <time>2017-07-18T15:53:51Z</time>
      </trkpt>
      <trkpt lat="45.7814" lon="2.99806">
        <ele>887.4</ele>
        <time>2017-07-18T15:53:51Z</time>
      </trkpt>
      <trkpt lat="45.78142" lon="2.99804">
        <ele>887.6</ele>
        <time>2017-07-18T15:53:51Z</time>
      </trkpt>
      <trkpt lat="45.78143" lon="2.99802">
        <ele>887.7</ele>
        <time>2017-07-18T15:53:51Z</time>
      </trkpt>
      <trkpt lat="45.78145" lon="2.99801">
        <ele>887.7</ele>
        <time>2017-07-18T15:53:51Z</time>
      </trkpt>
      <trkpt lat="45.78147" lon="2.99799">
        <ele>887.9</ele>
        <time>2017-07-18T15:53:51Z</time>
      </trkpt>
      <trkpt lat="45.78148" lon="2.99797">
        <ele>888</ele>
        <time>2017-07-18T15:53:51Z</time>
      </trkpt>
      <trkpt lat="45.7815" lon="2.99795">
        <ele>888.1</ele>
        <time>2017-07-18T15:53:51Z</time>
      </trkpt>
      <trkpt lat="45.78152" lon="2.99793">
        <ele>888.2</ele>
        <time>2017-07-18T15:53:51Z</time>
      </trkpt>
      <trkpt lat="45.78154" lon="2.9979">
        <ele>888.3</ele>
        <time>2017-07-18T15:53:51Z</time>
      </trkpt>
      <trkpt lat="45.78156" lon="2.99788">
        <ele>888.4</ele>
        <time>2017-07-18T15:53:51Z</time>
      </trkpt>
      <trkpt lat="45.78158" lon="2.99786">
        <ele>888.6</ele>
        <time>2017-07-18T15:53:51Z</time>
      </trkpt>
      <trkpt lat="45.7816" lon="2.99784">
        <ele>888.7</ele>
        <time>2017-07-18T15:53:51Z</time>
      </trkpt>
      <trkpt lat="45.78161" lon="2.99782">
        <ele>888.8</ele>
        <time>2017-07-18T15:53:51Z</time>
      </trkpt>
      <trkpt lat="45.78163" lon="2.99779">
        <ele>888.9</ele>
        <time>2017-07-18T15:53:51Z</time>
      </trkpt>
      <trkpt lat="45.78165" lon="2.99778">
        <ele>889</ele>
        <time>2017-07-18T15:53:51Z</time>
      </trkpt>
      <trkpt lat="45.78167" lon="2.99776">
        <ele>889.1</ele>
        <time>2017-07-18T15:53:51Z</time>
      </trkpt>
      <trkpt lat="45.78169" lon="2.99774">
        <ele>889.1</ele>
        <time>2017-07-18T15:53:51Z</time>
      </trkpt>
      <trkpt lat="45.78171" lon="2.99772">
        <ele>889.2</ele>
        <time>2017-07-18T15:53:51Z</time>
      </trkpt>
      <trkpt lat="45.78173" lon="2.9977">
        <ele>889.3</ele>
        <time>2017-07-18T15:53:51Z</time>
      </trkpt>
      <trkpt lat="45.78175" lon="2.99768">
        <ele>889.4</ele>
        <time>2017-07-18T15:53:51Z</time>
      </trkpt>
      <trkpt lat="45.78177" lon="2.99766">
        <ele>889.5</ele>
        <time>2017-07-18T15:53:51Z</time>
      </trkpt>
      <trkpt lat="45.78178" lon="2.99763">
        <ele>889.6</ele>
        <time>2017-07-18T15:53:51Z</time>
      </trkpt>
      <trkpt lat="45.7818" lon="2.99761">
        <ele>889.6</ele>
        <time>2017-07-18T15:53:51Z</time>
      </trkpt>
      <trkpt lat="45.78182" lon="2.99759">
        <ele>889.7</ele>
        <time>2017-07-18T15:53:51Z</time>
      </trkpt>
      <trkpt lat="45.78184" lon="2.99756">
        <ele>889.8</ele>
        <time>2017-07-18T15:53:51Z</time>
      </trkpt>
      <trkpt lat="45.78186" lon="2.99754">
        <ele>889.9</ele>
        <time>2017-07-18T15:53:51Z</time>
      </trkpt>
      <trkpt lat="45.78188" lon="2.99751">
        <ele>890</ele>
        <time>2017-07-18T15:53:51Z</time>
      </trkpt>
      <trkpt lat="45.7819" lon="2.99749">
        <ele>890</ele>
        <time>2017-07-18T15:53:51Z</time>
      </trkpt>
      <trkpt lat="45.78191" lon="2.99747">
        <ele>890.2</ele>
        <time>2017-07-18T15:53:51Z</time>
      </trkpt>
      <trkpt lat="45.78193" lon="2.99744">
        <ele>890.3</ele>
        <time>2017-07-18T15:53:51Z</time>
      </trkpt>
      <trkpt lat="45.78195" lon="2.99742">
        <ele>890.4</ele>
        <time>2017-07-18T15:53:51Z</time>
      </trkpt>
      <trkpt lat="45.78196" lon="2.9974">
        <ele>890.5</ele>
        <time>2017-07-18T15:53:51Z</time>
      </trkpt>
      <trkpt lat="45.78197" lon="2.99736">
        <ele>890.7</ele>
        <time>2017-07-18T15:53:51Z</time>
      </trkpt>
      <trkpt lat="45.78198" lon="2.99734">
        <ele>890.9</ele>
        <time>2017-07-18T15:53:51Z</time>
      </trkpt>
      <trkpt lat="45.782" lon="2.99731">
        <ele>891</ele>
        <time>2017-07-18T15:53:51Z</time>
      </trkpt>
      <trkpt lat="45.78201" lon="2.99728">
        <ele>891.1</ele>
        <time>2017-07-18T15:53:51Z</time>
      </trkpt>
      <trkpt lat="45.78203" lon="2.99726">
        <ele>891.3</ele>
        <time>2017-07-18T15:53:51Z</time>
      </trkpt>
      <trkpt lat="45.78205" lon="2.99724">
        <ele>891.4</ele>
        <time>2017-07-18T15:53:51Z</time>
      </trkpt>
      <trkpt lat="45.78207" lon="2.99721">
        <ele>891.6</ele>
        <time>2017-07-18T15:53:51Z</time>
      </trkpt>
      <trkpt lat="45.78208" lon="2.99718">
        <ele>891.7</ele>
        <time>2017-07-18T15:53:51Z</time>
      </trkpt>
      <trkpt lat="45.7821" lon="2.99715">
        <ele>891.9</ele>
        <time>2017-07-18T15:53:51Z</time>
      </trkpt>
      <trkpt lat="45.78212" lon="2.99712">
        <ele>892.1</ele>
        <time>2017-07-18T15:53:51Z</time>
      </trkpt>
      <trkpt lat="45.78214" lon="2.99708">
        <ele>892.3</ele>
        <time>2017-07-18T15:53:51Z</time>
      </trkpt>
      <trkpt lat="45.78215" lon="2.99706">
        <ele>892.4</ele>
        <time>2017-07-18T15:53:51Z</time>
      </trkpt>
      <trkpt lat="45.78217" lon="2.99703">
        <ele>892.6</ele>
        <time>2017-07-18T15:53:51Z</time>
      </trkpt>
      <trkpt lat="45.78219" lon="2.99701">
        <ele>892.7</ele>
        <time>2017-07-18T15:53:51Z</time>
      </trkpt>
      <trkpt lat="45.7822" lon="2.99698">
        <ele>892.9</ele>
        <time>2017-07-18T15:53:51Z</time>
      </trkpt>
      <trkpt lat="45.78222" lon="2.99695">
        <ele>893.1</ele>
        <time>2017-07-18T15:53:51Z</time>
      </trkpt>
      <trkpt lat="45.78223" lon="2.99691">
        <ele>893.3</ele>
        <time>2017-07-18T15:53:51Z</time>
      </trkpt>
      <trkpt lat="45.78225" lon="2.99689">
        <ele>893.4</ele>
        <time>2017-07-18T15:53:51Z</time>
      </trkpt>
      <trkpt lat="45.78227" lon="2.99687">
        <ele>893.6</ele>
        <time>2017-07-18T15:53:51Z</time>
      </trkpt>
      <trkpt lat="45.78228" lon="2.99684">
        <ele>893.7</ele>
        <time>2017-07-18T15:53:51Z</time>
      </trkpt>
      <trkpt lat="45.7823" lon="2.99681">
        <ele>893.9</ele>
        <time>2017-07-18T15:53:51Z</time>
      </trkpt>
      <trkpt lat="45.78232" lon="2.99679">
        <ele>894.1</ele>
        <time>2017-07-18T15:53:51Z</time>
      </trkpt>
      <trkpt lat="45.78234" lon="2.99676">
        <ele>894.2</ele>
        <time>2017-07-18T15:53:51Z</time>
      </trkpt>
      <trkpt lat="45.78235" lon="2.99674">
        <ele>894.4</ele>
        <time>2017-07-18T15:53:51Z</time>
      </trkpt>
      <trkpt lat="45.78237" lon="2.9967">
        <ele>894.7</ele>
        <time>2017-07-18T15:53:51Z</time>
      </trkpt>
      <trkpt lat="45.78238" lon="2.99667">
        <ele>894.8</ele>
        <time>2017-07-18T15:53:51Z</time>
      </trkpt>
      <trkpt lat="45.7824" lon="2.99664">
        <ele>895</ele>
        <time>2017-07-18T15:53:51Z</time>
      </trkpt>
      <trkpt lat="45.78241" lon="2.99661">
        <ele>895.1</ele>
        <time>2017-07-18T15:53:51Z</time>
      </trkpt>
      <trkpt lat="45.78242" lon="2.99659">
        <ele>895.2</ele>
        <time>2017-07-18T15:53:51Z</time>
      </trkpt>
      <trkpt lat="45.78244" lon="2.99656">
        <ele>895.3</ele>
        <time>2017-07-18T15:53:51Z</time>
      </trkpt>
      <trkpt lat="45.78246" lon="2.99653">
        <ele>895.4</ele>
        <time>2017-07-18T15:53:51Z</time>
      </trkpt>
      <trkpt lat="45.78246" lon="2.99651">
        <ele>895.5</ele>
        <time>2017-07-18T15:53:51Z</time>
      </trkpt>
      <trkpt lat="45.78247" lon="2.99647">
        <ele>895.7</ele>
        <time>2017-07-18T15:53:51Z</time>
      </trkpt>
      <trkpt lat="45.78249" lon="2.99645">
        <ele>895.8</ele>
        <time>2017-07-18T15:53:51Z</time>
      </trkpt>
      <trkpt lat="45.7825" lon="2.99642">
        <ele>895.9</ele>
        <time>2017-07-18T15:53:51Z</time>
      </trkpt>
      <trkpt lat="45.78252" lon="2.99639">
        <ele>895.9</ele>
        <time>2017-07-18T15:53:51Z</time>
      </trkpt>
      <trkpt lat="45.78253" lon="2.99637">
        <ele>895.9</ele>
        <time>2017-07-18T15:53:51Z</time>
      </trkpt>
      <trkpt lat="45.78256" lon="2.99633">
        <ele>895.9</ele>
        <time>2017-07-18T15:53:51Z</time>
      </trkpt>
      <trkpt lat="45.78257" lon="2.99629">
        <ele>896</ele>
        <time>2017-07-18T15:53:51Z</time>
      </trkpt>
      <trkpt lat="45.78258" lon="2.99626">
        <ele>896</ele>
        <time>2017-07-18T15:53:51Z</time>
      </trkpt>
      <trkpt lat="45.7826" lon="2.99623">
        <ele>896</ele>
        <time>2017-07-18T15:53:51Z</time>
      </trkpt>
      <trkpt lat="45.78262" lon="2.99619">
        <ele>896</ele>
        <time>2017-07-18T15:53:51Z</time>
      </trkpt>
      <trkpt lat="45.78264" lon="2.99616">
        <ele>896</ele>
        <time>2017-07-18T15:53:51Z</time>
      </trkpt>
      <trkpt lat="45.78266" lon="2.99613">
        <ele>895.9</ele>
        <time>2017-07-18T15:53:51Z</time>
      </trkpt>
      <trkpt lat="45.78268" lon="2.9961">
        <ele>895.9</ele>
        <time>2017-07-18T15:53:51Z</time>
      </trkpt>
      <trkpt lat="45.7827" lon="2.99606">
        <ele>895.9</ele>
        <time>2017-07-18T15:53:51Z</time>
      </trkpt>
      <trkpt lat="45.78271" lon="2.99602">
        <ele>895.9</ele>
        <time>2017-07-18T15:53:51Z</time>
      </trkpt>
      <trkpt lat="45.78272" lon="2.99599">
        <ele>895.9</ele>
        <time>2017-07-18T15:53:51Z</time>
      </trkpt>
      <trkpt lat="45.78274" lon="2.99597">
        <ele>895.9</ele>
        <time>2017-07-18T15:53:51Z</time>
      </trkpt>
      <trkpt lat="45.78275" lon="2.99593">
        <ele>895.9</ele>
        <time>2017-07-18T15:53:51Z</time>
      </trkpt>
      <trkpt lat="45.78277" lon="2.99588">
        <ele>895.9</ele>
        <time>2017-07-18T15:53:51Z</time>
      </trkpt>
      <trkpt lat="45.78278" lon="2.99586">
        <ele>895.9</ele>
        <time>2017-07-18T15:53:51Z</time>
      </trkpt>
      <trkpt lat="45.78279" lon="2.99582">
        <ele>895.9</ele>
        <time>2017-07-18T15:53:51Z</time>
      </trkpt>
      <trkpt lat="45.78281" lon="2.9958">
        <ele>895.8</ele>
        <time>2017-07-18T15:53:51Z</time>
      </trkpt>
      <trkpt lat="45.78282" lon="2.99577">
        <ele>895.7</ele>
        <time>2017-07-18T15:53:51Z</time>
      </trkpt>
      <trkpt lat="45.78284" lon="2.99574">
        <ele>895.6</ele>
        <time>2017-07-18T15:53:51Z</time>
      </trkpt>
      <trkpt lat="45.78285" lon="2.99571">
        <ele>895.6</ele>
        <time>2017-07-18T15:53:51Z</time>
      </trkpt>
      <trkpt lat="45.78286" lon="2.99568">
        <ele>895.5</ele>
        <time>2017-07-18T15:53:51Z</time>
      </trkpt>
      <trkpt lat="45.78287" lon="2.99566">
        <ele>895.5</ele>
        <time>2017-07-18T15:53:51Z</time>
      </trkpt>
      <trkpt lat="45.78289" lon="2.99563">
        <ele>895.4</ele>
        <time>2017-07-18T15:53:51Z</time>
      </trkpt>
      <trkpt lat="45.7829" lon="2.99561">
        <ele>895.4</ele>
        <time>2017-07-18T15:53:51Z</time>
      </trkpt>
      <trkpt lat="45.78291" lon="2.99558">
        <ele>895.4</ele>
        <time>2017-07-18T15:53:51Z</time>
      </trkpt>
      <trkpt lat="45.78291" lon="2.99554">
        <ele>895.4</ele>
        <time>2017-07-18T15:53:51Z</time>
      </trkpt>
      <trkpt lat="45.78292" lon="2.9955">
        <ele>895.4</ele>
        <time>2017-07-18T15:53:51Z</time>
      </trkpt>
      <trkpt lat="45.78293" lon="2.99546">
        <ele>895.4</ele>
        <time>2017-07-18T15:53:51Z</time>
      </trkpt>
      <trkpt lat="45.78293" lon="2.99542">
        <ele>895.4</ele>
        <time>2017-07-18T15:53:51Z</time>
      </trkpt>
      <trkpt lat="45.78293" lon="2.99538">
        <ele>895.5</ele>
        <time>2017-07-18T15:53:51Z</time>
      </trkpt>
      <trkpt lat="45.78293" lon="2.99534">
        <ele>895.5</ele>
        <time>2017-07-18T15:53:51Z</time>
      </trkpt>
      <trkpt lat="45.78293" lon="2.9953">
        <ele>895.6</ele>
        <time>2017-07-18T15:53:51Z</time>
      </trkpt>
      <trkpt lat="45.78294" lon="2.99526">
        <ele>895.6</ele>
        <time>2017-07-18T15:53:51Z</time>
      </trkpt>
      <trkpt lat="45.78295" lon="2.99522">
        <ele>895.6</ele>
        <time>2017-07-18T15:53:51Z</time>
      </trkpt>
      <trkpt lat="45.78296" lon="2.99518">
        <ele>895.6</ele>
        <time>2017-07-18T15:53:51Z</time>
      </trkpt>
      <trkpt lat="45.78296" lon="2.99515">
        <ele>895.7</ele>
        <time>2017-07-18T15:53:51Z</time>
      </trkpt>
      <trkpt lat="45.78297" lon="2.99512">
        <ele>895.7</ele>
        <time>2017-07-18T15:53:51Z</time>
      </trkpt>
      <trkpt lat="45.78298" lon="2.99508">
        <ele>895.7</ele>
        <time>2017-07-18T15:53:51Z</time>
      </trkpt>
      <trkpt lat="45.78298" lon="2.99504">
        <ele>895.8</ele>
        <time>2017-07-18T15:53:51Z</time>
      </trkpt>
      <trkpt lat="45.78299" lon="2.99501">
        <ele>895.8</ele>
        <time>2017-07-18T15:53:51Z</time>
      </trkpt>
      <trkpt lat="45.78299" lon="2.99496">
        <ele>895.9</ele>
        <time>2017-07-18T15:53:51Z</time>
      </trkpt>
      <trkpt lat="45.783" lon="2.99493">
        <ele>895.9</ele>
        <time>2017-07-18T15:53:51Z</time>
      </trkpt>
      <trkpt lat="45.78301" lon="2.99489">
        <ele>895.9</ele>
        <time>2017-07-18T15:53:51Z</time>
      </trkpt>
      <trkpt lat="45.78302" lon="2.99485">
        <ele>896</ele>
        <time>2017-07-18T15:53:51Z</time>
      </trkpt>
      <trkpt lat="45.78304" lon="2.99482">
        <ele>896</ele>
        <time>2017-07-18T15:53:51Z</time>
      </trkpt>
      <trkpt lat="45.78305" lon="2.99478">
        <ele>896</ele>
        <time>2017-07-18T15:53:51Z</time>
      </trkpt>
      <trkpt lat="45.78306" lon="2.99475">
        <ele>896.1</ele>
        <time>2017-07-18T15:53:51Z</time>
      </trkpt>
      <trkpt lat="45.78307" lon="2.99472">
        <ele>896.1</ele>
        <time>2017-07-18T15:53:51Z</time>
      </trkpt>
      <trkpt lat="45.78308" lon="2.99469">
        <ele>896.1</ele>
        <time>2017-07-18T15:53:51Z</time>
      </trkpt>
      <trkpt lat="45.78309" lon="2.99465">
        <ele>896.2</ele>
        <time>2017-07-18T15:53:51Z</time>
      </trkpt>
      <trkpt lat="45.7831" lon="2.99462">
        <ele>896.2</ele>
        <time>2017-07-18T15:53:51Z</time>
      </trkpt>
      <trkpt lat="45.78311" lon="2.99458">
        <ele>896.3</ele>
        <time>2017-07-18T15:53:51Z</time>
      </trkpt>
      <trkpt lat="45.78311" lon="2.99454">
        <ele>896.3</ele>
        <time>2017-07-18T15:53:51Z</time>
      </trkpt>
      <trkpt lat="45.78312" lon="2.9945">
        <ele>896.4</ele>
        <time>2017-07-18T15:53:51Z</time>
      </trkpt>
      <trkpt lat="45.78313" lon="2.99446">
        <ele>896.5</ele>
        <time>2017-07-18T15:53:51Z</time>
      </trkpt>
      <trkpt lat="45.78314" lon="2.99442">
        <ele>896.5</ele>
        <time>2017-07-18T15:53:51Z</time>
      </trkpt>
      <trkpt lat="45.78314" lon="2.99438">
        <ele>896.6</ele>
        <time>2017-07-18T15:53:51Z</time>
      </trkpt>
      <trkpt lat="45.78315" lon="2.99435">
        <ele>896.7</ele>
        <time>2017-07-18T15:53:51Z</time>
      </trkpt>
      <trkpt lat="45.78316" lon="2.99431">
        <ele>896.7</ele>
        <time>2017-07-18T15:53:51Z</time>
      </trkpt>
      <trkpt lat="45.78317" lon="2.99428">
        <ele>896.8</ele>
        <time>2017-07-18T15:53:51Z</time>
      </trkpt>
      <trkpt lat="45.78318" lon="2.99425">
        <ele>896.8</ele>
        <time>2017-07-18T15:53:51Z</time>
      </trkpt>
      <trkpt lat="45.78319" lon="2.99421">
        <ele>896.9</ele>
        <time>2017-07-18T15:53:51Z</time>
      </trkpt>
      <trkpt lat="45.7832" lon="2.99418">
        <ele>897</ele>
        <time>2017-07-18T15:53:51Z</time>
      </trkpt>
      <trkpt lat="45.78321" lon="2.99414">
        <ele>897.1</ele>
        <time>2017-07-18T15:53:51Z</time>
      </trkpt>
      <trkpt lat="45.78321" lon="2.9941">
        <ele>897.2</ele>
        <time>2017-07-18T15:53:51Z</time>
      </trkpt>
      <trkpt lat="45.78322" lon="2.99406">
        <ele>897.2</ele>
        <time>2017-07-18T15:53:51Z</time>
      </trkpt>
      <trkpt lat="45.78323" lon="2.99402">
        <ele>897.3</ele>
        <time>2017-07-18T15:53:51Z</time>
      </trkpt>
      <trkpt lat="45.78323" lon="2.99399">
        <ele>897.4</ele>
        <time>2017-07-18T15:53:51Z</time>
      </trkpt>
      <trkpt lat="45.78324" lon="2.99396">
        <ele>897.5</ele>
        <time>2017-07-18T15:53:51Z</time>
      </trkpt>
      <trkpt lat="45.78325" lon="2.99392">
        <ele>897.6</ele>
        <time>2017-07-18T15:53:51Z</time>
      </trkpt>
      <trkpt lat="45.78325" lon="2.99389">
        <ele>897.6</ele>
        <time>2017-07-18T15:53:51Z</time>
      </trkpt>
      <trkpt lat="45.78326" lon="2.99385">
        <ele>897.7</ele>
        <time>2017-07-18T15:53:51Z</time>
      </trkpt>
      <trkpt lat="45.78326" lon="2.99381">
        <ele>897.8</ele>
        <time>2017-07-18T15:53:51Z</time>
      </trkpt>
      <trkpt lat="45.78326" lon="2.99378">
        <ele>897.9</ele>
        <time>2017-07-18T15:53:51Z</time>
      </trkpt>
      <trkpt lat="45.78326" lon="2.99374">
        <ele>898</ele>
        <time>2017-07-18T15:53:51Z</time>
      </trkpt>
      <trkpt lat="45.78327" lon="2.99371">
        <ele>898.1</ele>
        <time>2017-07-18T15:53:51Z</time>
      </trkpt>
      <trkpt lat="45.78328" lon="2.99367">
        <ele>898.2</ele>
        <time>2017-07-18T15:53:51Z</time>
      </trkpt>
      <trkpt lat="45.78329" lon="2.99363">
        <ele>898.2</ele>
        <time>2017-07-18T15:53:51Z</time>
      </trkpt>
      <trkpt lat="45.7833" lon="2.9936">
        <ele>898.3</ele>
        <time>2017-07-18T15:53:51Z</time>
      </trkpt>
      <trkpt lat="45.7833" lon="2.99358">
        <ele>898.4</ele>
        <time>2017-07-18T15:53:51Z</time>
      </trkpt>
      <trkpt lat="45.78331" lon="2.99355">
        <ele>898.5</ele>
        <time>2017-07-18T15:53:51Z</time>
      </trkpt>
      <trkpt lat="45.78332" lon="2.99352">
        <ele>898.5</ele>
        <time>2017-07-18T15:53:51Z</time>
      </trkpt>
      <trkpt lat="45.78332" lon="2.99348">
        <ele>898.6</ele>
        <time>2017-07-18T15:53:51Z</time>
      </trkpt>
      <trkpt lat="45.78333" lon="2.99346">
        <ele>898.7</ele>
        <time>2017-07-18T15:53:51Z</time>
      </trkpt>
      <trkpt lat="45.78333" lon="2.99343">
        <ele>898.8</ele>
        <time>2017-07-18T15:53:51Z</time>
      </trkpt>
      <trkpt lat="45.78332" lon="2.99341">
        <ele>898.8</ele>
        <time>2017-07-18T15:53:51Z</time>
      </trkpt>
      <trkpt lat="45.78332" lon="2.9934">
        <ele>898.8</ele>
        <time>2017-07-18T15:53:51Z</time>
      </trkpt>
      <trkpt lat="45.78332" lon="2.9934">
        <ele>898.8</ele>
        <time>2017-07-18T15:53:51Z</time>
      </trkpt>
      <trkpt lat="45.78321" lon="2.99339">
        <ele>898.7</ele>
        <time>2017-07-18T15:53:51Z</time>
      </trkpt>
      <trkpt lat="45.7832" lon="2.99337">
        <ele>898.8</ele>
        <time>2017-07-18T15:53:51Z</time>
      </trkpt>
      <trkpt lat="45.78318" lon="2.99335">
        <ele>898.8</ele>
        <time>2017-07-18T15:53:51Z</time>
      </trkpt>
      <trkpt lat="45.78317" lon="2.99334">
        <ele>898.8</ele>
        <time>2017-07-18T15:53:51Z</time>
      </trkpt>
      <trkpt lat="45.78316" lon="2.99334">
        <ele>898.8</ele>
        <time>2017-07-18T15:53:51Z</time>
      </trkpt>
      <trkpt lat="45.78314" lon="2.99334">
        <ele>898.7</ele>
        <time>2017-07-18T15:53:51Z</time>
      </trkpt>
      <trkpt lat="45.78313" lon="2.99335">
        <ele>898.7</ele>
        <time>2017-07-18T15:53:51Z</time>
      </trkpt>
      <trkpt lat="45.7831" lon="2.99335">
        <ele>898.7</ele>
        <time>2017-07-18T15:53:51Z</time>
      </trkpt>
      <trkpt lat="45.78308" lon="2.99335">
        <ele>898.7</ele>
        <time>2017-07-18T15:53:51Z</time>
      </trkpt>
      <trkpt lat="45.78306" lon="2.99335">
        <ele>898.6</ele>
        <time>2017-07-18T15:53:51Z</time>
      </trkpt>
      <trkpt lat="45.78303" lon="2.99336">
        <ele>898.6</ele>
        <time>2017-07-18T15:53:51Z</time>
      </trkpt>
      <trkpt lat="45.78301" lon="2.99336">
        <ele>898.6</ele>
        <time>2017-07-18T15:53:51Z</time>
      </trkpt>
      <trkpt lat="45.78298" lon="2.99337">
        <ele>898.5</ele>
        <time>2017-07-18T15:53:51Z</time>
      </trkpt>
      <trkpt lat="45.78296" lon="2.99337">
        <ele>898.5</ele>
        <time>2017-07-18T15:53:51Z</time>
      </trkpt>
      <trkpt lat="45.78295" lon="2.99338">
        <ele>898.5</ele>
        <time>2017-07-18T15:53:51Z</time>
      </trkpt>
      <trkpt lat="45.78293" lon="2.99338">
        <ele>898.4</ele>
        <time>2017-07-18T15:53:51Z</time>
      </trkpt>
      <trkpt lat="45.7829" lon="2.99339">
        <ele>898.4</ele>
        <time>2017-07-18T15:53:51Z</time>
      </trkpt>
      <trkpt lat="45.78288" lon="2.99339">
        <ele>898.4</ele>
        <time>2017-07-18T15:53:51Z</time>
      </trkpt>
      <trkpt lat="45.78286" lon="2.9934">
        <ele>898.3</ele>
        <time>2017-07-18T15:53:51Z</time>
      </trkpt>
      <trkpt lat="45.78283" lon="2.9934">
        <ele>898.3</ele>
        <time>2017-07-18T15:53:51Z</time>
      </trkpt>
      <trkpt lat="45.78281" lon="2.9934">
        <ele>898.3</ele>
        <time>2017-07-18T15:53:51Z</time>
      </trkpt>
      <trkpt lat="45.78278" lon="2.99341">
        <ele>898.2</ele>
        <time>2017-07-18T15:53:51Z</time>
      </trkpt>
      <trkpt lat="45.78276" lon="2.99341">
        <ele>898.2</ele>
        <time>2017-07-18T15:53:51Z</time>
      </trkpt>
      <trkpt lat="45.78275" lon="2.99341">
        <ele>898.2</ele>
        <time>2017-07-18T15:53:51Z</time>
      </trkpt>
      <trkpt lat="45.78273" lon="2.99342">
        <ele>898.2</ele>
        <time>2017-07-18T15:53:51Z</time>
      </trkpt>
      <trkpt lat="45.78271" lon="2.99342">
        <ele>898.1</ele>
        <time>2017-07-18T15:53:51Z</time>
      </trkpt>
      <trkpt lat="45.78269" lon="2.99343">
        <ele>898.1</ele>
        <time>2017-07-18T15:53:51Z</time>
      </trkpt>
      <trkpt lat="45.78267" lon="2.99343">
        <ele>898.1</ele>
        <time>2017-07-18T15:53:51Z</time>
      </trkpt>
      <trkpt lat="45.78264" lon="2.99343">
        <ele>898</ele>
        <time>2017-07-18T15:53:51Z</time>
      </trkpt>
      <trkpt lat="45.78263" lon="2.99344">
        <ele>898</ele>
        <time>2017-07-18T15:53:51Z</time>
      </trkpt>
      <trkpt lat="45.78261" lon="2.99344">
        <ele>898</ele>
        <time>2017-07-18T15:53:51Z</time>
      </trkpt>
      <trkpt lat="45.78259" lon="2.99344">
        <ele>898</ele>
        <time>2017-07-18T15:53:51Z</time>
      </trkpt>
      <trkpt lat="45.78257" lon="2.99344">
        <ele>897.9</ele>
        <time>2017-07-18T15:53:51Z</time>
      </trkpt>
      <trkpt lat="45.78254" lon="2.99345">
        <ele>897.9</ele>
        <time>2017-07-18T15:53:51Z</time>
      </trkpt>
      <trkpt lat="45.78252" lon="2.99344">
        <ele>897.9</ele>
        <time>2017-07-18T15:53:51Z</time>
      </trkpt>
      <trkpt lat="45.7825" lon="2.99345">
        <ele>897.9</ele>
        <time>2017-07-18T15:53:51Z</time>
      </trkpt>
      <trkpt lat="45.78246" lon="2.99345">
        <ele>897.8</ele>
        <time>2017-07-18T15:53:51Z</time>
      </trkpt>
      <trkpt lat="45.78244" lon="2.99345">
        <ele>897.7</ele>
        <time>2017-07-18T15:53:51Z</time>
      </trkpt>
      <trkpt lat="45.78242" lon="2.99346">
        <ele>897.6</ele>
        <time>2017-07-18T15:53:51Z</time>
      </trkpt>
      <trkpt lat="45.7824" lon="2.99346">
        <ele>897.6</ele>
        <time>2017-07-18T15:53:51Z</time>
      </trkpt>
      <trkpt lat="45.78237" lon="2.99346">
        <ele>897.5</ele>
        <time>2017-07-18T15:53:51Z</time>
      </trkpt>
      <trkpt lat="45.78235" lon="2.99346">
        <ele>897.5</ele>
        <time>2017-07-18T15:53:51Z</time>
      </trkpt>
      <trkpt lat="45.78233" lon="2.99347">
        <ele>897.4</ele>
        <time>2017-07-18T15:53:51Z</time>
      </trkpt>
      <trkpt lat="45.78231" lon="2.99347">
        <ele>897.3</ele>
        <time>2017-07-18T15:53:51Z</time>
      </trkpt>
      <trkpt lat="45.78228" lon="2.99348">
        <ele>897.3</ele>
        <time>2017-07-18T15:53:51Z</time>
      </trkpt>
      <trkpt lat="45.78226" lon="2.99348">
        <ele>897.2</ele>
        <time>2017-07-18T15:53:51Z</time>
      </trkpt>
      <trkpt lat="45.78223" lon="2.99349">
        <ele>897.1</ele>
        <time>2017-07-18T15:53:51Z</time>
      </trkpt>
      <trkpt lat="45.78221" lon="2.99349">
        <ele>897</ele>
        <time>2017-07-18T15:53:51Z</time>
      </trkpt>
      <trkpt lat="45.78219" lon="2.9935">
        <ele>897</ele>
        <time>2017-07-18T15:53:51Z</time>
      </trkpt>
      <trkpt lat="45.78217" lon="2.9935">
        <ele>896.9</ele>
        <time>2017-07-18T15:53:51Z</time>
      </trkpt>
      <trkpt lat="45.78214" lon="2.9935">
        <ele>896.9</ele>
        <time>2017-07-18T15:53:51Z</time>
      </trkpt>
      <trkpt lat="45.78211" lon="2.9935">
        <ele>896.8</ele>
        <time>2017-07-18T15:53:51Z</time>
      </trkpt>
      <trkpt lat="45.78208" lon="2.9935">
        <ele>896.7</ele>
        <time>2017-07-18T15:53:51Z</time>
      </trkpt>
      <trkpt lat="45.78205" lon="2.99351">
        <ele>896.6</ele>
        <time>2017-07-18T15:53:51Z</time>
      </trkpt>
      <trkpt lat="45.78203" lon="2.99352">
        <ele>896.5</ele>
        <time>2017-07-18T15:53:51Z</time>
      </trkpt>
      <trkpt lat="45.78201" lon="2.99352">
        <ele>896.5</ele>
        <time>2017-07-18T15:53:51Z</time>
      </trkpt>
      <trkpt lat="45.782" lon="2.99352">
        <ele>896.4</ele>
        <time>2017-07-18T15:53:51Z</time>
      </trkpt>
      <trkpt lat="45.78198" lon="2.99352">
        <ele>896.4</ele>
        <time>2017-07-18T15:53:51Z</time>
      </trkpt>
      <trkpt lat="45.78195" lon="2.99352">
        <ele>896.3</ele>
        <time>2017-07-18T15:53:51Z</time>
      </trkpt>
      <trkpt lat="45.78193" lon="2.99352">
        <ele>896.3</ele>
        <time>2017-07-18T15:53:51Z</time>
      </trkpt>
      <trkpt lat="45.78191" lon="2.99352">
        <ele>896.2</ele>
        <time>2017-07-18T15:53:51Z</time>
      </trkpt>
      <trkpt lat="45.78189" lon="2.99353">
        <ele>896.1</ele>
        <time>2017-07-18T15:53:51Z</time>
      </trkpt>
      <trkpt lat="45.78187" lon="2.99353">
        <ele>896.1</ele>
        <time>2017-07-18T15:53:51Z</time>
      </trkpt>
      <trkpt lat="45.78184" lon="2.99353">
        <ele>896</ele>
        <time>2017-07-18T15:53:51Z</time>
      </trkpt>
      <trkpt lat="45.78182" lon="2.99353">
        <ele>895.9</ele>
        <time>2017-07-18T15:53:51Z</time>
      </trkpt>
      <trkpt lat="45.7818" lon="2.99354">
        <ele>895.9</ele>
        <time>2017-07-18T15:53:51Z</time>
      </trkpt>
      <trkpt lat="45.78178" lon="2.99354">
        <ele>895.8</ele>
        <time>2017-07-18T15:53:51Z</time>
      </trkpt>
      <trkpt lat="45.78176" lon="2.99354">
        <ele>895.7</ele>
        <time>2017-07-18T15:53:51Z</time>
      </trkpt>
      <trkpt lat="45.78174" lon="2.99355">
        <ele>895.7</ele>
        <time>2017-07-18T15:53:51Z</time>
      </trkpt>
      <trkpt lat="45.78172" lon="2.99355">
        <ele>895.6</ele>
        <time>2017-07-18T15:53:51Z</time>
      </trkpt>
      <trkpt lat="45.7817" lon="2.99355">
        <ele>895.5</ele>
        <time>2017-07-18T15:53:51Z</time>
      </trkpt>
      <trkpt lat="45.78167" lon="2.99356">
        <ele>895.5</ele>
        <time>2017-07-18T15:53:51Z</time>
      </trkpt>
      <trkpt lat="45.78165" lon="2.99356">
        <ele>895.4</ele>
        <time>2017-07-18T15:53:51Z</time>
      </trkpt>
      <trkpt lat="45.78163" lon="2.99356">
        <ele>895.4</ele>
        <time>2017-07-18T15:53:51Z</time>
      </trkpt>
      <trkpt lat="45.7816" lon="2.99356">
        <ele>895.4</ele>
        <time>2017-07-18T15:53:51Z</time>
      </trkpt>
      <trkpt lat="45.78158" lon="2.99356">
        <ele>895.3</ele>
        <time>2017-07-18T15:53:51Z</time>
      </trkpt>
      <trkpt lat="45.78156" lon="2.99356">
        <ele>895.3</ele>
        <time>2017-07-18T15:53:51Z</time>
      </trkpt>
      <trkpt lat="45.78154" lon="2.99356">
        <ele>895.2</ele>
        <time>2017-07-18T15:53:51Z</time>
      </trkpt>
      <trkpt lat="45.78152" lon="2.99357">
        <ele>895.2</ele>
        <time>2017-07-18T15:53:51Z</time>
      </trkpt>
      <trkpt lat="45.78149" lon="2.99357">
        <ele>895.2</ele>
        <time>2017-07-18T15:53:51Z</time>
      </trkpt>
      <trkpt lat="45.78147" lon="2.99357">
        <ele>895.1</ele>
        <time>2017-07-18T15:53:51Z</time>
      </trkpt>
      <trkpt lat="45.78145" lon="2.99357">
        <ele>895.1</ele>
        <time>2017-07-18T15:53:51Z</time>
      </trkpt>
      <trkpt lat="45.78143" lon="2.99357">
        <ele>895.1</ele>
        <time>2017-07-18T15:53:51Z</time>
      </trkpt>
      <trkpt lat="45.7814" lon="2.99356">
        <ele>895</ele>
        <time>2017-07-18T15:53:51Z</time>
      </trkpt>
      <trkpt lat="45.78138" lon="2.99356">
        <ele>895</ele>
        <time>2017-07-18T15:53:51Z</time>
      </trkpt>
      <trkpt lat="45.78136" lon="2.99355">
        <ele>895</ele>
        <time>2017-07-18T15:53:51Z</time>
      </trkpt>
      <trkpt lat="45.78133" lon="2.99355">
        <ele>895</ele>
        <time>2017-07-18T15:53:51Z</time>
      </trkpt>
      <trkpt lat="45.7813" lon="2.99355">
        <ele>894.9</ele>
        <time>2017-07-18T15:53:51Z</time>
      </trkpt>
      <trkpt lat="45.78127" lon="2.99355">
        <ele>894.9</ele>
        <time>2017-07-18T15:53:51Z</time>
      </trkpt>
      <trkpt lat="45.78123" lon="2.99356">
        <ele>894.8</ele>
        <time>2017-07-18T15:53:51Z</time>
      </trkpt>
      <trkpt lat="45.78122" lon="2.99356">
        <ele>894.8</ele>
        <time>2017-07-18T15:53:51Z</time>
      </trkpt>
      <trkpt lat="45.78122" lon="2.99356">
        <ele>894.8</ele>
        <time>2017-07-18T15:53:51Z</time>
      </trkpt>
      <trkpt lat="45.78122" lon="2.99356">
        <ele>894.8</ele>
        <time>2017-07-18T15:53:51Z</time>
      </trkpt>
      <trkpt lat="45.78122" lon="2.99356">
        <ele>894.8</ele>
        <time>2017-07-18T15:53:51Z</time>
      </trkpt>
      <trkpt lat="45.78121" lon="2.99356">
        <ele>894.7</ele>
        <time>2017-07-18T15:53:51Z</time>
      </trkpt>
      <trkpt lat="45.7812" lon="2.99356">
        <ele>894.7</ele>
        <time>2017-07-18T15:53:51Z</time>
      </trkpt>
      <trkpt lat="45.78118" lon="2.99356">
        <ele>894.7</ele>
        <time>2017-07-18T15:53:51Z</time>
      </trkpt>
      <trkpt lat="45.78116" lon="2.99357">
        <ele>894.7</ele>
        <time>2017-07-18T15:53:51Z</time>
      </trkpt>
      <trkpt lat="45.78113" lon="2.99357">
        <ele>894.6</ele>
        <time>2017-07-18T15:53:51Z</time>
      </trkpt>
      <trkpt lat="45.78111" lon="2.99357">
        <ele>894.6</ele>
        <time>2017-07-18T15:53:51Z</time>
      </trkpt>
      <trkpt lat="45.78108" lon="2.99357">
        <ele>894.5</ele>
        <time>2017-07-18T15:53:51Z</time>
      </trkpt>
      <trkpt lat="45.78106" lon="2.99357">
        <ele>894.5</ele>
        <time>2017-07-18T15:53:51Z</time>
      </trkpt>
      <trkpt lat="45.78103" lon="2.99356">
        <ele>894.5</ele>
        <time>2017-07-18T15:53:51Z</time>
      </trkpt>
      <trkpt lat="45.78101" lon="2.99355">
        <ele>894.5</ele>
        <time>2017-07-18T15:53:51Z</time>
      </trkpt>
      <trkpt lat="45.78098" lon="2.99354">
        <ele>894.5</ele>
        <time>2017-07-18T15:53:51Z</time>
      </trkpt>
      <trkpt lat="45.78096" lon="2.99353">
        <ele>894.5</ele>
        <time>2017-07-18T15:53:51Z</time>
      </trkpt>
      <trkpt lat="45.78093" lon="2.99353">
        <ele>894.5</ele>
        <time>2017-07-18T15:53:51Z</time>
      </trkpt>
      <trkpt lat="45.78091" lon="2.99352">
        <ele>894.4</ele>
        <time>2017-07-18T15:53:51Z</time>
      </trkpt>
      <trkpt lat="45.78088" lon="2.99351">
        <ele>894.4</ele>
        <time>2017-07-18T15:53:51Z</time>
      </trkpt>
      <trkpt lat="45.78086" lon="2.99351">
        <ele>894.4</ele>
        <time>2017-07-18T15:53:51Z</time>
      </trkpt>
      <trkpt lat="45.78084" lon="2.9935">
        <ele>894.4</ele>
        <time>2017-07-18T15:53:51Z</time>
      </trkpt>
      <trkpt lat="45.78081" lon="2.99349">
        <ele>894.5</ele>
        <time>2017-07-18T15:53:51Z</time>
      </trkpt>
      <trkpt lat="45.78079" lon="2.99348">
        <ele>894.6</ele>
        <time>2017-07-18T15:53:51Z</time>
      </trkpt>
      <trkpt lat="45.78077" lon="2.99348">
        <ele>894.8</ele>
        <time>2017-07-18T15:53:51Z</time>
      </trkpt>
      <trkpt lat="45.78074" lon="2.99347">
        <ele>894.9</ele>
        <time>2017-07-18T15:53:51Z</time>
      </trkpt>
      <trkpt lat="45.78071" lon="2.99346">
        <ele>895</ele>
        <time>2017-07-18T15:53:51Z</time>
      </trkpt>
      <trkpt lat="45.78069" lon="2.99345">
        <ele>895.2</ele>
        <time>2017-07-18T15:53:51Z</time>
      </trkpt>
      <trkpt lat="45.78066" lon="2.99344">
        <ele>895.3</ele>
        <time>2017-07-18T15:53:51Z</time>
      </trkpt>
      <trkpt lat="45.78064" lon="2.99344">
        <ele>895.5</ele>
        <time>2017-07-18T15:53:51Z</time>
      </trkpt>
      <trkpt lat="45.78061" lon="2.99343">
        <ele>895.6</ele>
        <time>2017-07-18T15:53:51Z</time>
      </trkpt>
      <trkpt lat="45.78058" lon="2.99342">
        <ele>895.8</ele>
        <time>2017-07-18T15:53:51Z</time>
      </trkpt>
      <trkpt lat="45.78056" lon="2.99341">
        <ele>896</ele>
        <time>2017-07-18T15:53:51Z</time>
      </trkpt>
      <trkpt lat="45.78053" lon="2.9934">
        <ele>896.1</ele>
        <time>2017-07-18T15:53:51Z</time>
      </trkpt>
      <trkpt lat="45.7805" lon="2.99339">
        <ele>896.3</ele>
        <time>2017-07-18T15:53:51Z</time>
      </trkpt>
      <trkpt lat="45.78048" lon="2.99339">
        <ele>896.5</ele>
        <time>2017-07-18T15:53:51Z</time>
      </trkpt>
      <trkpt lat="45.78045" lon="2.99337">
        <ele>896.6</ele>
        <time>2017-07-18T15:53:51Z</time>
      </trkpt>
      <trkpt lat="45.78042" lon="2.99335">
        <ele>896.9</ele>
        <time>2017-07-18T15:53:51Z</time>
      </trkpt>
      <trkpt lat="45.7804" lon="2.99334">
        <ele>897.1</ele>
        <time>2017-07-18T15:53:51Z</time>
      </trkpt>
      <trkpt lat="45.78037" lon="2.99332">
        <ele>897.3</ele>
        <time>2017-07-18T15:53:51Z</time>
      </trkpt>
      <trkpt lat="45.78035" lon="2.9933">
        <ele>897.4</ele>
        <time>2017-07-18T15:53:51Z</time>
      </trkpt>
      <trkpt lat="45.78034" lon="2.99328">
        <ele>897.5</ele>
        <time>2017-07-18T15:53:51Z</time>
      </trkpt>
      <trkpt lat="45.78033" lon="2.99326">
        <ele>897.6</ele>
        <time>2017-07-18T15:53:51Z</time>
      </trkpt>
      <trkpt lat="45.78033" lon="2.99327">
        <ele>897.5</ele>
        <time>2017-07-18T15:53:51Z</time>
      </trkpt>
      <trkpt lat="45.78034" lon="2.99328">
        <ele>897.5</ele>
        <time>2017-07-18T15:53:51Z</time>
      </trkpt>
      <trkpt lat="45.78035" lon="2.99327">
        <ele>897.5</ele>
        <time>2017-07-18T15:53:51Z</time>
      </trkpt>
      <trkpt lat="45.78036" lon="2.99327">
        <ele>897.4</ele>
        <time>2017-07-18T15:53:51Z</time>
      </trkpt>
      <trkpt lat="45.78036" lon="2.99327">
        <ele>897.4</ele>
        <time>2017-07-18T15:53:51Z</time>
      </trkpt>
      <trkpt lat="45.78036" lon="2.99328">
        <ele>897.4</ele>
        <time>2017-07-18T15:53:51Z</time>
      </trkpt>
      <trkpt lat="45.78036" lon="2.99328">
        <ele>897.4</ele>
        <time>2017-07-18T15:53:51Z</time>
      </trkpt>
      <trkpt lat="45.78034" lon="2.99327">
        <ele>897.5</ele>
        <time>2017-07-18T15:53:51Z</time>
      </trkpt>
      <trkpt lat="45.78033" lon="2.99325">
        <ele>897.6</ele>
        <time>2017-07-18T15:53:51Z</time>
      </trkpt>
      <trkpt lat="45.78031" lon="2.99323">
        <ele>897.7</ele>
        <time>2017-07-18T15:53:51Z</time>
      </trkpt>
      <trkpt lat="45.78031" lon="2.99323">
        <ele>897.7</ele>
        <time>2017-07-18T15:53:51Z</time>
      </trkpt>
      <trkpt lat="45.78031" lon="2.99322">
        <ele>897.8</ele>
        <time>2017-07-18T15:53:51Z</time>
      </trkpt>
      <trkpt lat="45.7803" lon="2.99322">
        <ele>897.8</ele>
        <time>2017-07-18T15:53:51Z</time>
      </trkpt>
      <trkpt lat="45.78029" lon="2.99321">
        <ele>897.9</ele>
        <time>2017-07-18T15:53:51Z</time>
      </trkpt>
      <trkpt lat="45.78028" lon="2.99319">
        <ele>898</ele>
        <time>2017-07-18T15:53:51Z</time>
      </trkpt>
      <trkpt lat="45.78026" lon="2.99317">
        <ele>898.1</ele>
        <time>2017-07-18T15:53:51Z</time>
      </trkpt>
      <trkpt lat="45.78025" lon="2.99314">
        <ele>898.2</ele>
        <time>2017-07-18T15:53:51Z</time>
      </trkpt>
      <trkpt lat="45.78025" lon="2.99311">
        <ele>898.3</ele>
        <time>2017-07-18T15:53:51Z</time>
      </trkpt>
      <trkpt lat="45.78024" lon="2.99308">
        <ele>898.3</ele>
        <time>2017-07-18T15:53:51Z</time>
      </trkpt>
      <trkpt lat="45.78023" lon="2.99304">
        <ele>898.4</ele>
        <time>2017-07-18T15:53:51Z</time>
      </trkpt>
      <trkpt lat="45.78021" lon="2.99301">
        <ele>898.6</ele>
        <time>2017-07-18T15:53:51Z</time>
      </trkpt>
      <trkpt lat="45.7802" lon="2.99298">
        <ele>898.7</ele>
        <time>2017-07-18T15:53:51Z</time>
      </trkpt>
      <trkpt lat="45.78019" lon="2.99295">
        <ele>898.8</ele>
        <time>2017-07-18T15:53:51Z</time>
      </trkpt>
      <trkpt lat="45.78018" lon="2.99292">
        <ele>898.9</ele>
        <time>2017-07-18T15:53:51Z</time>
      </trkpt>
      <trkpt lat="45.78017" lon="2.99289">
        <ele>898.9</ele>
        <time>2017-07-18T15:53:51Z</time>
      </trkpt>
      <trkpt lat="45.78016" lon="2.99286">
        <ele>899</ele>
        <time>2017-07-18T15:53:51Z</time>
      </trkpt>
      <trkpt lat="45.78014" lon="2.99283">
        <ele>899.1</ele>
        <time>2017-07-18T15:53:51Z</time>
      </trkpt>
      <trkpt lat="45.78013" lon="2.9928">
        <ele>899.2</ele>
        <time>2017-07-18T15:53:51Z</time>
      </trkpt>
      <trkpt lat="45.78012" lon="2.99277">
        <ele>899.3</ele>
        <time>2017-07-18T15:53:51Z</time>
      </trkpt>
      <trkpt lat="45.7801" lon="2.99273">
        <ele>899.4</ele>
        <time>2017-07-18T15:53:51Z</time>
      </trkpt>
      <trkpt lat="45.78009" lon="2.9927">
        <ele>899.5</ele>
        <time>2017-07-18T15:53:51Z</time>
      </trkpt>
      <trkpt lat="45.78008" lon="2.99268">
        <ele>899.6</ele>
        <time>2017-07-18T15:53:51Z</time>
      </trkpt>
      <trkpt lat="45.78007" lon="2.99265">
        <ele>899.6</ele>
        <time>2017-07-18T15:53:51Z</time>
      </trkpt>
      <trkpt lat="45.78005" lon="2.99262">
        <ele>899.7</ele>
        <time>2017-07-18T15:53:51Z</time>
      </trkpt>
      <trkpt lat="45.78003" lon="2.99258">
        <ele>899.8</ele>
        <time>2017-07-18T15:53:51Z</time>
      </trkpt>
      <trkpt lat="45.78002" lon="2.99255">
        <ele>899.9</ele>
        <time>2017-07-18T15:53:51Z</time>
      </trkpt>
      <trkpt lat="45.78002" lon="2.99252">
        <ele>899.9</ele>
        <time>2017-07-18T15:53:51Z</time>
      </trkpt>
      <trkpt lat="45.78001" lon="2.99249">
        <ele>900</ele>
        <time>2017-07-18T15:53:51Z</time>
      </trkpt>
      <trkpt lat="45.78" lon="2.99245">
        <ele>900</ele>
        <time>2017-07-18T15:53:51Z</time>
      </trkpt>
      <trkpt lat="45.78" lon="2.99243">
        <ele>900.1</ele>
        <time>2017-07-18T15:53:51Z</time>
      </trkpt>
      <trkpt lat="45.77999" lon="2.99241">
        <ele>900.2</ele>
        <time>2017-07-18T15:53:51Z</time>
      </trkpt>
      <trkpt lat="45.77998" lon="2.99241">
        <ele>900.2</ele>
        <time>2017-07-18T15:53:51Z</time>
      </trkpt>
      <trkpt lat="45.77998" lon="2.9924">
        <ele>900.2</ele>
        <time>2017-07-18T15:53:51Z</time>
      </trkpt>
      <trkpt lat="45.77998" lon="2.99238">
        <ele>900.3</ele>
        <time>2017-07-18T15:53:51Z</time>
      </trkpt>
      <trkpt lat="45.77997" lon="2.99235">
        <ele>900.4</ele>
        <time>2017-07-18T15:53:51Z</time>
      </trkpt>
      <trkpt lat="45.77996" lon="2.99232">
        <ele>900.5</ele>
        <time>2017-07-18T15:53:51Z</time>
      </trkpt>
      <trkpt lat="45.77994" lon="2.99229">
        <ele>900.7</ele>
        <time>2017-07-18T15:53:51Z</time>
      </trkpt>
      <trkpt lat="45.77992" lon="2.99226">
        <ele>900.9</ele>
        <time>2017-07-18T15:53:51Z</time>
      </trkpt>
      <trkpt lat="45.77991" lon="2.99223">
        <ele>901</ele>
        <time>2017-07-18T15:53:51Z</time>
      </trkpt>
      <trkpt lat="45.7799" lon="2.99219">
        <ele>901.1</ele>
        <time>2017-07-18T15:53:51Z</time>
      </trkpt>
      <trkpt lat="45.77988" lon="2.99215">
        <ele>901.3</ele>
        <time>2017-07-18T15:53:51Z</time>
      </trkpt>
      <trkpt lat="45.77986" lon="2.99211">
        <ele>901.5</ele>
        <time>2017-07-18T15:53:51Z</time>
      </trkpt>
      <trkpt lat="45.77984" lon="2.99207">
        <ele>901.7</ele>
        <time>2017-07-18T15:53:51Z</time>
      </trkpt>
      <trkpt lat="45.77983" lon="2.99202">
        <ele>901.8</ele>
        <time>2017-07-18T15:53:51Z</time>
      </trkpt>
      <trkpt lat="45.77982" lon="2.99199">
        <ele>901.9</ele>
        <time>2017-07-18T15:53:51Z</time>
      </trkpt>
      <trkpt lat="45.7798" lon="2.99196">
        <ele>902.1</ele>
        <time>2017-07-18T15:53:51Z</time>
      </trkpt>
      <trkpt lat="45.77979" lon="2.99193">
        <ele>902.2</ele>
        <time>2017-07-18T15:53:51Z</time>
      </trkpt>
      <trkpt lat="45.77978" lon="2.9919">
        <ele>902.3</ele>
        <time>2017-07-18T15:53:51Z</time>
      </trkpt>
      <trkpt lat="45.77976" lon="2.99187">
        <ele>902.5</ele>
        <time>2017-07-18T15:53:51Z</time>
      </trkpt>
      <trkpt lat="45.77974" lon="2.99185">
        <ele>902.6</ele>
        <time>2017-07-18T15:53:51Z</time>
      </trkpt>
      <trkpt lat="45.77973" lon="2.99182">
        <ele>902.8</ele>
        <time>2017-07-18T15:53:51Z</time>
      </trkpt>
      <trkpt lat="45.77971" lon="2.99179">
        <ele>902.9</ele>
        <time>2017-07-18T15:53:51Z</time>
      </trkpt>
      <trkpt lat="45.77969" lon="2.99176">
        <ele>903.1</ele>
        <time>2017-07-18T15:53:51Z</time>
      </trkpt>
      <trkpt lat="45.77968" lon="2.99174">
        <ele>903.2</ele>
        <time>2017-07-18T15:53:51Z</time>
      </trkpt>
      <trkpt lat="45.77967" lon="2.99171">
        <ele>903.3</ele>
        <time>2017-07-18T15:53:51Z</time>
      </trkpt>
      <trkpt lat="45.77967" lon="2.99169">
        <ele>903.4</ele>
        <time>2017-07-18T15:53:51Z</time>
      </trkpt>
      <trkpt lat="45.77966" lon="2.99166">
        <ele>903.5</ele>
        <time>2017-07-18T15:53:51Z</time>
      </trkpt>
      <trkpt lat="45.77964" lon="2.99163">
        <ele>903.7</ele>
        <time>2017-07-18T15:53:51Z</time>
      </trkpt>
      <trkpt lat="45.77962" lon="2.99161">
        <ele>904</ele>
        <time>2017-07-18T15:53:51Z</time>
      </trkpt>
      <trkpt lat="45.77959" lon="2.99159">
        <ele>904.2</ele>
        <time>2017-07-18T15:53:51Z</time>
      </trkpt>
      <trkpt lat="45.77956" lon="2.99158">
        <ele>904.4</ele>
        <time>2017-07-18T15:53:51Z</time>
      </trkpt>
      <trkpt lat="45.77954" lon="2.99158">
        <ele>904.6</ele>
        <time>2017-07-18T15:53:51Z</time>
      </trkpt>
      <trkpt lat="45.77953" lon="2.99158">
        <ele>904.7</ele>
        <time>2017-07-18T15:53:51Z</time>
      </trkpt>
      <trkpt lat="45.77952" lon="2.99157">
        <ele>904.8</ele>
        <time>2017-07-18T15:53:51Z</time>
      </trkpt>
      <trkpt lat="45.77949" lon="2.99157">
        <ele>905</ele>
        <time>2017-07-18T15:53:51Z</time>
      </trkpt>
      <trkpt lat="45.77946" lon="2.99157">
        <ele>905.2</ele>
        <time>2017-07-18T15:53:51Z</time>
      </trkpt>
      <trkpt lat="45.77943" lon="2.99156">
        <ele>905.4</ele>
        <time>2017-07-18T15:53:51Z</time>
      </trkpt>
      <trkpt lat="45.77941" lon="2.99154">
        <ele>905.6</ele>
        <time>2017-07-18T15:53:51Z</time>
      </trkpt>
      <trkpt lat="45.77939" lon="2.99152">
        <ele>905.8</ele>
        <time>2017-07-18T15:53:51Z</time>
      </trkpt>
      <trkpt lat="45.77937" lon="2.99149">
        <ele>906.1</ele>
        <time>2017-07-18T15:53:51Z</time>
      </trkpt>
      <trkpt lat="45.77935" lon="2.99147">
        <ele>906.3</ele>
        <time>2017-07-18T15:53:51Z</time>
      </trkpt>
      <trkpt lat="45.77933" lon="2.99144">
        <ele>906.5</ele>
        <time>2017-07-18T15:53:51Z</time>
      </trkpt>
      <trkpt lat="45.77932" lon="2.99141">
        <ele>906.7</ele>
        <time>2017-07-18T15:53:51Z</time>
      </trkpt>
      <trkpt lat="45.77931" lon="2.99137">
        <ele>906.8</ele>
        <time>2017-07-18T15:53:51Z</time>
      </trkpt>
      <trkpt lat="45.77932" lon="2.99135">
        <ele>906.8</ele>
        <time>2017-07-18T15:53:51Z</time>
      </trkpt>
      <trkpt lat="45.77932" lon="2.99132">
        <ele>906.9</ele>
        <time>2017-07-18T15:53:51Z</time>
      </trkpt>
      <trkpt lat="45.77931" lon="2.9913">
        <ele>907</ele>
        <time>2017-07-18T15:53:51Z</time>
      </trkpt>
      <trkpt lat="45.77931" lon="2.99127">
        <ele>907.1</ele>
        <time>2017-07-18T15:53:51Z</time>
      </trkpt>
      <trkpt lat="45.7793" lon="2.99124">
        <ele>907.2</ele>
        <time>2017-07-18T15:53:51Z</time>
      </trkpt>
      <trkpt lat="45.77929" lon="2.99121">
        <ele>907.3</ele>
        <time>2017-07-18T15:53:51Z</time>
      </trkpt>
      <trkpt lat="45.77928" lon="2.99117">
        <ele>907.5</ele>
        <time>2017-07-18T15:53:51Z</time>
      </trkpt>
      <trkpt lat="45.77927" lon="2.99114">
        <ele>907.7</ele>
        <time>2017-07-18T15:53:51Z</time>
      </trkpt>
      <trkpt lat="45.77926" lon="2.99112">
        <ele>907.8</ele>
        <time>2017-07-18T15:53:51Z</time>
      </trkpt>
      <trkpt lat="45.77924" lon="2.9911">
        <ele>907.9</ele>
        <time>2017-07-18T15:53:51Z</time>
      </trkpt>
      <trkpt lat="45.77921" lon="2.99108">
        <ele>908.1</ele>
        <time>2017-07-18T15:53:51Z</time>
      </trkpt>
      <trkpt lat="45.77918" lon="2.99107">
        <ele>908.3</ele>
        <time>2017-07-18T15:53:51Z</time>
      </trkpt>
      <trkpt lat="45.77916" lon="2.99106">
        <ele>908.5</ele>
        <time>2017-07-18T15:53:51Z</time>
      </trkpt>
      <trkpt lat="45.77913" lon="2.99105">
        <ele>908.5</ele>
        <time>2017-07-18T15:53:51Z</time>
      </trkpt>
      <trkpt lat="45.77911" lon="2.99103">
        <ele>908.6</ele>
        <time>2017-07-18T15:53:51Z</time>
      </trkpt>
      <trkpt lat="45.77909" lon="2.99102">
        <ele>908.7</ele>
        <time>2017-07-18T15:53:51Z</time>
      </trkpt>
      <trkpt lat="45.77907" lon="2.99101">
        <ele>908.7</ele>
        <time>2017-07-18T15:53:51Z</time>
      </trkpt>
      <trkpt lat="45.77905" lon="2.991">
        <ele>908.8</ele>
        <time>2017-07-18T15:53:51Z</time>
      </trkpt>
      <trkpt lat="45.77904" lon="2.99099">
        <ele>908.8</ele>
        <time>2017-07-18T15:53:51Z</time>
      </trkpt>
      <trkpt lat="45.77902" lon="2.99098">
        <ele>908.8</ele>
        <time>2017-07-18T15:53:51Z</time>
      </trkpt>
      <trkpt lat="45.77901" lon="2.99099">
        <ele>908.8</ele>
        <time>2017-07-18T15:53:51Z</time>
      </trkpt>
      <trkpt lat="45.779" lon="2.99098">
        <ele>908.8</ele>
        <time>2017-07-18T15:53:51Z</time>
      </trkpt>
      <trkpt lat="45.77896" lon="2.99098">
        <ele>908.9</ele>
        <time>2017-07-18T15:53:51Z</time>
      </trkpt>
      <trkpt lat="45.77894" lon="2.99097">
        <ele>909</ele>
        <time>2017-07-18T15:53:51Z</time>
      </trkpt>
      <trkpt lat="45.77891" lon="2.99096">
        <ele>909</ele>
        <time>2017-07-18T15:53:51Z</time>
      </trkpt>
      <trkpt lat="45.77888" lon="2.99095">
        <ele>909.1</ele>
        <time>2017-07-18T15:53:51Z</time>
      </trkpt>
      <trkpt lat="45.77885" lon="2.99094">
        <ele>909.1</ele>
        <time>2017-07-18T15:53:51Z</time>
      </trkpt>
      <trkpt lat="45.77882" lon="2.99094">
        <ele>909.2</ele>
        <time>2017-07-18T15:53:51Z</time>
      </trkpt>
      <trkpt lat="45.77878" lon="2.99094">
        <ele>909.2</ele>
        <time>2017-07-18T15:53:51Z</time>
      </trkpt>
      <trkpt lat="45.77874" lon="2.99094">
        <ele>909.3</ele>
        <time>2017-07-18T15:53:51Z</time>
      </trkpt>
      <trkpt lat="45.77872" lon="2.99093">
        <ele>909.3</ele>
        <time>2017-07-18T15:53:51Z</time>
      </trkpt>
      <trkpt lat="45.7787" lon="2.99092">
        <ele>909.4</ele>
        <time>2017-07-18T15:53:51Z</time>
      </trkpt>
      <trkpt lat="45.77867" lon="2.99091">
        <ele>909.4</ele>
        <time>2017-07-18T15:53:51Z</time>
      </trkpt>
      <trkpt lat="45.77865" lon="2.99091">
        <ele>909.4</ele>
        <time>2017-07-18T15:53:51Z</time>
      </trkpt>
      <trkpt lat="45.77863" lon="2.99091">
        <ele>909.5</ele>
        <time>2017-07-18T15:53:51Z</time>
      </trkpt>
      <trkpt lat="45.77861" lon="2.99091">
        <ele>909.5</ele>
        <time>2017-07-18T15:53:51Z</time>
      </trkpt>
      <trkpt lat="45.7786" lon="2.99091">
        <ele>909.5</ele>
        <time>2017-07-18T15:53:51Z</time>
      </trkpt>
      <trkpt lat="45.77857" lon="2.99092">
        <ele>909.5</ele>
        <time>2017-07-18T15:53:51Z</time>
      </trkpt>
      <trkpt lat="45.77856" lon="2.99093">
        <ele>909.5</ele>
        <time>2017-07-18T15:53:51Z</time>
      </trkpt>
      <trkpt lat="45.77853" lon="2.99094">
        <ele>909.5</ele>
        <time>2017-07-18T15:53:51Z</time>
      </trkpt>
      <trkpt lat="45.77851" lon="2.99095">
        <ele>909.5</ele>
        <time>2017-07-18T15:53:51Z</time>
      </trkpt>
      <trkpt lat="45.77849" lon="2.99095">
        <ele>909.5</ele>
        <time>2017-07-18T15:53:51Z</time>
      </trkpt>
      <trkpt lat="45.77847" lon="2.99096">
        <ele>909.5</ele>
        <time>2017-07-18T15:53:51Z</time>
      </trkpt>
      <trkpt lat="45.77845" lon="2.99096">
        <ele>909.5</ele>
        <time>2017-07-18T15:53:51Z</time>
      </trkpt>
      <trkpt lat="45.77843" lon="2.99097">
        <ele>909.5</ele>
        <time>2017-07-18T15:53:51Z</time>
      </trkpt>
      <trkpt lat="45.7784" lon="2.99098">
        <ele>909.6</ele>
        <time>2017-07-18T15:53:51Z</time>
      </trkpt>
      <trkpt lat="45.77838" lon="2.99099">
        <ele>909.6</ele>
        <time>2017-07-18T15:53:51Z</time>
      </trkpt>
      <trkpt lat="45.77836" lon="2.99099">
        <ele>909.6</ele>
        <time>2017-07-18T15:53:51Z</time>
      </trkpt>
      <trkpt lat="45.77835" lon="2.99099">
        <ele>909.6</ele>
        <time>2017-07-18T15:53:51Z</time>
      </trkpt>
      <trkpt lat="45.77835" lon="2.99099">
        <ele>909.6</ele>
        <time>2017-07-18T15:53:51Z</time>
      </trkpt>
      <trkpt lat="45.77833" lon="2.99099">
        <ele>909.6</ele>
        <time>2017-07-18T15:53:51Z</time>
      </trkpt>
      <trkpt lat="45.7783" lon="2.99099">
        <ele>909.3</ele>
        <time>2017-07-18T15:53:51Z</time>
      </trkpt>
      <trkpt lat="45.77828" lon="2.99099">
        <ele>909.3</ele>
        <time>2017-07-18T15:53:51Z</time>
      </trkpt>
      <trkpt lat="45.77827" lon="2.99099">
        <ele>909.2</ele>
        <time>2017-07-18T15:53:51Z</time>
      </trkpt>
      <trkpt lat="45.77825" lon="2.99099">
        <ele>909.1</ele>
        <time>2017-07-18T15:53:51Z</time>
      </trkpt>
      <trkpt lat="45.77824" lon="2.99099">
        <ele>908.9</ele>
        <time>2017-07-18T15:53:51Z</time>
      </trkpt>
      <trkpt lat="45.77821" lon="2.99099">
        <ele>908.8</ele>
        <time>2017-07-18T15:53:51Z</time>
      </trkpt>
      <trkpt lat="45.7782" lon="2.991">
        <ele>908.6</ele>
        <time>2017-07-18T15:53:51Z</time>
      </trkpt>
      <trkpt lat="45.77817" lon="2.99101">
        <ele>908.4</ele>
        <time>2017-07-18T15:53:51Z</time>
      </trkpt>
      <trkpt lat="45.77815" lon="2.991">
        <ele>908.2</ele>
        <time>2017-07-18T15:53:51Z</time>
      </trkpt>
      <trkpt lat="45.77813" lon="2.991">
        <ele>908.1</ele>
        <time>2017-07-18T15:53:51Z</time>
      </trkpt>
      <trkpt lat="45.77811" lon="2.99099">
        <ele>908</ele>
        <time>2017-07-18T15:53:51Z</time>
      </trkpt>
      <trkpt lat="45.7781" lon="2.991">
        <ele>907.9</ele>
        <time>2017-07-18T15:53:51Z</time>
      </trkpt>
      <trkpt lat="45.77809" lon="2.99101">
        <ele>907.8</ele>
        <time>2017-07-18T15:53:51Z</time>
      </trkpt>
      <trkpt lat="45.77808" lon="2.99103">
        <ele>907.7</ele>
        <time>2017-07-18T15:53:51Z</time>
      </trkpt>
      <trkpt lat="45.77808" lon="2.99106">
        <ele>907.6</ele>
        <time>2017-07-18T15:53:51Z</time>
      </trkpt>
      <trkpt lat="45.77806" lon="2.99109">
        <ele>907.4</ele>
        <time>2017-07-18T15:53:51Z</time>
      </trkpt>
      <trkpt lat="45.77805" lon="2.99111">
        <ele>907.3</ele>
        <time>2017-07-18T15:53:51Z</time>
      </trkpt>
      <trkpt lat="45.77803" lon="2.99113">
        <ele>907.1</ele>
        <time>2017-07-18T15:53:51Z</time>
      </trkpt>
      <trkpt lat="45.77801" lon="2.99115">
        <ele>906.9</ele>
        <time>2017-07-18T15:53:51Z</time>
      </trkpt>
      <trkpt lat="45.77801" lon="2.99118">
        <ele>906.8</ele>
        <time>2017-07-18T15:53:51Z</time>
      </trkpt>
      <trkpt lat="45.778" lon="2.99121">
        <ele>906.7</ele>
        <time>2017-07-18T15:53:51Z</time>
      </trkpt>
      <trkpt lat="45.77799" lon="2.99123">
        <ele>906.6</ele>
        <time>2017-07-18T15:53:51Z</time>
      </trkpt>
      <trkpt lat="45.77799" lon="2.99126">
        <ele>906.5</ele>
        <time>2017-07-18T15:53:51Z</time>
      </trkpt>
      <trkpt lat="45.77798" lon="2.99129">
        <ele>906.4</ele>
        <time>2017-07-18T15:53:51Z</time>
      </trkpt>
      <trkpt lat="45.77796" lon="2.99131">
        <ele>906.2</ele>
        <time>2017-07-18T15:53:51Z</time>
      </trkpt>
      <trkpt lat="45.77795" lon="2.99134">
        <ele>906</ele>
        <time>2017-07-18T15:53:51Z</time>
      </trkpt>
      <trkpt lat="45.77794" lon="2.99137">
        <ele>905.9</ele>
        <time>2017-07-18T15:53:51Z</time>
      </trkpt>
      <trkpt lat="45.77794" lon="2.9914">
        <ele>905.8</ele>
        <time>2017-07-18T15:53:51Z</time>
      </trkpt>
      <trkpt lat="45.77793" lon="2.99144">
        <ele>905.7</ele>
        <time>2017-07-18T15:53:51Z</time>
      </trkpt>
      <trkpt lat="45.77793" lon="2.99147">
        <ele>905.5</ele>
        <time>2017-07-18T15:53:51Z</time>
      </trkpt>
      <trkpt lat="45.77792" lon="2.99151">
        <ele>905.4</ele>
        <time>2017-07-18T15:53:51Z</time>
      </trkpt>
      <trkpt lat="45.77791" lon="2.99153">
        <ele>905.2</ele>
        <time>2017-07-18T15:53:51Z</time>
      </trkpt>
      <trkpt lat="45.7779" lon="2.99156">
        <ele>905.1</ele>
        <time>2017-07-18T15:53:51Z</time>
      </trkpt>
      <trkpt lat="45.77788" lon="2.99159">
        <ele>904.9</ele>
        <time>2017-07-18T15:53:51Z</time>
      </trkpt>
      <trkpt lat="45.77787" lon="2.99162">
        <ele>904.8</ele>
        <time>2017-07-18T15:53:51Z</time>
      </trkpt>
      <trkpt lat="45.77785" lon="2.99164">
        <ele>904.6</ele>
        <time>2017-07-18T15:53:51Z</time>
      </trkpt>
      <trkpt lat="45.77784" lon="2.99168">
        <ele>904.5</ele>
        <time>2017-07-18T15:53:51Z</time>
      </trkpt>
      <trkpt lat="45.77784" lon="2.99172">
        <ele>904.5</ele>
        <time>2017-07-18T15:53:51Z</time>
      </trkpt>
      <trkpt lat="45.77782" lon="2.99175">
        <ele>904.4</ele>
        <time>2017-07-18T15:53:51Z</time>
      </trkpt>
      <trkpt lat="45.77781" lon="2.99178">
        <ele>904.3</ele>
        <time>2017-07-18T15:53:51Z</time>
      </trkpt>
      <trkpt lat="45.77782" lon="2.99184">
        <ele>904.4</ele>
        <time>2017-07-18T15:53:51Z</time>
      </trkpt>
      <trkpt lat="45.77781" lon="2.99188">
        <ele>904.4</ele>
        <time>2017-07-18T15:53:51Z</time>
      </trkpt>
      <trkpt lat="45.7778" lon="2.9919">
        <ele>904.3</ele>
        <time>2017-07-18T15:53:51Z</time>
      </trkpt>
      <trkpt lat="45.77778" lon="2.99192">
        <ele>904.2</ele>
        <time>2017-07-18T15:53:51Z</time>
      </trkpt>
      <trkpt lat="45.77776" lon="2.99195">
        <ele>904.1</ele>
        <time>2017-07-18T15:53:51Z</time>
      </trkpt>
      <trkpt lat="45.77775" lon="2.99198">
        <ele>904.1</ele>
        <time>2017-07-18T15:53:51Z</time>
      </trkpt>
      <trkpt lat="45.77773" lon="2.992">
        <ele>904</ele>
        <time>2017-07-18T15:53:51Z</time>
      </trkpt>
      <trkpt lat="45.77772" lon="2.99203">
        <ele>904</ele>
        <time>2017-07-18T15:53:51Z</time>
      </trkpt>
      <trkpt lat="45.77771" lon="2.99206">
        <ele>904</ele>
        <time>2017-07-18T15:53:51Z</time>
      </trkpt>
      <trkpt lat="45.7777" lon="2.99209">
        <ele>903.9</ele>
        <time>2017-07-18T15:53:51Z</time>
      </trkpt>
      <trkpt lat="45.77768" lon="2.99212">
        <ele>903.9</ele>
        <time>2017-07-18T15:53:51Z</time>
      </trkpt>
      <trkpt lat="45.77767" lon="2.99214">
        <ele>903.9</ele>
        <time>2017-07-18T15:53:51Z</time>
      </trkpt>
      <trkpt lat="45.77767" lon="2.99218">
        <ele>903.9</ele>
        <time>2017-07-18T15:53:51Z</time>
      </trkpt>
      <trkpt lat="45.77767" lon="2.99223">
        <ele>904</ele>
        <time>2017-07-18T15:53:51Z</time>
      </trkpt>
      <trkpt lat="45.77766" lon="2.99226">
        <ele>904</ele>
        <time>2017-07-18T15:53:51Z</time>
      </trkpt>
      <trkpt lat="45.77765" lon="2.9923">
        <ele>904.1</ele>
        <time>2017-07-18T15:53:51Z</time>
      </trkpt>
      <trkpt lat="45.77765" lon="2.99235">
        <ele>904.1</ele>
        <time>2017-07-18T15:53:51Z</time>
      </trkpt>
      <trkpt lat="45.77764" lon="2.99238">
        <ele>904.1</ele>
        <time>2017-07-18T15:53:51Z</time>
      </trkpt>
      <trkpt lat="45.77764" lon="2.99242">
        <ele>904.2</ele>
        <time>2017-07-18T15:53:51Z</time>
      </trkpt>
      <trkpt lat="45.77764" lon="2.99246">
        <ele>904.3</ele>
        <time>2017-07-18T15:53:51Z</time>
      </trkpt>
      <trkpt lat="45.77762" lon="2.99248">
        <ele>904.3</ele>
        <time>2017-07-18T15:53:51Z</time>
      </trkpt>
      <trkpt lat="45.77761" lon="2.99251">
        <ele>904.3</ele>
        <time>2017-07-18T15:53:51Z</time>
      </trkpt>
      <trkpt lat="45.7776" lon="2.99253">
        <ele>904.2</ele>
        <time>2017-07-18T15:53:51Z</time>
      </trkpt>
      <trkpt lat="45.77758" lon="2.99256">
        <ele>904.1</ele>
        <time>2017-07-18T15:53:51Z</time>
      </trkpt>
      <trkpt lat="45.77757" lon="2.99258">
        <ele>904.1</ele>
        <time>2017-07-18T15:53:51Z</time>
      </trkpt>
      <trkpt lat="45.77756" lon="2.99261">
        <ele>904</ele>
        <time>2017-07-18T15:53:51Z</time>
      </trkpt>
      <trkpt lat="45.77755" lon="2.99263">
        <ele>904</ele>
        <time>2017-07-18T15:53:51Z</time>
      </trkpt>
      <trkpt lat="45.77754" lon="2.99266">
        <ele>903.9</ele>
        <time>2017-07-18T15:53:51Z</time>
      </trkpt>
      <trkpt lat="45.77752" lon="2.99268">
        <ele>903.8</ele>
        <time>2017-07-18T15:53:51Z</time>
      </trkpt>
      <trkpt lat="45.77751" lon="2.99271">
        <ele>903.8</ele>
        <time>2017-07-18T15:53:51Z</time>
      </trkpt>
      <trkpt lat="45.77749" lon="2.99274">
        <ele>903.7</ele>
        <time>2017-07-18T15:53:51Z</time>
      </trkpt>
      <trkpt lat="45.77749" lon="2.99279">
        <ele>903.6</ele>
        <time>2017-07-18T15:53:51Z</time>
      </trkpt>
      <trkpt lat="45.77748" lon="2.99282">
        <ele>903.5</ele>
        <time>2017-07-18T15:53:51Z</time>
      </trkpt>
      <trkpt lat="45.77747" lon="2.99285">
        <ele>903.4</ele>
        <time>2017-07-18T15:53:51Z</time>
      </trkpt>
      <trkpt lat="45.77745" lon="2.99287">
        <ele>903.3</ele>
        <time>2017-07-18T15:53:51Z</time>
      </trkpt>
      <trkpt lat="45.77743" lon="2.9929">
        <ele>903.2</ele>
        <time>2017-07-18T15:53:51Z</time>
      </trkpt>
      <trkpt lat="45.77741" lon="2.99293">
        <ele>903.1</ele>
        <time>2017-07-18T15:53:51Z</time>
      </trkpt>
      <trkpt lat="45.7774" lon="2.99295">
        <ele>903</ele>
        <time>2017-07-18T15:53:51Z</time>
      </trkpt>
      <trkpt lat="45.77739" lon="2.99298">
        <ele>902.9</ele>
        <time>2017-07-18T15:53:51Z</time>
      </trkpt>
      <trkpt lat="45.77737" lon="2.99301">
        <ele>902.8</ele>
        <time>2017-07-18T15:53:51Z</time>
      </trkpt>
      <trkpt lat="45.77735" lon="2.99303">
        <ele>902.6</ele>
        <time>2017-07-18T15:53:51Z</time>
      </trkpt>
      <trkpt lat="45.77734" lon="2.99306">
        <ele>902.5</ele>
        <time>2017-07-18T15:53:51Z</time>
      </trkpt>
      <trkpt lat="45.77733" lon="2.9931">
        <ele>902.4</ele>
        <time>2017-07-18T15:53:51Z</time>
      </trkpt>
      <trkpt lat="45.77733" lon="2.99314">
        <ele>902.3</ele>
        <time>2017-07-18T15:53:51Z</time>
      </trkpt>
      <trkpt lat="45.77731" lon="2.99317">
        <ele>902.2</ele>
        <time>2017-07-18T15:53:51Z</time>
      </trkpt>
      <trkpt lat="45.7773" lon="2.99319">
        <ele>902.1</ele>
        <time>2017-07-18T15:53:51Z</time>
      </trkpt>
      <trkpt lat="45.77728" lon="2.99322">
        <ele>901.9</ele>
        <time>2017-07-18T15:53:51Z</time>
      </trkpt>
      <trkpt lat="45.77726" lon="2.99325">
        <ele>901.8</ele>
        <time>2017-07-18T15:53:51Z</time>
      </trkpt>
      <trkpt lat="45.77725" lon="2.99328">
        <ele>901.6</ele>
        <time>2017-07-18T15:53:51Z</time>
      </trkpt>
      <trkpt lat="45.77723" lon="2.9933">
        <ele>901.4</ele>
        <time>2017-07-18T15:53:51Z</time>
      </trkpt>
      <trkpt lat="45.77721" lon="2.99333">
        <ele>901.3</ele>
        <time>2017-07-18T15:53:51Z</time>
      </trkpt>
      <trkpt lat="45.77719" lon="2.99336">
        <ele>901.2</ele>
        <time>2017-07-18T15:53:51Z</time>
      </trkpt>
      <trkpt lat="45.77717" lon="2.99338">
        <ele>901</ele>
        <time>2017-07-18T15:53:51Z</time>
      </trkpt>
      <trkpt lat="45.77714" lon="2.99338">
        <ele>900.9</ele>
        <time>2017-07-18T15:53:51Z</time>
      </trkpt>
      <trkpt lat="45.77712" lon="2.99339">
        <ele>900.7</ele>
        <time>2017-07-18T15:53:51Z</time>
      </trkpt>
      <trkpt lat="45.7771" lon="2.99339">
        <ele>900.6</ele>
        <time>2017-07-18T15:53:51Z</time>
      </trkpt>
      <trkpt lat="45.77708" lon="2.99339">
        <ele>900.5</ele>
        <time>2017-07-18T15:53:51Z</time>
      </trkpt>
      <trkpt lat="45.77706" lon="2.99338">
        <ele>900.4</ele>
        <time>2017-07-18T15:53:51Z</time>
      </trkpt>
      <trkpt lat="45.77703" lon="2.99337">
        <ele>900.2</ele>
        <time>2017-07-18T15:53:51Z</time>
      </trkpt>
      <trkpt lat="45.77701" lon="2.99337">
        <ele>900.1</ele>
        <time>2017-07-18T15:53:51Z</time>
      </trkpt>
      <trkpt lat="45.77699" lon="2.99337">
        <ele>899.9</ele>
        <time>2017-07-18T15:53:51Z</time>
      </trkpt>
      <trkpt lat="45.77696" lon="2.99336">
        <ele>899.8</ele>
        <time>2017-07-18T15:53:51Z</time>
      </trkpt>
      <trkpt lat="45.77694" lon="2.99336">
        <ele>899.7</ele>
        <time>2017-07-18T15:53:51Z</time>
      </trkpt>
      <trkpt lat="45.77692" lon="2.99336">
        <ele>899.5</ele>
        <time>2017-07-18T15:53:51Z</time>
      </trkpt>
      <trkpt lat="45.7769" lon="2.99335">
        <ele>899.4</ele>
        <time>2017-07-18T15:53:51Z</time>
      </trkpt>
      <trkpt lat="45.77688" lon="2.99335">
        <ele>899.3</ele>
        <time>2017-07-18T15:53:51Z</time>
      </trkpt>
      <trkpt lat="45.77686" lon="2.99334">
        <ele>899.1</ele>
        <time>2017-07-18T15:53:51Z</time>
      </trkpt>
      <trkpt lat="45.77683" lon="2.99334">
        <ele>899</ele>
        <time>2017-07-18T15:53:51Z</time>
      </trkpt>
      <trkpt lat="45.77681" lon="2.99334">
        <ele>898.8</ele>
        <time>2017-07-18T15:53:51Z</time>
      </trkpt>
      <trkpt lat="45.77678" lon="2.99333">
        <ele>898.7</ele>
        <time>2017-07-18T15:53:51Z</time>
      </trkpt>
      <trkpt lat="45.77676" lon="2.99333">
        <ele>898.6</ele>
        <time>2017-07-18T15:53:51Z</time>
      </trkpt>
      <trkpt lat="45.77674" lon="2.99332">
        <ele>898.5</ele>
        <time>2017-07-18T15:53:51Z</time>
      </trkpt>
      <trkpt lat="45.77671" lon="2.99332">
        <ele>898.4</ele>
        <time>2017-07-18T15:53:51Z</time>
      </trkpt>
      <trkpt lat="45.77669" lon="2.99331">
        <ele>898.3</ele>
        <time>2017-07-18T15:53:51Z</time>
      </trkpt>
      <trkpt lat="45.77667" lon="2.9933">
        <ele>898.2</ele>
        <time>2017-07-18T15:53:51Z</time>
      </trkpt>
      <trkpt lat="45.77665" lon="2.9933">
        <ele>898.1</ele>
        <time>2017-07-18T15:53:51Z</time>
      </trkpt>
      <trkpt lat="45.77662" lon="2.99329">
        <ele>898.1</ele>
        <time>2017-07-18T15:53:51Z</time>
      </trkpt>
      <trkpt lat="45.7766" lon="2.99328">
        <ele>898</ele>
        <time>2017-07-18T15:53:51Z</time>
      </trkpt>
      <trkpt lat="45.77658" lon="2.99327">
        <ele>898</ele>
        <time>2017-07-18T15:53:51Z</time>
      </trkpt>
      <trkpt lat="45.77656" lon="2.99327">
        <ele>897.9</ele>
        <time>2017-07-18T15:53:51Z</time>
      </trkpt>
      <trkpt lat="45.77654" lon="2.99326">
        <ele>897.9</ele>
        <time>2017-07-18T15:53:51Z</time>
      </trkpt>
      <trkpt lat="45.77652" lon="2.99325">
        <ele>897.8</ele>
        <time>2017-07-18T15:53:51Z</time>
      </trkpt>
      <trkpt lat="45.77649" lon="2.99325">
        <ele>897.8</ele>
        <time>2017-07-18T15:53:51Z</time>
      </trkpt>
      <trkpt lat="45.77647" lon="2.99325">
        <ele>897.7</ele>
        <time>2017-07-18T15:53:51Z</time>
      </trkpt>
      <trkpt lat="45.77645" lon="2.99326">
        <ele>897.6</ele>
        <time>2017-07-18T15:53:51Z</time>
      </trkpt>
      <trkpt lat="45.77643" lon="2.99328">
        <ele>897.4</ele>
        <time>2017-07-18T15:53:51Z</time>
      </trkpt>
      <trkpt lat="45.77642" lon="2.99331">
        <ele>897.2</ele>
        <time>2017-07-18T15:53:51Z</time>
      </trkpt>
      <trkpt lat="45.77641" lon="2.99333">
        <ele>897.1</ele>
        <time>2017-07-18T15:53:51Z</time>
      </trkpt>
      <trkpt lat="45.77641" lon="2.99336">
        <ele>897.1</ele>
        <time>2017-07-18T15:53:51Z</time>
      </trkpt>
      <trkpt lat="45.77641" lon="2.99339">
        <ele>897.1</ele>
        <time>2017-07-18T15:53:51Z</time>
      </trkpt>
      <trkpt lat="45.77641" lon="2.99341">
        <ele>897.1</ele>
        <time>2017-07-18T15:53:51Z</time>
      </trkpt>
      <trkpt lat="45.7764" lon="2.99343">
        <ele>897.1</ele>
        <time>2017-07-18T15:53:51Z</time>
      </trkpt>
      <trkpt lat="45.77639" lon="2.99347">
        <ele>897</ele>
        <time>2017-07-18T15:53:51Z</time>
      </trkpt>
      <trkpt lat="45.77639" lon="2.99347">
        <ele>897</ele>
        <time>2017-07-18T15:53:51Z</time>
      </trkpt>
      <trkpt lat="45.77639" lon="2.99347">
        <ele>897</ele>
        <time>2017-07-18T15:53:51Z</time>
      </trkpt>
      <trkpt lat="45.77639" lon="2.99349">
        <ele>897</ele>
        <time>2017-07-18T15:53:51Z</time>
      </trkpt>
      <trkpt lat="45.77639" lon="2.99353">
        <ele>897</ele>
        <time>2017-07-18T15:53:51Z</time>
      </trkpt>
      <trkpt lat="45.77639" lon="2.99357">
        <ele>897</ele>
        <time>2017-07-18T15:53:51Z</time>
      </trkpt>
      <trkpt lat="45.77638" lon="2.9936">
        <ele>897</ele>
        <time>2017-07-18T15:53:51Z</time>
      </trkpt>
      <trkpt lat="45.77638" lon="2.99363">
        <ele>897</ele>
        <time>2017-07-18T15:53:51Z</time>
      </trkpt>
      <trkpt lat="45.77637" lon="2.99367">
        <ele>896.9</ele>
        <time>2017-07-18T15:53:51Z</time>
      </trkpt>
      <trkpt lat="45.77637" lon="2.99371">
        <ele>896.9</ele>
        <time>2017-07-18T15:53:51Z</time>
      </trkpt>
      <trkpt lat="45.77636" lon="2.99374">
        <ele>896.9</ele>
        <time>2017-07-18T15:53:51Z</time>
      </trkpt>
      <trkpt lat="45.77636" lon="2.99378">
        <ele>896.9</ele>
        <time>2017-07-18T15:53:51Z</time>
      </trkpt>
      <trkpt lat="45.77636" lon="2.99382">
        <ele>896.9</ele>
        <time>2017-07-18T15:53:51Z</time>
      </trkpt>
      <trkpt lat="45.77635" lon="2.99385">
        <ele>896.9</ele>
        <time>2017-07-18T15:53:51Z</time>
      </trkpt>
      <trkpt lat="45.77635" lon="2.99388">
        <ele>896.8</ele>
        <time>2017-07-18T15:53:51Z</time>
      </trkpt>
      <trkpt lat="45.77634" lon="2.99391">
        <ele>896.8</ele>
        <time>2017-07-18T15:53:51Z</time>
      </trkpt>
      <trkpt lat="45.77634" lon="2.99395">
        <ele>896.8</ele>
        <time>2017-07-18T15:53:51Z</time>
      </trkpt>
      <trkpt lat="45.77633" lon="2.99398">
        <ele>896.8</ele>
        <time>2017-07-18T15:53:51Z</time>
      </trkpt>
      <trkpt lat="45.77633" lon="2.99401">
        <ele>896.8</ele>
        <time>2017-07-18T15:53:51Z</time>
      </trkpt>
      <trkpt lat="45.77632" lon="2.99404">
        <ele>896.8</ele>
        <time>2017-07-18T15:53:51Z</time>
      </trkpt>
      <trkpt lat="45.77632" lon="2.99407">
        <ele>896.7</ele>
        <time>2017-07-18T15:53:51Z</time>
      </trkpt>
      <trkpt lat="45.77632" lon="2.99411">
        <ele>896.7</ele>
        <time>2017-07-18T15:53:51Z</time>
      </trkpt>
      <trkpt lat="45.77632" lon="2.99414">
        <ele>896.7</ele>
        <time>2017-07-18T15:53:51Z</time>
      </trkpt>
      <trkpt lat="45.77632" lon="2.99418">
        <ele>896.7</ele>
        <time>2017-07-18T15:53:51Z</time>
      </trkpt>
      <trkpt lat="45.77631" lon="2.99421">
        <ele>896.6</ele>
        <time>2017-07-18T15:53:51Z</time>
      </trkpt>
      <trkpt lat="45.77631" lon="2.99423">
        <ele>896.6</ele>
        <time>2017-07-18T15:53:51Z</time>
      </trkpt>
      <trkpt lat="45.7763" lon="2.99427">
        <ele>896.5</ele>
        <time>2017-07-18T15:53:51Z</time>
      </trkpt>
      <trkpt lat="45.7763" lon="2.9943">
        <ele>896.4</ele>
        <time>2017-07-18T15:53:51Z</time>
      </trkpt>
      <trkpt lat="45.77629" lon="2.99433">
        <ele>896.3</ele>
        <time>2017-07-18T15:53:51Z</time>
      </trkpt>
      <trkpt lat="45.77629" lon="2.99435">
        <ele>896.3</ele>
        <time>2017-07-18T15:53:51Z</time>
      </trkpt>
      <trkpt lat="45.77629" lon="2.99439">
        <ele>896.2</ele>
        <time>2017-07-18T15:53:51Z</time>
      </trkpt>
      <trkpt lat="45.77629" lon="2.99442">
        <ele>896.1</ele>
        <time>2017-07-18T15:53:51Z</time>
      </trkpt>
      <trkpt lat="45.77628" lon="2.99446">
        <ele>896</ele>
        <time>2017-07-18T15:53:51Z</time>
      </trkpt>
      <trkpt lat="45.77628" lon="2.99449">
        <ele>895.9</ele>
        <time>2017-07-18T15:53:51Z</time>
      </trkpt>
      <trkpt lat="45.77628" lon="2.99453">
        <ele>895.9</ele>
        <time>2017-07-18T15:53:51Z</time>
      </trkpt>
      <trkpt lat="45.77629" lon="2.99457">
        <ele>895.8</ele>
        <time>2017-07-18T15:53:51Z</time>
      </trkpt>
      <trkpt lat="45.77629" lon="2.99462">
        <ele>895.7</ele>
        <time>2017-07-18T15:53:51Z</time>
      </trkpt>
      <trkpt lat="45.77628" lon="2.99465">
        <ele>895.6</ele>
        <time>2017-07-18T15:53:51Z</time>
      </trkpt>
      <trkpt lat="45.77628" lon="2.99469">
        <ele>895.5</ele>
        <time>2017-07-18T15:53:51Z</time>
      </trkpt>
      <trkpt lat="45.77628" lon="2.99473">
        <ele>895.4</ele>
        <time>2017-07-18T15:53:51Z</time>
      </trkpt>
      <trkpt lat="45.77627" lon="2.99477">
        <ele>895.3</ele>
        <time>2017-07-18T15:53:51Z</time>
      </trkpt>
      <trkpt lat="45.77627" lon="2.9948">
        <ele>895.2</ele>
        <time>2017-07-18T15:53:51Z</time>
      </trkpt>
      <trkpt lat="45.77627" lon="2.99484">
        <ele>895</ele>
        <time>2017-07-18T15:53:51Z</time>
      </trkpt>
      <trkpt lat="45.77626" lon="2.99488">
        <ele>894.9</ele>
        <time>2017-07-18T15:53:51Z</time>
      </trkpt>
      <trkpt lat="45.77626" lon="2.99492">
        <ele>894.8</ele>
        <time>2017-07-18T15:53:51Z</time>
      </trkpt>
      <trkpt lat="45.77626" lon="2.99496">
        <ele>894.7</ele>
        <time>2017-07-18T15:53:51Z</time>
      </trkpt>
      <trkpt lat="45.77626" lon="2.99501">
        <ele>894.5</ele>
        <time>2017-07-18T15:53:51Z</time>
      </trkpt>
      <trkpt lat="45.77626" lon="2.99506">
        <ele>894.2</ele>
        <time>2017-07-18T15:53:51Z</time>
      </trkpt>
      <trkpt lat="45.77625" lon="2.99508">
        <ele>894</ele>
        <time>2017-07-18T15:53:51Z</time>
      </trkpt>
      <trkpt lat="45.77625" lon="2.99511">
        <ele>893.8</ele>
        <time>2017-07-18T15:53:51Z</time>
      </trkpt>
      <trkpt lat="45.77624" lon="2.99513">
        <ele>893.6</ele>
        <time>2017-07-18T15:53:51Z</time>
      </trkpt>
      <trkpt lat="45.77623" lon="2.99516">
        <ele>893.3</ele>
        <time>2017-07-18T15:53:51Z</time>
      </trkpt>
      <trkpt lat="45.77622" lon="2.99518">
        <ele>893.1</ele>
        <time>2017-07-18T15:53:51Z</time>
      </trkpt>
      <trkpt lat="45.77621" lon="2.99521">
        <ele>892.8</ele>
        <time>2017-07-18T15:53:51Z</time>
      </trkpt>
      <trkpt lat="45.7762" lon="2.99523">
        <ele>892.5</ele>
        <time>2017-07-18T15:53:51Z</time>
      </trkpt>
      <trkpt lat="45.77618" lon="2.99525">
        <ele>892.2</ele>
        <time>2017-07-18T15:53:51Z</time>
      </trkpt>
      <trkpt lat="45.77617" lon="2.99527">
        <ele>892</ele>
        <time>2017-07-18T15:53:51Z</time>
      </trkpt>
      <trkpt lat="45.77616" lon="2.9953">
        <ele>891.7</ele>
        <time>2017-07-18T15:53:51Z</time>
      </trkpt>
      <trkpt lat="45.77615" lon="2.99532">
        <ele>891.4</ele>
        <time>2017-07-18T15:53:51Z</time>
      </trkpt>
      <trkpt lat="45.77614" lon="2.99535">
        <ele>891.2</ele>
        <time>2017-07-18T15:53:51Z</time>
      </trkpt>
      <trkpt lat="45.77613" lon="2.99537">
        <ele>890.9</ele>
        <time>2017-07-18T15:53:51Z</time>
      </trkpt>
      <trkpt lat="45.77613" lon="2.9954">
        <ele>890.7</ele>
        <time>2017-07-18T15:53:51Z</time>
      </trkpt>
      <trkpt lat="45.77613" lon="2.99543">
        <ele>890.5</ele>
        <time>2017-07-18T15:53:51Z</time>
      </trkpt>
      <trkpt lat="45.77612" lon="2.99545">
        <ele>890.2</ele>
        <time>2017-07-18T15:53:51Z</time>
      </trkpt>
      <trkpt lat="45.7761" lon="2.99547">
        <ele>889.9</ele>
        <time>2017-07-18T15:53:51Z</time>
      </trkpt>
      <trkpt lat="45.7761" lon="2.99549">
        <ele>889.7</ele>
        <time>2017-07-18T15:53:51Z</time>
      </trkpt>
      <trkpt lat="45.77609" lon="2.99549">
        <ele>889.6</ele>
        <time>2017-07-18T15:53:51Z</time>
      </trkpt>
      <trkpt lat="45.7761" lon="2.9955">
        <ele>889.6</ele>
        <time>2017-07-18T15:53:51Z</time>
      </trkpt>
      <trkpt lat="45.7761" lon="2.99551">
        <ele>889.6</ele>
        <time>2017-07-18T15:53:51Z</time>
      </trkpt>
      <trkpt lat="45.77609" lon="2.99553">
        <ele>889.4</ele>
        <time>2017-07-18T15:53:51Z</time>
      </trkpt>
      <trkpt lat="45.77609" lon="2.99554">
        <ele>889.2</ele>
        <time>2017-07-18T15:53:51Z</time>
      </trkpt>
      <trkpt lat="45.77608" lon="2.99557">
        <ele>889</ele>
        <time>2017-07-18T15:53:51Z</time>
      </trkpt>
      <trkpt lat="45.77607" lon="2.99559">
        <ele>888.7</ele>
        <time>2017-07-18T15:53:51Z</time>
      </trkpt>
      <trkpt lat="45.77606" lon="2.99561">
        <ele>888.5</ele>
        <time>2017-07-18T15:53:51Z</time>
      </trkpt>
      <trkpt lat="45.77605" lon="2.99564">
        <ele>888.1</ele>
        <time>2017-07-18T15:53:51Z</time>
      </trkpt>
      <trkpt lat="45.77605" lon="2.99567">
        <ele>887.8</ele>
        <time>2017-07-18T15:53:51Z</time>
      </trkpt>
      <trkpt lat="45.77604" lon="2.9957">
        <ele>887.6</ele>
        <time>2017-07-18T15:53:51Z</time>
      </trkpt>
      <trkpt lat="45.77602" lon="2.99572">
        <ele>887.3</ele>
        <time>2017-07-18T15:53:51Z</time>
      </trkpt>
      <trkpt lat="45.77602" lon="2.99575">
        <ele>887</ele>
        <time>2017-07-18T15:53:51Z</time>
      </trkpt>
      <trkpt lat="45.77601" lon="2.99578">
        <ele>886.7</ele>
        <time>2017-07-18T15:53:51Z</time>
      </trkpt>
      <trkpt lat="45.77601" lon="2.99581">
        <ele>886.4</ele>
        <time>2017-07-18T15:53:51Z</time>
      </trkpt>
      <trkpt lat="45.776" lon="2.99584">
        <ele>886.2</ele>
        <time>2017-07-18T15:53:51Z</time>
      </trkpt>
      <trkpt lat="45.77599" lon="2.99586">
        <ele>885.9</ele>
        <time>2017-07-18T15:53:51Z</time>
      </trkpt>
      <trkpt lat="45.77598" lon="2.99588">
        <ele>885.7</ele>
        <time>2017-07-18T15:53:51Z</time>
      </trkpt>
      <trkpt lat="45.77597" lon="2.9959">
        <ele>885.4</ele>
        <time>2017-07-18T15:53:51Z</time>
      </trkpt>
      <trkpt lat="45.77595" lon="2.99592">
        <ele>885.2</ele>
        <time>2017-07-18T15:53:51Z</time>
      </trkpt>
      <trkpt lat="45.77594" lon="2.99595">
        <ele>884.9</ele>
        <time>2017-07-18T15:53:51Z</time>
      </trkpt>
      <trkpt lat="45.77593" lon="2.99596">
        <ele>884.8</ele>
        <time>2017-07-18T15:53:51Z</time>
      </trkpt>
      <trkpt lat="45.77592" lon="2.99598">
        <ele>884.6</ele>
        <time>2017-07-18T15:53:51Z</time>
      </trkpt>
      <trkpt lat="45.77591" lon="2.99599">
        <ele>884.3</ele>
        <time>2017-07-18T15:53:51Z</time>
      </trkpt>
      <trkpt lat="45.77589" lon="2.996">
        <ele>884.1</ele>
        <time>2017-07-18T15:53:51Z</time>
      </trkpt>
      <trkpt lat="45.77587" lon="2.996">
        <ele>883.8</ele>
        <time>2017-07-18T15:53:51Z</time>
      </trkpt>
      <trkpt lat="45.77585" lon="2.99599">
        <ele>883.6</ele>
        <time>2017-07-18T15:53:51Z</time>
      </trkpt>
      <trkpt lat="45.77583" lon="2.99597">
        <ele>883.4</ele>
        <time>2017-07-18T15:53:51Z</time>
      </trkpt>
      <trkpt lat="45.77581" lon="2.99595">
        <ele>883.3</ele>
        <time>2017-07-18T15:53:51Z</time>
      </trkpt>
      <trkpt lat="45.77581" lon="2.99595">
        <ele>883.3</ele>
        <time>2017-07-18T15:53:51Z</time>
      </trkpt>
      <trkpt lat="45.7758" lon="2.99591">
        <ele>883.3</ele>
        <time>2017-07-18T15:53:51Z</time>
      </trkpt>
      <trkpt lat="45.77579" lon="2.99588">
        <ele>883.2</ele>
        <time>2017-07-18T15:53:51Z</time>
      </trkpt>
      <trkpt lat="45.77578" lon="2.99586">
        <ele>883.2</ele>
        <time>2017-07-18T15:53:51Z</time>
      </trkpt>
      <trkpt lat="45.77576" lon="2.99583">
        <ele>883.1</ele>
        <time>2017-07-18T15:53:51Z</time>
      </trkpt>
      <trkpt lat="45.77575" lon="2.99581">
        <ele>883.1</ele>
        <time>2017-07-18T15:53:51Z</time>
      </trkpt>
      <trkpt lat="45.77574" lon="2.99578">
        <ele>883.1</ele>
        <time>2017-07-18T15:53:51Z</time>
      </trkpt>
      <trkpt lat="45.77572" lon="2.99575">
        <ele>883.1</ele>
        <time>2017-07-18T15:53:51Z</time>
      </trkpt>
      <trkpt lat="45.77571" lon="2.99572">
        <ele>883</ele>
        <time>2017-07-18T15:53:51Z</time>
      </trkpt>
      <trkpt lat="45.77569" lon="2.9957">
        <ele>883</ele>
        <time>2017-07-18T15:53:51Z</time>
      </trkpt>
      <trkpt lat="45.77567" lon="2.99568">
        <ele>882.9</ele>
        <time>2017-07-18T15:53:51Z</time>
      </trkpt>
      <trkpt lat="45.77566" lon="2.99565">
        <ele>882.8</ele>
        <time>2017-07-18T15:53:51Z</time>
      </trkpt>
      <trkpt lat="45.77564" lon="2.99563">
        <ele>882.8</ele>
        <time>2017-07-18T15:53:51Z</time>
      </trkpt>
      <trkpt lat="45.77562" lon="2.9956">
        <ele>882.7</ele>
        <time>2017-07-18T15:53:51Z</time>
      </trkpt>
      <trkpt lat="45.7756" lon="2.99558">
        <ele>882.6</ele>
        <time>2017-07-18T15:53:51Z</time>
      </trkpt>
      <trkpt lat="45.77558" lon="2.99556">
        <ele>882.4</ele>
        <time>2017-07-18T15:53:51Z</time>
      </trkpt>
      <trkpt lat="45.77557" lon="2.99554">
        <ele>882.3</ele>
        <time>2017-07-18T15:53:51Z</time>
      </trkpt>
      <trkpt lat="45.77555" lon="2.99552">
        <ele>882.2</ele>
        <time>2017-07-18T15:53:51Z</time>
      </trkpt>
      <trkpt lat="45.77554" lon="2.9955">
        <ele>882.1</ele>
        <time>2017-07-18T15:53:51Z</time>
      </trkpt>
      <trkpt lat="45.77552" lon="2.99548">
        <ele>881.9</ele>
        <time>2017-07-18T15:53:51Z</time>
      </trkpt>
      <trkpt lat="45.7755" lon="2.99546">
        <ele>881.8</ele>
        <time>2017-07-18T15:53:51Z</time>
      </trkpt>
      <trkpt lat="45.77548" lon="2.99543">
        <ele>881.7</ele>
        <time>2017-07-18T15:53:51Z</time>
      </trkpt>
      <trkpt lat="45.77547" lon="2.99541">
        <ele>881.5</ele>
        <time>2017-07-18T15:53:51Z</time>
      </trkpt>
      <trkpt lat="45.77545" lon="2.99539">
        <ele>881.4</ele>
        <time>2017-07-18T15:53:51Z</time>
      </trkpt>
      <trkpt lat="45.77543" lon="2.99536">
        <ele>881.2</ele>
        <time>2017-07-18T15:53:51Z</time>
      </trkpt>
      <trkpt lat="45.7754" lon="2.99534">
        <ele>881</ele>
        <time>2017-07-18T15:53:51Z</time>
      </trkpt>
      <trkpt lat="45.77539" lon="2.99531">
        <ele>880.9</ele>
        <time>2017-07-18T15:53:51Z</time>
      </trkpt>
      <trkpt lat="45.77538" lon="2.99529">
        <ele>880.8</ele>
        <time>2017-07-18T15:53:51Z</time>
      </trkpt>
      <trkpt lat="45.77535" lon="2.99526">
        <ele>880.6</ele>
        <time>2017-07-18T15:53:51Z</time>
      </trkpt>
      <trkpt lat="45.77533" lon="2.99524">
        <ele>880.3</ele>
        <time>2017-07-18T15:53:51Z</time>
      </trkpt>
      <trkpt lat="45.77531" lon="2.99522">
        <ele>880.1</ele>
        <time>2017-07-18T15:53:51Z</time>
      </trkpt>
      <trkpt lat="45.77528" lon="2.9952">
        <ele>879.8</ele>
        <time>2017-07-18T15:53:51Z</time>
      </trkpt>
      <trkpt lat="45.77528" lon="2.99517">
        <ele>879.8</ele>
        <time>2017-07-18T15:53:51Z</time>
      </trkpt>
      <trkpt lat="45.77526" lon="2.99515">
        <ele>879.7</ele>
        <time>2017-07-18T15:53:51Z</time>
      </trkpt>
      <trkpt lat="45.77524" lon="2.99512">
        <ele>879.5</ele>
        <time>2017-07-18T15:53:51Z</time>
      </trkpt>
      <trkpt lat="45.77523" lon="2.9951">
        <ele>879.4</ele>
        <time>2017-07-18T15:53:51Z</time>
      </trkpt>
      <trkpt lat="45.77521" lon="2.99507">
        <ele>879.3</ele>
        <time>2017-07-18T15:53:51Z</time>
      </trkpt>
      <trkpt lat="45.77518" lon="2.99504">
        <ele>878.9</ele>
        <time>2017-07-18T15:53:51Z</time>
      </trkpt>
      <trkpt lat="45.77515" lon="2.99501">
        <ele>878.5</ele>
        <time>2017-07-18T15:53:51Z</time>
      </trkpt>
      <trkpt lat="45.77512" lon="2.99497">
        <ele>878.1</ele>
        <time>2017-07-18T15:53:51Z</time>
      </trkpt>
      <trkpt lat="45.77509" lon="2.99495">
        <ele>877.7</ele>
        <time>2017-07-18T15:53:51Z</time>
      </trkpt>
      <trkpt lat="45.77507" lon="2.99492">
        <ele>877.5</ele>
        <time>2017-07-18T15:53:51Z</time>
      </trkpt>
      <trkpt lat="45.77504" lon="2.99489">
        <ele>877.2</ele>
        <time>2017-07-18T15:53:51Z</time>
      </trkpt>
      <trkpt lat="45.77502" lon="2.99487">
        <ele>876.9</ele>
        <time>2017-07-18T15:53:51Z</time>
      </trkpt>
      <trkpt lat="45.77499" lon="2.99486">
        <ele>876.7</ele>
        <time>2017-07-18T15:53:51Z</time>
      </trkpt>
      <trkpt lat="45.77498" lon="2.99484">
        <ele>876.7</ele>
        <time>2017-07-18T15:53:51Z</time>
      </trkpt>
      <trkpt lat="45.77496" lon="2.99483">
        <ele>876.7</ele>
        <time>2017-07-18T15:53:51Z</time>
      </trkpt>
      <trkpt lat="45.77495" lon="2.99481">
        <ele>876.7</ele>
        <time>2017-07-18T15:53:51Z</time>
      </trkpt>
      <trkpt lat="45.77493" lon="2.9948">
        <ele>876.7</ele>
        <time>2017-07-18T15:53:51Z</time>
      </trkpt>
      <trkpt lat="45.77492" lon="2.99479">
        <ele>876.7</ele>
        <time>2017-07-18T15:53:51Z</time>
      </trkpt>
      <trkpt lat="45.7749" lon="2.99477">
        <ele>876.8</ele>
        <time>2017-07-18T15:53:51Z</time>
      </trkpt>
      <trkpt lat="45.77489" lon="2.99475">
        <ele>876.8</ele>
        <time>2017-07-18T15:53:51Z</time>
      </trkpt>
      <trkpt lat="45.77488" lon="2.99473">
        <ele>876.9</ele>
        <time>2017-07-18T15:53:51Z</time>
      </trkpt>
      <trkpt lat="45.77486" lon="2.9947">
        <ele>876.9</ele>
        <time>2017-07-18T15:53:51Z</time>
      </trkpt>
      <trkpt lat="45.77484" lon="2.99467">
        <ele>877</ele>
        <time>2017-07-18T15:53:51Z</time>
      </trkpt>
      <trkpt lat="45.77484" lon="2.99464">
        <ele>877.2</ele>
        <time>2017-07-18T15:53:51Z</time>
      </trkpt>
      <trkpt lat="45.77484" lon="2.99459">
        <ele>877.4</ele>
        <time>2017-07-18T15:53:51Z</time>
      </trkpt>
      <trkpt lat="45.77484" lon="2.99456">
        <ele>877.6</ele>
        <time>2017-07-18T15:53:51Z</time>
      </trkpt>
      <trkpt lat="45.77484" lon="2.99452">
        <ele>877.7</ele>
        <time>2017-07-18T15:53:51Z</time>
      </trkpt>
      <trkpt lat="45.77484" lon="2.99449">
        <ele>877.9</ele>
        <time>2017-07-18T15:53:51Z</time>
      </trkpt>
      <trkpt lat="45.77484" lon="2.99446">
        <ele>878</ele>
        <time>2017-07-18T15:53:51Z</time>
      </trkpt>
      <trkpt lat="45.77483" lon="2.99442">
        <ele>878.2</ele>
        <time>2017-07-18T15:53:51Z</time>
      </trkpt>
      <trkpt lat="45.77482" lon="2.9944">
        <ele>878.2</ele>
        <time>2017-07-18T15:53:51Z</time>
      </trkpt>
      <trkpt lat="45.7748" lon="2.99437">
        <ele>878.3</ele>
        <time>2017-07-18T15:53:51Z</time>
      </trkpt>
      <trkpt lat="45.77478" lon="2.99434">
        <ele>878.4</ele>
        <time>2017-07-18T15:53:51Z</time>
      </trkpt>
      <trkpt lat="45.77477" lon="2.9943">
        <ele>878.5</ele>
        <time>2017-07-18T15:53:51Z</time>
      </trkpt>
      <trkpt lat="45.77475" lon="2.99427">
        <ele>878.6</ele>
        <time>2017-07-18T15:53:51Z</time>
      </trkpt>
      <trkpt lat="45.77473" lon="2.99424">
        <ele>878.6</ele>
        <time>2017-07-18T15:53:51Z</time>
      </trkpt>
      <trkpt lat="45.77473" lon="2.99421">
        <ele>878.8</ele>
        <time>2017-07-18T15:53:51Z</time>
      </trkpt>
      <trkpt lat="45.77473" lon="2.99417">
        <ele>879</ele>
        <time>2017-07-18T15:53:51Z</time>
      </trkpt>
      <trkpt lat="45.77472" lon="2.99414">
        <ele>879.2</ele>
        <time>2017-07-18T15:53:51Z</time>
      </trkpt>
      <trkpt lat="45.77471" lon="2.9941">
        <ele>879.4</ele>
        <time>2017-07-18T15:53:51Z</time>
      </trkpt>
      <trkpt lat="45.77471" lon="2.99408">
        <ele>879.6</ele>
        <time>2017-07-18T15:53:51Z</time>
      </trkpt>
      <trkpt lat="45.7747" lon="2.99405">
        <ele>879.7</ele>
        <time>2017-07-18T15:53:51Z</time>
      </trkpt>
      <trkpt lat="45.77469" lon="2.99401">
        <ele>879.9</ele>
        <time>2017-07-18T15:53:51Z</time>
      </trkpt>
      <trkpt lat="45.77468" lon="2.99398">
        <ele>880.1</ele>
        <time>2017-07-18T15:53:51Z</time>
      </trkpt>
      <trkpt lat="45.77467" lon="2.99394">
        <ele>880.3</ele>
        <time>2017-07-18T15:53:51Z</time>
      </trkpt>
      <trkpt lat="45.77466" lon="2.99391">
        <ele>880.4</ele>
        <time>2017-07-18T15:53:51Z</time>
      </trkpt>
      <trkpt lat="45.77464" lon="2.99387">
        <ele>880.6</ele>
        <time>2017-07-18T15:53:51Z</time>
      </trkpt>
      <trkpt lat="45.77463" lon="2.99384">
        <ele>880.7</ele>
        <time>2017-07-18T15:53:51Z</time>
      </trkpt>
      <trkpt lat="45.77463" lon="2.99381">
        <ele>880.9</ele>
        <time>2017-07-18T15:53:51Z</time>
      </trkpt>
      <trkpt lat="45.77463" lon="2.99377">
        <ele>881.1</ele>
        <time>2017-07-18T15:53:51Z</time>
      </trkpt>
      <trkpt lat="45.77462" lon="2.99373">
        <ele>881.3</ele>
        <time>2017-07-18T15:53:51Z</time>
      </trkpt>
      <trkpt lat="45.77462" lon="2.9937">
        <ele>881.5</ele>
        <time>2017-07-18T15:53:51Z</time>
      </trkpt>
      <trkpt lat="45.77461" lon="2.99366">
        <ele>881.8</ele>
        <time>2017-07-18T15:53:51Z</time>
      </trkpt>
      <trkpt lat="45.77461" lon="2.99362">
        <ele>881.9</ele>
        <time>2017-07-18T15:53:51Z</time>
      </trkpt>
      <trkpt lat="45.7746" lon="2.99359">
        <ele>882.1</ele>
        <time>2017-07-18T15:53:51Z</time>
      </trkpt>
      <trkpt lat="45.77459" lon="2.99356">
        <ele>882.1</ele>
        <time>2017-07-18T15:53:51Z</time>
      </trkpt>
      <trkpt lat="45.77458" lon="2.99353">
        <ele>882.3</ele>
        <time>2017-07-18T15:53:51Z</time>
      </trkpt>
      <trkpt lat="45.77457" lon="2.9935">
        <ele>882.4</ele>
        <time>2017-07-18T15:53:51Z</time>
      </trkpt>
      <trkpt lat="45.77457" lon="2.99346">
        <ele>882.6</ele>
        <time>2017-07-18T15:53:51Z</time>
      </trkpt>
      <trkpt lat="45.77457" lon="2.99342">
        <ele>882.8</ele>
        <time>2017-07-18T15:53:51Z</time>
      </trkpt>
      <trkpt lat="45.77456" lon="2.99339">
        <ele>882.9</ele>
        <time>2017-07-18T15:53:51Z</time>
      </trkpt>
      <trkpt lat="45.77455" lon="2.99336">
        <ele>883.1</ele>
        <time>2017-07-18T15:53:51Z</time>
      </trkpt>
      <trkpt lat="45.77454" lon="2.99333">
        <ele>883.1</ele>
        <time>2017-07-18T15:53:51Z</time>
      </trkpt>
      <trkpt lat="45.77452" lon="2.9933">
        <ele>883.1</ele>
        <time>2017-07-18T15:53:51Z</time>
      </trkpt>
      <trkpt lat="45.7745" lon="2.99327">
        <ele>883</ele>
        <time>2017-07-18T15:53:51Z</time>
      </trkpt>
      <trkpt lat="45.77449" lon="2.99323">
        <ele>883</ele>
        <time>2017-07-18T15:53:51Z</time>
      </trkpt>
      <trkpt lat="45.77446" lon="2.9932">
        <ele>882.9</ele>
        <time>2017-07-18T15:53:51Z</time>
      </trkpt>
      <trkpt lat="45.77445" lon="2.99317">
        <ele>882.8</ele>
        <time>2017-07-18T15:53:51Z</time>
      </trkpt>
      <trkpt lat="45.77443" lon="2.99313">
        <ele>882.7</ele>
        <time>2017-07-18T15:53:51Z</time>
      </trkpt>
      <trkpt lat="45.77441" lon="2.9931">
        <ele>882.6</ele>
        <time>2017-07-18T15:53:51Z</time>
      </trkpt>
      <trkpt lat="45.77439" lon="2.99307">
        <ele>882.5</ele>
        <time>2017-07-18T15:53:51Z</time>
      </trkpt>
      <trkpt lat="45.77437" lon="2.99305">
        <ele>882.4</ele>
        <time>2017-07-18T15:53:51Z</time>
      </trkpt>
      <trkpt lat="45.77435" lon="2.99301">
        <ele>882.3</ele>
        <time>2017-07-18T15:53:51Z</time>
      </trkpt>
      <trkpt lat="45.77434" lon="2.99298">
        <ele>882.3</ele>
        <time>2017-07-18T15:53:51Z</time>
      </trkpt>
      <trkpt lat="45.77434" lon="2.99294">
        <ele>882.3</ele>
        <time>2017-07-18T15:53:51Z</time>
      </trkpt>
      <trkpt lat="45.77433" lon="2.99291">
        <ele>882.2</ele>
        <time>2017-07-18T15:53:51Z</time>
      </trkpt>
      <trkpt lat="45.77431" lon="2.99288">
        <ele>882.2</ele>
        <time>2017-07-18T15:53:51Z</time>
      </trkpt>
      <trkpt lat="45.7743" lon="2.99285">
        <ele>882.1</ele>
        <time>2017-07-18T15:53:51Z</time>
      </trkpt>
      <trkpt lat="45.77428" lon="2.99281">
        <ele>881.9</ele>
        <time>2017-07-18T15:53:51Z</time>
      </trkpt>
      <trkpt lat="45.77426" lon="2.99278">
        <ele>881.8</ele>
        <time>2017-07-18T15:53:51Z</time>
      </trkpt>
      <trkpt lat="45.77426" lon="2.99275">
        <ele>881.8</ele>
        <time>2017-07-18T15:53:51Z</time>
      </trkpt>
      <trkpt lat="45.77425" lon="2.99271">
        <ele>881.7</ele>
        <time>2017-07-18T15:53:51Z</time>
      </trkpt>
      <trkpt lat="45.77423" lon="2.99268">
        <ele>881.6</ele>
        <time>2017-07-18T15:53:51Z</time>
      </trkpt>
      <trkpt lat="45.77422" lon="2.99264">
        <ele>881.4</ele>
        <time>2017-07-18T15:53:51Z</time>
      </trkpt>
      <trkpt lat="45.77421" lon="2.99261">
        <ele>881.4</ele>
        <time>2017-07-18T15:53:51Z</time>
      </trkpt>
      <trkpt lat="45.77419" lon="2.99257">
        <ele>881.2</ele>
        <time>2017-07-18T15:53:51Z</time>
      </trkpt>
      <trkpt lat="45.77417" lon="2.99253">
        <ele>881.1</ele>
        <time>2017-07-18T15:53:51Z</time>
      </trkpt>
      <trkpt lat="45.77416" lon="2.9925">
        <ele>881</ele>
        <time>2017-07-18T15:53:51Z</time>
      </trkpt>
      <trkpt lat="45.77415" lon="2.99247">
        <ele>881.1</ele>
        <time>2017-07-18T15:53:51Z</time>
      </trkpt>
      <trkpt lat="45.77413" lon="2.99244">
        <ele>881.1</ele>
        <time>2017-07-18T15:53:51Z</time>
      </trkpt>
      <trkpt lat="45.77411" lon="2.99242">
        <ele>881.1</ele>
        <time>2017-07-18T15:53:51Z</time>
      </trkpt>
      <trkpt lat="45.77409" lon="2.9924">
        <ele>881.2</ele>
        <time>2017-07-18T15:53:51Z</time>
      </trkpt>
      <trkpt lat="45.77407" lon="2.99238">
        <ele>881.2</ele>
        <time>2017-07-18T15:53:51Z</time>
      </trkpt>
      <trkpt lat="45.77405" lon="2.99236">
        <ele>881.2</ele>
        <time>2017-07-18T15:53:51Z</time>
      </trkpt>
      <trkpt lat="45.77403" lon="2.99234">
        <ele>881.2</ele>
        <time>2017-07-18T15:53:51Z</time>
      </trkpt>
      <trkpt lat="45.77402" lon="2.99232">
        <ele>881.2</ele>
        <time>2017-07-18T15:53:51Z</time>
      </trkpt>
      <trkpt lat="45.77399" lon="2.9923">
        <ele>881.2</ele>
        <time>2017-07-18T15:53:51Z</time>
      </trkpt>
      <trkpt lat="45.77398" lon="2.99228">
        <ele>881.2</ele>
        <time>2017-07-18T15:53:51Z</time>
      </trkpt>
      <trkpt lat="45.77396" lon="2.99226">
        <ele>881.2</ele>
        <time>2017-07-18T15:53:51Z</time>
      </trkpt>
      <trkpt lat="45.77394" lon="2.99224">
        <ele>881.2</ele>
        <time>2017-07-18T15:53:51Z</time>
      </trkpt>
      <trkpt lat="45.77392" lon="2.99221">
        <ele>881.2</ele>
        <time>2017-07-18T15:53:51Z</time>
      </trkpt>
      <trkpt lat="45.7739" lon="2.99219">
        <ele>881.2</ele>
        <time>2017-07-18T15:53:51Z</time>
      </trkpt>
      <trkpt lat="45.77388" lon="2.99217">
        <ele>881.1</ele>
        <time>2017-07-18T15:53:51Z</time>
      </trkpt>
      <trkpt lat="45.77386" lon="2.99215">
        <ele>881.1</ele>
        <time>2017-07-18T15:53:51Z</time>
      </trkpt>
      <trkpt lat="45.77384" lon="2.99212">
        <ele>881.1</ele>
        <time>2017-07-18T15:53:51Z</time>
      </trkpt>
      <trkpt lat="45.77381" lon="2.9921">
        <ele>881</ele>
        <time>2017-07-18T15:53:51Z</time>
      </trkpt>
      <trkpt lat="45.77379" lon="2.99207">
        <ele>881</ele>
        <time>2017-07-18T15:53:51Z</time>
      </trkpt>
      <trkpt lat="45.77377" lon="2.99205">
        <ele>881</ele>
        <time>2017-07-18T15:53:51Z</time>
      </trkpt>
      <trkpt lat="45.77375" lon="2.99203">
        <ele>880.9</ele>
        <time>2017-07-18T15:53:51Z</time>
      </trkpt>
      <trkpt lat="45.77373" lon="2.992">
        <ele>880.9</ele>
        <time>2017-07-18T15:53:51Z</time>
      </trkpt>
      <trkpt lat="45.77372" lon="2.99198">
        <ele>880.9</ele>
        <time>2017-07-18T15:53:51Z</time>
      </trkpt>
      <trkpt lat="45.7737" lon="2.99195">
        <ele>880.9</ele>
        <time>2017-07-18T15:53:51Z</time>
      </trkpt>
      <trkpt lat="45.77368" lon="2.99192">
        <ele>880.8</ele>
        <time>2017-07-18T15:53:51Z</time>
      </trkpt>
      <trkpt lat="45.77366" lon="2.99189">
        <ele>880.7</ele>
        <time>2017-07-18T15:53:51Z</time>
      </trkpt>
      <trkpt lat="45.77364" lon="2.99187">
        <ele>880.7</ele>
        <time>2017-07-18T15:53:51Z</time>
      </trkpt>
      <trkpt lat="45.77361" lon="2.99185">
        <ele>880.6</ele>
        <time>2017-07-18T15:53:51Z</time>
      </trkpt>
      <trkpt lat="45.7736" lon="2.99182">
        <ele>880.6</ele>
        <time>2017-07-18T15:53:51Z</time>
      </trkpt>
      <trkpt lat="45.77359" lon="2.99179">
        <ele>880.6</ele>
        <time>2017-07-18T15:53:51Z</time>
      </trkpt>
      <trkpt lat="45.77357" lon="2.99177">
        <ele>880.5</ele>
        <time>2017-07-18T15:53:51Z</time>
      </trkpt>
      <trkpt lat="45.77355" lon="2.99175">
        <ele>880.4</ele>
        <time>2017-07-18T15:53:51Z</time>
      </trkpt>
      <trkpt lat="45.77353" lon="2.99173">
        <ele>880.3</ele>
        <time>2017-07-18T15:53:51Z</time>
      </trkpt>
      <trkpt lat="45.77352" lon="2.99171">
        <ele>880.2</ele>
        <time>2017-07-18T15:53:51Z</time>
      </trkpt>
      <trkpt lat="45.7735" lon="2.99168">
        <ele>880.2</ele>
        <time>2017-07-18T15:53:51Z</time>
      </trkpt>
      <trkpt lat="45.77348" lon="2.99165">
        <ele>880.2</ele>
        <time>2017-07-18T15:53:51Z</time>
      </trkpt>
      <trkpt lat="45.77347" lon="2.99162">
        <ele>880.2</ele>
        <time>2017-07-18T15:53:51Z</time>
      </trkpt>
      <trkpt lat="45.77345" lon="2.9916">
        <ele>880.1</ele>
        <time>2017-07-18T15:53:51Z</time>
      </trkpt>
      <trkpt lat="45.77344" lon="2.99157">
        <ele>880.1</ele>
        <time>2017-07-18T15:53:51Z</time>
      </trkpt>
      <trkpt lat="45.77342" lon="2.99154">
        <ele>880.1</ele>
        <time>2017-07-18T15:53:51Z</time>
      </trkpt>
      <trkpt lat="45.7734" lon="2.99151">
        <ele>880</ele>
        <time>2017-07-18T15:53:51Z</time>
      </trkpt>
      <trkpt lat="45.77339" lon="2.99147">
        <ele>880</ele>
        <time>2017-07-18T15:53:51Z</time>
      </trkpt>
      <trkpt lat="45.77338" lon="2.99144">
        <ele>880</ele>
        <time>2017-07-18T15:53:51Z</time>
      </trkpt>
      <trkpt lat="45.77338" lon="2.99141">
        <ele>880.1</ele>
        <time>2017-07-18T15:53:51Z</time>
      </trkpt>
      <trkpt lat="45.77337" lon="2.99137">
        <ele>880.1</ele>
        <time>2017-07-18T15:53:51Z</time>
      </trkpt>
      <trkpt lat="45.77335" lon="2.99134">
        <ele>880</ele>
        <time>2017-07-18T15:53:51Z</time>
      </trkpt>
      <trkpt lat="45.77334" lon="2.99131">
        <ele>880</ele>
        <time>2017-07-18T15:53:51Z</time>
      </trkpt>
      <trkpt lat="45.77333" lon="2.99127">
        <ele>879.9</ele>
        <time>2017-07-18T15:53:51Z</time>
      </trkpt>
      <trkpt lat="45.77332" lon="2.99124">
        <ele>880</ele>
        <time>2017-07-18T15:53:51Z</time>
      </trkpt>
      <trkpt lat="45.77331" lon="2.99121">
        <ele>879.9</ele>
        <time>2017-07-18T15:53:51Z</time>
      </trkpt>
      <trkpt lat="45.7733" lon="2.99118">
        <ele>879.9</ele>
        <time>2017-07-18T15:53:51Z</time>
      </trkpt>
      <trkpt lat="45.77328" lon="2.99115">
        <ele>879.9</ele>
        <time>2017-07-18T15:53:51Z</time>
      </trkpt>
      <trkpt lat="45.77326" lon="2.99112">
        <ele>879.9</ele>
        <time>2017-07-18T15:53:51Z</time>
      </trkpt>
      <trkpt lat="45.77324" lon="2.99109">
        <ele>879.8</ele>
        <time>2017-07-18T15:53:51Z</time>
      </trkpt>
      <trkpt lat="45.77323" lon="2.99106">
        <ele>879.8</ele>
        <time>2017-07-18T15:53:51Z</time>
      </trkpt>
      <trkpt lat="45.77322" lon="2.99103">
        <ele>879.8</ele>
        <time>2017-07-18T15:53:51Z</time>
      </trkpt>
      <trkpt lat="45.7732" lon="2.991">
        <ele>879.8</ele>
        <time>2017-07-18T15:53:51Z</time>
      </trkpt>
      <trkpt lat="45.77318" lon="2.99097">
        <ele>879.8</ele>
        <time>2017-07-18T15:53:51Z</time>
      </trkpt>
      <trkpt lat="45.77316" lon="2.99095">
        <ele>879.7</ele>
        <time>2017-07-18T15:53:51Z</time>
      </trkpt>
      <trkpt lat="45.77315" lon="2.99092">
        <ele>879.7</ele>
        <time>2017-07-18T15:53:51Z</time>
      </trkpt>
      <trkpt lat="45.77314" lon="2.99089">
        <ele>879.7</ele>
        <time>2017-07-18T15:53:51Z</time>
      </trkpt>
      <trkpt lat="45.77313" lon="2.99086">
        <ele>879.7</ele>
        <time>2017-07-18T15:53:51Z</time>
      </trkpt>
      <trkpt lat="45.77312" lon="2.99084">
        <ele>879.7</ele>
        <time>2017-07-18T15:53:51Z</time>
      </trkpt>
      <trkpt lat="45.7731" lon="2.99082">
        <ele>879.7</ele>
        <time>2017-07-18T15:53:51Z</time>
      </trkpt>
      <trkpt lat="45.77308" lon="2.9908">
        <ele>879.7</ele>
        <time>2017-07-18T15:53:51Z</time>
      </trkpt>
      <trkpt lat="45.77307" lon="2.9908">
        <ele>879.7</ele>
        <time>2017-07-18T15:53:51Z</time>
      </trkpt>
      <trkpt lat="45.77307" lon="2.99079">
        <ele>879.8</ele>
        <time>2017-07-18T15:53:51Z</time>
      </trkpt>
      <trkpt lat="45.77299" lon="2.99093">
        <ele>878.7</ele>
        <time>2017-07-18T15:53:51Z</time>
      </trkpt>
      <trkpt lat="45.77298" lon="2.99095">
        <ele>878.6</ele>
        <time>2017-07-18T15:53:51Z</time>
      </trkpt>
      <trkpt lat="45.77296" lon="2.99098">
        <ele>878.4</ele>
        <time>2017-07-18T15:53:51Z</time>
      </trkpt>
      <trkpt lat="45.77295" lon="2.991">
        <ele>878.3</ele>
        <time>2017-07-18T15:53:51Z</time>
      </trkpt>
      <trkpt lat="45.77293" lon="2.99102">
        <ele>878.2</ele>
        <time>2017-07-18T15:53:51Z</time>
      </trkpt>
      <trkpt lat="45.77292" lon="2.99104">
        <ele>878</ele>
        <time>2017-07-18T15:53:51Z</time>
      </trkpt>
      <trkpt lat="45.77291" lon="2.99107">
        <ele>877.9</ele>
        <time>2017-07-18T15:53:51Z</time>
      </trkpt>
      <trkpt lat="45.7729" lon="2.99108">
        <ele>877.8</ele>
        <time>2017-07-18T15:53:51Z</time>
      </trkpt>
      <trkpt lat="45.77289" lon="2.99111">
        <ele>877.7</ele>
        <time>2017-07-18T15:53:51Z</time>
      </trkpt>
      <trkpt lat="45.77289" lon="2.99113">
        <ele>877.6</ele>
        <time>2017-07-18T15:53:51Z</time>
      </trkpt>
      <trkpt lat="45.77289" lon="2.99116">
        <ele>877.5</ele>
        <time>2017-07-18T15:53:51Z</time>
      </trkpt>
      <trkpt lat="45.77288" lon="2.99119">
        <ele>877.4</ele>
        <time>2017-07-18T15:53:51Z</time>
      </trkpt>
      <trkpt lat="45.77287" lon="2.99121">
        <ele>877.3</ele>
        <time>2017-07-18T15:53:51Z</time>
      </trkpt>
      <trkpt lat="45.77286" lon="2.99124">
        <ele>877.2</ele>
        <time>2017-07-18T15:53:51Z</time>
      </trkpt>
      <trkpt lat="45.77286" lon="2.99127">
        <ele>877.1</ele>
        <time>2017-07-18T15:53:51Z</time>
      </trkpt>
      <trkpt lat="45.77286" lon="2.9913">
        <ele>877</ele>
        <time>2017-07-18T15:53:51Z</time>
      </trkpt>
      <trkpt lat="45.77286" lon="2.99133">
        <ele>876.9</ele>
        <time>2017-07-18T15:53:51Z</time>
      </trkpt>
      <trkpt lat="45.77284" lon="2.99136">
        <ele>876.8</ele>
        <time>2017-07-18T15:53:51Z</time>
      </trkpt>
      <trkpt lat="45.77284" lon="2.99139">
        <ele>876.7</ele>
        <time>2017-07-18T15:53:51Z</time>
      </trkpt>
      <trkpt lat="45.77283" lon="2.99142">
        <ele>876.6</ele>
        <time>2017-07-18T15:53:51Z</time>
      </trkpt>
      <trkpt lat="45.77282" lon="2.99146">
        <ele>876.4</ele>
        <time>2017-07-18T15:53:51Z</time>
      </trkpt>
      <trkpt lat="45.77282" lon="2.99149">
        <ele>876.3</ele>
        <time>2017-07-18T15:53:51Z</time>
      </trkpt>
      <trkpt lat="45.77281" lon="2.99152">
        <ele>876.2</ele>
        <time>2017-07-18T15:53:51Z</time>
      </trkpt>
      <trkpt lat="45.7728" lon="2.99155">
        <ele>876.1</ele>
        <time>2017-07-18T15:53:51Z</time>
      </trkpt>
      <trkpt lat="45.77279" lon="2.99158">
        <ele>876</ele>
        <time>2017-07-18T15:53:51Z</time>
      </trkpt>
      <trkpt lat="45.77279" lon="2.99161">
        <ele>875.8</ele>
        <time>2017-07-18T15:53:51Z</time>
      </trkpt>
      <trkpt lat="45.77278" lon="2.99165">
        <ele>875.7</ele>
        <time>2017-07-18T15:53:51Z</time>
      </trkpt>
      <trkpt lat="45.77278" lon="2.99168">
        <ele>875.6</ele>
        <time>2017-07-18T15:53:51Z</time>
      </trkpt>
      <trkpt lat="45.77277" lon="2.99172">
        <ele>875.5</ele>
        <time>2017-07-18T15:53:51Z</time>
      </trkpt>
      <trkpt lat="45.77277" lon="2.99175">
        <ele>875.4</ele>
        <time>2017-07-18T15:53:51Z</time>
      </trkpt>
      <trkpt lat="45.77276" lon="2.99178">
        <ele>875.3</ele>
        <time>2017-07-18T15:53:51Z</time>
      </trkpt>
      <trkpt lat="45.77276" lon="2.99181">
        <ele>875.2</ele>
        <time>2017-07-18T15:53:51Z</time>
      </trkpt>
      <trkpt lat="45.77275" lon="2.99184">
        <ele>875.2</ele>
        <time>2017-07-18T15:53:51Z</time>
      </trkpt>
      <trkpt lat="45.77275" lon="2.99188">
        <ele>875.1</ele>
        <time>2017-07-18T15:53:51Z</time>
      </trkpt>
      <trkpt lat="45.77274" lon="2.99191">
        <ele>875</ele>
        <time>2017-07-18T15:53:51Z</time>
      </trkpt>
      <trkpt lat="45.77273" lon="2.99194">
        <ele>874.9</ele>
        <time>2017-07-18T15:53:51Z</time>
      </trkpt>
      <trkpt lat="45.77273" lon="2.99197">
        <ele>874.8</ele>
        <time>2017-07-18T15:53:51Z</time>
      </trkpt>
      <trkpt lat="45.77273" lon="2.992">
        <ele>874.7</ele>
        <time>2017-07-18T15:53:51Z</time>
      </trkpt>
      <trkpt lat="45.77272" lon="2.99203">
        <ele>874.5</ele>
        <time>2017-07-18T15:53:51Z</time>
      </trkpt>
      <trkpt lat="45.77271" lon="2.99206">
        <ele>874.4</ele>
        <time>2017-07-18T15:53:51Z</time>
      </trkpt>
      <trkpt lat="45.7727" lon="2.99209">
        <ele>874.3</ele>
        <time>2017-07-18T15:53:51Z</time>
      </trkpt>
      <trkpt lat="45.7727" lon="2.99211">
        <ele>874.3</ele>
        <time>2017-07-18T15:53:51Z</time>
      </trkpt>
      <trkpt lat="45.7727" lon="2.99213">
        <ele>874.2</ele>
        <time>2017-07-18T15:53:51Z</time>
      </trkpt>
      <trkpt lat="45.7727" lon="2.99213">
        <ele>874.2</ele>
        <time>2017-07-18T15:53:51Z</time>
      </trkpt>
      <trkpt lat="45.7727" lon="2.99213">
        <ele>874.2</ele>
        <time>2017-07-18T15:53:51Z</time>
      </trkpt>
      <trkpt lat="45.7727" lon="2.99213">
        <ele>874.2</ele>
        <time>2017-07-18T15:53:51Z</time>
      </trkpt>
      <trkpt lat="45.7727" lon="2.99213">
        <ele>874.2</ele>
        <time>2017-07-18T15:53:51Z</time>
      </trkpt>
      <trkpt lat="45.7727" lon="2.99213">
        <ele>874.2</ele>
        <time>2017-07-18T15:53:51Z</time>
      </trkpt>
      <trkpt lat="45.7727" lon="2.99213">
        <ele>874.2</ele>
        <time>2017-07-18T15:53:51Z</time>
      </trkpt>
      <trkpt lat="45.7727" lon="2.99213">
        <ele>874.2</ele>
        <time>2017-07-18T15:53:51Z</time>
      </trkpt>
      <trkpt lat="45.7727" lon="2.99213">
        <ele>874.2</ele>
        <time>2017-07-18T15:53:51Z</time>
      </trkpt>
      <trkpt lat="45.7727" lon="2.99214">
        <ele>874.2</ele>
        <time>2017-07-18T15:53:51Z</time>
      </trkpt>
      <trkpt lat="45.77269" lon="2.99216">
        <ele>874.1</ele>
        <time>2017-07-18T15:53:51Z</time>
      </trkpt>
      <trkpt lat="45.77268" lon="2.99218">
        <ele>874</ele>
        <time>2017-07-18T15:53:51Z</time>
      </trkpt>
      <trkpt lat="45.77266" lon="2.9922">
        <ele>873.8</ele>
        <time>2017-07-18T15:53:51Z</time>
      </trkpt>
      <trkpt lat="45.77266" lon="2.99222">
        <ele>873.8</ele>
        <time>2017-07-18T15:53:51Z</time>
      </trkpt>
      <trkpt lat="45.77265" lon="2.99224">
        <ele>873.7</ele>
        <time>2017-07-18T15:53:51Z</time>
      </trkpt>
      <trkpt lat="45.77263" lon="2.99226">
        <ele>873.5</ele>
        <time>2017-07-18T15:53:51Z</time>
      </trkpt>
      <trkpt lat="45.77262" lon="2.99229">
        <ele>873.3</ele>
        <time>2017-07-18T15:53:51Z</time>
      </trkpt>
      <trkpt lat="45.7726" lon="2.99232">
        <ele>873.1</ele>
        <time>2017-07-18T15:53:51Z</time>
      </trkpt>
      <trkpt lat="45.77259" lon="2.99234">
        <ele>873</ele>
        <time>2017-07-18T15:53:51Z</time>
      </trkpt>
      <trkpt lat="45.77258" lon="2.99237">
        <ele>872.8</ele>
        <time>2017-07-18T15:53:51Z</time>
      </trkpt>
      <trkpt lat="45.77256" lon="2.9924">
        <ele>872.7</ele>
        <time>2017-07-18T15:53:51Z</time>
      </trkpt>
      <trkpt lat="45.77254" lon="2.99242">
        <ele>872.5</ele>
        <time>2017-07-18T15:53:51Z</time>
      </trkpt>
      <trkpt lat="45.77253" lon="2.99245">
        <ele>872.3</ele>
        <time>2017-07-18T15:53:51Z</time>
      </trkpt>
      <trkpt lat="45.77251" lon="2.99247">
        <ele>872.1</ele>
        <time>2017-07-18T15:53:51Z</time>
      </trkpt>
      <trkpt lat="45.7725" lon="2.9925">
        <ele>872</ele>
        <time>2017-07-18T15:53:51Z</time>
      </trkpt>
      <trkpt lat="45.77249" lon="2.99252">
        <ele>871.9</ele>
        <time>2017-07-18T15:53:51Z</time>
      </trkpt>
      <trkpt lat="45.77248" lon="2.99255">
        <ele>871.7</ele>
        <time>2017-07-18T15:53:51Z</time>
      </trkpt>
      <trkpt lat="45.77247" lon="2.99258">
        <ele>871.5</ele>
        <time>2017-07-18T15:53:51Z</time>
      </trkpt>
      <trkpt lat="45.77246" lon="2.99261">
        <ele>871.4</ele>
        <time>2017-07-18T15:53:51Z</time>
      </trkpt>
      <trkpt lat="45.77245" lon="2.99263">
        <ele>871.2</ele>
        <time>2017-07-18T15:53:51Z</time>
      </trkpt>
      <trkpt lat="45.77244" lon="2.99267">
        <ele>871</ele>
        <time>2017-07-18T15:53:51Z</time>
      </trkpt>
      <trkpt lat="45.77243" lon="2.9927">
        <ele>870.9</ele>
        <time>2017-07-18T15:53:51Z</time>
      </trkpt>
      <trkpt lat="45.77242" lon="2.99273">
        <ele>870.7</ele>
        <time>2017-07-18T15:53:51Z</time>
      </trkpt>
      <trkpt lat="45.77241" lon="2.99276">
        <ele>870.5</ele>
        <time>2017-07-18T15:53:51Z</time>
      </trkpt>
      <trkpt lat="45.7724" lon="2.9928">
        <ele>870.4</ele>
        <time>2017-07-18T15:53:51Z</time>
      </trkpt>
      <trkpt lat="45.77239" lon="2.99283">
        <ele>870.2</ele>
        <time>2017-07-18T15:53:51Z</time>
      </trkpt>
      <trkpt lat="45.77239" lon="2.99287">
        <ele>870.1</ele>
        <time>2017-07-18T15:53:51Z</time>
      </trkpt>
      <trkpt lat="45.77239" lon="2.99291">
        <ele>869.9</ele>
        <time>2017-07-18T15:53:51Z</time>
      </trkpt>
      <trkpt lat="45.77239" lon="2.99295">
        <ele>869.8</ele>
        <time>2017-07-18T15:53:51Z</time>
      </trkpt>
      <trkpt lat="45.77238" lon="2.99297">
        <ele>869.6</ele>
        <time>2017-07-18T15:53:51Z</time>
      </trkpt>
      <trkpt lat="45.77236" lon="2.993">
        <ele>869.5</ele>
        <time>2017-07-18T15:53:51Z</time>
      </trkpt>
      <trkpt lat="45.77236" lon="2.99303">
        <ele>869.3</ele>
        <time>2017-07-18T15:53:51Z</time>
      </trkpt>
      <trkpt lat="45.77235" lon="2.99307">
        <ele>869.2</ele>
        <time>2017-07-18T15:53:51Z</time>
      </trkpt>
      <trkpt lat="45.77234" lon="2.9931">
        <ele>869</ele>
        <time>2017-07-18T15:53:51Z</time>
      </trkpt>
      <trkpt lat="45.77233" lon="2.99313">
        <ele>868.9</ele>
        <time>2017-07-18T15:53:51Z</time>
      </trkpt>
      <trkpt lat="45.77232" lon="2.99316">
        <ele>868.7</ele>
        <time>2017-07-18T15:53:51Z</time>
      </trkpt>
      <trkpt lat="45.77231" lon="2.99319">
        <ele>868.5</ele>
        <time>2017-07-18T15:53:51Z</time>
      </trkpt>
      <trkpt lat="45.77231" lon="2.99324">
        <ele>868.4</ele>
        <time>2017-07-18T15:53:51Z</time>
      </trkpt>
      <trkpt lat="45.7723" lon="2.99329">
        <ele>868.2</ele>
        <time>2017-07-18T15:53:51Z</time>
      </trkpt>
      <trkpt lat="45.77229" lon="2.99332">
        <ele>868.1</ele>
        <time>2017-07-18T15:53:51Z</time>
      </trkpt>
      <trkpt lat="45.77229" lon="2.99335">
        <ele>868</ele>
        <time>2017-07-18T15:53:51Z</time>
      </trkpt>
      <trkpt lat="45.77228" lon="2.99338">
        <ele>867.9</ele>
        <time>2017-07-18T15:53:51Z</time>
      </trkpt>
      <trkpt lat="45.77227" lon="2.99341">
        <ele>867.9</ele>
        <time>2017-07-18T15:53:51Z</time>
      </trkpt>
      <trkpt lat="45.77226" lon="2.99343">
        <ele>867.9</ele>
        <time>2017-07-18T15:53:51Z</time>
      </trkpt>
      <trkpt lat="45.77225" lon="2.99347">
        <ele>867.8</ele>
        <time>2017-07-18T15:53:51Z</time>
      </trkpt>
      <trkpt lat="45.77224" lon="2.9935">
        <ele>867.8</ele>
        <time>2017-07-18T15:53:51Z</time>
      </trkpt>
      <trkpt lat="45.77223" lon="2.99353">
        <ele>867.7</ele>
        <time>2017-07-18T15:53:51Z</time>
      </trkpt>
      <trkpt lat="45.77222" lon="2.99356">
        <ele>867.7</ele>
        <time>2017-07-18T15:53:51Z</time>
      </trkpt>
      <trkpt lat="45.77221" lon="2.99359">
        <ele>867.6</ele>
        <time>2017-07-18T15:53:51Z</time>
      </trkpt>
      <trkpt lat="45.7722" lon="2.99362">
        <ele>867.5</ele>
        <time>2017-07-18T15:53:51Z</time>
      </trkpt>
      <trkpt lat="45.7722" lon="2.99365">
        <ele>867.5</ele>
        <time>2017-07-18T15:53:51Z</time>
      </trkpt>
      <trkpt lat="45.77219" lon="2.99368">
        <ele>867.4</ele>
        <time>2017-07-18T15:53:51Z</time>
      </trkpt>
      <trkpt lat="45.77217" lon="2.99371">
        <ele>867.4</ele>
        <time>2017-07-18T15:53:51Z</time>
      </trkpt>
      <trkpt lat="45.77217" lon="2.99374">
        <ele>867.3</ele>
        <time>2017-07-18T15:53:51Z</time>
      </trkpt>
      <trkpt lat="45.77215" lon="2.99377">
        <ele>867.2</ele>
        <time>2017-07-18T15:53:51Z</time>
      </trkpt>
      <trkpt lat="45.77214" lon="2.99381">
        <ele>867.1</ele>
        <time>2017-07-18T15:53:51Z</time>
      </trkpt>
      <trkpt lat="45.77213" lon="2.99384">
        <ele>867.1</ele>
        <time>2017-07-18T15:53:51Z</time>
      </trkpt>
      <trkpt lat="45.77213" lon="2.99387">
        <ele>867</ele>
        <time>2017-07-18T15:53:51Z</time>
      </trkpt>
      <trkpt lat="45.77212" lon="2.9939">
        <ele>866.9</ele>
        <time>2017-07-18T15:53:51Z</time>
      </trkpt>
      <trkpt lat="45.77211" lon="2.99393">
        <ele>866.8</ele>
        <time>2017-07-18T15:53:51Z</time>
      </trkpt>
      <trkpt lat="45.77209" lon="2.99396">
        <ele>866.7</ele>
        <time>2017-07-18T15:53:51Z</time>
      </trkpt>
      <trkpt lat="45.77209" lon="2.99401">
        <ele>866.6</ele>
        <time>2017-07-18T15:53:51Z</time>
      </trkpt>
      <trkpt lat="45.77208" lon="2.99404">
        <ele>866.5</ele>
        <time>2017-07-18T15:53:51Z</time>
      </trkpt>
      <trkpt lat="45.77207" lon="2.99407">
        <ele>866.4</ele>
        <time>2017-07-18T15:53:51Z</time>
      </trkpt>
      <trkpt lat="45.77206" lon="2.99409">
        <ele>866.3</ele>
        <time>2017-07-18T15:53:51Z</time>
      </trkpt>
      <trkpt lat="45.77204" lon="2.99412">
        <ele>866.2</ele>
        <time>2017-07-18T15:53:51Z</time>
      </trkpt>
      <trkpt lat="45.77203" lon="2.99415">
        <ele>866.1</ele>
        <time>2017-07-18T15:53:51Z</time>
      </trkpt>
      <trkpt lat="45.77202" lon="2.99418">
        <ele>866</ele>
        <time>2017-07-18T15:53:51Z</time>
      </trkpt>
      <trkpt lat="45.77201" lon="2.9942">
        <ele>865.8</ele>
        <time>2017-07-18T15:53:51Z</time>
      </trkpt>
      <trkpt lat="45.772" lon="2.99423">
        <ele>865.7</ele>
        <time>2017-07-18T15:53:51Z</time>
      </trkpt>
      <trkpt lat="45.77199" lon="2.99425">
        <ele>865.6</ele>
        <time>2017-07-18T15:53:51Z</time>
      </trkpt>
      <trkpt lat="45.77198" lon="2.99428">
        <ele>865.5</ele>
        <time>2017-07-18T15:53:51Z</time>
      </trkpt>
      <trkpt lat="45.77197" lon="2.9943">
        <ele>865.4</ele>
        <time>2017-07-18T15:53:51Z</time>
      </trkpt>
      <trkpt lat="45.77196" lon="2.99433">
        <ele>865.2</ele>
        <time>2017-07-18T15:53:51Z</time>
      </trkpt>
      <trkpt lat="45.77195" lon="2.99435">
        <ele>865.1</ele>
        <time>2017-07-18T15:53:51Z</time>
      </trkpt>
      <trkpt lat="45.77194" lon="2.99439">
        <ele>865</ele>
        <time>2017-07-18T15:53:51Z</time>
      </trkpt>
      <trkpt lat="45.77194" lon="2.99444">
        <ele>865</ele>
        <time>2017-07-18T15:53:51Z</time>
      </trkpt>
      <trkpt lat="45.77193" lon="2.99448">
        <ele>864.9</ele>
        <time>2017-07-18T15:53:51Z</time>
      </trkpt>
      <trkpt lat="45.77192" lon="2.99451">
        <ele>864.8</ele>
        <time>2017-07-18T15:53:51Z</time>
      </trkpt>
      <trkpt lat="45.77192" lon="2.99455">
        <ele>864.7</ele>
        <time>2017-07-18T15:53:51Z</time>
      </trkpt>
      <trkpt lat="45.77191" lon="2.99459">
        <ele>864.6</ele>
        <time>2017-07-18T15:53:51Z</time>
      </trkpt>
      <trkpt lat="45.7719" lon="2.99463">
        <ele>864.5</ele>
        <time>2017-07-18T15:53:51Z</time>
      </trkpt>
      <trkpt lat="45.77189" lon="2.99467">
        <ele>864.4</ele>
        <time>2017-07-18T15:53:51Z</time>
      </trkpt>
      <trkpt lat="45.77188" lon="2.99469">
        <ele>864.3</ele>
        <time>2017-07-18T15:53:51Z</time>
      </trkpt>
      <trkpt lat="45.77186" lon="2.99471">
        <ele>864.2</ele>
        <time>2017-07-18T15:53:51Z</time>
      </trkpt>
      <trkpt lat="45.77185" lon="2.99473">
        <ele>864.1</ele>
        <time>2017-07-18T15:53:51Z</time>
      </trkpt>
      <trkpt lat="45.77184" lon="2.99476">
        <ele>864</ele>
        <time>2017-07-18T15:53:51Z</time>
      </trkpt>
      <trkpt lat="45.77182" lon="2.99477">
        <ele>863.9</ele>
        <time>2017-07-18T15:53:51Z</time>
      </trkpt>
      <trkpt lat="45.77181" lon="2.9948">
        <ele>863.8</ele>
        <time>2017-07-18T15:53:51Z</time>
      </trkpt>
      <trkpt lat="45.77179" lon="2.99481">
        <ele>863.7</ele>
        <time>2017-07-18T15:53:51Z</time>
      </trkpt>
      <trkpt lat="45.77178" lon="2.99483">
        <ele>863.6</ele>
        <time>2017-07-18T15:53:51Z</time>
      </trkpt>
      <trkpt lat="45.77177" lon="2.99485">
        <ele>863.5</ele>
        <time>2017-07-18T15:53:51Z</time>
      </trkpt>
      <trkpt lat="45.77175" lon="2.99487">
        <ele>863.4</ele>
        <time>2017-07-18T15:53:51Z</time>
      </trkpt>
      <trkpt lat="45.77173" lon="2.99489">
        <ele>863.4</ele>
        <time>2017-07-18T15:53:51Z</time>
      </trkpt>
      <trkpt lat="45.77171" lon="2.9949">
        <ele>863.2</ele>
        <time>2017-07-18T15:53:51Z</time>
      </trkpt>
      <trkpt lat="45.77169" lon="2.99492">
        <ele>863.1</ele>
        <time>2017-07-18T15:53:51Z</time>
      </trkpt>
      <trkpt lat="45.77167" lon="2.99494">
        <ele>863</ele>
        <time>2017-07-18T15:53:51Z</time>
      </trkpt>
      <trkpt lat="45.77164" lon="2.99497">
        <ele>862.9</ele>
        <time>2017-07-18T15:53:51Z</time>
      </trkpt>
      <trkpt lat="45.77161" lon="2.99498">
        <ele>862.7</ele>
        <time>2017-07-18T15:53:51Z</time>
      </trkpt>
      <trkpt lat="45.77158" lon="2.995">
        <ele>862.5</ele>
        <time>2017-07-18T15:53:51Z</time>
      </trkpt>
      <trkpt lat="45.77156" lon="2.99501">
        <ele>862.3</ele>
        <time>2017-07-18T15:53:51Z</time>
      </trkpt>
      <trkpt lat="45.77155" lon="2.99504">
        <ele>862.1</ele>
        <time>2017-07-18T15:53:51Z</time>
      </trkpt>
      <trkpt lat="45.77153" lon="2.99505">
        <ele>862</ele>
        <time>2017-07-18T15:53:51Z</time>
      </trkpt>
      <trkpt lat="45.77151" lon="2.99506">
        <ele>861.8</ele>
        <time>2017-07-18T15:53:51Z</time>
      </trkpt>
      <trkpt lat="45.77149" lon="2.99507">
        <ele>861.7</ele>
        <time>2017-07-18T15:53:51Z</time>
      </trkpt>
      <trkpt lat="45.77147" lon="2.99509">
        <ele>861.5</ele>
        <time>2017-07-18T15:53:51Z</time>
      </trkpt>
      <trkpt lat="45.77146" lon="2.9951">
        <ele>861.4</ele>
        <time>2017-07-18T15:53:51Z</time>
      </trkpt>
      <trkpt lat="45.77144" lon="2.9951">
        <ele>861.2</ele>
        <time>2017-07-18T15:53:51Z</time>
      </trkpt>
      <trkpt lat="45.77142" lon="2.99511">
        <ele>861.1</ele>
        <time>2017-07-18T15:53:51Z</time>
      </trkpt>
      <trkpt lat="45.77141" lon="2.99513">
        <ele>861</ele>
        <time>2017-07-18T15:53:51Z</time>
      </trkpt>
      <trkpt lat="45.77139" lon="2.99514">
        <ele>860.8</ele>
        <time>2017-07-18T15:53:51Z</time>
      </trkpt>
      <trkpt lat="45.77137" lon="2.99516">
        <ele>860.6</ele>
        <time>2017-07-18T15:53:51Z</time>
      </trkpt>
      <trkpt lat="45.77136" lon="2.99518">
        <ele>860.4</ele>
        <time>2017-07-18T15:53:51Z</time>
      </trkpt>
      <trkpt lat="45.77134" lon="2.99519">
        <ele>860.2</ele>
        <time>2017-07-18T15:53:51Z</time>
      </trkpt>
      <trkpt lat="45.77132" lon="2.99522">
        <ele>860</ele>
        <time>2017-07-18T15:53:51Z</time>
      </trkpt>
      <trkpt lat="45.7713" lon="2.99524">
        <ele>859.8</ele>
        <time>2017-07-18T15:53:51Z</time>
      </trkpt>
      <trkpt lat="45.77128" lon="2.99525">
        <ele>859.6</ele>
        <time>2017-07-18T15:53:51Z</time>
      </trkpt>
      <trkpt lat="45.77126" lon="2.99526">
        <ele>859.5</ele>
        <time>2017-07-18T15:53:51Z</time>
      </trkpt>
      <trkpt lat="45.77124" lon="2.99528">
        <ele>859.3</ele>
        <time>2017-07-18T15:53:51Z</time>
      </trkpt>
      <trkpt lat="45.77123" lon="2.9953">
        <ele>859.1</ele>
        <time>2017-07-18T15:53:51Z</time>
      </trkpt>
      <trkpt lat="45.77121" lon="2.99532">
        <ele>858.9</ele>
        <time>2017-07-18T15:53:51Z</time>
      </trkpt>
      <trkpt lat="45.7712" lon="2.99533">
        <ele>858.8</ele>
        <time>2017-07-18T15:53:51Z</time>
      </trkpt>
      <trkpt lat="45.77119" lon="2.99534">
        <ele>858.6</ele>
        <time>2017-07-18T15:53:51Z</time>
      </trkpt>
      <trkpt lat="45.77117" lon="2.99535">
        <ele>858.5</ele>
        <time>2017-07-18T15:53:51Z</time>
      </trkpt>
      <trkpt lat="45.77115" lon="2.99536">
        <ele>858.3</ele>
        <time>2017-07-18T15:53:51Z</time>
      </trkpt>
      <trkpt lat="45.77113" lon="2.99538">
        <ele>858.1</ele>
        <time>2017-07-18T15:53:51Z</time>
      </trkpt>
      <trkpt lat="45.77111" lon="2.99539">
        <ele>857.9</ele>
        <time>2017-07-18T15:53:51Z</time>
      </trkpt>
      <trkpt lat="45.77109" lon="2.9954">
        <ele>857.8</ele>
        <time>2017-07-18T15:53:51Z</time>
      </trkpt>
      <trkpt lat="45.77107" lon="2.99542">
        <ele>857.6</ele>
        <time>2017-07-18T15:53:51Z</time>
      </trkpt>
      <trkpt lat="45.77106" lon="2.99543">
        <ele>857.4</ele>
        <time>2017-07-18T15:53:51Z</time>
      </trkpt>
      <trkpt lat="45.77104" lon="2.99545">
        <ele>857.2</ele>
        <time>2017-07-18T15:53:51Z</time>
      </trkpt>
      <trkpt lat="45.77102" lon="2.99548">
        <ele>857</ele>
        <time>2017-07-18T15:53:51Z</time>
      </trkpt>
      <trkpt lat="45.77101" lon="2.9955">
        <ele>856.8</ele>
        <time>2017-07-18T15:53:51Z</time>
      </trkpt>
      <trkpt lat="45.77099" lon="2.99551">
        <ele>856.6</ele>
        <time>2017-07-18T15:53:51Z</time>
      </trkpt>
      <trkpt lat="45.77097" lon="2.99553">
        <ele>856.4</ele>
        <time>2017-07-18T15:53:51Z</time>
      </trkpt>
      <trkpt lat="45.77096" lon="2.99556">
        <ele>856.1</ele>
        <time>2017-07-18T15:53:51Z</time>
      </trkpt>
      <trkpt lat="45.77094" lon="2.99558">
        <ele>855.9</ele>
        <time>2017-07-18T15:53:51Z</time>
      </trkpt>
      <trkpt lat="45.77092" lon="2.99561">
        <ele>855.7</ele>
        <time>2017-07-18T15:53:51Z</time>
      </trkpt>
      <trkpt lat="45.7709" lon="2.99564">
        <ele>855.4</ele>
        <time>2017-07-18T15:53:51Z</time>
      </trkpt>
      <trkpt lat="45.77089" lon="2.99568">
        <ele>855.2</ele>
        <time>2017-07-18T15:53:51Z</time>
      </trkpt>
      <trkpt lat="45.77088" lon="2.99571">
        <ele>854.9</ele>
        <time>2017-07-18T15:53:51Z</time>
      </trkpt>
      <trkpt lat="45.77086" lon="2.99572">
        <ele>854.7</ele>
        <time>2017-07-18T15:53:51Z</time>
      </trkpt>
      <trkpt lat="45.77085" lon="2.99574">
        <ele>854.5</ele>
        <time>2017-07-18T15:53:51Z</time>
      </trkpt>
      <trkpt lat="45.77083" lon="2.99576">
        <ele>854.3</ele>
        <time>2017-07-18T15:53:51Z</time>
      </trkpt>
      <trkpt lat="45.77082" lon="2.99578">
        <ele>854</ele>
        <time>2017-07-18T15:53:51Z</time>
      </trkpt>
      <trkpt lat="45.7708" lon="2.9958">
        <ele>853.7</ele>
        <time>2017-07-18T15:53:51Z</time>
      </trkpt>
      <trkpt lat="45.77079" lon="2.99581">
        <ele>853.4</ele>
        <time>2017-07-18T15:53:51Z</time>
      </trkpt>
      <trkpt lat="45.77078" lon="2.99581">
        <ele>853.3</ele>
        <time>2017-07-18T15:53:51Z</time>
      </trkpt>
      <trkpt lat="45.77078" lon="2.99582">
        <ele>853.2</ele>
        <time>2017-07-18T15:53:51Z</time>
      </trkpt>
      <trkpt lat="45.77077" lon="2.99584">
        <ele>853.1</ele>
        <time>2017-07-18T15:53:51Z</time>
      </trkpt>
      <trkpt lat="45.77076" lon="2.99585">
        <ele>852.7</ele>
        <time>2017-07-18T15:53:51Z</time>
      </trkpt>
      <trkpt lat="45.77075" lon="2.99588">
        <ele>852.5</ele>
        <time>2017-07-18T15:53:51Z</time>
      </trkpt>
      <trkpt lat="45.77074" lon="2.9959">
        <ele>852.1</ele>
        <time>2017-07-18T15:53:51Z</time>
      </trkpt>
      <trkpt lat="45.77072" lon="2.99592">
        <ele>851.8</ele>
        <time>2017-07-18T15:53:51Z</time>
      </trkpt>
      <trkpt lat="45.77071" lon="2.99593">
        <ele>851.4</ele>
        <time>2017-07-18T15:53:51Z</time>
      </trkpt>
      <trkpt lat="45.77069" lon="2.99595">
        <ele>851.1</ele>
        <time>2017-07-18T15:53:51Z</time>
      </trkpt>
      <trkpt lat="45.77067" lon="2.99597">
        <ele>850.7</ele>
        <time>2017-07-18T15:53:51Z</time>
      </trkpt>
      <trkpt lat="45.77065" lon="2.99598">
        <ele>850.4</ele>
        <time>2017-07-18T15:53:51Z</time>
      </trkpt>
      <trkpt lat="45.77064" lon="2.99601">
        <ele>850.1</ele>
        <time>2017-07-18T15:53:51Z</time>
      </trkpt>
      <trkpt lat="45.77063" lon="2.99602">
        <ele>849.8</ele>
        <time>2017-07-18T15:53:51Z</time>
      </trkpt>
      <trkpt lat="45.77061" lon="2.99604">
        <ele>849.4</ele>
        <time>2017-07-18T15:53:51Z</time>
      </trkpt>
      <trkpt lat="45.7706" lon="2.99607">
        <ele>849.2</ele>
        <time>2017-07-18T15:53:51Z</time>
      </trkpt>
      <trkpt lat="45.77059" lon="2.99609">
        <ele>848.9</ele>
        <time>2017-07-18T15:53:51Z</time>
      </trkpt>
      <trkpt lat="45.77058" lon="2.99611">
        <ele>848.6</ele>
        <time>2017-07-18T15:53:51Z</time>
      </trkpt>
      <trkpt lat="45.77056" lon="2.99614">
        <ele>848.2</ele>
        <time>2017-07-18T15:53:51Z</time>
      </trkpt>
      <trkpt lat="45.77055" lon="2.99616">
        <ele>847.9</ele>
        <time>2017-07-18T15:53:51Z</time>
      </trkpt>
      <trkpt lat="45.77054" lon="2.99619">
        <ele>847.6</ele>
        <time>2017-07-18T15:53:51Z</time>
      </trkpt>
      <trkpt lat="45.77053" lon="2.99621">
        <ele>847.4</ele>
        <time>2017-07-18T15:53:51Z</time>
      </trkpt>
      <trkpt lat="45.77053" lon="2.99625">
        <ele>847.1</ele>
        <time>2017-07-18T15:53:51Z</time>
      </trkpt>
      <trkpt lat="45.77052" lon="2.99629">
        <ele>846.8</ele>
        <time>2017-07-18T15:53:51Z</time>
      </trkpt>
      <trkpt lat="45.77051" lon="2.99632">
        <ele>846.5</ele>
        <time>2017-07-18T15:53:51Z</time>
      </trkpt>
      <trkpt lat="45.7705" lon="2.99635">
        <ele>846.2</ele>
        <time>2017-07-18T15:53:51Z</time>
      </trkpt>
      <trkpt lat="45.77049" lon="2.99638">
        <ele>845.9</ele>
        <time>2017-07-18T15:53:51Z</time>
      </trkpt>
      <trkpt lat="45.77048" lon="2.99642">
        <ele>845.6</ele>
        <time>2017-07-18T15:53:51Z</time>
      </trkpt>
      <trkpt lat="45.77047" lon="2.99645">
        <ele>845.3</ele>
        <time>2017-07-18T15:53:51Z</time>
      </trkpt>
      <trkpt lat="45.77046" lon="2.99648">
        <ele>845</ele>
        <time>2017-07-18T15:53:51Z</time>
      </trkpt>
      <trkpt lat="45.77045" lon="2.99652">
        <ele>844.7</ele>
        <time>2017-07-18T15:53:51Z</time>
      </trkpt>
      <trkpt lat="45.77044" lon="2.99655">
        <ele>844.4</ele>
        <time>2017-07-18T15:53:51Z</time>
      </trkpt>
      <trkpt lat="45.77043" lon="2.99658">
        <ele>844</ele>
        <time>2017-07-18T15:53:51Z</time>
      </trkpt>
      <trkpt lat="45.77042" lon="2.99662">
        <ele>843.7</ele>
        <time>2017-07-18T15:53:51Z</time>
      </trkpt>
      <trkpt lat="45.7704" lon="2.99664">
        <ele>843.4</ele>
        <time>2017-07-18T15:53:51Z</time>
      </trkpt>
      <trkpt lat="45.77038" lon="2.99666">
        <ele>843.1</ele>
        <time>2017-07-18T15:53:51Z</time>
      </trkpt>
      <trkpt lat="45.77037" lon="2.99668">
        <ele>842.8</ele>
        <time>2017-07-18T15:53:51Z</time>
      </trkpt>
      <trkpt lat="45.77035" lon="2.99671">
        <ele>842.5</ele>
        <time>2017-07-18T15:53:51Z</time>
      </trkpt>
      <trkpt lat="45.77034" lon="2.99673">
        <ele>842.2</ele>
        <time>2017-07-18T15:53:51Z</time>
      </trkpt>
      <trkpt lat="45.77033" lon="2.99676">
        <ele>842</ele>
        <time>2017-07-18T15:53:51Z</time>
      </trkpt>
      <trkpt lat="45.77032" lon="2.99678">
        <ele>841.8</ele>
        <time>2017-07-18T15:53:51Z</time>
      </trkpt>
      <trkpt lat="45.7703" lon="2.9968">
        <ele>841.5</ele>
        <time>2017-07-18T15:53:51Z</time>
      </trkpt>
      <trkpt lat="45.77029" lon="2.99683">
        <ele>841.3</ele>
        <time>2017-07-18T15:53:51Z</time>
      </trkpt>
      <trkpt lat="45.77028" lon="2.99686">
        <ele>841</ele>
        <time>2017-07-18T15:53:51Z</time>
      </trkpt>
      <trkpt lat="45.77028" lon="2.99689">
        <ele>840.8</ele>
        <time>2017-07-18T15:53:51Z</time>
      </trkpt>
      <trkpt lat="45.77026" lon="2.99692">
        <ele>840.6</ele>
        <time>2017-07-18T15:53:51Z</time>
      </trkpt>
      <trkpt lat="45.77025" lon="2.99696">
        <ele>840.3</ele>
        <time>2017-07-18T15:53:51Z</time>
      </trkpt>
      <trkpt lat="45.77024" lon="2.99699">
        <ele>840.1</ele>
        <time>2017-07-18T15:53:51Z</time>
      </trkpt>
      <trkpt lat="45.77023" lon="2.99703">
        <ele>839.8</ele>
        <time>2017-07-18T15:53:51Z</time>
      </trkpt>
      <trkpt lat="45.77022" lon="2.99706">
        <ele>839.6</ele>
        <time>2017-07-18T15:53:51Z</time>
      </trkpt>
      <trkpt lat="45.77021" lon="2.99709">
        <ele>839.4</ele>
        <time>2017-07-18T15:53:51Z</time>
      </trkpt>
      <trkpt lat="45.7702" lon="2.99713">
        <ele>839.1</ele>
        <time>2017-07-18T15:53:51Z</time>
      </trkpt>
      <trkpt lat="45.77019" lon="2.99715">
        <ele>838.9</ele>
        <time>2017-07-18T15:53:51Z</time>
      </trkpt>
      <trkpt lat="45.77017" lon="2.99718">
        <ele>838.7</ele>
        <time>2017-07-18T15:53:51Z</time>
      </trkpt>
      <trkpt lat="45.77016" lon="2.99721">
        <ele>838.4</ele>
        <time>2017-07-18T15:53:51Z</time>
      </trkpt>
      <trkpt lat="45.77015" lon="2.99723">
        <ele>838.2</ele>
        <time>2017-07-18T15:53:51Z</time>
      </trkpt>
      <trkpt lat="45.77013" lon="2.99726">
        <ele>838</ele>
        <time>2017-07-18T15:53:51Z</time>
      </trkpt>
      <trkpt lat="45.77012" lon="2.99729">
        <ele>837.8</ele>
        <time>2017-07-18T15:53:51Z</time>
      </trkpt>
      <trkpt lat="45.77011" lon="2.99732">
        <ele>837.5</ele>
        <time>2017-07-18T15:53:51Z</time>
      </trkpt>
      <trkpt lat="45.77009" lon="2.99735">
        <ele>837.3</ele>
        <time>2017-07-18T15:53:51Z</time>
      </trkpt>
      <trkpt lat="45.77008" lon="2.99738">
        <ele>837.1</ele>
        <time>2017-07-18T15:53:51Z</time>
      </trkpt>
      <trkpt lat="45.77006" lon="2.99741">
        <ele>836.8</ele>
        <time>2017-07-18T15:53:51Z</time>
      </trkpt>
      <trkpt lat="45.77005" lon="2.99743">
        <ele>836.6</ele>
        <time>2017-07-18T15:53:51Z</time>
      </trkpt>
      <trkpt lat="45.77003" lon="2.99746">
        <ele>836.4</ele>
        <time>2017-07-18T15:53:51Z</time>
      </trkpt>
      <trkpt lat="45.77002" lon="2.99749">
        <ele>836.2</ele>
        <time>2017-07-18T15:53:51Z</time>
      </trkpt>
      <trkpt lat="45.77" lon="2.99751">
        <ele>835.9</ele>
        <time>2017-07-18T15:53:51Z</time>
      </trkpt>
      <trkpt lat="45.76998" lon="2.99754">
        <ele>835.7</ele>
        <time>2017-07-18T15:53:51Z</time>
      </trkpt>
      <trkpt lat="45.76997" lon="2.99757">
        <ele>835.5</ele>
        <time>2017-07-18T15:53:51Z</time>
      </trkpt>
      <trkpt lat="45.76996" lon="2.99759">
        <ele>835.4</ele>
        <time>2017-07-18T15:53:51Z</time>
      </trkpt>
      <trkpt lat="45.76994" lon="2.99762">
        <ele>835.2</ele>
        <time>2017-07-18T15:53:51Z</time>
      </trkpt>
      <trkpt lat="45.76993" lon="2.99764">
        <ele>835</ele>
        <time>2017-07-18T15:53:51Z</time>
      </trkpt>
      <trkpt lat="45.76991" lon="2.99767">
        <ele>834.8</ele>
        <time>2017-07-18T15:53:51Z</time>
      </trkpt>
      <trkpt lat="45.76989" lon="2.99769">
        <ele>834.6</ele>
        <time>2017-07-18T15:53:51Z</time>
      </trkpt>
      <trkpt lat="45.76988" lon="2.99772">
        <ele>834.4</ele>
        <time>2017-07-18T15:53:51Z</time>
      </trkpt>
      <trkpt lat="45.76986" lon="2.99774">
        <ele>834.2</ele>
        <time>2017-07-18T15:53:51Z</time>
      </trkpt>
      <trkpt lat="45.76984" lon="2.99777">
        <ele>834</ele>
        <time>2017-07-18T15:53:51Z</time>
      </trkpt>
      <trkpt lat="45.76983" lon="2.99779">
        <ele>833.8</ele>
        <time>2017-07-18T15:53:51Z</time>
      </trkpt>
      <trkpt lat="45.76981" lon="2.99782">
        <ele>833.7</ele>
        <time>2017-07-18T15:53:51Z</time>
      </trkpt>
      <trkpt lat="45.76979" lon="2.99785">
        <ele>833.5</ele>
        <time>2017-07-18T15:53:51Z</time>
      </trkpt>
      <trkpt lat="45.76978" lon="2.99787">
        <ele>833.3</ele>
        <time>2017-07-18T15:53:51Z</time>
      </trkpt>
      <trkpt lat="45.76976" lon="2.9979">
        <ele>833.1</ele>
        <time>2017-07-18T15:53:51Z</time>
      </trkpt>
      <trkpt lat="45.76974" lon="2.99792">
        <ele>832.9</ele>
        <time>2017-07-18T15:53:51Z</time>
      </trkpt>
      <trkpt lat="45.76973" lon="2.99795">
        <ele>832.8</ele>
        <time>2017-07-18T15:53:51Z</time>
      </trkpt>
      <trkpt lat="45.76971" lon="2.99798">
        <ele>832.6</ele>
        <time>2017-07-18T15:53:51Z</time>
      </trkpt>
      <trkpt lat="45.7697" lon="2.998">
        <ele>832.4</ele>
        <time>2017-07-18T15:53:51Z</time>
      </trkpt>
      <trkpt lat="45.76968" lon="2.99803">
        <ele>832.3</ele>
        <time>2017-07-18T15:53:51Z</time>
      </trkpt>
      <trkpt lat="45.76967" lon="2.99807">
        <ele>832.1</ele>
        <time>2017-07-18T15:53:51Z</time>
      </trkpt>
      <trkpt lat="45.76966" lon="2.9981">
        <ele>832</ele>
        <time>2017-07-18T15:53:51Z</time>
      </trkpt>
      <trkpt lat="45.76965" lon="2.99813">
        <ele>831.8</ele>
        <time>2017-07-18T15:53:51Z</time>
      </trkpt>
      <trkpt lat="45.76964" lon="2.99817">
        <ele>831.7</ele>
        <time>2017-07-18T15:53:51Z</time>
      </trkpt>
      <trkpt lat="45.76963" lon="2.9982">
        <ele>831.6</ele>
        <time>2017-07-18T15:53:51Z</time>
      </trkpt>
      <trkpt lat="45.76962" lon="2.99824">
        <ele>831.4</ele>
        <time>2017-07-18T15:53:51Z</time>
      </trkpt>
      <trkpt lat="45.76961" lon="2.99827">
        <ele>831.3</ele>
        <time>2017-07-18T15:53:51Z</time>
      </trkpt>
      <trkpt lat="45.7696" lon="2.9983">
        <ele>831.2</ele>
        <time>2017-07-18T15:53:51Z</time>
      </trkpt>
      <trkpt lat="45.76959" lon="2.99834">
        <ele>831</ele>
        <time>2017-07-18T15:53:51Z</time>
      </trkpt>
      <trkpt lat="45.76958" lon="2.99837">
        <ele>830.9</ele>
        <time>2017-07-18T15:53:51Z</time>
      </trkpt>
      <trkpt lat="45.76957" lon="2.99841">
        <ele>830.8</ele>
        <time>2017-07-18T15:53:51Z</time>
      </trkpt>
      <trkpt lat="45.76955" lon="2.99844">
        <ele>830.7</ele>
        <time>2017-07-18T15:53:51Z</time>
      </trkpt>
      <trkpt lat="45.76954" lon="2.99847">
        <ele>830.7</ele>
        <time>2017-07-18T15:53:51Z</time>
      </trkpt>
      <trkpt lat="45.76953" lon="2.9985">
        <ele>830.6</ele>
        <time>2017-07-18T15:53:51Z</time>
      </trkpt>
      <trkpt lat="45.76952" lon="2.99853">
        <ele>830.5</ele>
        <time>2017-07-18T15:53:51Z</time>
      </trkpt>
      <trkpt lat="45.76951" lon="2.99857">
        <ele>830.4</ele>
        <time>2017-07-18T15:53:51Z</time>
      </trkpt>
      <trkpt lat="45.7695" lon="2.9986">
        <ele>830.3</ele>
        <time>2017-07-18T15:53:51Z</time>
      </trkpt>
      <trkpt lat="45.76949" lon="2.99863">
        <ele>830.3</ele>
        <time>2017-07-18T15:53:51Z</time>
      </trkpt>
      <trkpt lat="45.76948" lon="2.99866">
        <ele>830.2</ele>
        <time>2017-07-18T15:53:51Z</time>
      </trkpt>
      <trkpt lat="45.76946" lon="2.99869">
        <ele>830.1</ele>
        <time>2017-07-18T15:53:51Z</time>
      </trkpt>
      <trkpt lat="45.76945" lon="2.99872">
        <ele>830</ele>
        <time>2017-07-18T15:53:51Z</time>
      </trkpt>
      <trkpt lat="45.76943" lon="2.99875">
        <ele>830</ele>
        <time>2017-07-18T15:53:51Z</time>
      </trkpt>
      <trkpt lat="45.76943" lon="2.99878">
        <ele>829.9</ele>
        <time>2017-07-18T15:53:51Z</time>
      </trkpt>
      <trkpt lat="45.76942" lon="2.99882">
        <ele>829.8</ele>
        <time>2017-07-18T15:53:51Z</time>
      </trkpt>
      <trkpt lat="45.76941" lon="2.99885">
        <ele>829.8</ele>
        <time>2017-07-18T15:53:51Z</time>
      </trkpt>
      <trkpt lat="45.76939" lon="2.99888">
        <ele>829.7</ele>
        <time>2017-07-18T15:53:51Z</time>
      </trkpt>
      <trkpt lat="45.76938" lon="2.99892">
        <ele>829.7</ele>
        <time>2017-07-18T15:53:51Z</time>
      </trkpt>
      <trkpt lat="45.76937" lon="2.99895">
        <ele>829.6</ele>
        <time>2017-07-18T15:53:51Z</time>
      </trkpt>
      <trkpt lat="45.76936" lon="2.99898">
        <ele>829.6</ele>
        <time>2017-07-18T15:53:51Z</time>
      </trkpt>
      <trkpt lat="45.76934" lon="2.999">
        <ele>829.5</ele>
        <time>2017-07-18T15:53:51Z</time>
      </trkpt>
      <trkpt lat="45.76933" lon="2.99903">
        <ele>829.4</ele>
        <time>2017-07-18T15:53:51Z</time>
      </trkpt>
      <trkpt lat="45.76931" lon="2.99905">
        <ele>829.4</ele>
        <time>2017-07-18T15:53:51Z</time>
      </trkpt>
      <trkpt lat="45.7693" lon="2.99908">
        <ele>829.3</ele>
        <time>2017-07-18T15:53:51Z</time>
      </trkpt>
      <trkpt lat="45.76928" lon="2.9991">
        <ele>829.3</ele>
        <time>2017-07-18T15:53:51Z</time>
      </trkpt>
      <trkpt lat="45.76926" lon="2.99912">
        <ele>829.2</ele>
        <time>2017-07-18T15:53:51Z</time>
      </trkpt>
      <trkpt lat="45.76924" lon="2.99915">
        <ele>829.2</ele>
        <time>2017-07-18T15:53:51Z</time>
      </trkpt>
      <trkpt lat="45.76923" lon="2.99916">
        <ele>829.1</ele>
        <time>2017-07-18T15:53:51Z</time>
      </trkpt>
      <trkpt lat="45.7692" lon="2.99918">
        <ele>829.1</ele>
        <time>2017-07-18T15:53:51Z</time>
      </trkpt>
      <trkpt lat="45.76918" lon="2.9992">
        <ele>829</ele>
        <time>2017-07-18T15:53:51Z</time>
      </trkpt>
      <trkpt lat="45.76916" lon="2.99922">
        <ele>828.9</ele>
        <time>2017-07-18T15:53:51Z</time>
      </trkpt>
      <trkpt lat="45.76915" lon="2.99923">
        <ele>828.9</ele>
        <time>2017-07-18T15:53:51Z</time>
      </trkpt>
      <trkpt lat="45.76914" lon="2.99924">
        <ele>828.8</ele>
        <time>2017-07-18T15:53:51Z</time>
      </trkpt>
      <trkpt lat="45.76912" lon="2.99926">
        <ele>828.8</ele>
        <time>2017-07-18T15:53:51Z</time>
      </trkpt>
      <trkpt lat="45.7691" lon="2.99928">
        <ele>828.7</ele>
        <time>2017-07-18T15:53:51Z</time>
      </trkpt>
      <trkpt lat="45.76908" lon="2.9993">
        <ele>828.6</ele>
        <time>2017-07-18T15:53:51Z</time>
      </trkpt>
      <trkpt lat="45.76905" lon="2.99932">
        <ele>828.5</ele>
        <time>2017-07-18T15:53:51Z</time>
      </trkpt>
      <trkpt lat="45.76904" lon="2.99934">
        <ele>828.4</ele>
        <time>2017-07-18T15:53:51Z</time>
      </trkpt>
      <trkpt lat="45.76902" lon="2.99935">
        <ele>828.3</ele>
        <time>2017-07-18T15:53:51Z</time>
      </trkpt>
      <trkpt lat="45.769" lon="2.99937">
        <ele>828.2</ele>
        <time>2017-07-18T15:53:51Z</time>
      </trkpt>
      <trkpt lat="45.76898" lon="2.99939">
        <ele>828.2</ele>
        <time>2017-07-18T15:53:51Z</time>
      </trkpt>
      <trkpt lat="45.76896" lon="2.99941">
        <ele>828.1</ele>
        <time>2017-07-18T15:53:51Z</time>
      </trkpt>
      <trkpt lat="45.76895" lon="2.99943">
        <ele>828</ele>
        <time>2017-07-18T15:53:51Z</time>
      </trkpt>
      <trkpt lat="45.76893" lon="2.99945">
        <ele>827.9</ele>
        <time>2017-07-18T15:53:51Z</time>
      </trkpt>
      <trkpt lat="45.76891" lon="2.99947">
        <ele>827.8</ele>
        <time>2017-07-18T15:53:51Z</time>
      </trkpt>
      <trkpt lat="45.76889" lon="2.99949">
        <ele>827.7</ele>
        <time>2017-07-18T15:53:51Z</time>
      </trkpt>
      <trkpt lat="45.76887" lon="2.99951">
        <ele>827.6</ele>
        <time>2017-07-18T15:53:51Z</time>
      </trkpt>
      <trkpt lat="45.76886" lon="2.99953">
        <ele>827.5</ele>
        <time>2017-07-18T15:53:51Z</time>
      </trkpt>
      <trkpt lat="45.76884" lon="2.99955">
        <ele>827.4</ele>
        <time>2017-07-18T15:53:51Z</time>
      </trkpt>
      <trkpt lat="45.76882" lon="2.99958">
        <ele>827.3</ele>
        <time>2017-07-18T15:53:51Z</time>
      </trkpt>
      <trkpt lat="45.76881" lon="2.9996">
        <ele>827.2</ele>
        <time>2017-07-18T15:53:51Z</time>
      </trkpt>
      <trkpt lat="45.76879" lon="2.99962">
        <ele>827.1</ele>
        <time>2017-07-18T15:53:51Z</time>
      </trkpt>
      <trkpt lat="45.76877" lon="2.99964">
        <ele>827</ele>
        <time>2017-07-18T15:53:51Z</time>
      </trkpt>
      <trkpt lat="45.76876" lon="2.99966">
        <ele>826.9</ele>
        <time>2017-07-18T15:53:51Z</time>
      </trkpt>
      <trkpt lat="45.76875" lon="2.99968">
        <ele>826.7</ele>
        <time>2017-07-18T15:53:51Z</time>
      </trkpt>
      <trkpt lat="45.76873" lon="2.9997">
        <ele>826.6</ele>
        <time>2017-07-18T15:53:51Z</time>
      </trkpt>
      <trkpt lat="45.76871" lon="2.99972">
        <ele>826.5</ele>
        <time>2017-07-18T15:53:51Z</time>
      </trkpt>
      <trkpt lat="45.7687" lon="2.99974">
        <ele>826.4</ele>
        <time>2017-07-18T15:53:51Z</time>
      </trkpt>
      <trkpt lat="45.76869" lon="2.99976">
        <ele>826.3</ele>
        <time>2017-07-18T15:53:51Z</time>
      </trkpt>
      <trkpt lat="45.76868" lon="2.99978">
        <ele>826.2</ele>
        <time>2017-07-18T15:53:51Z</time>
      </trkpt>
      <trkpt lat="45.76867" lon="2.9998">
        <ele>826.1</ele>
        <time>2017-07-18T15:53:51Z</time>
      </trkpt>
      <trkpt lat="45.76865" lon="2.99981">
        <ele>826</ele>
        <time>2017-07-18T15:53:51Z</time>
      </trkpt>
      <trkpt lat="45.76864" lon="2.99983">
        <ele>825.9</ele>
        <time>2017-07-18T15:53:51Z</time>
      </trkpt>
      <trkpt lat="45.76864" lon="2.99986">
        <ele>825.8</ele>
        <time>2017-07-18T15:53:51Z</time>
      </trkpt>
      <trkpt lat="45.76864" lon="2.99987">
        <ele>825.9</ele>
        <time>2017-07-18T15:53:51Z</time>
      </trkpt>
      <trkpt lat="45.76865" lon="2.99987">
        <ele>825.9</ele>
        <time>2017-07-18T15:53:51Z</time>
      </trkpt>
      <trkpt lat="45.76865" lon="2.99987">
        <ele>825.9</ele>
        <time>2017-07-18T15:53:51Z</time>
      </trkpt>
      <trkpt lat="45.76865" lon="2.99987">
        <ele>825.9</ele>
        <time>2017-07-18T15:53:51Z</time>
      </trkpt>
      <trkpt lat="45.76865" lon="2.99987">
        <ele>825.9</ele>
        <time>2017-07-18T15:53:51Z</time>
      </trkpt>
      <trkpt lat="45.76866" lon="2.99987">
        <ele>825.9</ele>
        <time>2017-07-18T15:53:51Z</time>
      </trkpt>
      <trkpt lat="45.76863" lon="2.99995">
        <ele>825.5</ele>
        <time>2017-07-18T15:53:51Z</time>
      </trkpt>
      <trkpt lat="45.76865" lon="3.00003">
        <ele>825.4</ele>
        <time>2017-07-18T15:53:51Z</time>
      </trkpt>
      <trkpt lat="45.76866" lon="3.00012">
        <ele>825.1</ele>
        <time>2017-07-18T15:53:51Z</time>
      </trkpt>
      <trkpt lat="45.76866" lon="3.00021">
        <ele>824.8</ele>
        <time>2017-07-18T15:53:51Z</time>
      </trkpt>
      <trkpt lat="45.76866" lon="3.0003">
        <ele>824.5</ele>
        <time>2017-07-18T15:53:51Z</time>
      </trkpt>
      <trkpt lat="45.76866" lon="3.00039">
        <ele>824.2</ele>
        <time>2017-07-18T15:53:51Z</time>
      </trkpt>
      <trkpt lat="45.76865" lon="3.00047">
        <ele>823.8</ele>
        <time>2017-07-18T15:53:51Z</time>
      </trkpt>
      <trkpt lat="45.76864" lon="3.00056">
        <ele>823.5</ele>
        <time>2017-07-18T15:53:51Z</time>
      </trkpt>
      <trkpt lat="45.76863" lon="3.00064">
        <ele>823.1</ele>
        <time>2017-07-18T15:53:51Z</time>
      </trkpt>
      <trkpt lat="45.76863" lon="3.00073">
        <ele>822.8</ele>
        <time>2017-07-18T15:53:51Z</time>
      </trkpt>
      <trkpt lat="45.76864" lon="3.00082">
        <ele>822.5</ele>
        <time>2017-07-18T15:53:51Z</time>
      </trkpt>
      <trkpt lat="45.76865" lon="3.00091">
        <ele>822.4</ele>
        <time>2017-07-18T15:53:51Z</time>
      </trkpt>
      <trkpt lat="45.76867" lon="3.00099">
        <ele>822.4</ele>
        <time>2017-07-18T15:53:51Z</time>
      </trkpt>
      <trkpt lat="45.76867" lon="3.00108">
        <ele>822.2</ele>
        <time>2017-07-18T15:53:51Z</time>
      </trkpt>
      <trkpt lat="45.76865" lon="3.00117">
        <ele>822</ele>
        <time>2017-07-18T15:53:51Z</time>
      </trkpt>
      <trkpt lat="45.76864" lon="3.00125">
        <ele>821.8</ele>
        <time>2017-07-18T15:53:51Z</time>
      </trkpt>
      <trkpt lat="45.76862" lon="3.00134">
        <ele>821.6</ele>
        <time>2017-07-18T15:53:51Z</time>
      </trkpt>
      <trkpt lat="45.76859" lon="3.00141">
        <ele>821.3</ele>
        <time>2017-07-18T15:53:51Z</time>
      </trkpt>
      <trkpt lat="45.76854" lon="3.00146">
        <ele>821.1</ele>
        <time>2017-07-18T15:53:51Z</time>
      </trkpt>
      <trkpt lat="45.76851" lon="3.00152">
        <ele>820.8</ele>
        <time>2017-07-18T15:53:51Z</time>
      </trkpt>
      <trkpt lat="45.76853" lon="3.0016">
        <ele>820.8</ele>
        <time>2017-07-18T15:53:51Z</time>
      </trkpt>
      <trkpt lat="45.76856" lon="3.00167">
        <ele>820.8</ele>
        <time>2017-07-18T15:53:51Z</time>
      </trkpt>
      <trkpt lat="45.7686" lon="3.00175">
        <ele>820.9</ele>
        <time>2017-07-18T15:53:51Z</time>
      </trkpt>
      <trkpt lat="45.76863" lon="3.00182">
        <ele>821</ele>
        <time>2017-07-18T15:53:51Z</time>
      </trkpt>
      <trkpt lat="45.76866" lon="3.0019">
        <ele>821</ele>
        <time>2017-07-18T15:53:51Z</time>
      </trkpt>
      <trkpt lat="45.76868" lon="3.00198">
        <ele>821</ele>
        <time>2017-07-18T15:53:51Z</time>
      </trkpt>
      <trkpt lat="45.76871" lon="3.00206">
        <ele>821</ele>
        <time>2017-07-18T15:53:51Z</time>
      </trkpt>
      <trkpt lat="45.76871" lon="3.00215">
        <ele>820.9</ele>
        <time>2017-07-18T15:53:51Z</time>
      </trkpt>
      <trkpt lat="45.76866" lon="3.0022">
        <ele>820.8</ele>
        <time>2017-07-18T15:53:51Z</time>
      </trkpt>
      <trkpt lat="45.76861" lon="3.00226">
        <ele>820.8</ele>
        <time>2017-07-18T15:53:51Z</time>
      </trkpt>
      <trkpt lat="45.76858" lon="3.00232">
        <ele>820.7</ele>
        <time>2017-07-18T15:53:51Z</time>
      </trkpt>
      <trkpt lat="45.76855" lon="3.00236">
        <ele>820.7</ele>
        <time>2017-07-18T15:53:51Z</time>
      </trkpt>
      <trkpt lat="45.7685" lon="3.00239">
        <ele>820.8</ele>
        <time>2017-07-18T15:53:51Z</time>
      </trkpt>
      <trkpt lat="45.76844" lon="3.00239">
        <ele>820.8</ele>
        <time>2017-07-18T15:53:51Z</time>
      </trkpt>
      <trkpt lat="45.76839" lon="3.00239">
        <ele>820.8</ele>
        <time>2017-07-18T15:53:51Z</time>
      </trkpt>
      <trkpt lat="45.76835" lon="3.00234">
        <ele>820.8</ele>
        <time>2017-07-18T15:53:51Z</time>
      </trkpt>
      <trkpt lat="45.76832" lon="3.0023">
        <ele>820.8</ele>
        <time>2017-07-18T15:53:51Z</time>
      </trkpt>
      <trkpt lat="45.76827" lon="3.00231">
        <ele>820.8</ele>
        <time>2017-07-18T15:53:51Z</time>
      </trkpt>
      <trkpt lat="45.76816" lon="3.0023">
        <ele>820.9</ele>
        <time>2017-07-18T15:53:51Z</time>
      </trkpt>
      <trkpt lat="45.76812" lon="3.00224">
        <ele>820.8</ele>
        <time>2017-07-18T15:53:51Z</time>
      </trkpt>
      <trkpt lat="45.76808" lon="3.00219">
        <ele>820.9</ele>
        <time>2017-07-18T15:53:51Z</time>
      </trkpt>
      <trkpt lat="45.76804" lon="3.00212">
        <ele>820.9</ele>
        <time>2017-07-18T15:53:51Z</time>
      </trkpt>
      <trkpt lat="45.76802" lon="3.00205">
        <ele>820.9</ele>
        <time>2017-07-18T15:53:51Z</time>
      </trkpt>
      <trkpt lat="45.76797" lon="3.00199">
        <ele>820.9</ele>
        <time>2017-07-18T15:53:51Z</time>
      </trkpt>
      <trkpt lat="45.76794" lon="3.00192">
        <ele>821</ele>
        <time>2017-07-18T15:53:51Z</time>
      </trkpt>
      <trkpt lat="45.7679" lon="3.00186">
        <ele>821</ele>
        <time>2017-07-18T15:53:51Z</time>
      </trkpt>
      <trkpt lat="45.76787" lon="3.00179">
        <ele>821.1</ele>
        <time>2017-07-18T15:53:51Z</time>
      </trkpt>
      <trkpt lat="45.76784" lon="3.00173">
        <ele>821.2</ele>
        <time>2017-07-18T15:53:51Z</time>
      </trkpt>
      <trkpt lat="45.7678" lon="3.00166">
        <ele>821.3</ele>
        <time>2017-07-18T15:53:51Z</time>
      </trkpt>
      <trkpt lat="45.76778" lon="3.0016">
        <ele>821.3</ele>
        <time>2017-07-18T15:53:51Z</time>
      </trkpt>
      <trkpt lat="45.76775" lon="3.00154">
        <ele>821.3</ele>
        <time>2017-07-18T15:53:51Z</time>
      </trkpt>
      <trkpt lat="45.76774" lon="3.00149">
        <ele>821.3</ele>
        <time>2017-07-18T15:53:51Z</time>
      </trkpt>
      <trkpt lat="45.76773" lon="3.00143">
        <ele>821.3</ele>
        <time>2017-07-18T15:53:51Z</time>
      </trkpt>
      <trkpt lat="45.76772" lon="3.00138">
        <ele>821.3</ele>
        <time>2017-07-18T15:53:51Z</time>
      </trkpt>
      <trkpt lat="45.76772" lon="3.00132">
        <ele>821.3</ele>
        <time>2017-07-18T15:53:51Z</time>
      </trkpt>
      <trkpt lat="45.7677" lon="3.00126">
        <ele>821.3</ele>
        <time>2017-07-18T15:53:51Z</time>
      </trkpt>
      <trkpt lat="45.76769" lon="3.00123">
        <ele>821.3</ele>
        <time>2017-07-18T15:53:51Z</time>
      </trkpt>
      <trkpt lat="45.76768" lon="3.00124">
        <ele>821.3</ele>
        <time>2017-07-18T15:53:51Z</time>
      </trkpt>
      <trkpt lat="45.76766" lon="3.00125">
        <ele>821.3</ele>
        <time>2017-07-18T15:53:51Z</time>
      </trkpt>
      <trkpt lat="45.76764" lon="3.00125">
        <ele>821.3</ele>
        <time>2017-07-18T15:53:51Z</time>
      </trkpt>
      <trkpt lat="45.76764" lon="3.00125">
        <ele>821.3</ele>
        <time>2017-07-18T15:53:51Z</time>
      </trkpt>
      <trkpt lat="45.76762" lon="3.00126">
        <ele>821.4</ele>
        <time>2017-07-18T15:53:51Z</time>
      </trkpt>
      <trkpt lat="45.76761" lon="3.00125">
        <ele>821.4</ele>
        <time>2017-07-18T15:53:51Z</time>
      </trkpt>
      <trkpt lat="45.76761" lon="3.00125">
        <ele>821.4</ele>
        <time>2017-07-18T15:53:51Z</time>
      </trkpt>
      <trkpt lat="45.76761" lon="3.00126">
        <ele>821.4</ele>
        <time>2017-07-18T15:53:51Z</time>
      </trkpt>
      <trkpt lat="45.76749" lon="3.00116">
        <ele>821.4</ele>
        <time>2017-07-18T15:53:51Z</time>
      </trkpt>
      <trkpt lat="45.76748" lon="3.00113">
        <ele>821.4</ele>
        <time>2017-07-18T15:53:51Z</time>
      </trkpt>
      <trkpt lat="45.76747" lon="3.0011">
        <ele>821.3</ele>
        <time>2017-07-18T15:53:51Z</time>
      </trkpt>
      <trkpt lat="45.76745" lon="3.00107">
        <ele>821.3</ele>
        <time>2017-07-18T15:53:51Z</time>
      </trkpt>
      <trkpt lat="45.76743" lon="3.00105">
        <ele>821.3</ele>
        <time>2017-07-18T15:53:51Z</time>
      </trkpt>
      <trkpt lat="45.76742" lon="3.00102">
        <ele>821.3</ele>
        <time>2017-07-18T15:53:51Z</time>
      </trkpt>
      <trkpt lat="45.7674" lon="3.001">
        <ele>821.3</ele>
        <time>2017-07-18T15:53:51Z</time>
      </trkpt>
      <trkpt lat="45.76737" lon="3.00098">
        <ele>821.3</ele>
        <time>2017-07-18T15:53:51Z</time>
      </trkpt>
      <trkpt lat="45.76735" lon="3.00097">
        <ele>821.3</ele>
        <time>2017-07-18T15:53:51Z</time>
      </trkpt>
      <trkpt lat="45.76732" lon="3.00097">
        <ele>821.3</ele>
        <time>2017-07-18T15:53:51Z</time>
      </trkpt>
      <trkpt lat="45.76729" lon="3.00097">
        <ele>821.3</ele>
        <time>2017-07-18T15:53:51Z</time>
      </trkpt>
      <trkpt lat="45.76727" lon="3.00098">
        <ele>821.4</ele>
        <time>2017-07-18T15:53:51Z</time>
      </trkpt>
      <trkpt lat="45.76724" lon="3.00099">
        <ele>821.4</ele>
        <time>2017-07-18T15:53:51Z</time>
      </trkpt>
      <trkpt lat="45.76721" lon="3.00099">
        <ele>821.4</ele>
        <time>2017-07-18T15:53:51Z</time>
      </trkpt>
      <trkpt lat="45.76719" lon="3.00099">
        <ele>821.4</ele>
        <time>2017-07-18T15:53:51Z</time>
      </trkpt>
      <trkpt lat="45.76716" lon="3.001">
        <ele>821.4</ele>
        <time>2017-07-18T15:53:51Z</time>
      </trkpt>
      <trkpt lat="45.76713" lon="3.001">
        <ele>821.5</ele>
        <time>2017-07-18T15:53:51Z</time>
      </trkpt>
      <trkpt lat="45.76711" lon="3.00101">
        <ele>821.5</ele>
        <time>2017-07-18T15:53:51Z</time>
      </trkpt>
      <trkpt lat="45.76708" lon="3.00101">
        <ele>821.5</ele>
        <time>2017-07-18T15:53:51Z</time>
      </trkpt>
      <trkpt lat="45.76706" lon="3.00102">
        <ele>821.5</ele>
        <time>2017-07-18T15:53:51Z</time>
      </trkpt>
      <trkpt lat="45.76704" lon="3.00103">
        <ele>821.5</ele>
        <time>2017-07-18T15:53:51Z</time>
      </trkpt>
      <trkpt lat="45.76701" lon="3.00103">
        <ele>821.5</ele>
        <time>2017-07-18T15:53:51Z</time>
      </trkpt>
      <trkpt lat="45.76698" lon="3.00104">
        <ele>821.6</ele>
        <time>2017-07-18T15:53:51Z</time>
      </trkpt>
      <trkpt lat="45.76696" lon="3.00105">
        <ele>821.6</ele>
        <time>2017-07-18T15:53:51Z</time>
      </trkpt>
      <trkpt lat="45.76694" lon="3.00107">
        <ele>821.6</ele>
        <time>2017-07-18T15:53:51Z</time>
      </trkpt>
      <trkpt lat="45.76691" lon="3.00108">
        <ele>821.6</ele>
        <time>2017-07-18T15:53:51Z</time>
      </trkpt>
      <trkpt lat="45.76689" lon="3.0011">
        <ele>821.6</ele>
        <time>2017-07-18T15:53:51Z</time>
      </trkpt>
      <trkpt lat="45.76686" lon="3.0011">
        <ele>821.6</ele>
        <time>2017-07-18T15:53:51Z</time>
      </trkpt>
      <trkpt lat="45.76683" lon="3.00111">
        <ele>821.6</ele>
        <time>2017-07-18T15:53:51Z</time>
      </trkpt>
      <trkpt lat="45.76681" lon="3.00111">
        <ele>821.6</ele>
        <time>2017-07-18T15:53:51Z</time>
      </trkpt>
      <trkpt lat="45.76679" lon="3.00113">
        <ele>821.6</ele>
        <time>2017-07-18T15:53:51Z</time>
      </trkpt>
      <trkpt lat="45.76677" lon="3.00114">
        <ele>821.6</ele>
        <time>2017-07-18T15:53:51Z</time>
      </trkpt>
      <trkpt lat="45.76674" lon="3.00116">
        <ele>821.6</ele>
        <time>2017-07-18T15:53:51Z</time>
      </trkpt>
      <trkpt lat="45.76672" lon="3.00118">
        <ele>821.6</ele>
        <time>2017-07-18T15:53:51Z</time>
      </trkpt>
      <trkpt lat="45.76669" lon="3.0012">
        <ele>821.6</ele>
        <time>2017-07-18T15:53:51Z</time>
      </trkpt>
      <trkpt lat="45.76667" lon="3.00122">
        <ele>821.5</ele>
        <time>2017-07-18T15:53:51Z</time>
      </trkpt>
      <trkpt lat="45.76664" lon="3.00124">
        <ele>821.6</ele>
        <time>2017-07-18T15:53:51Z</time>
      </trkpt>
      <trkpt lat="45.76662" lon="3.00125">
        <ele>821.7</ele>
        <time>2017-07-18T15:53:51Z</time>
      </trkpt>
      <trkpt lat="45.76659" lon="3.00126">
        <ele>821.8</ele>
        <time>2017-07-18T15:53:51Z</time>
      </trkpt>
      <trkpt lat="45.76657" lon="3.00128">
        <ele>821.9</ele>
        <time>2017-07-18T15:53:51Z</time>
      </trkpt>
      <trkpt lat="45.76654" lon="3.00129">
        <ele>822.1</ele>
        <time>2017-07-18T15:53:51Z</time>
      </trkpt>
      <trkpt lat="45.76651" lon="3.0013">
        <ele>822.2</ele>
        <time>2017-07-18T15:53:51Z</time>
      </trkpt>
      <trkpt lat="45.76648" lon="3.00132">
        <ele>822.3</ele>
        <time>2017-07-18T15:53:51Z</time>
      </trkpt>
      <trkpt lat="45.76646" lon="3.00133">
        <ele>822.4</ele>
        <time>2017-07-18T15:53:51Z</time>
      </trkpt>
      <trkpt lat="45.76644" lon="3.00135">
        <ele>822.5</ele>
        <time>2017-07-18T15:53:51Z</time>
      </trkpt>
      <trkpt lat="45.76642" lon="3.00136">
        <ele>822.5</ele>
        <time>2017-07-18T15:53:51Z</time>
      </trkpt>
      <trkpt lat="45.7664" lon="3.00138">
        <ele>822.6</ele>
        <time>2017-07-18T15:53:51Z</time>
      </trkpt>
      <trkpt lat="45.76637" lon="3.00139">
        <ele>822.7</ele>
        <time>2017-07-18T15:53:51Z</time>
      </trkpt>
      <trkpt lat="45.76635" lon="3.00141">
        <ele>822.8</ele>
        <time>2017-07-18T15:53:51Z</time>
      </trkpt>
      <trkpt lat="45.76632" lon="3.00142">
        <ele>822.9</ele>
        <time>2017-07-18T15:53:51Z</time>
      </trkpt>
      <trkpt lat="45.7663" lon="3.00143">
        <ele>823</ele>
        <time>2017-07-18T15:53:51Z</time>
      </trkpt>
      <trkpt lat="45.76628" lon="3.00145">
        <ele>823.1</ele>
        <time>2017-07-18T15:53:51Z</time>
      </trkpt>
      <trkpt lat="45.76625" lon="3.00146">
        <ele>823.2</ele>
        <time>2017-07-18T15:53:51Z</time>
      </trkpt>
      <trkpt lat="45.76623" lon="3.00147">
        <ele>823.3</ele>
        <time>2017-07-18T15:53:51Z</time>
      </trkpt>
      <trkpt lat="45.7662" lon="3.00148">
        <ele>823.4</ele>
        <time>2017-07-18T15:53:51Z</time>
      </trkpt>
      <trkpt lat="45.76618" lon="3.00148">
        <ele>823.6</ele>
        <time>2017-07-18T15:53:51Z</time>
      </trkpt>
      <trkpt lat="45.76616" lon="3.0015">
        <ele>823.6</ele>
        <time>2017-07-18T15:53:51Z</time>
      </trkpt>
      <trkpt lat="45.76614" lon="3.00151">
        <ele>823.7</ele>
        <time>2017-07-18T15:53:51Z</time>
      </trkpt>
      <trkpt lat="45.76612" lon="3.00153">
        <ele>823.8</ele>
        <time>2017-07-18T15:53:51Z</time>
      </trkpt>
      <trkpt lat="45.7661" lon="3.00154">
        <ele>823.9</ele>
        <time>2017-07-18T15:53:51Z</time>
      </trkpt>
      <trkpt lat="45.76608" lon="3.00156">
        <ele>824</ele>
        <time>2017-07-18T15:53:51Z</time>
      </trkpt>
      <trkpt lat="45.76606" lon="3.00157">
        <ele>824</ele>
        <time>2017-07-18T15:53:51Z</time>
      </trkpt>
      <trkpt lat="45.76604" lon="3.00159">
        <ele>824.1</ele>
        <time>2017-07-18T15:53:51Z</time>
      </trkpt>
      <trkpt lat="45.76602" lon="3.0016">
        <ele>824.2</ele>
        <time>2017-07-18T15:53:51Z</time>
      </trkpt>
      <trkpt lat="45.766" lon="3.00162">
        <ele>824.3</ele>
        <time>2017-07-18T15:53:51Z</time>
      </trkpt>
      <trkpt lat="45.76598" lon="3.00163">
        <ele>824.3</ele>
        <time>2017-07-18T15:53:51Z</time>
      </trkpt>
      <trkpt lat="45.76596" lon="3.00165">
        <ele>824.4</ele>
        <time>2017-07-18T15:53:51Z</time>
      </trkpt>
      <trkpt lat="45.76594" lon="3.00166">
        <ele>824.5</ele>
        <time>2017-07-18T15:53:51Z</time>
      </trkpt>
      <trkpt lat="45.76592" lon="3.00168">
        <ele>824.6</ele>
        <time>2017-07-18T15:53:51Z</time>
      </trkpt>
      <trkpt lat="45.76589" lon="3.00169">
        <ele>824.7</ele>
        <time>2017-07-18T15:53:51Z</time>
      </trkpt>
      <trkpt lat="45.76587" lon="3.00171">
        <ele>824.8</ele>
        <time>2017-07-18T15:53:51Z</time>
      </trkpt>
      <trkpt lat="45.76584" lon="3.00173">
        <ele>825</ele>
        <time>2017-07-18T15:53:51Z</time>
      </trkpt>
      <trkpt lat="45.76581" lon="3.00175">
        <ele>825.2</ele>
        <time>2017-07-18T15:53:51Z</time>
      </trkpt>
      <trkpt lat="45.76578" lon="3.00177">
        <ele>825.5</ele>
        <time>2017-07-18T15:53:51Z</time>
      </trkpt>
      <trkpt lat="45.76575" lon="3.00179">
        <ele>825.8</ele>
        <time>2017-07-18T15:53:51Z</time>
      </trkpt>
      <trkpt lat="45.76573" lon="3.00182">
        <ele>826.1</ele>
        <time>2017-07-18T15:53:51Z</time>
      </trkpt>
      <trkpt lat="45.76571" lon="3.00184">
        <ele>826.3</ele>
        <time>2017-07-18T15:53:51Z</time>
      </trkpt>
      <trkpt lat="45.76568" lon="3.00186">
        <ele>826.5</ele>
        <time>2017-07-18T15:53:51Z</time>
      </trkpt>
      <trkpt lat="45.76566" lon="3.00187">
        <ele>826.7</ele>
        <time>2017-07-18T15:53:51Z</time>
      </trkpt>
      <trkpt lat="45.76564" lon="3.00189">
        <ele>827</ele>
        <time>2017-07-18T15:53:51Z</time>
      </trkpt>
      <trkpt lat="45.76562" lon="3.00191">
        <ele>827.2</ele>
        <time>2017-07-18T15:53:51Z</time>
      </trkpt>
      <trkpt lat="45.7656" lon="3.00194">
        <ele>827.4</ele>
        <time>2017-07-18T15:53:51Z</time>
      </trkpt>
      <trkpt lat="45.76558" lon="3.00196">
        <ele>827.7</ele>
        <time>2017-07-18T15:53:51Z</time>
      </trkpt>
      <trkpt lat="45.76556" lon="3.00199">
        <ele>827.9</ele>
        <time>2017-07-18T15:53:51Z</time>
      </trkpt>
      <trkpt lat="45.76554" lon="3.00202">
        <ele>828.1</ele>
        <time>2017-07-18T15:53:51Z</time>
      </trkpt>
      <trkpt lat="45.76552" lon="3.00204">
        <ele>828.4</ele>
        <time>2017-07-18T15:53:51Z</time>
      </trkpt>
      <trkpt lat="45.76551" lon="3.00207">
        <ele>828.5</ele>
        <time>2017-07-18T15:53:51Z</time>
      </trkpt>
      <trkpt lat="45.7655" lon="3.00209">
        <ele>828.6</ele>
        <time>2017-07-18T15:53:51Z</time>
      </trkpt>
      <trkpt lat="45.7655" lon="3.00209">
        <ele>828.6</ele>
        <time>2017-07-18T15:53:51Z</time>
      </trkpt>
      <trkpt lat="45.76549" lon="3.00209">
        <ele>828.7</ele>
        <time>2017-07-18T15:53:51Z</time>
      </trkpt>
      <trkpt lat="45.76549" lon="3.0021">
        <ele>828.7</ele>
        <time>2017-07-18T15:53:51Z</time>
      </trkpt>
      <trkpt lat="45.76549" lon="3.0021">
        <ele>828.7</ele>
        <time>2017-07-18T15:53:51Z</time>
      </trkpt>
      <trkpt lat="45.76548" lon="3.0021">
        <ele>828.8</ele>
        <time>2017-07-18T15:53:51Z</time>
      </trkpt>
      <trkpt lat="45.76547" lon="3.00213">
        <ele>829</ele>
        <time>2017-07-18T15:53:51Z</time>
      </trkpt>
      <trkpt lat="45.76546" lon="3.00215">
        <ele>829.1</ele>
        <time>2017-07-18T15:53:51Z</time>
      </trkpt>
      <trkpt lat="45.76544" lon="3.00217">
        <ele>829.3</ele>
        <time>2017-07-18T15:53:51Z</time>
      </trkpt>
      <trkpt lat="45.76542" lon="3.00219">
        <ele>829.5</ele>
        <time>2017-07-18T15:53:51Z</time>
      </trkpt>
      <trkpt lat="45.76541" lon="3.00221">
        <ele>829.7</ele>
        <time>2017-07-18T15:53:51Z</time>
      </trkpt>
      <trkpt lat="45.7654" lon="3.00224">
        <ele>829.9</ele>
        <time>2017-07-18T15:53:51Z</time>
      </trkpt>
      <trkpt lat="45.76538" lon="3.00227">
        <ele>830.1</ele>
        <time>2017-07-18T15:53:51Z</time>
      </trkpt>
      <trkpt lat="45.76537" lon="3.0023">
        <ele>830.3</ele>
        <time>2017-07-18T15:53:51Z</time>
      </trkpt>
      <trkpt lat="45.76536" lon="3.00233">
        <ele>830.4</ele>
        <time>2017-07-18T15:53:51Z</time>
      </trkpt>
      <trkpt lat="45.76535" lon="3.00236">
        <ele>830.6</ele>
        <time>2017-07-18T15:53:51Z</time>
      </trkpt>
      <trkpt lat="45.76533" lon="3.00239">
        <ele>830.8</ele>
        <time>2017-07-18T15:53:51Z</time>
      </trkpt>
      <trkpt lat="45.76533" lon="3.00242">
        <ele>831</ele>
        <time>2017-07-18T15:53:51Z</time>
      </trkpt>
      <trkpt lat="45.76532" lon="3.00244">
        <ele>831.1</ele>
        <time>2017-07-18T15:53:51Z</time>
      </trkpt>
      <trkpt lat="45.7653" lon="3.00247">
        <ele>831.3</ele>
        <time>2017-07-18T15:53:51Z</time>
      </trkpt>
      <trkpt lat="45.76529" lon="3.00251">
        <ele>831.5</ele>
        <time>2017-07-18T15:53:51Z</time>
      </trkpt>
      <trkpt lat="45.76528" lon="3.00254">
        <ele>831.7</ele>
        <time>2017-07-18T15:53:51Z</time>
      </trkpt>
      <trkpt lat="45.76526" lon="3.00257">
        <ele>831.9</ele>
        <time>2017-07-18T15:53:51Z</time>
      </trkpt>
      <trkpt lat="45.76525" lon="3.00261">
        <ele>832.1</ele>
        <time>2017-07-18T15:53:51Z</time>
      </trkpt>
      <trkpt lat="45.76524" lon="3.00264">
        <ele>832.2</ele>
        <time>2017-07-18T15:53:51Z</time>
      </trkpt>
      <trkpt lat="45.76523" lon="3.00268">
        <ele>832.4</ele>
        <time>2017-07-18T15:53:51Z</time>
      </trkpt>
      <trkpt lat="45.76521" lon="3.00272">
        <ele>832.7</ele>
        <time>2017-07-18T15:53:51Z</time>
      </trkpt>
      <trkpt lat="45.7652" lon="3.00276">
        <ele>832.8</ele>
        <time>2017-07-18T15:53:51Z</time>
      </trkpt>
      <trkpt lat="45.76519" lon="3.00279">
        <ele>833.1</ele>
        <time>2017-07-18T15:53:51Z</time>
      </trkpt>
      <trkpt lat="45.76516" lon="3.00282">
        <ele>833.3</ele>
        <time>2017-07-18T15:53:51Z</time>
      </trkpt>
      <trkpt lat="45.76514" lon="3.00285">
        <ele>833.6</ele>
        <time>2017-07-18T15:53:51Z</time>
      </trkpt>
      <trkpt lat="45.76512" lon="3.00287">
        <ele>833.9</ele>
        <time>2017-07-18T15:53:51Z</time>
      </trkpt>
      <trkpt lat="45.76511" lon="3.00289">
        <ele>834.1</ele>
        <time>2017-07-18T15:53:51Z</time>
      </trkpt>
      <trkpt lat="45.7651" lon="3.00289">
        <ele>834.2</ele>
        <time>2017-07-18T15:53:51Z</time>
      </trkpt>
      <trkpt lat="45.76509" lon="3.00286">
        <ele>834.3</ele>
        <time>2017-07-18T15:53:51Z</time>
      </trkpt>
      <trkpt lat="45.76508" lon="3.00283">
        <ele>834.4</ele>
        <time>2017-07-18T15:53:51Z</time>
      </trkpt>
      <trkpt lat="45.76508" lon="3.0028">
        <ele>834.4</ele>
        <time>2017-07-18T15:53:51Z</time>
      </trkpt>
      <trkpt lat="45.76508" lon="3.00276">
        <ele>834.4</ele>
        <time>2017-07-18T15:53:51Z</time>
      </trkpt>
      <trkpt lat="45.76507" lon="3.00273">
        <ele>834.4</ele>
        <time>2017-07-18T15:53:51Z</time>
      </trkpt>
      <trkpt lat="45.76508" lon="3.00269">
        <ele>834.3</ele>
        <time>2017-07-18T15:53:51Z</time>
      </trkpt>
      <trkpt lat="45.76508" lon="3.00266">
        <ele>834.2</ele>
        <time>2017-07-18T15:53:51Z</time>
      </trkpt>
      <trkpt lat="45.76507" lon="3.00262">
        <ele>834.3</ele>
        <time>2017-07-18T15:53:51Z</time>
      </trkpt>
      <trkpt lat="45.76506" lon="3.00259">
        <ele>834.3</ele>
        <time>2017-07-18T15:53:51Z</time>
      </trkpt>
      <trkpt lat="45.76507" lon="3.00255">
        <ele>834.3</ele>
        <time>2017-07-18T15:53:51Z</time>
      </trkpt>
      <trkpt lat="45.76506" lon="3.00252">
        <ele>834.2</ele>
        <time>2017-07-18T15:53:51Z</time>
      </trkpt>
      <trkpt lat="45.76507" lon="3.00248">
        <ele>834.2</ele>
        <time>2017-07-18T15:53:51Z</time>
      </trkpt>
      <trkpt lat="45.76506" lon="3.00245">
        <ele>834.1</ele>
        <time>2017-07-18T15:53:51Z</time>
      </trkpt>
      <trkpt lat="45.76506" lon="3.00241">
        <ele>834.1</ele>
        <time>2017-07-18T15:53:51Z</time>
      </trkpt>
      <trkpt lat="45.76505" lon="3.00238">
        <ele>834.1</ele>
        <time>2017-07-18T15:53:51Z</time>
      </trkpt>
      <trkpt lat="45.76505" lon="3.00234">
        <ele>834.1</ele>
        <time>2017-07-18T15:53:51Z</time>
      </trkpt>
      <trkpt lat="45.76505" lon="3.00231">
        <ele>834</ele>
        <time>2017-07-18T15:53:51Z</time>
      </trkpt>
      <trkpt lat="45.76504" lon="3.00227">
        <ele>834</ele>
        <time>2017-07-18T15:53:51Z</time>
      </trkpt>
      <trkpt lat="45.76504" lon="3.00223">
        <ele>833.9</ele>
        <time>2017-07-18T15:53:51Z</time>
      </trkpt>
      <trkpt lat="45.76503" lon="3.0022">
        <ele>833.9</ele>
        <time>2017-07-18T15:53:51Z</time>
      </trkpt>
      <trkpt lat="45.76503" lon="3.00216">
        <ele>833.9</ele>
        <time>2017-07-18T15:53:51Z</time>
      </trkpt>
      <trkpt lat="45.76503" lon="3.00213">
        <ele>833.8</ele>
        <time>2017-07-18T15:53:51Z</time>
      </trkpt>
      <trkpt lat="45.76503" lon="3.00209">
        <ele>833.7</ele>
        <time>2017-07-18T15:53:51Z</time>
      </trkpt>
      <trkpt lat="45.76503" lon="3.00206">
        <ele>833.7</ele>
        <time>2017-07-18T15:53:51Z</time>
      </trkpt>
      <trkpt lat="45.76503" lon="3.00202">
        <ele>833.6</ele>
        <time>2017-07-18T15:53:51Z</time>
      </trkpt>
      <trkpt lat="45.76502" lon="3.00199">
        <ele>833.5</ele>
        <time>2017-07-18T15:53:51Z</time>
      </trkpt>
      <trkpt lat="45.76501" lon="3.00195">
        <ele>833.6</ele>
        <time>2017-07-18T15:53:51Z</time>
      </trkpt>
      <trkpt lat="45.76501" lon="3.00192">
        <ele>833.5</ele>
        <time>2017-07-18T15:53:51Z</time>
      </trkpt>
      <trkpt lat="45.765" lon="3.00189">
        <ele>833.5</ele>
        <time>2017-07-18T15:53:51Z</time>
      </trkpt>
      <trkpt lat="45.76501" lon="3.00185">
        <ele>833.4</ele>
        <time>2017-07-18T15:53:51Z</time>
      </trkpt>
      <trkpt lat="45.765" lon="3.00181">
        <ele>833.4</ele>
        <time>2017-07-18T15:53:51Z</time>
      </trkpt>
      <trkpt lat="45.76498" lon="3.00178">
        <ele>833.6</ele>
        <time>2017-07-18T15:53:51Z</time>
      </trkpt>
      <trkpt lat="45.76497" lon="3.00174">
        <ele>833.6</ele>
        <time>2017-07-18T15:53:51Z</time>
      </trkpt>
      <trkpt lat="45.76497" lon="3.0017">
        <ele>833.5</ele>
        <time>2017-07-18T15:53:51Z</time>
      </trkpt>
      <trkpt lat="45.76496" lon="3.00166">
        <ele>833.6</ele>
        <time>2017-07-18T15:53:51Z</time>
      </trkpt>
      <trkpt lat="45.76496" lon="3.00162">
        <ele>833.5</ele>
        <time>2017-07-18T15:53:51Z</time>
      </trkpt>
      <trkpt lat="45.76497" lon="3.00158">
        <ele>833.4</ele>
        <time>2017-07-18T15:53:51Z</time>
      </trkpt>
      <trkpt lat="45.76496" lon="3.00155">
        <ele>833.4</ele>
        <time>2017-07-18T15:53:51Z</time>
      </trkpt>
      <trkpt lat="45.76496" lon="3.00151">
        <ele>833.4</ele>
        <time>2017-07-18T15:53:51Z</time>
      </trkpt>
      <trkpt lat="45.76496" lon="3.00147">
        <ele>833.3</ele>
        <time>2017-07-18T15:53:51Z</time>
      </trkpt>
      <trkpt lat="45.76495" lon="3.00144">
        <ele>833.3</ele>
        <time>2017-07-18T15:53:51Z</time>
      </trkpt>
      <trkpt lat="45.76494" lon="3.0014">
        <ele>833.4</ele>
        <time>2017-07-18T15:53:51Z</time>
      </trkpt>
      <trkpt lat="45.76493" lon="3.00136">
        <ele>833.5</ele>
        <time>2017-07-18T15:53:51Z</time>
      </trkpt>
      <trkpt lat="45.76493" lon="3.00133">
        <ele>833.4</ele>
        <time>2017-07-18T15:53:51Z</time>
      </trkpt>
      <trkpt lat="45.76492" lon="3.00129">
        <ele>833.4</ele>
        <time>2017-07-18T15:53:51Z</time>
      </trkpt>
      <trkpt lat="45.76491" lon="3.00126">
        <ele>833.5</ele>
        <time>2017-07-18T15:53:51Z</time>
      </trkpt>
      <trkpt lat="45.7649" lon="3.00122">
        <ele>833.5</ele>
        <time>2017-07-18T15:53:51Z</time>
      </trkpt>
      <trkpt lat="45.76488" lon="3.00119">
        <ele>833.7</ele>
        <time>2017-07-18T15:53:51Z</time>
      </trkpt>
      <trkpt lat="45.76487" lon="3.00115">
        <ele>833.8</ele>
        <time>2017-07-18T15:53:51Z</time>
      </trkpt>
      <trkpt lat="45.76486" lon="3.00111">
        <ele>833.8</ele>
        <time>2017-07-18T15:53:51Z</time>
      </trkpt>
      <trkpt lat="45.76485" lon="3.00108">
        <ele>833.9</ele>
        <time>2017-07-18T15:53:51Z</time>
      </trkpt>
      <trkpt lat="45.76484" lon="3.00105">
        <ele>834</ele>
        <time>2017-07-18T15:53:51Z</time>
      </trkpt>
      <trkpt lat="45.76483" lon="3.00103">
        <ele>834.2</ele>
        <time>2017-07-18T15:53:51Z</time>
      </trkpt>
      <trkpt lat="45.76482" lon="3.001">
        <ele>834.3</ele>
        <time>2017-07-18T15:53:51Z</time>
      </trkpt>
      <trkpt lat="45.76481" lon="3.00096">
        <ele>834.4</ele>
        <time>2017-07-18T15:53:51Z</time>
      </trkpt>
      <trkpt lat="45.76479" lon="3.00093">
        <ele>834.5</ele>
        <time>2017-07-18T15:53:51Z</time>
      </trkpt>
      <trkpt lat="45.76479" lon="3.0009">
        <ele>834.5</ele>
        <time>2017-07-18T15:53:51Z</time>
      </trkpt>
      <trkpt lat="45.76479" lon="3.00088">
        <ele>834.4</ele>
        <time>2017-07-18T15:53:51Z</time>
      </trkpt>
      <trkpt lat="45.76478" lon="3.00085">
        <ele>834.5</ele>
        <time>2017-07-18T15:53:51Z</time>
      </trkpt>
      <trkpt lat="45.76477" lon="3.00083">
        <ele>834.6</ele>
        <time>2017-07-18T15:53:51Z</time>
      </trkpt>
      <trkpt lat="45.76476" lon="3.00081">
        <ele>834.7</ele>
        <time>2017-07-18T15:53:51Z</time>
      </trkpt>
      <trkpt lat="45.76475" lon="3.00079">
        <ele>834.6</ele>
        <time>2017-07-18T15:53:51Z</time>
      </trkpt>
      <trkpt lat="45.76473" lon="3.00077">
        <ele>834.9</ele>
        <time>2017-07-18T15:53:51Z</time>
      </trkpt>
      <trkpt lat="45.76473" lon="3.00075">
        <ele>834.8</ele>
        <time>2017-07-18T15:53:51Z</time>
      </trkpt>
      <trkpt lat="45.76473" lon="3.00072">
        <ele>834.8</ele>
        <time>2017-07-18T15:53:51Z</time>
      </trkpt>
      <trkpt lat="45.76472" lon="3.0007">
        <ele>834.8</ele>
        <time>2017-07-18T15:53:51Z</time>
      </trkpt>
      <trkpt lat="45.76471" lon="3.00067">
        <ele>834.8</ele>
        <time>2017-07-18T15:53:51Z</time>
      </trkpt>
      <trkpt lat="45.76471" lon="3.00065">
        <ele>834.7</ele>
        <time>2017-07-18T15:53:51Z</time>
      </trkpt>
      <trkpt lat="45.7647" lon="3.00063">
        <ele>834.7</ele>
        <time>2017-07-18T15:53:51Z</time>
      </trkpt>
      <trkpt lat="45.7647" lon="3.00061">
        <ele>834.7</ele>
        <time>2017-07-18T15:53:51Z</time>
      </trkpt>
      <trkpt lat="45.76469" lon="3.0006">
        <ele>834.8</ele>
        <time>2017-07-18T15:53:51Z</time>
      </trkpt>
      <trkpt lat="45.76468" lon="3.00053">
        <ele>834.7</ele>
        <time>2017-07-18T15:53:51Z</time>
      </trkpt>
      <trkpt lat="45.76468" lon="3.00053">
        <ele>834.6</ele>
        <time>2017-07-18T15:53:51Z</time>
      </trkpt>
      <trkpt lat="45.7647" lon="3.00052">
        <ele>834.3</ele>
        <time>2017-07-18T15:53:51Z</time>
      </trkpt>
      <trkpt lat="45.7647" lon="3.00052">
        <ele>834.2</ele>
        <time>2017-07-18T15:53:51Z</time>
      </trkpt>
      <trkpt lat="45.7647" lon="3.00051">
        <ele>834.2</ele>
        <time>2017-07-18T15:53:51Z</time>
      </trkpt>
      <trkpt lat="45.76469" lon="3.00048">
        <ele>834.2</ele>
        <time>2017-07-18T15:53:51Z</time>
      </trkpt>
      <trkpt lat="45.76468" lon="3.00044">
        <ele>834.3</ele>
        <time>2017-07-18T15:53:51Z</time>
      </trkpt>
      <trkpt lat="45.76467" lon="3.00041">
        <ele>834.3</ele>
        <time>2017-07-18T15:53:51Z</time>
      </trkpt>
      <trkpt lat="45.76466" lon="3.00038">
        <ele>834.2</ele>
        <time>2017-07-18T15:53:51Z</time>
      </trkpt>
      <trkpt lat="45.76466" lon="3.00034">
        <ele>834</ele>
        <time>2017-07-18T15:53:51Z</time>
      </trkpt>
      <trkpt lat="45.76465" lon="3.0003">
        <ele>834</ele>
        <time>2017-07-18T15:53:51Z</time>
      </trkpt>
      <trkpt lat="45.76465" lon="3.00026">
        <ele>833.9</ele>
        <time>2017-07-18T15:53:51Z</time>
      </trkpt>
      <trkpt lat="45.76464" lon="3.00023">
        <ele>833.8</ele>
        <time>2017-07-18T15:53:51Z</time>
      </trkpt>
      <trkpt lat="45.76464" lon="3.00019">
        <ele>833.6</ele>
        <time>2017-07-18T15:53:51Z</time>
      </trkpt>
      <trkpt lat="45.76463" lon="3.00015">
        <ele>833.6</ele>
        <time>2017-07-18T15:53:51Z</time>
      </trkpt>
      <trkpt lat="45.76463" lon="3.00012">
        <ele>833.5</ele>
        <time>2017-07-18T15:53:51Z</time>
      </trkpt>
      <trkpt lat="45.76462" lon="3.00009">
        <ele>833.4</ele>
        <time>2017-07-18T15:53:51Z</time>
      </trkpt>
      <trkpt lat="45.76461" lon="3.00005">
        <ele>833.4</ele>
        <time>2017-07-18T15:53:51Z</time>
      </trkpt>
      <trkpt lat="45.76459" lon="3.00002">
        <ele>833.5</ele>
        <time>2017-07-18T15:53:51Z</time>
      </trkpt>
      <trkpt lat="45.76457" lon="2.99998">
        <ele>833.6</ele>
        <time>2017-07-18T15:53:51Z</time>
      </trkpt>
      <trkpt lat="45.76457" lon="2.99994">
        <ele>833.5</ele>
        <time>2017-07-18T15:53:51Z</time>
      </trkpt>
      <trkpt lat="45.76457" lon="2.9999">
        <ele>833.3</ele>
        <time>2017-07-18T15:53:51Z</time>
      </trkpt>
      <trkpt lat="45.76457" lon="2.99986">
        <ele>833.2</ele>
        <time>2017-07-18T15:53:51Z</time>
      </trkpt>
      <trkpt lat="45.76457" lon="2.99983">
        <ele>833</ele>
        <time>2017-07-18T15:53:51Z</time>
      </trkpt>
      <trkpt lat="45.76458" lon="2.99979">
        <ele>832.8</ele>
        <time>2017-07-18T15:53:51Z</time>
      </trkpt>
      <trkpt lat="45.76457" lon="2.99975">
        <ele>832.7</ele>
        <time>2017-07-18T15:53:51Z</time>
      </trkpt>
      <trkpt lat="45.76457" lon="2.99973">
        <ele>832.6</ele>
        <time>2017-07-18T15:53:51Z</time>
      </trkpt>
      <trkpt lat="45.76457" lon="2.99969">
        <ele>832.6</ele>
        <time>2017-07-18T15:53:51Z</time>
      </trkpt>
      <trkpt lat="45.76456" lon="2.99966">
        <ele>832.5</ele>
        <time>2017-07-18T15:53:51Z</time>
      </trkpt>
      <trkpt lat="45.76455" lon="2.99962">
        <ele>832.5</ele>
        <time>2017-07-18T15:53:51Z</time>
      </trkpt>
      <trkpt lat="45.76455" lon="2.99959">
        <ele>832.4</ele>
        <time>2017-07-18T15:53:51Z</time>
      </trkpt>
      <trkpt lat="45.76454" lon="2.99955">
        <ele>832.4</ele>
        <time>2017-07-18T15:53:51Z</time>
      </trkpt>
      <trkpt lat="45.76453" lon="2.99952">
        <ele>832.4</ele>
        <time>2017-07-18T15:53:51Z</time>
      </trkpt>
      <trkpt lat="45.76453" lon="2.99949">
        <ele>832.3</ele>
        <time>2017-07-18T15:53:51Z</time>
      </trkpt>
      <trkpt lat="45.76452" lon="2.99946">
        <ele>832.3</ele>
        <time>2017-07-18T15:53:51Z</time>
      </trkpt>
      <trkpt lat="45.76451" lon="2.99945">
        <ele>832.4</ele>
        <time>2017-07-18T15:53:51Z</time>
      </trkpt>
      <trkpt lat="45.76449" lon="2.99945">
        <ele>832.6</ele>
        <time>2017-07-18T15:53:51Z</time>
      </trkpt>
      <trkpt lat="45.76448" lon="2.99945">
        <ele>832.7</ele>
        <time>2017-07-18T15:53:51Z</time>
      </trkpt>
      <trkpt lat="45.76447" lon="2.99945">
        <ele>832.8</ele>
        <time>2017-07-18T15:53:51Z</time>
      </trkpt>
      <trkpt lat="45.76447" lon="2.99945">
        <ele>832.8</ele>
        <time>2017-07-18T15:53:51Z</time>
      </trkpt>
      <trkpt lat="45.76447" lon="2.99945">
        <ele>832.9</ele>
        <time>2017-07-18T15:53:51Z</time>
      </trkpt>
      <trkpt lat="45.76445" lon="2.99946">
        <ele>833</ele>
        <time>2017-07-18T15:53:51Z</time>
      </trkpt>
      <trkpt lat="45.76443" lon="2.99947">
        <ele>833.4</ele>
        <time>2017-07-18T15:53:51Z</time>
      </trkpt>
      <trkpt lat="45.7644" lon="2.99948">
        <ele>833.8</ele>
        <time>2017-07-18T15:53:51Z</time>
      </trkpt>
      <trkpt lat="45.76436" lon="2.9995">
        <ele>834.3</ele>
        <time>2017-07-18T15:53:51Z</time>
      </trkpt>
      <trkpt lat="45.76434" lon="2.99952">
        <ele>834.7</ele>
        <time>2017-07-18T15:53:51Z</time>
      </trkpt>
      <trkpt lat="45.76431" lon="2.99953">
        <ele>835.1</ele>
        <time>2017-07-18T15:53:51Z</time>
      </trkpt>
      <trkpt lat="45.76428" lon="2.99955">
        <ele>835.4</ele>
        <time>2017-07-18T15:53:51Z</time>
      </trkpt>
      <trkpt lat="45.76426" lon="2.99956">
        <ele>835.8</ele>
        <time>2017-07-18T15:53:51Z</time>
      </trkpt>
      <trkpt lat="45.76422" lon="2.99957">
        <ele>836.3</ele>
        <time>2017-07-18T15:53:51Z</time>
      </trkpt>
      <trkpt lat="45.76419" lon="2.99958">
        <ele>836.7</ele>
        <time>2017-07-18T15:53:51Z</time>
      </trkpt>
      <trkpt lat="45.76415" lon="2.99957">
        <ele>837.2</ele>
        <time>2017-07-18T15:53:51Z</time>
      </trkpt>
      <trkpt lat="45.76413" lon="2.99957">
        <ele>837.6</ele>
        <time>2017-07-18T15:53:51Z</time>
      </trkpt>
      <trkpt lat="45.76411" lon="2.99956">
        <ele>837.9</ele>
        <time>2017-07-18T15:53:51Z</time>
      </trkpt>
      <trkpt lat="45.76409" lon="2.99955">
        <ele>838.1</ele>
        <time>2017-07-18T15:53:51Z</time>
      </trkpt>
      <trkpt lat="45.76408" lon="2.99954">
        <ele>838.3</ele>
        <time>2017-07-18T15:53:51Z</time>
      </trkpt>
      <trkpt lat="45.76406" lon="2.99953">
        <ele>838.5</ele>
        <time>2017-07-18T15:53:51Z</time>
      </trkpt>
      <trkpt lat="45.76405" lon="2.99952">
        <ele>838.7</ele>
        <time>2017-07-18T15:53:51Z</time>
      </trkpt>
      <trkpt lat="45.76404" lon="2.99952">
        <ele>838.9</ele>
        <time>2017-07-18T15:53:51Z</time>
      </trkpt>
      <trkpt lat="45.76401" lon="2.99949">
        <ele>839.2</ele>
        <time>2017-07-18T15:53:51Z</time>
      </trkpt>
      <trkpt lat="45.76398" lon="2.99947">
        <ele>839.6</ele>
        <time>2017-07-18T15:53:51Z</time>
      </trkpt>
      <trkpt lat="45.76396" lon="2.99946">
        <ele>839.9</ele>
        <time>2017-07-18T15:53:51Z</time>
      </trkpt>
      <trkpt lat="45.76394" lon="2.99944">
        <ele>840.2</ele>
        <time>2017-07-18T15:53:51Z</time>
      </trkpt>
      <trkpt lat="45.76392" lon="2.99943">
        <ele>840.3</ele>
        <time>2017-07-18T15:53:51Z</time>
      </trkpt>
      <trkpt lat="45.76391" lon="2.99941">
        <ele>840.4</ele>
        <time>2017-07-18T15:53:51Z</time>
      </trkpt>
      <trkpt lat="45.76389" lon="2.99939">
        <ele>840.6</ele>
        <time>2017-07-18T15:53:51Z</time>
      </trkpt>
      <trkpt lat="45.76388" lon="2.99938">
        <ele>840.7</ele>
        <time>2017-07-18T15:53:51Z</time>
      </trkpt>
      <trkpt lat="45.76387" lon="2.99936">
        <ele>840.9</ele>
        <time>2017-07-18T15:53:51Z</time>
      </trkpt>
      <trkpt lat="45.76385" lon="2.99935">
        <ele>841.1</ele>
        <time>2017-07-18T15:53:51Z</time>
      </trkpt>
      <trkpt lat="45.76382" lon="2.99934">
        <ele>841.4</ele>
        <time>2017-07-18T15:53:51Z</time>
      </trkpt>
      <trkpt lat="45.7638" lon="2.99933">
        <ele>841.8</ele>
        <time>2017-07-18T15:53:51Z</time>
      </trkpt>
      <trkpt lat="45.76377" lon="2.99933">
        <ele>842.3</ele>
        <time>2017-07-18T15:53:51Z</time>
      </trkpt>
      <trkpt lat="45.76374" lon="2.99933">
        <ele>842.8</ele>
        <time>2017-07-18T15:53:51Z</time>
      </trkpt>
      <trkpt lat="45.76371" lon="2.99933">
        <ele>843.3</ele>
        <time>2017-07-18T15:53:51Z</time>
      </trkpt>
      <trkpt lat="45.76366" lon="2.99932">
        <ele>844</ele>
        <time>2017-07-18T15:53:51Z</time>
      </trkpt>
      <trkpt lat="45.76361" lon="2.99931">
        <ele>844.6</ele>
        <time>2017-07-18T15:53:51Z</time>
      </trkpt>
      <trkpt lat="45.76359" lon="2.9993">
        <ele>845</ele>
        <time>2017-07-18T15:53:51Z</time>
      </trkpt>
      <trkpt lat="45.76356" lon="2.99928">
        <ele>845.3</ele>
        <time>2017-07-18T15:53:51Z</time>
      </trkpt>
      <trkpt lat="45.76354" lon="2.99927">
        <ele>845.5</ele>
        <time>2017-07-18T15:53:51Z</time>
      </trkpt>
      <trkpt lat="45.76352" lon="2.99925">
        <ele>845.7</ele>
        <time>2017-07-18T15:53:51Z</time>
      </trkpt>
      <trkpt lat="45.7635" lon="2.99923">
        <ele>846</ele>
        <time>2017-07-18T15:53:51Z</time>
      </trkpt>
      <trkpt lat="45.76347" lon="2.99922">
        <ele>846.3</ele>
        <time>2017-07-18T15:53:51Z</time>
      </trkpt>
      <trkpt lat="45.76344" lon="2.99921">
        <ele>846.6</ele>
        <time>2017-07-18T15:53:51Z</time>
      </trkpt>
      <trkpt lat="45.76341" lon="2.9992">
        <ele>847</ele>
        <time>2017-07-18T15:53:51Z</time>
      </trkpt>
      <trkpt lat="45.76339" lon="2.99918">
        <ele>847.2</ele>
        <time>2017-07-18T15:53:51Z</time>
      </trkpt>
      <trkpt lat="45.76337" lon="2.99917">
        <ele>847.5</ele>
        <time>2017-07-18T15:53:51Z</time>
      </trkpt>
      <trkpt lat="45.76335" lon="2.99914">
        <ele>847.5</ele>
        <time>2017-07-18T15:53:51Z</time>
      </trkpt>
      <trkpt lat="45.76333" lon="2.99912">
        <ele>847.7</ele>
        <time>2017-07-18T15:53:51Z</time>
      </trkpt>
      <trkpt lat="45.7633" lon="2.99911">
        <ele>848.1</ele>
        <time>2017-07-18T15:53:51Z</time>
      </trkpt>
      <trkpt lat="45.76328" lon="2.99911">
        <ele>848.5</ele>
        <time>2017-07-18T15:53:51Z</time>
      </trkpt>
      <trkpt lat="45.76326" lon="2.9991">
        <ele>848.8</ele>
        <time>2017-07-18T15:53:51Z</time>
      </trkpt>
      <trkpt lat="45.76324" lon="2.99909">
        <ele>849.1</ele>
        <time>2017-07-18T15:53:51Z</time>
      </trkpt>
      <trkpt lat="45.76322" lon="2.99909">
        <ele>849.5</ele>
        <time>2017-07-18T15:53:51Z</time>
      </trkpt>
      <trkpt lat="45.7632" lon="2.99908">
        <ele>849.9</ele>
        <time>2017-07-18T15:53:51Z</time>
      </trkpt>
      <trkpt lat="45.76317" lon="2.99906">
        <ele>850.2</ele>
        <time>2017-07-18T15:53:51Z</time>
      </trkpt>
      <trkpt lat="45.76316" lon="2.99905">
        <ele>850.4</ele>
        <time>2017-07-18T15:53:51Z</time>
      </trkpt>
      <trkpt lat="45.76314" lon="2.99903">
        <ele>850.5</ele>
        <time>2017-07-18T15:53:51Z</time>
      </trkpt>
      <trkpt lat="45.76313" lon="2.99901">
        <ele>850.5</ele>
        <time>2017-07-18T15:53:51Z</time>
      </trkpt>
      <trkpt lat="45.76312" lon="2.99899">
        <ele>850.5</ele>
        <time>2017-07-18T15:53:51Z</time>
      </trkpt>
      <trkpt lat="45.76311" lon="2.99897">
        <ele>850.5</ele>
        <time>2017-07-18T15:53:51Z</time>
      </trkpt>
      <trkpt lat="45.7631" lon="2.99894">
        <ele>850.4</ele>
        <time>2017-07-18T15:53:51Z</time>
      </trkpt>
      <trkpt lat="45.76309" lon="2.99892">
        <ele>850.4</ele>
        <time>2017-07-18T15:53:51Z</time>
      </trkpt>
      <trkpt lat="45.76307" lon="2.99889">
        <ele>850.5</ele>
        <time>2017-07-18T15:53:51Z</time>
      </trkpt>
      <trkpt lat="45.76304" lon="2.99887">
        <ele>850.7</ele>
        <time>2017-07-18T15:53:51Z</time>
      </trkpt>
      <trkpt lat="45.76304" lon="2.99886">
        <ele>850.7</ele>
        <time>2017-07-18T15:53:51Z</time>
      </trkpt>
      <trkpt lat="45.76302" lon="2.99884">
        <ele>850.8</ele>
        <time>2017-07-18T15:53:51Z</time>
      </trkpt>
      <trkpt lat="45.76301" lon="2.99882">
        <ele>850.8</ele>
        <time>2017-07-18T15:53:51Z</time>
      </trkpt>
      <trkpt lat="45.76299" lon="2.99882">
        <ele>851.1</ele>
        <time>2017-07-18T15:53:51Z</time>
      </trkpt>
      <trkpt lat="45.76297" lon="2.99882">
        <ele>851.5</ele>
        <time>2017-07-18T15:53:51Z</time>
      </trkpt>
      <trkpt lat="45.76294" lon="2.99881">
        <ele>851.9</ele>
        <time>2017-07-18T15:53:51Z</time>
      </trkpt>
      <trkpt lat="45.76292" lon="2.9988">
        <ele>852.2</ele>
        <time>2017-07-18T15:53:51Z</time>
      </trkpt>
      <trkpt lat="45.7629" lon="2.9988">
        <ele>852.5</ele>
        <time>2017-07-18T15:53:51Z</time>
      </trkpt>
      <trkpt lat="45.76288" lon="2.99879">
        <ele>852.9</ele>
        <time>2017-07-18T15:53:51Z</time>
      </trkpt>
      <trkpt lat="45.76286" lon="2.99878">
        <ele>853.1</ele>
        <time>2017-07-18T15:53:51Z</time>
      </trkpt>
      <trkpt lat="45.76284" lon="2.99877">
        <ele>853.4</ele>
        <time>2017-07-18T15:53:51Z</time>
      </trkpt>
      <trkpt lat="45.76282" lon="2.99875">
        <ele>853.7</ele>
        <time>2017-07-18T15:53:51Z</time>
      </trkpt>
      <trkpt lat="45.76279" lon="2.99875">
        <ele>854.1</ele>
        <time>2017-07-18T15:53:51Z</time>
      </trkpt>
      <trkpt lat="45.76277" lon="2.99875">
        <ele>854.5</ele>
        <time>2017-07-18T15:53:51Z</time>
      </trkpt>
      <trkpt lat="45.76275" lon="2.99876">
        <ele>855</ele>
        <time>2017-07-18T15:53:51Z</time>
      </trkpt>
      <trkpt lat="45.76271" lon="2.99876">
        <ele>855.6</ele>
        <time>2017-07-18T15:53:51Z</time>
      </trkpt>
      <trkpt lat="45.76268" lon="2.99875">
        <ele>856.2</ele>
        <time>2017-07-18T15:53:51Z</time>
      </trkpt>
      <trkpt lat="45.76266" lon="2.99876">
        <ele>856.6</ele>
        <time>2017-07-18T15:53:51Z</time>
      </trkpt>
      <trkpt lat="45.76265" lon="2.99876">
        <ele>856.9</ele>
        <time>2017-07-18T15:53:51Z</time>
      </trkpt>
      <trkpt lat="45.76264" lon="2.99876">
        <ele>857.1</ele>
        <time>2017-07-18T15:53:51Z</time>
      </trkpt>
      <trkpt lat="45.76263" lon="2.99876">
        <ele>857.2</ele>
        <time>2017-07-18T15:53:51Z</time>
      </trkpt>
      <trkpt lat="45.76263" lon="2.99876">
        <ele>857.2</ele>
        <time>2017-07-18T15:53:51Z</time>
      </trkpt>
      <trkpt lat="45.76268" lon="2.99886">
        <ele>857.5</ele>
        <time>2017-07-18T15:53:51Z</time>
      </trkpt>
      <trkpt lat="45.76269" lon="2.99885">
        <ele>857.2</ele>
        <time>2017-07-18T15:53:51Z</time>
      </trkpt>
      <trkpt lat="45.76272" lon="2.99883">
        <ele>856.5</ele>
        <time>2017-07-18T15:53:51Z</time>
      </trkpt>
      <trkpt lat="45.76272" lon="2.99884">
        <ele>856.5</ele>
        <time>2017-07-18T15:53:51Z</time>
      </trkpt>
      <trkpt lat="45.76272" lon="2.99884">
        <ele>856.6</ele>
        <time>2017-07-18T15:53:51Z</time>
      </trkpt>
      <trkpt lat="45.76271" lon="2.99884">
        <ele>856.7</ele>
        <time>2017-07-18T15:53:51Z</time>
      </trkpt>
      <trkpt lat="45.76272" lon="2.99884">
        <ele>856.5</ele>
        <time>2017-07-18T15:53:51Z</time>
      </trkpt>
      <trkpt lat="45.76272" lon="2.99884">
        <ele>856.5</ele>
        <time>2017-07-18T15:53:51Z</time>
      </trkpt>
      <trkpt lat="45.76271" lon="2.99884">
        <ele>856.6</ele>
        <time>2017-07-18T15:53:51Z</time>
      </trkpt>
      <trkpt lat="45.7627" lon="2.99884">
        <ele>856.9</ele>
        <time>2017-07-18T15:53:51Z</time>
      </trkpt>
      <trkpt lat="45.76266" lon="2.99885">
        <ele>857.7</ele>
        <time>2017-07-18T15:53:51Z</time>
      </trkpt>
      <trkpt lat="45.76261" lon="2.99886">
        <ele>858.7</ele>
        <time>2017-07-18T15:53:51Z</time>
      </trkpt>
      <trkpt lat="45.7626" lon="2.99885">
        <ele>859</ele>
        <time>2017-07-18T15:53:51Z</time>
      </trkpt>
      <trkpt lat="45.7626" lon="2.99884">
        <ele>858.9</ele>
        <time>2017-07-18T15:53:51Z</time>
      </trkpt>
      <trkpt lat="45.7626" lon="2.99883">
        <ele>858.7</ele>
        <time>2017-07-18T15:53:51Z</time>
      </trkpt>
      <trkpt lat="45.7626" lon="2.99881">
        <ele>858.3</ele>
        <time>2017-07-18T15:53:51Z</time>
      </trkpt>
      <trkpt lat="45.76261" lon="2.99878">
        <ele>857.9</ele>
        <time>2017-07-18T15:53:51Z</time>
      </trkpt>
      <trkpt lat="45.7626" lon="2.99877">
        <ele>857.8</ele>
        <time>2017-07-18T15:53:51Z</time>
      </trkpt>
      <trkpt lat="45.76259" lon="2.99876">
        <ele>858</ele>
        <time>2017-07-18T15:53:51Z</time>
      </trkpt>
      <trkpt lat="45.76254" lon="2.99872">
        <ele>858.4</ele>
        <time>2017-07-18T15:53:51Z</time>
      </trkpt>
      <trkpt lat="45.76249" lon="2.9987">
        <ele>859</ele>
        <time>2017-07-18T15:53:51Z</time>
      </trkpt>
      <trkpt lat="45.76242" lon="2.99869">
        <ele>860.2</ele>
        <time>2017-07-18T15:53:51Z</time>
      </trkpt>
      <trkpt lat="45.76237" lon="2.99868">
        <ele>861.1</ele>
        <time>2017-07-18T15:53:51Z</time>
      </trkpt>
      <trkpt lat="45.76231" lon="2.99867">
        <ele>862.1</ele>
        <time>2017-07-18T15:53:51Z</time>
      </trkpt>
      <trkpt lat="45.76225" lon="2.99865">
        <ele>863</ele>
        <time>2017-07-18T15:53:51Z</time>
      </trkpt>
      <trkpt lat="45.76218" lon="2.99863">
        <ele>863.9</ele>
        <time>2017-07-18T15:53:51Z</time>
      </trkpt>
      <trkpt lat="45.76212" lon="2.99861">
        <ele>864.8</ele>
        <time>2017-07-18T15:53:51Z</time>
      </trkpt>
      <trkpt lat="45.76206" lon="2.99858">
        <ele>865.6</ele>
        <time>2017-07-18T15:53:51Z</time>
      </trkpt>
      <trkpt lat="45.76199" lon="2.99857">
        <ele>866.6</ele>
        <time>2017-07-18T15:53:51Z</time>
      </trkpt>
      <trkpt lat="45.76193" lon="2.99855">
        <ele>867.5</ele>
        <time>2017-07-18T15:53:51Z</time>
      </trkpt>
      <trkpt lat="45.76186" lon="2.99854">
        <ele>868.6</ele>
        <time>2017-07-18T15:53:51Z</time>
      </trkpt>
      <trkpt lat="45.7618" lon="2.99852">
        <ele>869.5</ele>
        <time>2017-07-18T15:53:51Z</time>
      </trkpt>
      <trkpt lat="45.76173" lon="2.9985">
        <ele>870.4</ele>
        <time>2017-07-18T15:53:51Z</time>
      </trkpt>
      <trkpt lat="45.76167" lon="2.99848">
        <ele>871.3</ele>
        <time>2017-07-18T15:53:51Z</time>
      </trkpt>
      <trkpt lat="45.76161" lon="2.99847">
        <ele>871.4</ele>
        <time>2017-07-18T15:53:51Z</time>
      </trkpt>
      <trkpt lat="45.76154" lon="2.99845">
        <ele>871.4</ele>
        <time>2017-07-18T15:53:51Z</time>
      </trkpt>
      <trkpt lat="45.76148" lon="2.99843">
        <ele>871.5</ele>
        <time>2017-07-18T15:53:51Z</time>
      </trkpt>
      <trkpt lat="45.76141" lon="2.99842">
        <ele>871.8</ele>
        <time>2017-07-18T15:53:51Z</time>
      </trkpt>
      <trkpt lat="45.76134" lon="2.99844">
        <ele>872.4</ele>
        <time>2017-07-18T15:53:51Z</time>
      </trkpt>
      <trkpt lat="45.76127" lon="2.99847">
        <ele>873.3</ele>
        <time>2017-07-18T15:53:51Z</time>
      </trkpt>
      <trkpt lat="45.76121" lon="2.9985">
        <ele>873.8</ele>
        <time>2017-07-18T15:53:51Z</time>
      </trkpt>
      <trkpt lat="45.76115" lon="2.99853">
        <ele>874.5</ele>
        <time>2017-07-18T15:53:51Z</time>
      </trkpt>
      <trkpt lat="45.76109" lon="2.99857">
        <ele>875.3</ele>
        <time>2017-07-18T15:53:51Z</time>
      </trkpt>
      <trkpt lat="45.76103" lon="2.99863">
        <ele>876.4</ele>
        <time>2017-07-18T15:53:51Z</time>
      </trkpt>
      <trkpt lat="45.76097" lon="2.99869">
        <ele>877.3</ele>
        <time>2017-07-18T15:53:51Z</time>
      </trkpt>
      <trkpt lat="45.76092" lon="2.99873">
        <ele>878</ele>
        <time>2017-07-18T15:53:51Z</time>
      </trkpt>
      <trkpt lat="45.76086" lon="2.99878">
        <ele>878.7</ele>
        <time>2017-07-18T15:53:51Z</time>
      </trkpt>
      <trkpt lat="45.76081" lon="2.99884">
        <ele>879.3</ele>
        <time>2017-07-18T15:53:51Z</time>
      </trkpt>
      <trkpt lat="45.76076" lon="2.9989">
        <ele>879.7</ele>
        <time>2017-07-18T15:53:51Z</time>
      </trkpt>
      <trkpt lat="45.76073" lon="2.99897">
        <ele>880.3</ele>
        <time>2017-07-18T15:53:51Z</time>
      </trkpt>
      <trkpt lat="45.7607" lon="2.99904">
        <ele>880.8</ele>
        <time>2017-07-18T15:53:51Z</time>
      </trkpt>
      <trkpt lat="45.76066" lon="2.9991">
        <ele>881.1</ele>
        <time>2017-07-18T15:53:51Z</time>
      </trkpt>
      <trkpt lat="45.76062" lon="2.99917">
        <ele>881.5</ele>
        <time>2017-07-18T15:53:51Z</time>
      </trkpt>
      <trkpt lat="45.7606" lon="2.99925">
        <ele>881.8</ele>
        <time>2017-07-18T15:53:51Z</time>
      </trkpt>
      <trkpt lat="45.76058" lon="2.99934">
        <ele>882.3</ele>
        <time>2017-07-18T15:53:51Z</time>
      </trkpt>
      <trkpt lat="45.76057" lon="2.99942">
        <ele>882.8</ele>
        <time>2017-07-18T15:53:51Z</time>
      </trkpt>
      <trkpt lat="45.76058" lon="2.9995">
        <ele>883.3</ele>
        <time>2017-07-18T15:53:51Z</time>
      </trkpt>
      <trkpt lat="45.76059" lon="2.99958">
        <ele>884</ele>
        <time>2017-07-18T15:53:51Z</time>
      </trkpt>
      <trkpt lat="45.76061" lon="2.99966">
        <ele>884.7</ele>
        <time>2017-07-18T15:53:51Z</time>
      </trkpt>
      <trkpt lat="45.76063" lon="2.99974">
        <ele>885.5</ele>
        <time>2017-07-18T15:53:51Z</time>
      </trkpt>
      <trkpt lat="45.76065" lon="2.99982">
        <ele>886.2</ele>
        <time>2017-07-18T15:53:51Z</time>
      </trkpt>
      <trkpt lat="45.76066" lon="2.99989">
        <ele>886.9</ele>
        <time>2017-07-18T15:53:51Z</time>
      </trkpt>
      <trkpt lat="45.76067" lon="2.99998">
        <ele>887.7</ele>
        <time>2017-07-18T15:53:51Z</time>
      </trkpt>
      <trkpt lat="45.76068" lon="3.00006">
        <ele>888.2</ele>
        <time>2017-07-18T15:53:51Z</time>
      </trkpt>
      <trkpt lat="45.7607" lon="3.00014">
        <ele>888.8</ele>
        <time>2017-07-18T15:53:51Z</time>
      </trkpt>
      <trkpt lat="45.76071" lon="3.00022">
        <ele>889.3</ele>
        <time>2017-07-18T15:53:51Z</time>
      </trkpt>
      <trkpt lat="45.76073" lon="3.00031">
        <ele>889.9</ele>
        <time>2017-07-18T15:53:51Z</time>
      </trkpt>
      <trkpt lat="45.76074" lon="3.00039">
        <ele>890.5</ele>
        <time>2017-07-18T15:53:51Z</time>
      </trkpt>
      <trkpt lat="45.76074" lon="3.00048">
        <ele>890.9</ele>
        <time>2017-07-18T15:53:51Z</time>
      </trkpt>
      <trkpt lat="45.76075" lon="3.00056">
        <ele>891.3</ele>
        <time>2017-07-18T15:53:51Z</time>
      </trkpt>
      <trkpt lat="45.76076" lon="3.00063">
        <ele>891.8</ele>
        <time>2017-07-18T15:53:51Z</time>
      </trkpt>
      <trkpt lat="45.76076" lon="3.00071">
        <ele>892.2</ele>
        <time>2017-07-18T15:53:51Z</time>
      </trkpt>
      <trkpt lat="45.76077" lon="3.00078">
        <ele>892.7</ele>
        <time>2017-07-18T15:53:51Z</time>
      </trkpt>
      <trkpt lat="45.76078" lon="3.00084">
        <ele>893</ele>
        <time>2017-07-18T15:53:51Z</time>
      </trkpt>
      <trkpt lat="45.76079" lon="3.0009">
        <ele>893</ele>
        <time>2017-07-18T15:53:51Z</time>
      </trkpt>
      <trkpt lat="45.76081" lon="3.00095">
        <ele>893.1</ele>
        <time>2017-07-18T15:53:51Z</time>
      </trkpt>
      <trkpt lat="45.76085" lon="3.00098">
        <ele>893.5</ele>
        <time>2017-07-18T15:53:51Z</time>
      </trkpt>
      <trkpt lat="45.76089" lon="3.00101">
        <ele>893.7</ele>
        <time>2017-07-18T15:53:51Z</time>
      </trkpt>
      <trkpt lat="45.76094" lon="3.00104">
        <ele>894.1</ele>
        <time>2017-07-18T15:53:51Z</time>
      </trkpt>
      <trkpt lat="45.76099" lon="3.00104">
        <ele>894.6</ele>
        <time>2017-07-18T15:53:51Z</time>
      </trkpt>
      <trkpt lat="45.76103" lon="3.00102">
        <ele>895.1</ele>
        <time>2017-07-18T15:53:51Z</time>
      </trkpt>
      <trkpt lat="45.76107" lon="3.00098">
        <ele>895.7</ele>
        <time>2017-07-18T15:53:51Z</time>
      </trkpt>
      <trkpt lat="45.7611" lon="3.00093">
        <ele>896.3</ele>
        <time>2017-07-18T15:53:51Z</time>
      </trkpt>
      <trkpt lat="45.76113" lon="3.00088">
        <ele>897</ele>
        <time>2017-07-18T15:53:51Z</time>
      </trkpt>
      <trkpt lat="45.76116" lon="3.00083">
        <ele>897.5</ele>
        <time>2017-07-18T15:53:51Z</time>
      </trkpt>
      <trkpt lat="45.76118" lon="3.00076">
        <ele>897.2</ele>
        <time>2017-07-18T15:53:51Z</time>
      </trkpt>
      <trkpt lat="45.76122" lon="3.00071">
        <ele>897.2</ele>
        <time>2017-07-18T15:53:51Z</time>
      </trkpt>
      <trkpt lat="45.76121" lon="3.00071">
        <ele>897.2</ele>
        <time>2017-07-18T15:53:51Z</time>
      </trkpt>
      <trkpt lat="45.76122" lon="3.00071">
        <ele>897.2</ele>
        <time>2017-07-18T15:53:51Z</time>
      </trkpt>
      <trkpt lat="45.76123" lon="3.00071">
        <ele>897.3</ele>
        <time>2017-07-18T15:53:51Z</time>
      </trkpt>
      <trkpt lat="45.76124" lon="3.00071">
        <ele>897.4</ele>
        <time>2017-07-18T15:53:51Z</time>
      </trkpt>
      <trkpt lat="45.76124" lon="3.00071">
        <ele>897.5</ele>
        <time>2017-07-18T15:53:51Z</time>
      </trkpt>
      <trkpt lat="45.76125" lon="3.00071">
        <ele>897.5</ele>
        <time>2017-07-18T15:53:51Z</time>
      </trkpt>
      <trkpt lat="45.76125" lon="3.00071">
        <ele>897.6</ele>
        <time>2017-07-18T15:53:51Z</time>
      </trkpt>
      <trkpt lat="45.76125" lon="3.00071">
        <ele>897.6</ele>
        <time>2017-07-18T15:53:51Z</time>
      </trkpt>
      <trkpt lat="45.76125" lon="3.00071">
        <ele>897.6</ele>
        <time>2017-07-18T15:53:51Z</time>
      </trkpt>
      <trkpt lat="45.76125" lon="3.00071">
        <ele>897.6</ele>
        <time>2017-07-18T15:53:51Z</time>
      </trkpt>
      <trkpt lat="45.76125" lon="3.00071">
        <ele>897.5</ele>
        <time>2017-07-18T15:53:51Z</time>
      </trkpt>
      <trkpt lat="45.76125" lon="3.00071">
        <ele>897.5</ele>
        <time>2017-07-18T15:53:51Z</time>
      </trkpt>
      <trkpt lat="45.76124" lon="3.00071">
        <ele>897.4</ele>
        <time>2017-07-18T15:53:51Z</time>
      </trkpt>
      <trkpt lat="45.76124" lon="3.00071">
        <ele>897.4</ele>
        <time>2017-07-18T15:53:51Z</time>
      </trkpt>
      <trkpt lat="45.76123" lon="3.0007">
        <ele>897.3</ele>
        <time>2017-07-18T15:53:51Z</time>
      </trkpt>
      <trkpt lat="45.76123" lon="3.0007">
        <ele>897.3</ele>
        <time>2017-07-18T15:53:51Z</time>
      </trkpt>
      <trkpt lat="45.76123" lon="3.0007">
        <ele>897.2</ele>
        <time>2017-07-18T15:53:51Z</time>
      </trkpt>
      <trkpt lat="45.76122" lon="3.00069">
        <ele>897.1</ele>
        <time>2017-07-18T15:53:51Z</time>
      </trkpt>
      <trkpt lat="45.76122" lon="3.00069">
        <ele>897.1</ele>
        <time>2017-07-18T15:53:51Z</time>
      </trkpt>
      <trkpt lat="45.76121" lon="3.00068">
        <ele>896.9</ele>
        <time>2017-07-18T15:53:51Z</time>
      </trkpt>
      <trkpt lat="45.76116" lon="3.00067">
        <ele>896.4</ele>
        <time>2017-07-18T15:53:51Z</time>
      </trkpt>
      <trkpt lat="45.76111" lon="3.00068">
        <ele>895.9</ele>
        <time>2017-07-18T15:53:51Z</time>
      </trkpt>
      <trkpt lat="45.76106" lon="3.00069">
        <ele>895.5</ele>
        <time>2017-07-18T15:53:51Z</time>
      </trkpt>
      <trkpt lat="45.76102" lon="3.00071">
        <ele>895.2</ele>
        <time>2017-07-18T15:53:51Z</time>
      </trkpt>
      <trkpt lat="45.76098" lon="3.00073">
        <ele>895</ele>
        <time>2017-07-18T15:53:51Z</time>
      </trkpt>
      <trkpt lat="45.76096" lon="3.00079">
        <ele>895.1</ele>
        <time>2017-07-18T15:53:51Z</time>
      </trkpt>
      <trkpt lat="45.76096" lon="3.00086">
        <ele>895.3</ele>
        <time>2017-07-18T15:53:51Z</time>
      </trkpt>
      <trkpt lat="45.76095" lon="3.00093">
        <ele>894.8</ele>
        <time>2017-07-18T15:53:51Z</time>
      </trkpt>
      <trkpt lat="45.76093" lon="3.001">
        <ele>894.2</ele>
        <time>2017-07-18T15:53:51Z</time>
      </trkpt>
      <trkpt lat="45.76092" lon="3.00103">
        <ele>894</ele>
        <time>2017-07-18T15:53:51Z</time>
      </trkpt>
      <trkpt lat="45.76092" lon="3.00103">
        <ele>894</ele>
        <time>2017-07-18T15:53:51Z</time>
      </trkpt>
      <trkpt lat="45.7609" lon="3.00104">
        <ele>893.7</ele>
        <time>2017-07-18T15:53:51Z</time>
      </trkpt>
      <trkpt lat="45.76086" lon="3.00101">
        <ele>893.4</ele>
        <time>2017-07-18T15:53:51Z</time>
      </trkpt>
      <trkpt lat="45.76083" lon="3.00096">
        <ele>893.3</ele>
        <time>2017-07-18T15:53:51Z</time>
      </trkpt>
      <trkpt lat="45.7608" lon="3.0009">
        <ele>893.2</ele>
        <time>2017-07-18T15:53:51Z</time>
      </trkpt>
      <trkpt lat="45.7608" lon="3.00084">
        <ele>893.4</ele>
        <time>2017-07-18T15:53:51Z</time>
      </trkpt>
      <trkpt lat="45.76079" lon="3.00077">
        <ele>892.9</ele>
        <time>2017-07-18T15:53:51Z</time>
      </trkpt>
      <trkpt lat="45.76078" lon="3.00069">
        <ele>892.5</ele>
        <time>2017-07-18T15:53:51Z</time>
      </trkpt>
      <trkpt lat="45.76078" lon="3.00062">
        <ele>892.1</ele>
        <time>2017-07-18T15:53:51Z</time>
      </trkpt>
      <trkpt lat="45.76077" lon="3.00056">
        <ele>891.7</ele>
        <time>2017-07-18T15:53:51Z</time>
      </trkpt>
      <trkpt lat="45.76077" lon="3.00049">
        <ele>891.3</ele>
        <time>2017-07-18T15:53:51Z</time>
      </trkpt>
      <trkpt lat="45.76076" lon="3.00043">
        <ele>890.9</ele>
        <time>2017-07-18T15:53:51Z</time>
      </trkpt>
      <trkpt lat="45.76075" lon="3.00037">
        <ele>890.5</ele>
        <time>2017-07-18T15:53:51Z</time>
      </trkpt>
      <trkpt lat="45.76074" lon="3.0003">
        <ele>890.1</ele>
        <time>2017-07-18T15:53:51Z</time>
      </trkpt>
      <trkpt lat="45.76073" lon="3.00024">
        <ele>889.7</ele>
        <time>2017-07-18T15:53:51Z</time>
      </trkpt>
      <trkpt lat="45.76073" lon="3.00019">
        <ele>889.5</ele>
        <time>2017-07-18T15:53:51Z</time>
      </trkpt>
      <trkpt lat="45.76072" lon="3.00015">
        <ele>889.2</ele>
        <time>2017-07-18T15:53:51Z</time>
      </trkpt>
      <trkpt lat="45.76071" lon="3.00009">
        <ele>888.8</ele>
        <time>2017-07-18T15:53:51Z</time>
      </trkpt>
      <trkpt lat="45.76071" lon="3.00003">
        <ele>888.5</ele>
        <time>2017-07-18T15:53:51Z</time>
      </trkpt>
      <trkpt lat="45.76071" lon="2.99996">
        <ele>888.1</ele>
        <time>2017-07-18T15:53:51Z</time>
      </trkpt>
      <trkpt lat="45.76069" lon="2.9999">
        <ele>887.4</ele>
        <time>2017-07-18T15:53:51Z</time>
      </trkpt>
      <trkpt lat="45.76067" lon="2.99983">
        <ele>886.7</ele>
        <time>2017-07-18T15:53:51Z</time>
      </trkpt>
      <trkpt lat="45.76066" lon="2.99976">
        <ele>886</ele>
        <time>2017-07-18T15:53:51Z</time>
      </trkpt>
      <trkpt lat="45.76065" lon="2.99969">
        <ele>885.4</ele>
        <time>2017-07-18T15:53:51Z</time>
      </trkpt>
      <trkpt lat="45.76064" lon="2.99962">
        <ele>884.9</ele>
        <time>2017-07-18T15:53:51Z</time>
      </trkpt>
      <trkpt lat="45.76064" lon="2.99955">
        <ele>884.3</ele>
        <time>2017-07-18T15:53:51Z</time>
      </trkpt>
      <trkpt lat="45.76062" lon="2.99951">
        <ele>883.9</ele>
        <time>2017-07-18T15:53:51Z</time>
      </trkpt>
      <trkpt lat="45.76064" lon="2.99951">
        <ele>884</ele>
        <time>2017-07-18T15:53:51Z</time>
      </trkpt>
      <trkpt lat="45.76064" lon="2.99944">
        <ele>883.5</ele>
        <time>2017-07-18T15:53:51Z</time>
      </trkpt>
      <trkpt lat="45.76064" lon="2.99936">
        <ele>882.9</ele>
        <time>2017-07-18T15:53:51Z</time>
      </trkpt>
      <trkpt lat="45.76064" lon="2.99928">
        <ele>882.4</ele>
        <time>2017-07-18T15:53:51Z</time>
      </trkpt>
      <trkpt lat="45.76065" lon="2.9992">
        <ele>881.9</ele>
        <time>2017-07-18T15:53:51Z</time>
      </trkpt>
      <trkpt lat="45.76066" lon="2.99913">
        <ele>881.4</ele>
        <time>2017-07-18T15:53:51Z</time>
      </trkpt>
      <trkpt lat="45.76069" lon="2.99905">
        <ele>880.8</ele>
        <time>2017-07-18T15:53:51Z</time>
      </trkpt>
      <trkpt lat="45.76072" lon="2.99897">
        <ele>880.2</ele>
        <time>2017-07-18T15:53:51Z</time>
      </trkpt>
      <trkpt lat="45.76077" lon="2.99891">
        <ele>879.9</ele>
        <time>2017-07-18T15:53:51Z</time>
      </trkpt>
      <trkpt lat="45.7608" lon="2.99885">
        <ele>879.4</ele>
        <time>2017-07-18T15:53:51Z</time>
      </trkpt>
      <trkpt lat="45.76084" lon="2.99881">
        <ele>879.1</ele>
        <time>2017-07-18T15:53:51Z</time>
      </trkpt>
      <trkpt lat="45.76087" lon="2.99876">
        <ele>878.5</ele>
        <time>2017-07-18T15:53:51Z</time>
      </trkpt>
      <trkpt lat="45.76091" lon="2.99871">
        <ele>877.7</ele>
        <time>2017-07-18T15:53:51Z</time>
      </trkpt>
      <trkpt lat="45.76098" lon="2.99865">
        <ele>876.9</ele>
        <time>2017-07-18T15:53:51Z</time>
      </trkpt>
      <trkpt lat="45.76101" lon="2.99861">
        <ele>876.2</ele>
        <time>2017-07-18T15:53:51Z</time>
      </trkpt>
      <trkpt lat="45.76104" lon="2.99856">
        <ele>875.5</ele>
        <time>2017-07-18T15:53:51Z</time>
      </trkpt>
      <trkpt lat="45.76109" lon="2.99852">
        <ele>874.8</ele>
        <time>2017-07-18T15:53:51Z</time>
      </trkpt>
      <trkpt lat="45.76115" lon="2.99849">
        <ele>874.1</ele>
        <time>2017-07-18T15:53:51Z</time>
      </trkpt>
      <trkpt lat="45.7612" lon="2.99847">
        <ele>873.5</ele>
        <time>2017-07-18T15:53:51Z</time>
      </trkpt>
      <trkpt lat="45.76124" lon="2.99845">
        <ele>873.1</ele>
        <time>2017-07-18T15:53:51Z</time>
      </trkpt>
      <trkpt lat="45.76128" lon="2.99845">
        <ele>872.9</ele>
        <time>2017-07-18T15:53:51Z</time>
      </trkpt>
      <trkpt lat="45.7613" lon="2.99845">
        <ele>872.7</ele>
        <time>2017-07-18T15:53:51Z</time>
      </trkpt>
      <trkpt lat="45.76135" lon="2.99844">
        <ele>872.4</ele>
        <time>2017-07-18T15:53:51Z</time>
      </trkpt>
      <trkpt lat="45.76141" lon="2.99845">
        <ele>872.2</ele>
        <time>2017-07-18T15:53:51Z</time>
      </trkpt>
      <trkpt lat="45.76147" lon="2.99846">
        <ele>872</ele>
        <time>2017-07-18T15:53:51Z</time>
      </trkpt>
      <trkpt lat="45.76153" lon="2.99847">
        <ele>871.8</ele>
        <time>2017-07-18T15:53:51Z</time>
      </trkpt>
      <trkpt lat="45.76158" lon="2.99847">
        <ele>871.6</ele>
        <time>2017-07-18T15:53:51Z</time>
      </trkpt>
      <trkpt lat="45.76163" lon="2.99848">
        <ele>871.5</ele>
        <time>2017-07-18T15:53:51Z</time>
      </trkpt>
      <trkpt lat="45.76167" lon="2.99849">
        <ele>871.3</ele>
        <time>2017-07-18T15:53:51Z</time>
      </trkpt>
      <trkpt lat="45.76173" lon="2.9985">
        <ele>870.6</ele>
        <time>2017-07-18T15:53:51Z</time>
      </trkpt>
      <trkpt lat="45.76177" lon="2.99851">
        <ele>869.8</ele>
        <time>2017-07-18T15:53:51Z</time>
      </trkpt>
      <trkpt lat="45.76182" lon="2.99852">
        <ele>869</ele>
        <time>2017-07-18T15:53:51Z</time>
      </trkpt>
      <trkpt lat="45.76188" lon="2.99855">
        <ele>868.5</ele>
        <time>2017-07-18T15:53:51Z</time>
      </trkpt>
      <trkpt lat="45.76193" lon="2.99858">
        <ele>867.8</ele>
        <time>2017-07-18T15:53:51Z</time>
      </trkpt>
      <trkpt lat="45.76199" lon="2.9986">
        <ele>867.2</ele>
        <time>2017-07-18T15:53:51Z</time>
      </trkpt>
      <trkpt lat="45.76204" lon="2.99862">
        <ele>866.4</ele>
        <time>2017-07-18T15:53:51Z</time>
      </trkpt>
      <trkpt lat="45.7621" lon="2.99864">
        <ele>865.6</ele>
        <time>2017-07-18T15:53:51Z</time>
      </trkpt>
      <trkpt lat="45.76215" lon="2.99865">
        <ele>864.8</ele>
        <time>2017-07-18T15:53:51Z</time>
      </trkpt>
      <trkpt lat="45.76221" lon="2.99867">
        <ele>863.9</ele>
        <time>2017-07-18T15:53:51Z</time>
      </trkpt>
      <trkpt lat="45.76226" lon="2.99868">
        <ele>863.2</ele>
        <time>2017-07-18T15:53:51Z</time>
      </trkpt>
      <trkpt lat="45.76231" lon="2.99869">
        <ele>862.3</ele>
        <time>2017-07-18T15:53:51Z</time>
      </trkpt>
      <trkpt lat="45.76236" lon="2.9987">
        <ele>861.5</ele>
        <time>2017-07-18T15:53:51Z</time>
      </trkpt>
      <trkpt lat="45.76241" lon="2.99872">
        <ele>860.8</ele>
        <time>2017-07-18T15:53:51Z</time>
      </trkpt>
      <trkpt lat="45.76247" lon="2.99873">
        <ele>859.9</ele>
        <time>2017-07-18T15:53:51Z</time>
      </trkpt>
      <trkpt lat="45.76252" lon="2.99875">
        <ele>859.2</ele>
        <time>2017-07-18T15:53:51Z</time>
      </trkpt>
      <trkpt lat="45.76256" lon="2.99878">
        <ele>858.9</ele>
        <time>2017-07-18T15:53:51Z</time>
      </trkpt>
      <trkpt lat="45.76256" lon="2.99878">
        <ele>858.9</ele>
        <time>2017-07-18T15:53:51Z</time>
      </trkpt>
      <trkpt lat="45.76256" lon="2.99878">
        <ele>858.9</ele>
        <time>2017-07-18T15:53:51Z</time>
      </trkpt>
      <trkpt lat="45.76256" lon="2.99878">
        <ele>858.9</ele>
        <time>2017-07-18T15:53:51Z</time>
      </trkpt>
      <trkpt lat="45.76256" lon="2.99878">
        <ele>858.9</ele>
        <time>2017-07-18T15:53:51Z</time>
      </trkpt>
      <trkpt lat="45.76255" lon="2.99878">
        <ele>858.9</ele>
        <time>2017-07-18T15:53:51Z</time>
      </trkpt>
      <trkpt lat="45.76255" lon="2.99878">
        <ele>858.9</ele>
        <time>2017-07-18T15:53:51Z</time>
      </trkpt>
      <trkpt lat="45.76255" lon="2.99878">
        <ele>859</ele>
        <time>2017-07-18T15:53:51Z</time>
      </trkpt>
      <trkpt lat="45.76255" lon="2.99878">
        <ele>859</ele>
        <time>2017-07-18T15:53:51Z</time>
      </trkpt>
      <trkpt lat="45.76255" lon="2.99879">
        <ele>859.1</ele>
        <time>2017-07-18T15:53:51Z</time>
      </trkpt>
      <trkpt lat="45.76255" lon="2.99879">
        <ele>859.1</ele>
        <time>2017-07-18T15:53:51Z</time>
      </trkpt>
      <trkpt lat="45.76255" lon="2.9988">
        <ele>859.3</ele>
        <time>2017-07-18T15:53:51Z</time>
      </trkpt>
      <trkpt lat="45.76254" lon="2.9988">
        <ele>859.4</ele>
        <time>2017-07-18T15:53:51Z</time>
      </trkpt>
      <trkpt lat="45.76265" lon="2.99876">
        <ele>856.9</ele>
        <time>2017-07-18T15:53:51Z</time>
      </trkpt>
      <trkpt lat="45.76266" lon="2.99878">
        <ele>857</ele>
        <time>2017-07-18T15:53:51Z</time>
      </trkpt>
      <trkpt lat="45.76266" lon="2.99879">
        <ele>857.1</ele>
        <time>2017-07-18T15:53:51Z</time>
      </trkpt>
      <trkpt lat="45.76266" lon="2.99881">
        <ele>857.3</ele>
        <time>2017-07-18T15:53:51Z</time>
      </trkpt>
      <trkpt lat="45.76266" lon="2.99883">
        <ele>857.4</ele>
        <time>2017-07-18T15:53:51Z</time>
      </trkpt>
      <trkpt lat="45.76266" lon="2.99883">
        <ele>857.5</ele>
        <time>2017-07-18T15:53:51Z</time>
      </trkpt>
      <trkpt lat="45.76267" lon="2.99884">
        <ele>857.5</ele>
        <time>2017-07-18T15:53:51Z</time>
      </trkpt>
      <trkpt lat="45.76268" lon="2.99886">
        <ele>857.5</ele>
        <time>2017-07-18T15:53:51Z</time>
      </trkpt>
      <trkpt lat="45.76269" lon="2.99887">
        <ele>857.4</ele>
        <time>2017-07-18T15:53:51Z</time>
      </trkpt>
      <trkpt lat="45.76271" lon="2.99889">
        <ele>857.3</ele>
        <time>2017-07-18T15:53:51Z</time>
      </trkpt>
      <trkpt lat="45.76273" lon="2.99892">
        <ele>857.3</ele>
        <time>2017-07-18T15:53:51Z</time>
      </trkpt>
      <trkpt lat="45.76275" lon="2.99893">
        <ele>857.1</ele>
        <time>2017-07-18T15:53:51Z</time>
      </trkpt>
      <trkpt lat="45.76277" lon="2.99894">
        <ele>856.8</ele>
        <time>2017-07-18T15:53:51Z</time>
      </trkpt>
      <trkpt lat="45.76279" lon="2.99896">
        <ele>856.6</ele>
        <time>2017-07-18T15:53:51Z</time>
      </trkpt>
      <trkpt lat="45.76281" lon="2.99898">
        <ele>856.4</ele>
        <time>2017-07-18T15:53:51Z</time>
      </trkpt>
      <trkpt lat="45.76283" lon="2.999">
        <ele>856.3</ele>
        <time>2017-07-18T15:53:51Z</time>
      </trkpt>
      <trkpt lat="45.76285" lon="2.99902">
        <ele>856.2</ele>
        <time>2017-07-18T15:53:51Z</time>
      </trkpt>
      <trkpt lat="45.76287" lon="2.99904">
        <ele>856</ele>
        <time>2017-07-18T15:53:51Z</time>
      </trkpt>
      <trkpt lat="45.76289" lon="2.99905">
        <ele>855.8</ele>
        <time>2017-07-18T15:53:51Z</time>
      </trkpt>
      <trkpt lat="45.7629" lon="2.99907">
        <ele>855.7</ele>
        <time>2017-07-18T15:53:51Z</time>
      </trkpt>
      <trkpt lat="45.76293" lon="2.99909">
        <ele>855.4</ele>
        <time>2017-07-18T15:53:51Z</time>
      </trkpt>
      <trkpt lat="45.76294" lon="2.9991">
        <ele>855.2</ele>
        <time>2017-07-18T15:53:51Z</time>
      </trkpt>
      <trkpt lat="45.76296" lon="2.99912">
        <ele>855.1</ele>
        <time>2017-07-18T15:53:51Z</time>
      </trkpt>
      <trkpt lat="45.76297" lon="2.99913">
        <ele>855</ele>
        <time>2017-07-18T15:53:51Z</time>
      </trkpt>
      <trkpt lat="45.76299" lon="2.99915">
        <ele>854.8</ele>
        <time>2017-07-18T15:53:51Z</time>
      </trkpt>
      <trkpt lat="45.76301" lon="2.99916">
        <ele>854.6</ele>
        <time>2017-07-18T15:53:51Z</time>
      </trkpt>
      <trkpt lat="45.76302" lon="2.99917">
        <ele>854.4</ele>
        <time>2017-07-18T15:53:51Z</time>
      </trkpt>
      <trkpt lat="45.76304" lon="2.99918">
        <ele>854.1</ele>
        <time>2017-07-18T15:53:51Z</time>
      </trkpt>
      <trkpt lat="45.76306" lon="2.9992">
        <ele>853.9</ele>
        <time>2017-07-18T15:53:51Z</time>
      </trkpt>
      <trkpt lat="45.76308" lon="2.99922">
        <ele>853.6</ele>
        <time>2017-07-18T15:53:51Z</time>
      </trkpt>
      <trkpt lat="45.7631" lon="2.99924">
        <ele>853.5</ele>
        <time>2017-07-18T15:53:51Z</time>
      </trkpt>
      <trkpt lat="45.76312" lon="2.99927">
        <ele>853.3</ele>
        <time>2017-07-18T15:53:51Z</time>
      </trkpt>
      <trkpt lat="45.76314" lon="2.99929">
        <ele>853.2</ele>
        <time>2017-07-18T15:53:51Z</time>
      </trkpt>
      <trkpt lat="45.76315" lon="2.99932">
        <ele>853</ele>
        <time>2017-07-18T15:53:51Z</time>
      </trkpt>
      <trkpt lat="45.76317" lon="2.99934">
        <ele>852.8</ele>
        <time>2017-07-18T15:53:51Z</time>
      </trkpt>
      <trkpt lat="45.7632" lon="2.99937">
        <ele>852.7</ele>
        <time>2017-07-18T15:53:51Z</time>
      </trkpt>
      <trkpt lat="45.76321" lon="2.9994">
        <ele>852.5</ele>
        <time>2017-07-18T15:53:51Z</time>
      </trkpt>
      <trkpt lat="45.76323" lon="2.99942">
        <ele>852.3</ele>
        <time>2017-07-18T15:53:51Z</time>
      </trkpt>
      <trkpt lat="45.76325" lon="2.99945">
        <ele>852.2</ele>
        <time>2017-07-18T15:53:51Z</time>
      </trkpt>
      <trkpt lat="45.76327" lon="2.99948">
        <ele>852.1</ele>
        <time>2017-07-18T15:53:51Z</time>
      </trkpt>
      <trkpt lat="45.76328" lon="2.99952">
        <ele>852</ele>
        <time>2017-07-18T15:53:51Z</time>
      </trkpt>
      <trkpt lat="45.7633" lon="2.99955">
        <ele>852</ele>
        <time>2017-07-18T15:53:51Z</time>
      </trkpt>
      <trkpt lat="45.76331" lon="2.99958">
        <ele>851.9</ele>
        <time>2017-07-18T15:53:51Z</time>
      </trkpt>
      <trkpt lat="45.76333" lon="2.99962">
        <ele>851.8</ele>
        <time>2017-07-18T15:53:51Z</time>
      </trkpt>
      <trkpt lat="45.76335" lon="2.99965">
        <ele>851.8</ele>
        <time>2017-07-18T15:53:51Z</time>
      </trkpt>
      <trkpt lat="45.76336" lon="2.99968">
        <ele>851.8</ele>
        <time>2017-07-18T15:53:51Z</time>
      </trkpt>
      <trkpt lat="45.76338" lon="2.99971">
        <ele>851.7</ele>
        <time>2017-07-18T15:53:51Z</time>
      </trkpt>
      <trkpt lat="45.7634" lon="2.99975">
        <ele>851.8</ele>
        <time>2017-07-18T15:53:51Z</time>
      </trkpt>
      <trkpt lat="45.76341" lon="2.99978">
        <ele>851.7</ele>
        <time>2017-07-18T15:53:51Z</time>
      </trkpt>
      <trkpt lat="45.76343" lon="2.99981">
        <ele>851.6</ele>
        <time>2017-07-18T15:53:51Z</time>
      </trkpt>
      <trkpt lat="45.76344" lon="2.99984">
        <ele>851.7</ele>
        <time>2017-07-18T15:53:51Z</time>
      </trkpt>
      <trkpt lat="45.76346" lon="2.99987">
        <ele>851.6</ele>
        <time>2017-07-18T15:53:51Z</time>
      </trkpt>
      <trkpt lat="45.76347" lon="2.99989">
        <ele>851.5</ele>
        <time>2017-07-18T15:53:51Z</time>
      </trkpt>
      <trkpt lat="45.76348" lon="2.99991">
        <ele>851.4</ele>
        <time>2017-07-18T15:53:51Z</time>
      </trkpt>
      <trkpt lat="45.7635" lon="2.99994">
        <ele>851.3</ele>
        <time>2017-07-18T15:53:51Z</time>
      </trkpt>
      <trkpt lat="45.76351" lon="2.99996">
        <ele>851.2</ele>
        <time>2017-07-18T15:53:51Z</time>
      </trkpt>
      <trkpt lat="45.76352" lon="2.99999">
        <ele>851.3</ele>
        <time>2017-07-18T15:53:51Z</time>
      </trkpt>
      <trkpt lat="45.76354" lon="3.00002">
        <ele>851.2</ele>
        <time>2017-07-18T15:53:51Z</time>
      </trkpt>
      <trkpt lat="45.76355" lon="3.00004">
        <ele>851</ele>
        <time>2017-07-18T15:53:51Z</time>
      </trkpt>
      <trkpt lat="45.76357" lon="3.00007">
        <ele>850.9</ele>
        <time>2017-07-18T15:53:51Z</time>
      </trkpt>
      <trkpt lat="45.76357" lon="3.0001">
        <ele>850.9</ele>
        <time>2017-07-18T15:53:51Z</time>
      </trkpt>
      <trkpt lat="45.76359" lon="3.00014">
        <ele>850.8</ele>
        <time>2017-07-18T15:53:51Z</time>
      </trkpt>
      <trkpt lat="45.7636" lon="3.00016">
        <ele>850.8</ele>
        <time>2017-07-18T15:53:51Z</time>
      </trkpt>
      <trkpt lat="45.76361" lon="3.00019">
        <ele>850.7</ele>
        <time>2017-07-18T15:53:51Z</time>
      </trkpt>
      <trkpt lat="45.76362" lon="3.00023">
        <ele>850.7</ele>
        <time>2017-07-18T15:53:51Z</time>
      </trkpt>
      <trkpt lat="45.76363" lon="3.00026">
        <ele>850.7</ele>
        <time>2017-07-18T15:53:51Z</time>
      </trkpt>
      <trkpt lat="45.76365" lon="3.00029">
        <ele>850.5</ele>
        <time>2017-07-18T15:53:51Z</time>
      </trkpt>
      <trkpt lat="45.76366" lon="3.00032">
        <ele>850.4</ele>
        <time>2017-07-18T15:53:51Z</time>
      </trkpt>
      <trkpt lat="45.76367" lon="3.00035">
        <ele>850.4</ele>
        <time>2017-07-18T15:53:51Z</time>
      </trkpt>
      <trkpt lat="45.76368" lon="3.00038">
        <ele>850.4</ele>
        <time>2017-07-18T15:53:51Z</time>
      </trkpt>
      <trkpt lat="45.76369" lon="3.00041">
        <ele>850.3</ele>
        <time>2017-07-18T15:53:51Z</time>
      </trkpt>
      <trkpt lat="45.7637" lon="3.00044">
        <ele>850.3</ele>
        <time>2017-07-18T15:53:51Z</time>
      </trkpt>
      <trkpt lat="45.76371" lon="3.00047">
        <ele>850.3</ele>
        <time>2017-07-18T15:53:51Z</time>
      </trkpt>
      <trkpt lat="45.76372" lon="3.0005">
        <ele>850.2</ele>
        <time>2017-07-18T15:53:51Z</time>
      </trkpt>
      <trkpt lat="45.76374" lon="3.00053">
        <ele>850.1</ele>
        <time>2017-07-18T15:53:51Z</time>
      </trkpt>
      <trkpt lat="45.76375" lon="3.00056">
        <ele>850.1</ele>
        <time>2017-07-18T15:53:51Z</time>
      </trkpt>
      <trkpt lat="45.76376" lon="3.00059">
        <ele>850.1</ele>
        <time>2017-07-18T15:53:51Z</time>
      </trkpt>
      <trkpt lat="45.76377" lon="3.00063">
        <ele>850</ele>
        <time>2017-07-18T15:53:51Z</time>
      </trkpt>
      <trkpt lat="45.76378" lon="3.00066">
        <ele>850</ele>
        <time>2017-07-18T15:53:51Z</time>
      </trkpt>
      <trkpt lat="45.76379" lon="3.00069">
        <ele>849.9</ele>
        <time>2017-07-18T15:53:51Z</time>
      </trkpt>
      <trkpt lat="45.7638" lon="3.00072">
        <ele>849.9</ele>
        <time>2017-07-18T15:53:51Z</time>
      </trkpt>
      <trkpt lat="45.76381" lon="3.00076">
        <ele>849.9</ele>
        <time>2017-07-18T15:53:51Z</time>
      </trkpt>
      <trkpt lat="45.76383" lon="3.0008">
        <ele>849.9</ele>
        <time>2017-07-18T15:53:51Z</time>
      </trkpt>
      <trkpt lat="45.76384" lon="3.00084">
        <ele>849.9</ele>
        <time>2017-07-18T15:53:51Z</time>
      </trkpt>
      <trkpt lat="45.76386" lon="3.00088">
        <ele>849.8</ele>
        <time>2017-07-18T15:53:51Z</time>
      </trkpt>
      <trkpt lat="45.76387" lon="3.00092">
        <ele>849.7</ele>
        <time>2017-07-18T15:53:51Z</time>
      </trkpt>
      <trkpt lat="45.76387" lon="3.00096">
        <ele>849.6</ele>
        <time>2017-07-18T15:53:51Z</time>
      </trkpt>
      <trkpt lat="45.76388" lon="3.00099">
        <ele>849.6</ele>
        <time>2017-07-18T15:53:51Z</time>
      </trkpt>
      <trkpt lat="45.7639" lon="3.00102">
        <ele>849.5</ele>
        <time>2017-07-18T15:53:51Z</time>
      </trkpt>
      <trkpt lat="45.76391" lon="3.00105">
        <ele>849.4</ele>
        <time>2017-07-18T15:53:51Z</time>
      </trkpt>
      <trkpt lat="45.76392" lon="3.00107">
        <ele>849.3</ele>
        <time>2017-07-18T15:53:51Z</time>
      </trkpt>
      <trkpt lat="45.76392" lon="3.0011">
        <ele>849.3</ele>
        <time>2017-07-18T15:53:51Z</time>
      </trkpt>
      <trkpt lat="45.76393" lon="3.00114">
        <ele>849.2</ele>
        <time>2017-07-18T15:53:51Z</time>
      </trkpt>
      <trkpt lat="45.76394" lon="3.00116">
        <ele>849.1</ele>
        <time>2017-07-18T15:53:51Z</time>
      </trkpt>
      <trkpt lat="45.76395" lon="3.00119">
        <ele>849.1</ele>
        <time>2017-07-18T15:53:51Z</time>
      </trkpt>
      <trkpt lat="45.76396" lon="3.00123">
        <ele>849.1</ele>
        <time>2017-07-18T15:53:51Z</time>
      </trkpt>
      <trkpt lat="45.76396" lon="3.00126">
        <ele>849.1</ele>
        <time>2017-07-18T15:53:51Z</time>
      </trkpt>
      <trkpt lat="45.76397" lon="3.00129">
        <ele>849.1</ele>
        <time>2017-07-18T15:53:51Z</time>
      </trkpt>
      <trkpt lat="45.76398" lon="3.00133">
        <ele>849</ele>
        <time>2017-07-18T15:53:51Z</time>
      </trkpt>
      <trkpt lat="45.76399" lon="3.00137">
        <ele>849</ele>
        <time>2017-07-18T15:53:51Z</time>
      </trkpt>
      <trkpt lat="45.76399" lon="3.00141">
        <ele>849</ele>
        <time>2017-07-18T15:53:51Z</time>
      </trkpt>
      <trkpt lat="45.764" lon="3.00145">
        <ele>849</ele>
        <time>2017-07-18T15:53:51Z</time>
      </trkpt>
      <trkpt lat="45.76401" lon="3.00149">
        <ele>848.9</ele>
        <time>2017-07-18T15:53:51Z</time>
      </trkpt>
      <trkpt lat="45.76403" lon="3.00151">
        <ele>848.7</ele>
        <time>2017-07-18T15:53:51Z</time>
      </trkpt>
      <trkpt lat="45.76404" lon="3.00155">
        <ele>848.7</ele>
        <time>2017-07-18T15:53:51Z</time>
      </trkpt>
      <trkpt lat="45.76405" lon="3.00157">
        <ele>848.7</ele>
        <time>2017-07-18T15:53:51Z</time>
      </trkpt>
      <trkpt lat="45.76405" lon="3.0016">
        <ele>848.7</ele>
        <time>2017-07-18T15:53:51Z</time>
      </trkpt>
      <trkpt lat="45.76405" lon="3.00163">
        <ele>848.8</ele>
        <time>2017-07-18T15:53:51Z</time>
      </trkpt>
      <trkpt lat="45.76406" lon="3.00167">
        <ele>848.8</ele>
        <time>2017-07-18T15:53:51Z</time>
      </trkpt>
      <trkpt lat="45.76407" lon="3.0017">
        <ele>848.7</ele>
        <time>2017-07-18T15:53:51Z</time>
      </trkpt>
      <trkpt lat="45.76407" lon="3.00172">
        <ele>848.7</ele>
        <time>2017-07-18T15:53:51Z</time>
      </trkpt>
      <trkpt lat="45.76408" lon="3.00175">
        <ele>848.5</ele>
        <time>2017-07-18T15:53:51Z</time>
      </trkpt>
      <trkpt lat="45.76409" lon="3.00178">
        <ele>848.4</ele>
        <time>2017-07-18T15:53:51Z</time>
      </trkpt>
      <trkpt lat="45.7641" lon="3.00179">
        <ele>848.3</ele>
        <time>2017-07-18T15:53:51Z</time>
      </trkpt>
      <trkpt lat="45.76411" lon="3.0018">
        <ele>848.1</ele>
        <time>2017-07-18T15:53:51Z</time>
      </trkpt>
      <trkpt lat="45.76411" lon="3.00182">
        <ele>848.1</ele>
        <time>2017-07-18T15:53:51Z</time>
      </trkpt>
      <trkpt lat="45.76412" lon="3.00185">
        <ele>848</ele>
        <time>2017-07-18T15:53:51Z</time>
      </trkpt>
      <trkpt lat="45.76412" lon="3.00188">
        <ele>848</ele>
        <time>2017-07-18T15:53:51Z</time>
      </trkpt>
      <trkpt lat="45.76413" lon="3.00191">
        <ele>847.8</ele>
        <time>2017-07-18T15:53:51Z</time>
      </trkpt>
      <trkpt lat="45.76414" lon="3.00194">
        <ele>847.8</ele>
        <time>2017-07-18T15:53:51Z</time>
      </trkpt>
      <trkpt lat="45.76415" lon="3.00197">
        <ele>847.7</ele>
        <time>2017-07-18T15:53:51Z</time>
      </trkpt>
      <trkpt lat="45.76416" lon="3.00201">
        <ele>847.6</ele>
        <time>2017-07-18T15:53:51Z</time>
      </trkpt>
      <trkpt lat="45.76416" lon="3.00205">
        <ele>847.6</ele>
        <time>2017-07-18T15:53:51Z</time>
      </trkpt>
      <trkpt lat="45.76417" lon="3.00209">
        <ele>847.5</ele>
        <time>2017-07-18T15:53:51Z</time>
      </trkpt>
      <trkpt lat="45.76417" lon="3.00213">
        <ele>847.4</ele>
        <time>2017-07-18T15:53:51Z</time>
      </trkpt>
      <trkpt lat="45.76418" lon="3.00218">
        <ele>847.4</ele>
        <time>2017-07-18T15:53:51Z</time>
      </trkpt>
      <trkpt lat="45.76418" lon="3.0022">
        <ele>847.4</ele>
        <time>2017-07-18T15:53:51Z</time>
      </trkpt>
      <trkpt lat="45.76419" lon="3.00223">
        <ele>847.3</ele>
        <time>2017-07-18T15:53:51Z</time>
      </trkpt>
      <trkpt lat="45.76419" lon="3.00226">
        <ele>847.3</ele>
        <time>2017-07-18T15:53:51Z</time>
      </trkpt>
      <trkpt lat="45.76419" lon="3.00229">
        <ele>847.3</ele>
        <time>2017-07-18T15:53:51Z</time>
      </trkpt>
      <trkpt lat="45.7642" lon="3.00232">
        <ele>847.2</ele>
        <time>2017-07-18T15:53:51Z</time>
      </trkpt>
      <trkpt lat="45.76421" lon="3.00236">
        <ele>847.2</ele>
        <time>2017-07-18T15:53:51Z</time>
      </trkpt>
      <trkpt lat="45.76422" lon="3.00241">
        <ele>847.1</ele>
        <time>2017-07-18T15:53:51Z</time>
      </trkpt>
      <trkpt lat="45.76423" lon="3.00246">
        <ele>847</ele>
        <time>2017-07-18T15:53:51Z</time>
      </trkpt>
      <trkpt lat="45.76423" lon="3.00249">
        <ele>847</ele>
        <time>2017-07-18T15:53:51Z</time>
      </trkpt>
      <trkpt lat="45.76424" lon="3.00252">
        <ele>846.9</ele>
        <time>2017-07-18T15:53:51Z</time>
      </trkpt>
      <trkpt lat="45.76424" lon="3.00255">
        <ele>846.7</ele>
        <time>2017-07-18T15:53:51Z</time>
      </trkpt>
      <trkpt lat="45.76425" lon="3.00259">
        <ele>846.6</ele>
        <time>2017-07-18T15:53:51Z</time>
      </trkpt>
      <trkpt lat="45.76425" lon="3.00261">
        <ele>846.6</ele>
        <time>2017-07-18T15:53:51Z</time>
      </trkpt>
      <trkpt lat="45.76425" lon="3.00265">
        <ele>846.5</ele>
        <time>2017-07-18T15:53:51Z</time>
      </trkpt>
      <trkpt lat="45.76426" lon="3.00268">
        <ele>846.4</ele>
        <time>2017-07-18T15:53:51Z</time>
      </trkpt>
      <trkpt lat="45.76426" lon="3.00271">
        <ele>846.4</ele>
        <time>2017-07-18T15:53:51Z</time>
      </trkpt>
      <trkpt lat="45.76426" lon="3.00275">
        <ele>846.3</ele>
        <time>2017-07-18T15:53:51Z</time>
      </trkpt>
      <trkpt lat="45.76427" lon="3.00278">
        <ele>846.2</ele>
        <time>2017-07-18T15:53:51Z</time>
      </trkpt>
      <trkpt lat="45.76427" lon="3.00281">
        <ele>846.1</ele>
        <time>2017-07-18T15:53:51Z</time>
      </trkpt>
      <trkpt lat="45.76427" lon="3.00285">
        <ele>846.1</ele>
        <time>2017-07-18T15:53:51Z</time>
      </trkpt>
      <trkpt lat="45.76427" lon="3.00288">
        <ele>846</ele>
        <time>2017-07-18T15:53:51Z</time>
      </trkpt>
      <trkpt lat="45.76427" lon="3.00291">
        <ele>846</ele>
        <time>2017-07-18T15:53:51Z</time>
      </trkpt>
      <trkpt lat="45.76427" lon="3.00295">
        <ele>845.9</ele>
        <time>2017-07-18T15:53:51Z</time>
      </trkpt>
      <trkpt lat="45.76428" lon="3.00298">
        <ele>845.8</ele>
        <time>2017-07-18T15:53:51Z</time>
      </trkpt>
      <trkpt lat="45.76429" lon="3.00302">
        <ele>845.7</ele>
        <time>2017-07-18T15:53:51Z</time>
      </trkpt>
      <trkpt lat="45.76429" lon="3.00306">
        <ele>845.5</ele>
        <time>2017-07-18T15:53:51Z</time>
      </trkpt>
      <trkpt lat="45.7643" lon="3.00309">
        <ele>845.4</ele>
        <time>2017-07-18T15:53:51Z</time>
      </trkpt>
      <trkpt lat="45.7643" lon="3.00313">
        <ele>845.3</ele>
        <time>2017-07-18T15:53:51Z</time>
      </trkpt>
      <trkpt lat="45.76431" lon="3.00316">
        <ele>845.2</ele>
        <time>2017-07-18T15:53:51Z</time>
      </trkpt>
      <trkpt lat="45.76432" lon="3.00319">
        <ele>845</ele>
        <time>2017-07-18T15:53:51Z</time>
      </trkpt>
      <trkpt lat="45.76433" lon="3.00322">
        <ele>844.9</ele>
        <time>2017-07-18T15:53:51Z</time>
      </trkpt>
      <trkpt lat="45.76434" lon="3.00326">
        <ele>844.8</ele>
        <time>2017-07-18T15:53:51Z</time>
      </trkpt>
      <trkpt lat="45.76435" lon="3.00328">
        <ele>844.6</ele>
        <time>2017-07-18T15:53:51Z</time>
      </trkpt>
      <trkpt lat="45.76436" lon="3.00331">
        <ele>844.5</ele>
        <time>2017-07-18T15:53:51Z</time>
      </trkpt>
      <trkpt lat="45.76437" lon="3.00335">
        <ele>844.3</ele>
        <time>2017-07-18T15:53:51Z</time>
      </trkpt>
      <trkpt lat="45.76439" lon="3.00337">
        <ele>844.1</ele>
        <time>2017-07-18T15:53:51Z</time>
      </trkpt>
      <trkpt lat="45.7644" lon="3.00341">
        <ele>844</ele>
        <time>2017-07-18T15:53:51Z</time>
      </trkpt>
      <trkpt lat="45.7644" lon="3.00344">
        <ele>843.9</ele>
        <time>2017-07-18T15:53:51Z</time>
      </trkpt>
      <trkpt lat="45.76442" lon="3.00347">
        <ele>843.7</ele>
        <time>2017-07-18T15:53:51Z</time>
      </trkpt>
      <trkpt lat="45.76443" lon="3.0035">
        <ele>843.6</ele>
        <time>2017-07-18T15:53:51Z</time>
      </trkpt>
      <trkpt lat="45.76444" lon="3.00353">
        <ele>843.4</ele>
        <time>2017-07-18T15:53:51Z</time>
      </trkpt>
      <trkpt lat="45.76446" lon="3.00356">
        <ele>843.2</ele>
        <time>2017-07-18T15:53:51Z</time>
      </trkpt>
      <trkpt lat="45.76447" lon="3.00359">
        <ele>843</ele>
        <time>2017-07-18T15:53:51Z</time>
      </trkpt>
      <trkpt lat="45.76448" lon="3.00362">
        <ele>842.9</ele>
        <time>2017-07-18T15:53:51Z</time>
      </trkpt>
      <trkpt lat="45.76449" lon="3.00365">
        <ele>842.8</ele>
        <time>2017-07-18T15:53:51Z</time>
      </trkpt>
      <trkpt lat="45.76451" lon="3.00369">
        <ele>842.6</ele>
        <time>2017-07-18T15:53:51Z</time>
      </trkpt>
      <trkpt lat="45.76452" lon="3.00373">
        <ele>842.5</ele>
        <time>2017-07-18T15:53:51Z</time>
      </trkpt>
      <trkpt lat="45.76452" lon="3.00377">
        <ele>842.4</ele>
        <time>2017-07-18T15:53:51Z</time>
      </trkpt>
      <trkpt lat="45.76453" lon="3.00381">
        <ele>842.4</ele>
        <time>2017-07-18T15:53:51Z</time>
      </trkpt>
      <trkpt lat="45.76454" lon="3.00384">
        <ele>842.3</ele>
        <time>2017-07-18T15:53:51Z</time>
      </trkpt>
      <trkpt lat="45.76454" lon="3.00388">
        <ele>842.3</ele>
        <time>2017-07-18T15:53:51Z</time>
      </trkpt>
      <trkpt lat="45.76455" lon="3.00393">
        <ele>842.2</ele>
        <time>2017-07-18T15:53:51Z</time>
      </trkpt>
      <trkpt lat="45.76456" lon="3.00398">
        <ele>842.2</ele>
        <time>2017-07-18T15:53:51Z</time>
      </trkpt>
      <trkpt lat="45.76455" lon="3.00401">
        <ele>842.2</ele>
        <time>2017-07-18T15:53:51Z</time>
      </trkpt>
      <trkpt lat="45.76455" lon="3.00404">
        <ele>842.2</ele>
        <time>2017-07-18T15:53:51Z</time>
      </trkpt>
      <trkpt lat="45.76455" lon="3.00406">
        <ele>842.3</ele>
        <time>2017-07-18T15:53:51Z</time>
      </trkpt>
      <trkpt lat="45.76454" lon="3.00409">
        <ele>842.4</ele>
        <time>2017-07-18T15:53:51Z</time>
      </trkpt>
      <trkpt lat="45.76454" lon="3.00412">
        <ele>842.4</ele>
        <time>2017-07-18T15:53:51Z</time>
      </trkpt>
      <trkpt lat="45.76453" lon="3.00415">
        <ele>842.5</ele>
        <time>2017-07-18T15:53:51Z</time>
      </trkpt>
      <trkpt lat="45.76453" lon="3.00418">
        <ele>842.5</ele>
        <time>2017-07-18T15:53:51Z</time>
      </trkpt>
      <trkpt lat="45.76452" lon="3.00421">
        <ele>842.5</ele>
        <time>2017-07-18T15:53:51Z</time>
      </trkpt>
      <trkpt lat="45.76451" lon="3.00424">
        <ele>842.5</ele>
        <time>2017-07-18T15:53:51Z</time>
      </trkpt>
      <trkpt lat="45.76451" lon="3.00427">
        <ele>842.5</ele>
        <time>2017-07-18T15:53:51Z</time>
      </trkpt>
      <trkpt lat="45.7645" lon="3.0043">
        <ele>842.5</ele>
        <time>2017-07-18T15:53:51Z</time>
      </trkpt>
      <trkpt lat="45.76449" lon="3.00433">
        <ele>842.5</ele>
        <time>2017-07-18T15:53:51Z</time>
      </trkpt>
      <trkpt lat="45.76448" lon="3.00436">
        <ele>842.5</ele>
        <time>2017-07-18T15:53:51Z</time>
      </trkpt>
      <trkpt lat="45.76446" lon="3.00439">
        <ele>842.5</ele>
        <time>2017-07-18T15:53:51Z</time>
      </trkpt>
      <trkpt lat="45.76445" lon="3.00442">
        <ele>842.6</ele>
        <time>2017-07-18T15:53:51Z</time>
      </trkpt>
      <trkpt lat="45.76443" lon="3.00444">
        <ele>842.7</ele>
        <time>2017-07-18T15:53:51Z</time>
      </trkpt>
      <trkpt lat="45.76442" lon="3.00447">
        <ele>842.7</ele>
        <time>2017-07-18T15:53:51Z</time>
      </trkpt>
      <trkpt lat="45.7644" lon="3.0045">
        <ele>842.7</ele>
        <time>2017-07-18T15:53:51Z</time>
      </trkpt>
      <trkpt lat="45.76439" lon="3.00452">
        <ele>842.7</ele>
        <time>2017-07-18T15:53:51Z</time>
      </trkpt>
      <trkpt lat="45.76438" lon="3.00455">
        <ele>842.7</ele>
        <time>2017-07-18T15:53:51Z</time>
      </trkpt>
      <trkpt lat="45.76436" lon="3.00458">
        <ele>842.7</ele>
        <time>2017-07-18T15:53:51Z</time>
      </trkpt>
      <trkpt lat="45.76434" lon="3.0046">
        <ele>842.8</ele>
        <time>2017-07-18T15:53:51Z</time>
      </trkpt>
      <trkpt lat="45.76433" lon="3.00462">
        <ele>842.8</ele>
        <time>2017-07-18T15:53:51Z</time>
      </trkpt>
      <trkpt lat="45.76431" lon="3.00465">
        <ele>842.8</ele>
        <time>2017-07-18T15:53:51Z</time>
      </trkpt>
      <trkpt lat="45.7643" lon="3.00468">
        <ele>842.8</ele>
        <time>2017-07-18T15:53:51Z</time>
      </trkpt>
      <trkpt lat="45.76428" lon="3.00471">
        <ele>842.7</ele>
        <time>2017-07-18T15:53:51Z</time>
      </trkpt>
      <trkpt lat="45.76427" lon="3.00474">
        <ele>842.7</ele>
        <time>2017-07-18T15:53:51Z</time>
      </trkpt>
      <trkpt lat="45.76426" lon="3.00477">
        <ele>842.6</ele>
        <time>2017-07-18T15:53:51Z</time>
      </trkpt>
      <trkpt lat="45.76425" lon="3.0048">
        <ele>842.6</ele>
        <time>2017-07-18T15:53:51Z</time>
      </trkpt>
      <trkpt lat="45.76424" lon="3.00483">
        <ele>842.5</ele>
        <time>2017-07-18T15:53:51Z</time>
      </trkpt>
      <trkpt lat="45.76423" lon="3.00486">
        <ele>842.4</ele>
        <time>2017-07-18T15:53:51Z</time>
      </trkpt>
      <trkpt lat="45.76421" lon="3.00489">
        <ele>842.3</ele>
        <time>2017-07-18T15:53:51Z</time>
      </trkpt>
      <trkpt lat="45.76421" lon="3.00492">
        <ele>842.2</ele>
        <time>2017-07-18T15:53:51Z</time>
      </trkpt>
      <trkpt lat="45.7642" lon="3.00496">
        <ele>842.1</ele>
        <time>2017-07-18T15:53:51Z</time>
      </trkpt>
      <trkpt lat="45.76419" lon="3.00499">
        <ele>842</ele>
        <time>2017-07-18T15:53:51Z</time>
      </trkpt>
      <trkpt lat="45.76418" lon="3.00501">
        <ele>841.9</ele>
        <time>2017-07-18T15:53:51Z</time>
      </trkpt>
      <trkpt lat="45.76418" lon="3.00504">
        <ele>841.8</ele>
        <time>2017-07-18T15:53:51Z</time>
      </trkpt>
      <trkpt lat="45.76417" lon="3.00506">
        <ele>841.7</ele>
        <time>2017-07-18T15:53:51Z</time>
      </trkpt>
      <trkpt lat="45.76417" lon="3.00509">
        <ele>841.7</ele>
        <time>2017-07-18T15:53:51Z</time>
      </trkpt>
      <trkpt lat="45.76416" lon="3.00512">
        <ele>841.6</ele>
        <time>2017-07-18T15:53:51Z</time>
      </trkpt>
      <trkpt lat="45.76416" lon="3.00515">
        <ele>841.4</ele>
        <time>2017-07-18T15:53:51Z</time>
      </trkpt>
      <trkpt lat="45.76415" lon="3.00519">
        <ele>841.3</ele>
        <time>2017-07-18T15:53:51Z</time>
      </trkpt>
      <trkpt lat="45.76414" lon="3.00522">
        <ele>841.2</ele>
        <time>2017-07-18T15:53:51Z</time>
      </trkpt>
      <trkpt lat="45.76414" lon="3.00525">
        <ele>841.1</ele>
        <time>2017-07-18T15:53:51Z</time>
      </trkpt>
      <trkpt lat="45.76413" lon="3.00527">
        <ele>840.9</ele>
        <time>2017-07-18T15:53:51Z</time>
      </trkpt>
      <trkpt lat="45.76412" lon="3.0053">
        <ele>840.8</ele>
        <time>2017-07-18T15:53:51Z</time>
      </trkpt>
      <trkpt lat="45.7641" lon="3.00531">
        <ele>840.7</ele>
        <time>2017-07-18T15:53:51Z</time>
      </trkpt>
      <trkpt lat="45.76408" lon="3.00532">
        <ele>840.7</ele>
        <time>2017-07-18T15:53:51Z</time>
      </trkpt>
      <trkpt lat="45.76406" lon="3.00533">
        <ele>840.6</ele>
        <time>2017-07-18T15:53:51Z</time>
      </trkpt>
      <trkpt lat="45.76404" lon="3.00533">
        <ele>840.5</ele>
        <time>2017-07-18T15:53:51Z</time>
      </trkpt>
      <trkpt lat="45.76403" lon="3.00535">
        <ele>840.4</ele>
        <time>2017-07-18T15:53:51Z</time>
      </trkpt>
      <trkpt lat="45.76401" lon="3.00536">
        <ele>840.3</ele>
        <time>2017-07-18T15:53:51Z</time>
      </trkpt>
      <trkpt lat="45.76398" lon="3.00537">
        <ele>840.2</ele>
        <time>2017-07-18T15:53:51Z</time>
      </trkpt>
      <trkpt lat="45.76396" lon="3.00538">
        <ele>840.1</ele>
        <time>2017-07-18T15:53:51Z</time>
      </trkpt>
      <trkpt lat="45.76394" lon="3.0054">
        <ele>840</ele>
        <time>2017-07-18T15:53:51Z</time>
      </trkpt>
      <trkpt lat="45.76392" lon="3.00541">
        <ele>839.9</ele>
        <time>2017-07-18T15:53:51Z</time>
      </trkpt>
      <trkpt lat="45.7639" lon="3.00543">
        <ele>839.8</ele>
        <time>2017-07-18T15:53:51Z</time>
      </trkpt>
      <trkpt lat="45.76388" lon="3.00544">
        <ele>839.7</ele>
        <time>2017-07-18T15:53:51Z</time>
      </trkpt>
      <trkpt lat="45.76386" lon="3.00546">
        <ele>839.6</ele>
        <time>2017-07-18T15:53:51Z</time>
      </trkpt>
      <trkpt lat="45.76384" lon="3.00547">
        <ele>839.5</ele>
        <time>2017-07-18T15:53:51Z</time>
      </trkpt>
      <trkpt lat="45.76382" lon="3.00547">
        <ele>839.4</ele>
        <time>2017-07-18T15:53:51Z</time>
      </trkpt>
      <trkpt lat="45.7638" lon="3.00549">
        <ele>839.3</ele>
        <time>2017-07-18T15:53:51Z</time>
      </trkpt>
      <trkpt lat="45.76378" lon="3.0055">
        <ele>839.2</ele>
        <time>2017-07-18T15:53:51Z</time>
      </trkpt>
      <trkpt lat="45.76378" lon="3.00551">
        <ele>839.1</ele>
        <time>2017-07-18T15:53:51Z</time>
      </trkpt>
      <trkpt lat="45.76377" lon="3.00551">
        <ele>839.1</ele>
        <time>2017-07-18T15:53:51Z</time>
      </trkpt>
      <trkpt lat="45.76375" lon="3.00553">
        <ele>839</ele>
        <time>2017-07-18T15:53:51Z</time>
      </trkpt>
      <trkpt lat="45.76373" lon="3.00555">
        <ele>838.8</ele>
        <time>2017-07-18T15:53:51Z</time>
      </trkpt>
      <trkpt lat="45.76372" lon="3.00555">
        <ele>838.8</ele>
        <time>2017-07-18T15:53:51Z</time>
      </trkpt>
      <trkpt lat="45.76371" lon="3.00556">
        <ele>838.7</ele>
        <time>2017-07-18T15:53:51Z</time>
      </trkpt>
      <trkpt lat="45.7637" lon="3.00558">
        <ele>838.6</ele>
        <time>2017-07-18T15:53:51Z</time>
      </trkpt>
      <trkpt lat="45.76368" lon="3.0056">
        <ele>838.4</ele>
        <time>2017-07-18T15:53:51Z</time>
      </trkpt>
      <trkpt lat="45.76366" lon="3.00561">
        <ele>838.3</ele>
        <time>2017-07-18T15:53:51Z</time>
      </trkpt>
      <trkpt lat="45.76363" lon="3.00563">
        <ele>838.1</ele>
        <time>2017-07-18T15:53:51Z</time>
      </trkpt>
      <trkpt lat="45.76362" lon="3.00565">
        <ele>838</ele>
        <time>2017-07-18T15:53:51Z</time>
      </trkpt>
      <trkpt lat="45.7636" lon="3.00566">
        <ele>837.9</ele>
        <time>2017-07-18T15:53:51Z</time>
      </trkpt>
      <trkpt lat="45.76358" lon="3.00567">
        <ele>837.7</ele>
        <time>2017-07-18T15:53:51Z</time>
      </trkpt>
      <trkpt lat="45.76356" lon="3.00565">
        <ele>837.8</ele>
        <time>2017-07-18T15:53:51Z</time>
      </trkpt>
      <trkpt lat="45.76352" lon="3.00565">
        <ele>837.7</ele>
        <time>2017-07-18T15:53:51Z</time>
      </trkpt>
      <trkpt lat="45.76349" lon="3.00564">
        <ele>837.7</ele>
        <time>2017-07-18T15:53:51Z</time>
      </trkpt>
      <trkpt lat="45.76347" lon="3.00562">
        <ele>837.7</ele>
        <time>2017-07-18T15:53:51Z</time>
      </trkpt>
      <trkpt lat="45.76345" lon="3.0056">
        <ele>837.7</ele>
        <time>2017-07-18T15:53:51Z</time>
      </trkpt>
      <trkpt lat="45.76342" lon="3.00559">
        <ele>837.7</ele>
        <time>2017-07-18T15:53:51Z</time>
      </trkpt>
      <trkpt lat="45.76339" lon="3.00557">
        <ele>837.7</ele>
        <time>2017-07-18T15:53:51Z</time>
      </trkpt>
      <trkpt lat="45.76337" lon="3.00556">
        <ele>837.7</ele>
        <time>2017-07-18T15:53:51Z</time>
      </trkpt>
      <trkpt lat="45.76334" lon="3.00555">
        <ele>837.7</ele>
        <time>2017-07-18T15:53:51Z</time>
      </trkpt>
      <trkpt lat="45.76332" lon="3.00555">
        <ele>837.7</ele>
        <time>2017-07-18T15:53:51Z</time>
      </trkpt>
      <trkpt lat="45.76329" lon="3.00555">
        <ele>837.6</ele>
        <time>2017-07-18T15:53:51Z</time>
      </trkpt>
      <trkpt lat="45.76327" lon="3.00556">
        <ele>837.5</ele>
        <time>2017-07-18T15:53:51Z</time>
      </trkpt>
      <trkpt lat="45.76324" lon="3.00557">
        <ele>837.3</ele>
        <time>2017-07-18T15:53:51Z</time>
      </trkpt>
      <trkpt lat="45.76321" lon="3.00558">
        <ele>837.2</ele>
        <time>2017-07-18T15:53:51Z</time>
      </trkpt>
      <trkpt lat="45.76318" lon="3.00558">
        <ele>837.1</ele>
        <time>2017-07-18T15:53:51Z</time>
      </trkpt>
      <trkpt lat="45.76316" lon="3.00559">
        <ele>837</ele>
        <time>2017-07-18T15:53:51Z</time>
      </trkpt>
      <trkpt lat="45.76314" lon="3.00561">
        <ele>836.8</ele>
        <time>2017-07-18T15:53:51Z</time>
      </trkpt>
      <trkpt lat="45.76311" lon="3.00561">
        <ele>836.8</ele>
        <time>2017-07-18T15:53:51Z</time>
      </trkpt>
      <trkpt lat="45.76308" lon="3.00562">
        <ele>836.6</ele>
        <time>2017-07-18T15:53:51Z</time>
      </trkpt>
      <trkpt lat="45.76305" lon="3.00562">
        <ele>836.5</ele>
        <time>2017-07-18T15:53:51Z</time>
      </trkpt>
      <trkpt lat="45.76303" lon="3.00563">
        <ele>836.4</ele>
        <time>2017-07-18T15:53:51Z</time>
      </trkpt>
      <trkpt lat="45.763" lon="3.00564">
        <ele>836.2</ele>
        <time>2017-07-18T15:53:51Z</time>
      </trkpt>
      <trkpt lat="45.76296" lon="3.00565">
        <ele>836.1</ele>
        <time>2017-07-18T15:53:51Z</time>
      </trkpt>
      <trkpt lat="45.76293" lon="3.00565">
        <ele>836</ele>
        <time>2017-07-18T15:53:51Z</time>
      </trkpt>
      <trkpt lat="45.7629" lon="3.00566">
        <ele>835.9</ele>
        <time>2017-07-18T15:53:51Z</time>
      </trkpt>
      <trkpt lat="45.76287" lon="3.00569">
        <ele>835.6</ele>
        <time>2017-07-18T15:53:51Z</time>
      </trkpt>
      <trkpt lat="45.76283" lon="3.00571">
        <ele>835.4</ele>
        <time>2017-07-18T15:53:51Z</time>
      </trkpt>
      <trkpt lat="45.76279" lon="3.00573">
        <ele>835.3</ele>
        <time>2017-07-18T15:53:51Z</time>
      </trkpt>
      <trkpt lat="45.76277" lon="3.00573">
        <ele>835.2</ele>
        <time>2017-07-18T15:53:51Z</time>
      </trkpt>
      <trkpt lat="45.76274" lon="3.00573">
        <ele>835.1</ele>
        <time>2017-07-18T15:53:51Z</time>
      </trkpt>
      <trkpt lat="45.76272" lon="3.00574">
        <ele>835</ele>
        <time>2017-07-18T15:53:51Z</time>
      </trkpt>
      <trkpt lat="45.7627" lon="3.00576">
        <ele>834.9</ele>
        <time>2017-07-18T15:53:51Z</time>
      </trkpt>
      <trkpt lat="45.76267" lon="3.00576">
        <ele>834.8</ele>
        <time>2017-07-18T15:53:51Z</time>
      </trkpt>
      <trkpt lat="45.76264" lon="3.00575">
        <ele>834.8</ele>
        <time>2017-07-18T15:53:51Z</time>
      </trkpt>
      <trkpt lat="45.7626" lon="3.00573">
        <ele>834.7</ele>
        <time>2017-07-18T15:53:51Z</time>
      </trkpt>
      <trkpt lat="45.7626" lon="3.00572">
        <ele>834.8</ele>
        <time>2017-07-18T15:53:51Z</time>
      </trkpt>
      <trkpt lat="45.76257" lon="3.00572">
        <ele>834.7</ele>
        <time>2017-07-18T15:53:51Z</time>
      </trkpt>
      <trkpt lat="45.76255" lon="3.00572">
        <ele>834.7</ele>
        <time>2017-07-18T15:53:51Z</time>
      </trkpt>
      <trkpt lat="45.76253" lon="3.00573">
        <ele>834.6</ele>
        <time>2017-07-18T15:53:51Z</time>
      </trkpt>
      <trkpt lat="45.76252" lon="3.00573">
        <ele>834.5</ele>
        <time>2017-07-18T15:53:51Z</time>
      </trkpt>
      <trkpt lat="45.7625" lon="3.00574">
        <ele>834.5</ele>
        <time>2017-07-18T15:53:51Z</time>
      </trkpt>
      <trkpt lat="45.76249" lon="3.00575">
        <ele>834.4</ele>
        <time>2017-07-18T15:53:51Z</time>
      </trkpt>
      <trkpt lat="45.76247" lon="3.00575">
        <ele>834.5</ele>
        <time>2017-07-18T15:53:51Z</time>
      </trkpt>
      <trkpt lat="45.76245" lon="3.00576">
        <ele>834.4</ele>
        <time>2017-07-18T15:53:51Z</time>
      </trkpt>
      <trkpt lat="45.76243" lon="3.00577">
        <ele>834.4</ele>
        <time>2017-07-18T15:53:51Z</time>
      </trkpt>
      <trkpt lat="45.76241" lon="3.00579">
        <ele>834.3</ele>
        <time>2017-07-18T15:53:51Z</time>
      </trkpt>
      <trkpt lat="45.7624" lon="3.0058">
        <ele>834.3</ele>
        <time>2017-07-18T15:53:51Z</time>
      </trkpt>
      <trkpt lat="45.7624" lon="3.0058">
        <ele>834.3</ele>
        <time>2017-07-18T15:53:51Z</time>
      </trkpt>
      <trkpt lat="45.7624" lon="3.0058">
        <ele>834.3</ele>
        <time>2017-07-18T15:53:51Z</time>
      </trkpt>
      <trkpt lat="45.76236" lon="3.00582">
        <ele>834.2</ele>
        <time>2017-07-18T15:53:51Z</time>
      </trkpt>
      <trkpt lat="45.76236" lon="3.00584">
        <ele>834.2</ele>
        <time>2017-07-18T15:53:51Z</time>
      </trkpt>
      <trkpt lat="45.76235" lon="3.00587">
        <ele>834.1</ele>
        <time>2017-07-18T15:53:51Z</time>
      </trkpt>
      <trkpt lat="45.76234" lon="3.0059">
        <ele>834.1</ele>
        <time>2017-07-18T15:53:51Z</time>
      </trkpt>
      <trkpt lat="45.76233" lon="3.00593">
        <ele>834</ele>
        <time>2017-07-18T15:53:51Z</time>
      </trkpt>
      <trkpt lat="45.76232" lon="3.00597">
        <ele>834</ele>
        <time>2017-07-18T15:53:51Z</time>
      </trkpt>
      <trkpt lat="45.76231" lon="3.00599">
        <ele>834</ele>
        <time>2017-07-18T15:53:51Z</time>
      </trkpt>
      <trkpt lat="45.76231" lon="3.00602">
        <ele>833.9</ele>
        <time>2017-07-18T15:53:51Z</time>
      </trkpt>
      <trkpt lat="45.76231" lon="3.00605">
        <ele>833.9</ele>
        <time>2017-07-18T15:53:51Z</time>
      </trkpt>
      <trkpt lat="45.7623" lon="3.00608">
        <ele>833.8</ele>
        <time>2017-07-18T15:53:51Z</time>
      </trkpt>
      <trkpt lat="45.7623" lon="3.00612">
        <ele>833.8</ele>
        <time>2017-07-18T15:53:51Z</time>
      </trkpt>
      <trkpt lat="45.7623" lon="3.00616">
        <ele>833.7</ele>
        <time>2017-07-18T15:53:51Z</time>
      </trkpt>
      <trkpt lat="45.7623" lon="3.00621">
        <ele>833.7</ele>
        <time>2017-07-18T15:53:51Z</time>
      </trkpt>
      <trkpt lat="45.7623" lon="3.00624">
        <ele>833.6</ele>
        <time>2017-07-18T15:53:51Z</time>
      </trkpt>
      <trkpt lat="45.76229" lon="3.00629">
        <ele>833.6</ele>
        <time>2017-07-18T15:53:51Z</time>
      </trkpt>
      <trkpt lat="45.76229" lon="3.00632">
        <ele>833.5</ele>
        <time>2017-07-18T15:53:51Z</time>
      </trkpt>
      <trkpt lat="45.76229" lon="3.00637">
        <ele>833.5</ele>
        <time>2017-07-18T15:53:51Z</time>
      </trkpt>
      <trkpt lat="45.76229" lon="3.0064">
        <ele>833.4</ele>
        <time>2017-07-18T15:53:51Z</time>
      </trkpt>
      <trkpt lat="45.76228" lon="3.00643">
        <ele>833.4</ele>
        <time>2017-07-18T15:53:51Z</time>
      </trkpt>
      <trkpt lat="45.76227" lon="3.00646">
        <ele>833.4</ele>
        <time>2017-07-18T15:53:51Z</time>
      </trkpt>
      <trkpt lat="45.76225" lon="3.00649">
        <ele>833.4</ele>
        <time>2017-07-18T15:53:51Z</time>
      </trkpt>
      <trkpt lat="45.76224" lon="3.00652">
        <ele>833.4</ele>
        <time>2017-07-18T15:53:51Z</time>
      </trkpt>
      <trkpt lat="45.76223" lon="3.00655">
        <ele>833.4</ele>
        <time>2017-07-18T15:53:51Z</time>
      </trkpt>
      <trkpt lat="45.76221" lon="3.00658">
        <ele>833.5</ele>
        <time>2017-07-18T15:53:51Z</time>
      </trkpt>
      <trkpt lat="45.7622" lon="3.00661">
        <ele>833.5</ele>
        <time>2017-07-18T15:53:51Z</time>
      </trkpt>
      <trkpt lat="45.76218" lon="3.00663">
        <ele>833.6</ele>
        <time>2017-07-18T15:53:51Z</time>
      </trkpt>
      <trkpt lat="45.76216" lon="3.00666">
        <ele>833.6</ele>
        <time>2017-07-18T15:53:51Z</time>
      </trkpt>
      <trkpt lat="45.76214" lon="3.00669">
        <ele>833.7</ele>
        <time>2017-07-18T15:53:51Z</time>
      </trkpt>
      <trkpt lat="45.76213" lon="3.00672">
        <ele>833.8</ele>
        <time>2017-07-18T15:53:51Z</time>
      </trkpt>
      <trkpt lat="45.76212" lon="3.00676">
        <ele>833.8</ele>
        <time>2017-07-18T15:53:51Z</time>
      </trkpt>
      <trkpt lat="45.76211" lon="3.00679">
        <ele>833.9</ele>
        <time>2017-07-18T15:53:51Z</time>
      </trkpt>
      <trkpt lat="45.7621" lon="3.00684">
        <ele>834</ele>
        <time>2017-07-18T15:53:51Z</time>
      </trkpt>
      <trkpt lat="45.76209" lon="3.00688">
        <ele>834.1</ele>
        <time>2017-07-18T15:53:51Z</time>
      </trkpt>
      <trkpt lat="45.76209" lon="3.00692">
        <ele>834.1</ele>
        <time>2017-07-18T15:53:51Z</time>
      </trkpt>
      <trkpt lat="45.76209" lon="3.00696">
        <ele>834.2</ele>
        <time>2017-07-18T15:53:51Z</time>
      </trkpt>
      <trkpt lat="45.76208" lon="3.007">
        <ele>834.2</ele>
        <time>2017-07-18T15:53:51Z</time>
      </trkpt>
      <trkpt lat="45.76208" lon="3.00703">
        <ele>834.2</ele>
        <time>2017-07-18T15:53:51Z</time>
      </trkpt>
      <trkpt lat="45.7621" lon="3.00706">
        <ele>834.1</ele>
        <time>2017-07-18T15:53:51Z</time>
      </trkpt>
      <trkpt lat="45.76211" lon="3.00708">
        <ele>834</ele>
        <time>2017-07-18T15:53:51Z</time>
      </trkpt>
      <trkpt lat="45.76213" lon="3.00711">
        <ele>833.8</ele>
        <time>2017-07-18T15:53:51Z</time>
      </trkpt>
      <trkpt lat="45.76215" lon="3.00713">
        <ele>833.6</ele>
        <time>2017-07-18T15:53:51Z</time>
      </trkpt>
      <trkpt lat="45.76217" lon="3.00715">
        <ele>833.4</ele>
        <time>2017-07-18T15:53:51Z</time>
      </trkpt>
      <trkpt lat="45.76219" lon="3.00718">
        <ele>833.2</ele>
        <time>2017-07-18T15:53:51Z</time>
      </trkpt>
      <trkpt lat="45.76221" lon="3.0072">
        <ele>833</ele>
        <time>2017-07-18T15:53:51Z</time>
      </trkpt>
      <trkpt lat="45.76223" lon="3.00722">
        <ele>832.8</ele>
        <time>2017-07-18T15:53:51Z</time>
      </trkpt>
      <trkpt lat="45.76224" lon="3.00723">
        <ele>832.7</ele>
        <time>2017-07-18T15:53:51Z</time>
      </trkpt>
      <trkpt lat="45.76226" lon="3.00724">
        <ele>832.5</ele>
        <time>2017-07-18T15:53:51Z</time>
      </trkpt>
      <trkpt lat="45.76227" lon="3.00725">
        <ele>832.3</ele>
        <time>2017-07-18T15:53:51Z</time>
      </trkpt>
      <trkpt lat="45.76229" lon="3.00729">
        <ele>832.1</ele>
        <time>2017-07-18T15:53:51Z</time>
      </trkpt>
      <trkpt lat="45.7623" lon="3.00731">
        <ele>831.9</ele>
        <time>2017-07-18T15:53:51Z</time>
      </trkpt>
      <trkpt lat="45.76231" lon="3.00732">
        <ele>831.8</ele>
        <time>2017-07-18T15:53:51Z</time>
      </trkpt>
      <trkpt lat="45.76232" lon="3.00734">
        <ele>831.7</ele>
        <time>2017-07-18T15:53:51Z</time>
      </trkpt>
      <trkpt lat="45.76232" lon="3.00737">
        <ele>831.7</ele>
        <time>2017-07-18T15:53:51Z</time>
      </trkpt>
      <trkpt lat="45.76232" lon="3.00741">
        <ele>831.5</ele>
        <time>2017-07-18T15:53:51Z</time>
      </trkpt>
      <trkpt lat="45.76232" lon="3.00745">
        <ele>831.4</ele>
        <time>2017-07-18T15:53:51Z</time>
      </trkpt>
      <trkpt lat="45.76232" lon="3.00748">
        <ele>831.3</ele>
        <time>2017-07-18T15:53:51Z</time>
      </trkpt>
      <trkpt lat="45.76233" lon="3.00751">
        <ele>831.3</ele>
        <time>2017-07-18T15:53:51Z</time>
      </trkpt>
      <trkpt lat="45.76233" lon="3.00754">
        <ele>831.3</ele>
        <time>2017-07-18T15:53:51Z</time>
      </trkpt>
      <trkpt lat="45.76235" lon="3.00759">
        <ele>831.2</ele>
        <time>2017-07-18T15:53:51Z</time>
      </trkpt>
      <trkpt lat="45.76236" lon="3.00762">
        <ele>831.1</ele>
        <time>2017-07-18T15:53:51Z</time>
      </trkpt>
      <trkpt lat="45.76238" lon="3.00767">
        <ele>831</ele>
        <time>2017-07-18T15:53:51Z</time>
      </trkpt>
      <trkpt lat="45.76238" lon="3.00771">
        <ele>831</ele>
        <time>2017-07-18T15:53:51Z</time>
      </trkpt>
      <trkpt lat="45.76239" lon="3.00774">
        <ele>831</ele>
        <time>2017-07-18T15:53:51Z</time>
      </trkpt>
      <trkpt lat="45.76241" lon="3.00777">
        <ele>830.9</ele>
        <time>2017-07-18T15:53:51Z</time>
      </trkpt>
      <trkpt lat="45.76242" lon="3.00781">
        <ele>830.8</ele>
        <time>2017-07-18T15:53:51Z</time>
      </trkpt>
      <trkpt lat="45.76243" lon="3.00784">
        <ele>830.7</ele>
        <time>2017-07-18T15:53:51Z</time>
      </trkpt>
      <trkpt lat="45.76244" lon="3.00788">
        <ele>830.6</ele>
        <time>2017-07-18T15:53:51Z</time>
      </trkpt>
      <trkpt lat="45.76246" lon="3.00792">
        <ele>830.6</ele>
        <time>2017-07-18T15:53:51Z</time>
      </trkpt>
      <trkpt lat="45.76247" lon="3.00796">
        <ele>830.5</ele>
        <time>2017-07-18T15:53:51Z</time>
      </trkpt>
      <trkpt lat="45.76248" lon="3.00799">
        <ele>830.4</ele>
        <time>2017-07-18T15:53:51Z</time>
      </trkpt>
      <trkpt lat="45.76248" lon="3.00801">
        <ele>830.4</ele>
        <time>2017-07-18T15:53:51Z</time>
      </trkpt>
      <trkpt lat="45.76249" lon="3.00805">
        <ele>830.4</ele>
        <time>2017-07-18T15:53:51Z</time>
      </trkpt>
      <trkpt lat="45.7625" lon="3.00808">
        <ele>830.4</ele>
        <time>2017-07-18T15:53:51Z</time>
      </trkpt>
      <trkpt lat="45.76251" lon="3.00812">
        <ele>830.4</ele>
        <time>2017-07-18T15:53:51Z</time>
      </trkpt>
      <trkpt lat="45.76252" lon="3.00817">
        <ele>830.5</ele>
        <time>2017-07-18T15:53:51Z</time>
      </trkpt>
      <trkpt lat="45.76253" lon="3.00821">
        <ele>830.5</ele>
        <time>2017-07-18T15:53:51Z</time>
      </trkpt>
      <trkpt lat="45.76254" lon="3.00825">
        <ele>830.5</ele>
        <time>2017-07-18T15:53:51Z</time>
      </trkpt>
      <trkpt lat="45.76255" lon="3.00829">
        <ele>830.5</ele>
        <time>2017-07-18T15:53:51Z</time>
      </trkpt>
      <trkpt lat="45.76256" lon="3.00833">
        <ele>830.5</ele>
        <time>2017-07-18T15:53:51Z</time>
      </trkpt>
      <trkpt lat="45.76257" lon="3.00836">
        <ele>830.5</ele>
        <time>2017-07-18T15:53:51Z</time>
      </trkpt>
      <trkpt lat="45.76259" lon="3.00839">
        <ele>830.5</ele>
        <time>2017-07-18T15:53:51Z</time>
      </trkpt>
      <trkpt lat="45.76259" lon="3.00841">
        <ele>830.5</ele>
        <time>2017-07-18T15:53:51Z</time>
      </trkpt>
      <trkpt lat="45.76261" lon="3.00844">
        <ele>830.5</ele>
        <time>2017-07-18T15:53:51Z</time>
      </trkpt>
      <trkpt lat="45.76262" lon="3.00847">
        <ele>830.5</ele>
        <time>2017-07-18T15:53:51Z</time>
      </trkpt>
      <trkpt lat="45.76264" lon="3.0085">
        <ele>830.5</ele>
        <time>2017-07-18T15:53:51Z</time>
      </trkpt>
      <trkpt lat="45.76265" lon="3.00853">
        <ele>830.5</ele>
        <time>2017-07-18T15:53:51Z</time>
      </trkpt>
      <trkpt lat="45.76267" lon="3.00856">
        <ele>830.5</ele>
        <time>2017-07-18T15:53:51Z</time>
      </trkpt>
      <trkpt lat="45.76268" lon="3.00859">
        <ele>830.4</ele>
        <time>2017-07-18T15:53:51Z</time>
      </trkpt>
      <trkpt lat="45.7627" lon="3.00862">
        <ele>830.4</ele>
        <time>2017-07-18T15:53:51Z</time>
      </trkpt>
      <trkpt lat="45.76271" lon="3.00866">
        <ele>830.4</ele>
        <time>2017-07-18T15:53:51Z</time>
      </trkpt>
      <trkpt lat="45.76272" lon="3.00869">
        <ele>830.4</ele>
        <time>2017-07-18T15:53:51Z</time>
      </trkpt>
      <trkpt lat="45.76273" lon="3.00871">
        <ele>830.4</ele>
        <time>2017-07-18T15:53:51Z</time>
      </trkpt>
      <trkpt lat="45.76274" lon="3.00875">
        <ele>830.4</ele>
        <time>2017-07-18T15:53:51Z</time>
      </trkpt>
      <trkpt lat="45.76276" lon="3.00878">
        <ele>830.3</ele>
        <time>2017-07-18T15:53:51Z</time>
      </trkpt>
      <trkpt lat="45.76277" lon="3.00882">
        <ele>830.3</ele>
        <time>2017-07-18T15:53:51Z</time>
      </trkpt>
      <trkpt lat="45.76278" lon="3.00886">
        <ele>830.3</ele>
        <time>2017-07-18T15:53:51Z</time>
      </trkpt>
      <trkpt lat="45.76279" lon="3.00889">
        <ele>830.3</ele>
        <time>2017-07-18T15:53:51Z</time>
      </trkpt>
      <trkpt lat="45.7628" lon="3.00893">
        <ele>830.3</ele>
        <time>2017-07-18T15:53:51Z</time>
      </trkpt>
      <trkpt lat="45.76282" lon="3.00896">
        <ele>830.2</ele>
        <time>2017-07-18T15:53:51Z</time>
      </trkpt>
      <trkpt lat="45.76284" lon="3.009">
        <ele>830.1</ele>
        <time>2017-07-18T15:53:51Z</time>
      </trkpt>
      <trkpt lat="45.76285" lon="3.00903">
        <ele>830.1</ele>
        <time>2017-07-18T15:53:51Z</time>
      </trkpt>
      <trkpt lat="45.76286" lon="3.00906">
        <ele>830</ele>
        <time>2017-07-18T15:53:51Z</time>
      </trkpt>
      <trkpt lat="45.76287" lon="3.00909">
        <ele>829.9</ele>
        <time>2017-07-18T15:53:51Z</time>
      </trkpt>
      <trkpt lat="45.76288" lon="3.00912">
        <ele>829.9</ele>
        <time>2017-07-18T15:53:51Z</time>
      </trkpt>
      <trkpt lat="45.7629" lon="3.00916">
        <ele>829.7</ele>
        <time>2017-07-18T15:53:51Z</time>
      </trkpt>
      <trkpt lat="45.76292" lon="3.0092">
        <ele>829.6</ele>
        <time>2017-07-18T15:53:51Z</time>
      </trkpt>
      <trkpt lat="45.76293" lon="3.00923">
        <ele>829.4</ele>
        <time>2017-07-18T15:53:51Z</time>
      </trkpt>
      <trkpt lat="45.76295" lon="3.00927">
        <ele>829.3</ele>
        <time>2017-07-18T15:53:51Z</time>
      </trkpt>
      <trkpt lat="45.76296" lon="3.0093">
        <ele>829.2</ele>
        <time>2017-07-18T15:53:51Z</time>
      </trkpt>
      <trkpt lat="45.76297" lon="3.00934">
        <ele>829.1</ele>
        <time>2017-07-18T15:53:51Z</time>
      </trkpt>
      <trkpt lat="45.76298" lon="3.00937">
        <ele>828.9</ele>
        <time>2017-07-18T15:53:51Z</time>
      </trkpt>
      <trkpt lat="45.763" lon="3.0094">
        <ele>828.7</ele>
        <time>2017-07-18T15:53:51Z</time>
      </trkpt>
      <trkpt lat="45.76301" lon="3.00942">
        <ele>828.6</ele>
        <time>2017-07-18T15:53:51Z</time>
      </trkpt>
      <trkpt lat="45.76302" lon="3.00946">
        <ele>828.5</ele>
        <time>2017-07-18T15:53:51Z</time>
      </trkpt>
      <trkpt lat="45.76304" lon="3.00951">
        <ele>828.4</ele>
        <time>2017-07-18T15:53:51Z</time>
      </trkpt>
      <trkpt lat="45.76305" lon="3.00953">
        <ele>828.2</ele>
        <time>2017-07-18T15:53:51Z</time>
      </trkpt>
      <trkpt lat="45.76306" lon="3.00955">
        <ele>828.1</ele>
        <time>2017-07-18T15:53:51Z</time>
      </trkpt>
      <trkpt lat="45.76307" lon="3.00958">
        <ele>827.9</ele>
        <time>2017-07-18T15:53:51Z</time>
      </trkpt>
      <trkpt lat="45.76308" lon="3.0096">
        <ele>827.8</ele>
        <time>2017-07-18T15:53:51Z</time>
      </trkpt>
      <trkpt lat="45.76309" lon="3.00964">
        <ele>827.6</ele>
        <time>2017-07-18T15:53:51Z</time>
      </trkpt>
      <trkpt lat="45.7631" lon="3.00966">
        <ele>827.5</ele>
        <time>2017-07-18T15:53:51Z</time>
      </trkpt>
      <trkpt lat="45.76312" lon="3.00969">
        <ele>827.3</ele>
        <time>2017-07-18T15:53:51Z</time>
      </trkpt>
      <trkpt lat="45.76313" lon="3.00972">
        <ele>827.1</ele>
        <time>2017-07-18T15:53:51Z</time>
      </trkpt>
      <trkpt lat="45.76315" lon="3.00975">
        <ele>826.9</ele>
        <time>2017-07-18T15:53:51Z</time>
      </trkpt>
      <trkpt lat="45.76316" lon="3.00978">
        <ele>826.7</ele>
        <time>2017-07-18T15:53:51Z</time>
      </trkpt>
      <trkpt lat="45.76318" lon="3.00982">
        <ele>826.5</ele>
        <time>2017-07-18T15:53:51Z</time>
      </trkpt>
      <trkpt lat="45.7632" lon="3.00986">
        <ele>826.2</ele>
        <time>2017-07-18T15:53:51Z</time>
      </trkpt>
      <trkpt lat="45.76321" lon="3.0099">
        <ele>826</ele>
        <time>2017-07-18T15:53:51Z</time>
      </trkpt>
      <trkpt lat="45.76322" lon="3.00993">
        <ele>825.9</ele>
        <time>2017-07-18T15:53:51Z</time>
      </trkpt>
      <trkpt lat="45.76323" lon="3.00995">
        <ele>825.7</ele>
        <time>2017-07-18T15:53:51Z</time>
      </trkpt>
      <trkpt lat="45.76325" lon="3.00998">
        <ele>825.4</ele>
        <time>2017-07-18T15:53:51Z</time>
      </trkpt>
      <trkpt lat="45.76326" lon="3.01">
        <ele>825.2</ele>
        <time>2017-07-18T15:53:51Z</time>
      </trkpt>
      <trkpt lat="45.76328" lon="3.01003">
        <ele>825</ele>
        <time>2017-07-18T15:53:51Z</time>
      </trkpt>
      <trkpt lat="45.7633" lon="3.01005">
        <ele>824.9</ele>
        <time>2017-07-18T15:53:51Z</time>
      </trkpt>
      <trkpt lat="45.76332" lon="3.01008">
        <ele>824.7</ele>
        <time>2017-07-18T15:53:51Z</time>
      </trkpt>
      <trkpt lat="45.76334" lon="3.01012">
        <ele>824.7</ele>
        <time>2017-07-18T15:53:51Z</time>
      </trkpt>
      <trkpt lat="45.76336" lon="3.01015">
        <ele>824.7</ele>
        <time>2017-07-18T15:53:51Z</time>
      </trkpt>
      <trkpt lat="45.76338" lon="3.01017">
        <ele>824.7</ele>
        <time>2017-07-18T15:53:51Z</time>
      </trkpt>
      <trkpt lat="45.7634" lon="3.0102">
        <ele>824.6</ele>
        <time>2017-07-18T15:53:51Z</time>
      </trkpt>
      <trkpt lat="45.76342" lon="3.01023">
        <ele>824.6</ele>
        <time>2017-07-18T15:53:51Z</time>
      </trkpt>
      <trkpt lat="45.76344" lon="3.01025">
        <ele>824.6</ele>
        <time>2017-07-18T15:53:51Z</time>
      </trkpt>
      <trkpt lat="45.76346" lon="3.01028">
        <ele>824.6</ele>
        <time>2017-07-18T15:53:51Z</time>
      </trkpt>
      <trkpt lat="45.76348" lon="3.0103">
        <ele>824.5</ele>
        <time>2017-07-18T15:53:51Z</time>
      </trkpt>
      <trkpt lat="45.7635" lon="3.01032">
        <ele>824.4</ele>
        <time>2017-07-18T15:53:51Z</time>
      </trkpt>
      <trkpt lat="45.76352" lon="3.01034">
        <ele>824.4</ele>
        <time>2017-07-18T15:53:51Z</time>
      </trkpt>
      <trkpt lat="45.76354" lon="3.01036">
        <ele>824.3</ele>
        <time>2017-07-18T15:53:51Z</time>
      </trkpt>
      <trkpt lat="45.76356" lon="3.01038">
        <ele>824.2</ele>
        <time>2017-07-18T15:53:51Z</time>
      </trkpt>
      <trkpt lat="45.76358" lon="3.0104">
        <ele>824.1</ele>
        <time>2017-07-18T15:53:51Z</time>
      </trkpt>
      <trkpt lat="45.7636" lon="3.01043">
        <ele>824</ele>
        <time>2017-07-18T15:53:51Z</time>
      </trkpt>
      <trkpt lat="45.76362" lon="3.01046">
        <ele>823.9</ele>
        <time>2017-07-18T15:53:51Z</time>
      </trkpt>
      <trkpt lat="45.76364" lon="3.01048">
        <ele>823.8</ele>
        <time>2017-07-18T15:53:51Z</time>
      </trkpt>
      <trkpt lat="45.76366" lon="3.01051">
        <ele>823.7</ele>
        <time>2017-07-18T15:53:51Z</time>
      </trkpt>
      <trkpt lat="45.76368" lon="3.01055">
        <ele>823.7</ele>
        <time>2017-07-18T15:53:51Z</time>
      </trkpt>
      <trkpt lat="45.7637" lon="3.01057">
        <ele>823.6</ele>
        <time>2017-07-18T15:53:51Z</time>
      </trkpt>
      <trkpt lat="45.76371" lon="3.01059">
        <ele>823.5</ele>
        <time>2017-07-18T15:53:51Z</time>
      </trkpt>
      <trkpt lat="45.76373" lon="3.01061">
        <ele>823.4</ele>
        <time>2017-07-18T15:53:51Z</time>
      </trkpt>
      <trkpt lat="45.76375" lon="3.01064">
        <ele>823.3</ele>
        <time>2017-07-18T15:53:51Z</time>
      </trkpt>
      <trkpt lat="45.76377" lon="3.01067">
        <ele>823.2</ele>
        <time>2017-07-18T15:53:51Z</time>
      </trkpt>
      <trkpt lat="45.76379" lon="3.01069">
        <ele>823.1</ele>
        <time>2017-07-18T15:53:51Z</time>
      </trkpt>
      <trkpt lat="45.7638" lon="3.01072">
        <ele>823</ele>
        <time>2017-07-18T15:53:51Z</time>
      </trkpt>
      <trkpt lat="45.76382" lon="3.01075">
        <ele>822.9</ele>
        <time>2017-07-18T15:53:51Z</time>
      </trkpt>
      <trkpt lat="45.76383" lon="3.0108">
        <ele>822.9</ele>
        <time>2017-07-18T15:53:51Z</time>
      </trkpt>
      <trkpt lat="45.76384" lon="3.01083">
        <ele>822.9</ele>
        <time>2017-07-18T15:53:51Z</time>
      </trkpt>
      <trkpt lat="45.76385" lon="3.01086">
        <ele>822.9</ele>
        <time>2017-07-18T15:53:51Z</time>
      </trkpt>
      <trkpt lat="45.76386" lon="3.01089">
        <ele>823</ele>
        <time>2017-07-18T15:53:51Z</time>
      </trkpt>
      <trkpt lat="45.76387" lon="3.01092">
        <ele>823.2</ele>
        <time>2017-07-18T15:53:51Z</time>
      </trkpt>
      <trkpt lat="45.76389" lon="3.01096">
        <ele>823.3</ele>
        <time>2017-07-18T15:53:51Z</time>
      </trkpt>
      <trkpt lat="45.7639" lon="3.011">
        <ele>823.4</ele>
        <time>2017-07-18T15:53:51Z</time>
      </trkpt>
      <trkpt lat="45.76391" lon="3.01104">
        <ele>823.5</ele>
        <time>2017-07-18T15:53:51Z</time>
      </trkpt>
      <trkpt lat="45.76393" lon="3.01107">
        <ele>823.5</ele>
        <time>2017-07-18T15:53:51Z</time>
      </trkpt>
      <trkpt lat="45.76395" lon="3.01111">
        <ele>823.6</ele>
        <time>2017-07-18T15:53:51Z</time>
      </trkpt>
      <trkpt lat="45.76396" lon="3.01114">
        <ele>823.6</ele>
        <time>2017-07-18T15:53:51Z</time>
      </trkpt>
      <trkpt lat="45.76397" lon="3.01118">
        <ele>823.7</ele>
        <time>2017-07-18T15:53:51Z</time>
      </trkpt>
      <trkpt lat="45.76398" lon="3.01122">
        <ele>823.8</ele>
        <time>2017-07-18T15:53:51Z</time>
      </trkpt>
      <trkpt lat="45.764" lon="3.01127">
        <ele>823.9</ele>
        <time>2017-07-18T15:53:51Z</time>
      </trkpt>
      <trkpt lat="45.76401" lon="3.01129">
        <ele>824</ele>
        <time>2017-07-18T15:53:51Z</time>
      </trkpt>
      <trkpt lat="45.76401" lon="3.01131">
        <ele>824</ele>
        <time>2017-07-18T15:53:51Z</time>
      </trkpt>
      <trkpt lat="45.76402" lon="3.01134">
        <ele>824</ele>
        <time>2017-07-18T15:53:51Z</time>
      </trkpt>
      <trkpt lat="45.76404" lon="3.01137">
        <ele>824.1</ele>
        <time>2017-07-18T15:53:51Z</time>
      </trkpt>
      <trkpt lat="45.76405" lon="3.0114">
        <ele>824.1</ele>
        <time>2017-07-18T15:53:51Z</time>
      </trkpt>
      <trkpt lat="45.76407" lon="3.01144">
        <ele>824.1</ele>
        <time>2017-07-18T15:53:51Z</time>
      </trkpt>
      <trkpt lat="45.76408" lon="3.01146">
        <ele>824.1</ele>
        <time>2017-07-18T15:53:51Z</time>
      </trkpt>
      <trkpt lat="45.76409" lon="3.01149">
        <ele>824.1</ele>
        <time>2017-07-18T15:53:51Z</time>
      </trkpt>
      <trkpt lat="45.76411" lon="3.01153">
        <ele>824</ele>
        <time>2017-07-18T15:53:51Z</time>
      </trkpt>
      <trkpt lat="45.76412" lon="3.01156">
        <ele>824</ele>
        <time>2017-07-18T15:53:51Z</time>
      </trkpt>
      <trkpt lat="45.76414" lon="3.01161">
        <ele>824.1</ele>
        <time>2017-07-18T15:53:51Z</time>
      </trkpt>
      <trkpt lat="45.76415" lon="3.01163">
        <ele>824.1</ele>
        <time>2017-07-18T15:53:51Z</time>
      </trkpt>
      <trkpt lat="45.76416" lon="3.01167">
        <ele>824.1</ele>
        <time>2017-07-18T15:53:51Z</time>
      </trkpt>
      <trkpt lat="45.76417" lon="3.01169">
        <ele>824.2</ele>
        <time>2017-07-18T15:53:51Z</time>
      </trkpt>
      <trkpt lat="45.76419" lon="3.01172">
        <ele>824.2</ele>
        <time>2017-07-18T15:53:51Z</time>
      </trkpt>
      <trkpt lat="45.7642" lon="3.01174">
        <ele>824.2</ele>
        <time>2017-07-18T15:53:51Z</time>
      </trkpt>
      <trkpt lat="45.76421" lon="3.01177">
        <ele>824.3</ele>
        <time>2017-07-18T15:53:51Z</time>
      </trkpt>
      <trkpt lat="45.76422" lon="3.01181">
        <ele>824.5</ele>
        <time>2017-07-18T15:53:51Z</time>
      </trkpt>
      <trkpt lat="45.76424" lon="3.01186">
        <ele>824.7</ele>
        <time>2017-07-18T15:53:51Z</time>
      </trkpt>
      <trkpt lat="45.76426" lon="3.0119">
        <ele>824.7</ele>
        <time>2017-07-18T15:53:51Z</time>
      </trkpt>
      <trkpt lat="45.76428" lon="3.01192">
        <ele>824.7</ele>
        <time>2017-07-18T15:53:51Z</time>
      </trkpt>
      <trkpt lat="45.76429" lon="3.01195">
        <ele>824.7</ele>
        <time>2017-07-18T15:53:51Z</time>
      </trkpt>
      <trkpt lat="45.7643" lon="3.01198">
        <ele>824.7</ele>
        <time>2017-07-18T15:53:51Z</time>
      </trkpt>
      <trkpt lat="45.76432" lon="3.01201">
        <ele>824.7</ele>
        <time>2017-07-18T15:53:51Z</time>
      </trkpt>
      <trkpt lat="45.76434" lon="3.01204">
        <ele>824.7</ele>
        <time>2017-07-18T15:53:51Z</time>
      </trkpt>
      <trkpt lat="45.76435" lon="3.01207">
        <ele>824.7</ele>
        <time>2017-07-18T15:53:51Z</time>
      </trkpt>
      <trkpt lat="45.76436" lon="3.01209">
        <ele>824.7</ele>
        <time>2017-07-18T15:53:51Z</time>
      </trkpt>
      <trkpt lat="45.76438" lon="3.01212">
        <ele>824.6</ele>
        <time>2017-07-18T15:53:51Z</time>
      </trkpt>
      <trkpt lat="45.76439" lon="3.01215">
        <ele>824.6</ele>
        <time>2017-07-18T15:53:51Z</time>
      </trkpt>
      <trkpt lat="45.76441" lon="3.01218">
        <ele>824.5</ele>
        <time>2017-07-18T15:53:51Z</time>
      </trkpt>
      <trkpt lat="45.76442" lon="3.0122">
        <ele>824.6</ele>
        <time>2017-07-18T15:53:51Z</time>
      </trkpt>
      <trkpt lat="45.76443" lon="3.01223">
        <ele>824.6</ele>
        <time>2017-07-18T15:53:51Z</time>
      </trkpt>
      <trkpt lat="45.76444" lon="3.01226">
        <ele>824.6</ele>
        <time>2017-07-18T15:53:51Z</time>
      </trkpt>
      <trkpt lat="45.76446" lon="3.0123">
        <ele>824.5</ele>
        <time>2017-07-18T15:53:51Z</time>
      </trkpt>
      <trkpt lat="45.76447" lon="3.01234">
        <ele>824.6</ele>
        <time>2017-07-18T15:53:51Z</time>
      </trkpt>
      <trkpt lat="45.76448" lon="3.01237">
        <ele>824.6</ele>
        <time>2017-07-18T15:53:51Z</time>
      </trkpt>
      <trkpt lat="45.7645" lon="3.01241">
        <ele>824.6</ele>
        <time>2017-07-18T15:53:51Z</time>
      </trkpt>
      <trkpt lat="45.76451" lon="3.01243">
        <ele>824.6</ele>
        <time>2017-07-18T15:53:51Z</time>
      </trkpt>
      <trkpt lat="45.76452" lon="3.01247">
        <ele>824.6</ele>
        <time>2017-07-18T15:53:51Z</time>
      </trkpt>
      <trkpt lat="45.76453" lon="3.0125">
        <ele>824.6</ele>
        <time>2017-07-18T15:53:51Z</time>
      </trkpt>
      <trkpt lat="45.76454" lon="3.01254">
        <ele>824.5</ele>
        <time>2017-07-18T15:53:51Z</time>
      </trkpt>
      <trkpt lat="45.76456" lon="3.01258">
        <ele>824.4</ele>
        <time>2017-07-18T15:53:51Z</time>
      </trkpt>
      <trkpt lat="45.76457" lon="3.01261">
        <ele>824.3</ele>
        <time>2017-07-18T15:53:51Z</time>
      </trkpt>
      <trkpt lat="45.76458" lon="3.01264">
        <ele>824.3</ele>
        <time>2017-07-18T15:53:51Z</time>
      </trkpt>
      <trkpt lat="45.76459" lon="3.01267">
        <ele>824.2</ele>
        <time>2017-07-18T15:53:51Z</time>
      </trkpt>
      <trkpt lat="45.76461" lon="3.0127">
        <ele>824</ele>
        <time>2017-07-18T15:53:51Z</time>
      </trkpt>
      <trkpt lat="45.76462" lon="3.01274">
        <ele>823.8</ele>
        <time>2017-07-18T15:53:51Z</time>
      </trkpt>
      <trkpt lat="45.76464" lon="3.01277">
        <ele>823.6</ele>
        <time>2017-07-18T15:53:51Z</time>
      </trkpt>
      <trkpt lat="45.76466" lon="3.0128">
        <ele>823.4</ele>
        <time>2017-07-18T15:53:51Z</time>
      </trkpt>
      <trkpt lat="45.76468" lon="3.01283">
        <ele>823.2</ele>
        <time>2017-07-18T15:53:51Z</time>
      </trkpt>
      <trkpt lat="45.76469" lon="3.01285">
        <ele>823</ele>
        <time>2017-07-18T15:53:51Z</time>
      </trkpt>
      <trkpt lat="45.76471" lon="3.01288">
        <ele>822.8</ele>
        <time>2017-07-18T15:53:51Z</time>
      </trkpt>
      <trkpt lat="45.76472" lon="3.0129">
        <ele>822.6</ele>
        <time>2017-07-18T15:53:51Z</time>
      </trkpt>
      <trkpt lat="45.76474" lon="3.01292">
        <ele>822.4</ele>
        <time>2017-07-18T15:53:51Z</time>
      </trkpt>
      <trkpt lat="45.76475" lon="3.01295">
        <ele>822.2</ele>
        <time>2017-07-18T15:53:51Z</time>
      </trkpt>
      <trkpt lat="45.76477" lon="3.01298">
        <ele>822</ele>
        <time>2017-07-18T15:53:51Z</time>
      </trkpt>
      <trkpt lat="45.76478" lon="3.01301">
        <ele>821.8</ele>
        <time>2017-07-18T15:53:51Z</time>
      </trkpt>
      <trkpt lat="45.7648" lon="3.01303">
        <ele>821.6</ele>
        <time>2017-07-18T15:53:51Z</time>
      </trkpt>
      <trkpt lat="45.76481" lon="3.01305">
        <ele>821.5</ele>
        <time>2017-07-18T15:53:51Z</time>
      </trkpt>
      <trkpt lat="45.76483" lon="3.01308">
        <ele>821.3</ele>
        <time>2017-07-18T15:53:51Z</time>
      </trkpt>
      <trkpt lat="45.76484" lon="3.01312">
        <ele>821.1</ele>
        <time>2017-07-18T15:53:51Z</time>
      </trkpt>
      <trkpt lat="45.76486" lon="3.01315">
        <ele>821</ele>
        <time>2017-07-18T15:53:51Z</time>
      </trkpt>
      <trkpt lat="45.76488" lon="3.01318">
        <ele>820.8</ele>
        <time>2017-07-18T15:53:51Z</time>
      </trkpt>
      <trkpt lat="45.76489" lon="3.01321">
        <ele>820.6</ele>
        <time>2017-07-18T15:53:51Z</time>
      </trkpt>
      <trkpt lat="45.7649" lon="3.01324">
        <ele>820.5</ele>
        <time>2017-07-18T15:53:51Z</time>
      </trkpt>
      <trkpt lat="45.76492" lon="3.01328">
        <ele>820.4</ele>
        <time>2017-07-18T15:53:51Z</time>
      </trkpt>
      <trkpt lat="45.76493" lon="3.01331">
        <ele>820.4</ele>
        <time>2017-07-18T15:53:51Z</time>
      </trkpt>
      <trkpt lat="45.76494" lon="3.01335">
        <ele>820.3</ele>
        <time>2017-07-18T15:53:51Z</time>
      </trkpt>
      <trkpt lat="45.76495" lon="3.01339">
        <ele>820.1</ele>
        <time>2017-07-18T15:53:51Z</time>
      </trkpt>
      <trkpt lat="45.76496" lon="3.01342">
        <ele>820</ele>
        <time>2017-07-18T15:53:51Z</time>
      </trkpt>
      <trkpt lat="45.76497" lon="3.01346">
        <ele>819.9</ele>
        <time>2017-07-18T15:53:51Z</time>
      </trkpt>
      <trkpt lat="45.76498" lon="3.01351">
        <ele>819.8</ele>
        <time>2017-07-18T15:53:51Z</time>
      </trkpt>
      <trkpt lat="45.76499" lon="3.01356">
        <ele>819.7</ele>
        <time>2017-07-18T15:53:51Z</time>
      </trkpt>
      <trkpt lat="45.765" lon="3.01359">
        <ele>819.6</ele>
        <time>2017-07-18T15:53:51Z</time>
      </trkpt>
      <trkpt lat="45.76501" lon="3.01362">
        <ele>819.6</ele>
        <time>2017-07-18T15:53:51Z</time>
      </trkpt>
      <trkpt lat="45.76501" lon="3.01365">
        <ele>819.5</ele>
        <time>2017-07-18T15:53:51Z</time>
      </trkpt>
      <trkpt lat="45.76502" lon="3.01368">
        <ele>819.4</ele>
        <time>2017-07-18T15:53:51Z</time>
      </trkpt>
      <trkpt lat="45.76503" lon="3.01371">
        <ele>819.3</ele>
        <time>2017-07-18T15:53:51Z</time>
      </trkpt>
      <trkpt lat="45.76504" lon="3.01374">
        <ele>819.2</ele>
        <time>2017-07-18T15:53:51Z</time>
      </trkpt>
      <trkpt lat="45.76505" lon="3.01378">
        <ele>819.1</ele>
        <time>2017-07-18T15:53:51Z</time>
      </trkpt>
      <trkpt lat="45.76505" lon="3.01382">
        <ele>819</ele>
        <time>2017-07-18T15:53:51Z</time>
      </trkpt>
      <trkpt lat="45.76506" lon="3.01385">
        <ele>818.9</ele>
        <time>2017-07-18T15:53:51Z</time>
      </trkpt>
      <trkpt lat="45.76507" lon="3.01389">
        <ele>818.8</ele>
        <time>2017-07-18T15:53:51Z</time>
      </trkpt>
      <trkpt lat="45.76509" lon="3.01392">
        <ele>818.6</ele>
        <time>2017-07-18T15:53:51Z</time>
      </trkpt>
      <trkpt lat="45.76509" lon="3.01396">
        <ele>818.6</ele>
        <time>2017-07-18T15:53:51Z</time>
      </trkpt>
      <trkpt lat="45.7651" lon="3.014">
        <ele>818.5</ele>
        <time>2017-07-18T15:53:51Z</time>
      </trkpt>
      <trkpt lat="45.7651" lon="3.01403">
        <ele>818.5</ele>
        <time>2017-07-18T15:53:51Z</time>
      </trkpt>
      <trkpt lat="45.76511" lon="3.01406">
        <ele>818.5</ele>
        <time>2017-07-18T15:53:51Z</time>
      </trkpt>
      <trkpt lat="45.76511" lon="3.0141">
        <ele>818.6</ele>
        <time>2017-07-18T15:53:51Z</time>
      </trkpt>
      <trkpt lat="45.76511" lon="3.01414">
        <ele>818.7</ele>
        <time>2017-07-18T15:53:51Z</time>
      </trkpt>
      <trkpt lat="45.76511" lon="3.01417">
        <ele>818.8</ele>
        <time>2017-07-18T15:53:51Z</time>
      </trkpt>
      <trkpt lat="45.76511" lon="3.0142">
        <ele>818.8</ele>
        <time>2017-07-18T15:53:51Z</time>
      </trkpt>
      <trkpt lat="45.7651" lon="3.01424">
        <ele>818.8</ele>
        <time>2017-07-18T15:53:51Z</time>
      </trkpt>
      <trkpt lat="45.7651" lon="3.01427">
        <ele>818.8</ele>
        <time>2017-07-18T15:53:51Z</time>
      </trkpt>
      <trkpt lat="45.76509" lon="3.0143">
        <ele>818.9</ele>
        <time>2017-07-18T15:53:51Z</time>
      </trkpt>
      <trkpt lat="45.76509" lon="3.01434">
        <ele>818.8</ele>
        <time>2017-07-18T15:53:51Z</time>
      </trkpt>
      <trkpt lat="45.76509" lon="3.01437">
        <ele>818.8</ele>
        <time>2017-07-18T15:53:51Z</time>
      </trkpt>
      <trkpt lat="45.76509" lon="3.0144">
        <ele>818.7</ele>
        <time>2017-07-18T15:53:51Z</time>
      </trkpt>
      <trkpt lat="45.7651" lon="3.01443">
        <ele>818.5</ele>
        <time>2017-07-18T15:53:51Z</time>
      </trkpt>
      <trkpt lat="45.7651" lon="3.01447">
        <ele>818.4</ele>
        <time>2017-07-18T15:53:51Z</time>
      </trkpt>
      <trkpt lat="45.7651" lon="3.01451">
        <ele>818.3</ele>
        <time>2017-07-18T15:53:51Z</time>
      </trkpt>
      <trkpt lat="45.7651" lon="3.01454">
        <ele>818.2</ele>
        <time>2017-07-18T15:53:51Z</time>
      </trkpt>
      <trkpt lat="45.7651" lon="3.01457">
        <ele>818.2</ele>
        <time>2017-07-18T15:53:51Z</time>
      </trkpt>
      <trkpt lat="45.7651" lon="3.01461">
        <ele>818.2</ele>
        <time>2017-07-18T15:53:51Z</time>
      </trkpt>
      <trkpt lat="45.7651" lon="3.01464">
        <ele>818.1</ele>
        <time>2017-07-18T15:53:51Z</time>
      </trkpt>
      <trkpt lat="45.7651" lon="3.01468">
        <ele>818.1</ele>
        <time>2017-07-18T15:53:51Z</time>
      </trkpt>
      <trkpt lat="45.76509" lon="3.0147">
        <ele>818.1</ele>
        <time>2017-07-18T15:53:51Z</time>
      </trkpt>
      <trkpt lat="45.76509" lon="3.01473">
        <ele>818.1</ele>
        <time>2017-07-18T15:53:51Z</time>
      </trkpt>
      <trkpt lat="45.76509" lon="3.01476">
        <ele>818.1</ele>
        <time>2017-07-18T15:53:51Z</time>
      </trkpt>
      <trkpt lat="45.76508" lon="3.01479">
        <ele>818.1</ele>
        <time>2017-07-18T15:53:51Z</time>
      </trkpt>
      <trkpt lat="45.76507" lon="3.01481">
        <ele>818.2</ele>
        <time>2017-07-18T15:53:51Z</time>
      </trkpt>
      <trkpt lat="45.76507" lon="3.01482">
        <ele>818.2</ele>
        <time>2017-07-18T15:53:51Z</time>
      </trkpt>
      <trkpt lat="45.76507" lon="3.01483">
        <ele>818.2</ele>
        <time>2017-07-18T15:53:51Z</time>
      </trkpt>
      <trkpt lat="45.76507" lon="3.01483">
        <ele>818.2</ele>
        <time>2017-07-18T15:53:51Z</time>
      </trkpt>
      <trkpt lat="45.76507" lon="3.01483">
        <ele>818.2</ele>
        <time>2017-07-18T15:53:51Z</time>
      </trkpt>
      <trkpt lat="45.76507" lon="3.01483">
        <ele>818.2</ele>
        <time>2017-07-18T15:53:51Z</time>
      </trkpt>
      <trkpt lat="45.76507" lon="3.01483">
        <ele>818.2</ele>
        <time>2017-07-18T15:53:51Z</time>
      </trkpt>
      <trkpt lat="45.76507" lon="3.01483">
        <ele>818.2</ele>
        <time>2017-07-18T15:53:51Z</time>
      </trkpt>
      <trkpt lat="45.76507" lon="3.01489">
        <ele>818.1</ele>
        <time>2017-07-18T15:53:51Z</time>
      </trkpt>
      <trkpt lat="45.76506" lon="3.01494">
        <ele>818.2</ele>
        <time>2017-07-18T15:53:51Z</time>
      </trkpt>
      <trkpt lat="45.76505" lon="3.01496">
        <ele>818.2</ele>
        <time>2017-07-18T15:53:51Z</time>
      </trkpt>
      <trkpt lat="45.76505" lon="3.01499">
        <ele>818.2</ele>
        <time>2017-07-18T15:53:51Z</time>
      </trkpt>
      <trkpt lat="45.76505" lon="3.01502">
        <ele>818.2</ele>
        <time>2017-07-18T15:53:51Z</time>
      </trkpt>
      <trkpt lat="45.76505" lon="3.01505">
        <ele>818.2</ele>
        <time>2017-07-18T15:53:51Z</time>
      </trkpt>
      <trkpt lat="45.76504" lon="3.01508">
        <ele>818.1</ele>
        <time>2017-07-18T15:53:51Z</time>
      </trkpt>
      <trkpt lat="45.76504" lon="3.01511">
        <ele>818.1</ele>
        <time>2017-07-18T15:53:51Z</time>
      </trkpt>
      <trkpt lat="45.76504" lon="3.01514">
        <ele>818</ele>
        <time>2017-07-18T15:53:51Z</time>
      </trkpt>
      <trkpt lat="45.76505" lon="3.01517">
        <ele>817.9</ele>
        <time>2017-07-18T15:53:51Z</time>
      </trkpt>
      <trkpt lat="45.76505" lon="3.0152">
        <ele>817.8</ele>
        <time>2017-07-18T15:53:51Z</time>
      </trkpt>
      <trkpt lat="45.76505" lon="3.01522">
        <ele>817.7</ele>
        <time>2017-07-18T15:53:51Z</time>
      </trkpt>
      <trkpt lat="45.76506" lon="3.01525">
        <ele>817.6</ele>
        <time>2017-07-18T15:53:51Z</time>
      </trkpt>
      <trkpt lat="45.76506" lon="3.01528">
        <ele>817.5</ele>
        <time>2017-07-18T15:53:51Z</time>
      </trkpt>
      <trkpt lat="45.76506" lon="3.01531">
        <ele>817.4</ele>
        <time>2017-07-18T15:53:51Z</time>
      </trkpt>
      <trkpt lat="45.76506" lon="3.01533">
        <ele>817.3</ele>
        <time>2017-07-18T15:53:51Z</time>
      </trkpt>
      <trkpt lat="45.76507" lon="3.01536">
        <ele>817.2</ele>
        <time>2017-07-18T15:53:51Z</time>
      </trkpt>
      <trkpt lat="45.76507" lon="3.01539">
        <ele>817.1</ele>
        <time>2017-07-18T15:53:51Z</time>
      </trkpt>
      <trkpt lat="45.76507" lon="3.01539">
        <ele>817.1</ele>
        <time>2017-07-18T15:53:51Z</time>
      </trkpt>
      <trkpt lat="45.76507" lon="3.01539">
        <ele>817.1</ele>
        <time>2017-07-18T15:53:51Z</time>
      </trkpt>
      <trkpt lat="45.76509" lon="3.01545">
        <ele>816.7</ele>
        <time>2017-07-18T15:53:51Z</time>
      </trkpt>
      <trkpt lat="45.7651" lon="3.01548">
        <ele>816.6</ele>
        <time>2017-07-18T15:53:51Z</time>
      </trkpt>
      <trkpt lat="45.76511" lon="3.01551">
        <ele>816.4</ele>
        <time>2017-07-18T15:53:51Z</time>
      </trkpt>
      <trkpt lat="45.76512" lon="3.01554">
        <ele>816.3</ele>
        <time>2017-07-18T15:53:51Z</time>
      </trkpt>
      <trkpt lat="45.76512" lon="3.01556">
        <ele>816.1</ele>
        <time>2017-07-18T15:53:51Z</time>
      </trkpt>
      <trkpt lat="45.76513" lon="3.01559">
        <ele>816</ele>
        <time>2017-07-18T15:53:51Z</time>
      </trkpt>
      <trkpt lat="45.76514" lon="3.01563">
        <ele>815.8</ele>
        <time>2017-07-18T15:53:51Z</time>
      </trkpt>
      <trkpt lat="45.76515" lon="3.01566">
        <ele>815.7</ele>
        <time>2017-07-18T15:53:51Z</time>
      </trkpt>
      <trkpt lat="45.76515" lon="3.0157">
        <ele>815.6</ele>
        <time>2017-07-18T15:53:51Z</time>
      </trkpt>
      <trkpt lat="45.76515" lon="3.01573">
        <ele>815.5</ele>
        <time>2017-07-18T15:53:51Z</time>
      </trkpt>
      <trkpt lat="45.76516" lon="3.01577">
        <ele>815.4</ele>
        <time>2017-07-18T15:53:51Z</time>
      </trkpt>
      <trkpt lat="45.76516" lon="3.01581">
        <ele>815.3</ele>
        <time>2017-07-18T15:53:51Z</time>
      </trkpt>
      <trkpt lat="45.76517" lon="3.01584">
        <ele>815.2</ele>
        <time>2017-07-18T15:53:51Z</time>
      </trkpt>
      <trkpt lat="45.76517" lon="3.01588">
        <ele>815.1</ele>
        <time>2017-07-18T15:53:51Z</time>
      </trkpt>
      <trkpt lat="45.76518" lon="3.01591">
        <ele>815.1</ele>
        <time>2017-07-18T15:53:51Z</time>
      </trkpt>
      <trkpt lat="45.76518" lon="3.01595">
        <ele>815.1</ele>
        <time>2017-07-18T15:53:51Z</time>
      </trkpt>
      <trkpt lat="45.76519" lon="3.01598">
        <ele>815.1</ele>
        <time>2017-07-18T15:53:51Z</time>
      </trkpt>
      <trkpt lat="45.76519" lon="3.01602">
        <ele>815</ele>
        <time>2017-07-18T15:53:51Z</time>
      </trkpt>
      <trkpt lat="45.7652" lon="3.01606">
        <ele>815</ele>
        <time>2017-07-18T15:53:51Z</time>
      </trkpt>
      <trkpt lat="45.76521" lon="3.0161">
        <ele>814.9</ele>
        <time>2017-07-18T15:53:51Z</time>
      </trkpt>
      <trkpt lat="45.76521" lon="3.01613">
        <ele>814.9</ele>
        <time>2017-07-18T15:53:51Z</time>
      </trkpt>
      <trkpt lat="45.76521" lon="3.01618">
        <ele>814.9</ele>
        <time>2017-07-18T15:53:51Z</time>
      </trkpt>
      <trkpt lat="45.76522" lon="3.01622">
        <ele>814.9</ele>
        <time>2017-07-18T15:53:51Z</time>
      </trkpt>
      <trkpt lat="45.76522" lon="3.01626">
        <ele>814.9</ele>
        <time>2017-07-18T15:53:51Z</time>
      </trkpt>
      <trkpt lat="45.76522" lon="3.0163">
        <ele>814.9</ele>
        <time>2017-07-18T15:53:51Z</time>
      </trkpt>
      <trkpt lat="45.76522" lon="3.01634">
        <ele>814.9</ele>
        <time>2017-07-18T15:53:51Z</time>
      </trkpt>
      <trkpt lat="45.76522" lon="3.01638">
        <ele>814.9</ele>
        <time>2017-07-18T15:53:51Z</time>
      </trkpt>
      <trkpt lat="45.76523" lon="3.01641">
        <ele>814.9</ele>
        <time>2017-07-18T15:53:51Z</time>
      </trkpt>
      <trkpt lat="45.76523" lon="3.01646">
        <ele>814.9</ele>
        <time>2017-07-18T15:53:51Z</time>
      </trkpt>
      <trkpt lat="45.76524" lon="3.0165">
        <ele>814.9</ele>
        <time>2017-07-18T15:53:51Z</time>
      </trkpt>
      <trkpt lat="45.76524" lon="3.01654">
        <ele>814.9</ele>
        <time>2017-07-18T15:53:51Z</time>
      </trkpt>
      <trkpt lat="45.76525" lon="3.01658">
        <ele>814.9</ele>
        <time>2017-07-18T15:53:51Z</time>
      </trkpt>
      <trkpt lat="45.76525" lon="3.01661">
        <ele>814.9</ele>
        <time>2017-07-18T15:53:51Z</time>
      </trkpt>
      <trkpt lat="45.76525" lon="3.01664">
        <ele>814.9</ele>
        <time>2017-07-18T15:53:51Z</time>
      </trkpt>
      <trkpt lat="45.76525" lon="3.01668">
        <ele>814.8</ele>
        <time>2017-07-18T15:53:51Z</time>
      </trkpt>
      <trkpt lat="45.76525" lon="3.01671">
        <ele>814.7</ele>
        <time>2017-07-18T15:53:51Z</time>
      </trkpt>
      <trkpt lat="45.76525" lon="3.01675">
        <ele>814.6</ele>
        <time>2017-07-18T15:53:51Z</time>
      </trkpt>
      <trkpt lat="45.76525" lon="3.01679">
        <ele>814.4</ele>
        <time>2017-07-18T15:53:51Z</time>
      </trkpt>
      <trkpt lat="45.76525" lon="3.01683">
        <ele>814.3</ele>
        <time>2017-07-18T15:53:51Z</time>
      </trkpt>
      <trkpt lat="45.76525" lon="3.01686">
        <ele>814.2</ele>
        <time>2017-07-18T15:53:51Z</time>
      </trkpt>
      <trkpt lat="45.76524" lon="3.01689">
        <ele>814.2</ele>
        <time>2017-07-18T15:53:51Z</time>
      </trkpt>
      <trkpt lat="45.76523" lon="3.01692">
        <ele>814.1</ele>
        <time>2017-07-18T15:53:51Z</time>
      </trkpt>
      <trkpt lat="45.76522" lon="3.01695">
        <ele>814.1</ele>
        <time>2017-07-18T15:53:51Z</time>
      </trkpt>
      <trkpt lat="45.76521" lon="3.01698">
        <ele>814</ele>
        <time>2017-07-18T15:53:51Z</time>
      </trkpt>
      <trkpt lat="45.76519" lon="3.01701">
        <ele>814</ele>
        <time>2017-07-18T15:53:51Z</time>
      </trkpt>
      <trkpt lat="45.76517" lon="3.01704">
        <ele>814</ele>
        <time>2017-07-18T15:53:51Z</time>
      </trkpt>
      <trkpt lat="45.76516" lon="3.01707">
        <ele>814</ele>
        <time>2017-07-18T15:53:51Z</time>
      </trkpt>
      <trkpt lat="45.76513" lon="3.01708">
        <ele>814.1</ele>
        <time>2017-07-18T15:53:51Z</time>
      </trkpt>
      <trkpt lat="45.76511" lon="3.0171">
        <ele>814.2</ele>
        <time>2017-07-18T15:53:51Z</time>
      </trkpt>
      <trkpt lat="45.7651" lon="3.01712">
        <ele>814.2</ele>
        <time>2017-07-18T15:53:51Z</time>
      </trkpt>
      <trkpt lat="45.76508" lon="3.01713">
        <ele>814.2</ele>
        <time>2017-07-18T15:53:51Z</time>
      </trkpt>
      <trkpt lat="45.76506" lon="3.01715">
        <ele>814.3</ele>
        <time>2017-07-18T15:53:51Z</time>
      </trkpt>
      <trkpt lat="45.76505" lon="3.01716">
        <ele>814.3</ele>
        <time>2017-07-18T15:53:51Z</time>
      </trkpt>
      <trkpt lat="45.76503" lon="3.01718">
        <ele>814.4</ele>
        <time>2017-07-18T15:53:51Z</time>
      </trkpt>
      <trkpt lat="45.76501" lon="3.0172">
        <ele>814.4</ele>
        <time>2017-07-18T15:53:51Z</time>
      </trkpt>
      <trkpt lat="45.76499" lon="3.01721">
        <ele>814.4</ele>
        <time>2017-07-18T15:53:51Z</time>
      </trkpt>
      <trkpt lat="45.76497" lon="3.01722">
        <ele>814.4</ele>
        <time>2017-07-18T15:53:51Z</time>
      </trkpt>
      <trkpt lat="45.76495" lon="3.01722">
        <ele>814.4</ele>
        <time>2017-07-18T15:53:51Z</time>
      </trkpt>
      <trkpt lat="45.76493" lon="3.01723">
        <ele>814.5</ele>
        <time>2017-07-18T15:53:51Z</time>
      </trkpt>
      <trkpt lat="45.7649" lon="3.01723">
        <ele>814.5</ele>
        <time>2017-07-18T15:53:51Z</time>
      </trkpt>
      <trkpt lat="45.76488" lon="3.01724">
        <ele>814.4</ele>
        <time>2017-07-18T15:53:51Z</time>
      </trkpt>
      <trkpt lat="45.76486" lon="3.01725">
        <ele>814.4</ele>
        <time>2017-07-18T15:53:51Z</time>
      </trkpt>
      <trkpt lat="45.76484" lon="3.01725">
        <ele>814.5</ele>
        <time>2017-07-18T15:53:51Z</time>
      </trkpt>
      <trkpt lat="45.76481" lon="3.01725">
        <ele>814.5</ele>
        <time>2017-07-18T15:53:51Z</time>
      </trkpt>
      <trkpt lat="45.7648" lon="3.01727">
        <ele>814.4</ele>
        <time>2017-07-18T15:53:51Z</time>
      </trkpt>
      <trkpt lat="45.76479" lon="3.0173">
        <ele>814.3</ele>
        <time>2017-07-18T15:53:51Z</time>
      </trkpt>
      <trkpt lat="45.76478" lon="3.01732">
        <ele>814.2</ele>
        <time>2017-07-18T15:53:51Z</time>
      </trkpt>
      <trkpt lat="45.76477" lon="3.01735">
        <ele>814</ele>
        <time>2017-07-18T15:53:51Z</time>
      </trkpt>
      <trkpt lat="45.76477" lon="3.01738">
        <ele>813.8</ele>
        <time>2017-07-18T15:53:51Z</time>
      </trkpt>
      <trkpt lat="45.76477" lon="3.01741">
        <ele>813.6</ele>
        <time>2017-07-18T15:53:51Z</time>
      </trkpt>
      <trkpt lat="45.76477" lon="3.01745">
        <ele>813.3</ele>
        <time>2017-07-18T15:53:51Z</time>
      </trkpt>
      <trkpt lat="45.76478" lon="3.01748">
        <ele>813.1</ele>
        <time>2017-07-18T15:53:51Z</time>
      </trkpt>
      <trkpt lat="45.76479" lon="3.01751">
        <ele>812.9</ele>
        <time>2017-07-18T15:53:51Z</time>
      </trkpt>
      <trkpt lat="45.76479" lon="3.01754">
        <ele>812.6</ele>
        <time>2017-07-18T15:53:51Z</time>
      </trkpt>
      <trkpt lat="45.7648" lon="3.01756">
        <ele>812.4</ele>
        <time>2017-07-18T15:53:51Z</time>
      </trkpt>
      <trkpt lat="45.7648" lon="3.01759">
        <ele>812.1</ele>
        <time>2017-07-18T15:53:51Z</time>
      </trkpt>
      <trkpt lat="45.76481" lon="3.01762">
        <ele>811.8</ele>
        <time>2017-07-18T15:53:51Z</time>
      </trkpt>
      <trkpt lat="45.76483" lon="3.01765">
        <ele>811.5</ele>
        <time>2017-07-18T15:53:51Z</time>
      </trkpt>
      <trkpt lat="45.76484" lon="3.01769">
        <ele>811.2</ele>
        <time>2017-07-18T15:53:51Z</time>
      </trkpt>
      <trkpt lat="45.76485" lon="3.01771">
        <ele>811</ele>
        <time>2017-07-18T15:53:51Z</time>
      </trkpt>
      <trkpt lat="45.76486" lon="3.01774">
        <ele>810.8</ele>
        <time>2017-07-18T15:53:51Z</time>
      </trkpt>
      <trkpt lat="45.76488" lon="3.01776">
        <ele>810.6</ele>
        <time>2017-07-18T15:53:51Z</time>
      </trkpt>
      <trkpt lat="45.76491" lon="3.01778">
        <ele>810.4</ele>
        <time>2017-07-18T15:53:51Z</time>
      </trkpt>
      <trkpt lat="45.76493" lon="3.01781">
        <ele>810.3</ele>
        <time>2017-07-18T15:53:51Z</time>
      </trkpt>
      <trkpt lat="45.76495" lon="3.01783">
        <ele>810.1</ele>
        <time>2017-07-18T15:53:51Z</time>
      </trkpt>
      <trkpt lat="45.76497" lon="3.01785">
        <ele>810</ele>
        <time>2017-07-18T15:53:51Z</time>
      </trkpt>
      <trkpt lat="45.76499" lon="3.01787">
        <ele>809.8</ele>
        <time>2017-07-18T15:53:51Z</time>
      </trkpt>
      <trkpt lat="45.76502" lon="3.01789">
        <ele>809.7</ele>
        <time>2017-07-18T15:53:51Z</time>
      </trkpt>
      <trkpt lat="45.76504" lon="3.0179">
        <ele>809.5</ele>
        <time>2017-07-18T15:53:51Z</time>
      </trkpt>
      <trkpt lat="45.76506" lon="3.01792">
        <ele>809.3</ele>
        <time>2017-07-18T15:53:51Z</time>
      </trkpt>
      <trkpt lat="45.76509" lon="3.01794">
        <ele>809.1</ele>
        <time>2017-07-18T15:53:51Z</time>
      </trkpt>
      <trkpt lat="45.76511" lon="3.01795">
        <ele>809</ele>
        <time>2017-07-18T15:53:51Z</time>
      </trkpt>
      <trkpt lat="45.76514" lon="3.01795">
        <ele>808.9</ele>
        <time>2017-07-18T15:53:51Z</time>
      </trkpt>
      <trkpt lat="45.76516" lon="3.01797">
        <ele>808.7</ele>
        <time>2017-07-18T15:53:51Z</time>
      </trkpt>
      <trkpt lat="45.76519" lon="3.01798">
        <ele>808.6</ele>
        <time>2017-07-18T15:53:51Z</time>
      </trkpt>
      <trkpt lat="45.76522" lon="3.01798">
        <ele>808.5</ele>
        <time>2017-07-18T15:53:51Z</time>
      </trkpt>
      <trkpt lat="45.76524" lon="3.018">
        <ele>808.4</ele>
        <time>2017-07-18T15:53:51Z</time>
      </trkpt>
      <trkpt lat="45.76526" lon="3.01801">
        <ele>808.3</ele>
        <time>2017-07-18T15:53:51Z</time>
      </trkpt>
      <trkpt lat="45.76527" lon="3.01801">
        <ele>808.2</ele>
        <time>2017-07-18T15:53:51Z</time>
      </trkpt>
      <trkpt lat="45.76529" lon="3.01801">
        <ele>808.1</ele>
        <time>2017-07-18T15:53:51Z</time>
      </trkpt>
      <trkpt lat="45.76531" lon="3.01802">
        <ele>808.1</ele>
        <time>2017-07-18T15:53:51Z</time>
      </trkpt>
      <trkpt lat="45.76534" lon="3.01803">
        <ele>808</ele>
        <time>2017-07-18T15:53:51Z</time>
      </trkpt>
      <trkpt lat="45.76536" lon="3.01803">
        <ele>807.9</ele>
        <time>2017-07-18T15:53:51Z</time>
      </trkpt>
      <trkpt lat="45.76539" lon="3.01803">
        <ele>807.9</ele>
        <time>2017-07-18T15:53:51Z</time>
      </trkpt>
      <trkpt lat="45.76541" lon="3.01803">
        <ele>807.8</ele>
        <time>2017-07-18T15:53:51Z</time>
      </trkpt>
      <trkpt lat="45.76545" lon="3.01802">
        <ele>807.8</ele>
        <time>2017-07-18T15:53:51Z</time>
      </trkpt>
      <trkpt lat="45.76548" lon="3.01801">
        <ele>807.8</ele>
        <time>2017-07-18T15:53:51Z</time>
      </trkpt>
      <trkpt lat="45.76551" lon="3.01801">
        <ele>807.8</ele>
        <time>2017-07-18T15:53:51Z</time>
      </trkpt>
      <trkpt lat="45.76554" lon="3.018">
        <ele>807.8</ele>
        <time>2017-07-18T15:53:51Z</time>
      </trkpt>
      <trkpt lat="45.76555" lon="3.018">
        <ele>807.8</ele>
        <time>2017-07-18T15:53:51Z</time>
      </trkpt>
      <trkpt lat="45.76558" lon="3.01799">
        <ele>807.7</ele>
        <time>2017-07-18T15:53:51Z</time>
      </trkpt>
      <trkpt lat="45.76561" lon="3.01799">
        <ele>807.7</ele>
        <time>2017-07-18T15:53:51Z</time>
      </trkpt>
      <trkpt lat="45.76564" lon="3.01799">
        <ele>807.6</ele>
        <time>2017-07-18T15:53:51Z</time>
      </trkpt>
      <trkpt lat="45.76567" lon="3.01798">
        <ele>807.6</ele>
        <time>2017-07-18T15:53:51Z</time>
      </trkpt>
      <trkpt lat="45.7657" lon="3.01797">
        <ele>807.6</ele>
        <time>2017-07-18T15:53:51Z</time>
      </trkpt>
      <trkpt lat="45.76572" lon="3.01795">
        <ele>807.6</ele>
        <time>2017-07-18T15:53:51Z</time>
      </trkpt>
      <trkpt lat="45.76575" lon="3.01794">
        <ele>807.6</ele>
        <time>2017-07-18T15:53:51Z</time>
      </trkpt>
      <trkpt lat="45.76579" lon="3.01794">
        <ele>807.5</ele>
        <time>2017-07-18T15:53:51Z</time>
      </trkpt>
      <trkpt lat="45.7658" lon="3.01793">
        <ele>807.5</ele>
        <time>2017-07-18T15:53:51Z</time>
      </trkpt>
      <trkpt lat="45.76583" lon="3.01791">
        <ele>807.5</ele>
        <time>2017-07-18T15:53:51Z</time>
      </trkpt>
      <trkpt lat="45.76584" lon="3.01789">
        <ele>807.5</ele>
        <time>2017-07-18T15:53:51Z</time>
      </trkpt>
      <trkpt lat="45.76586" lon="3.01787">
        <ele>806.9</ele>
        <time>2017-07-18T15:53:51Z</time>
      </trkpt>
      <trkpt lat="45.76588" lon="3.01786">
        <ele>806.1</ele>
        <time>2017-07-18T15:53:51Z</time>
      </trkpt>
      <trkpt lat="45.76587" lon="3.01785">
        <ele>806.3</ele>
        <time>2017-07-18T15:53:51Z</time>
      </trkpt>
      <trkpt lat="45.76588" lon="3.01783">
        <ele>806.1</ele>
        <time>2017-07-18T15:53:51Z</time>
      </trkpt>
      <trkpt lat="45.7659" lon="3.0178">
        <ele>805.5</ele>
        <time>2017-07-18T15:53:51Z</time>
      </trkpt>
      <trkpt lat="45.76592" lon="3.01777">
        <ele>804.8</ele>
        <time>2017-07-18T15:53:51Z</time>
      </trkpt>
      <trkpt lat="45.76594" lon="3.01774">
        <ele>804.3</ele>
        <time>2017-07-18T15:53:51Z</time>
      </trkpt>
      <trkpt lat="45.76596" lon="3.01771">
        <ele>803.9</ele>
        <time>2017-07-18T15:53:51Z</time>
      </trkpt>
      <trkpt lat="45.76597" lon="3.01767">
        <ele>803.5</ele>
        <time>2017-07-18T15:53:51Z</time>
      </trkpt>
      <trkpt lat="45.76599" lon="3.01764">
        <ele>803.2</ele>
        <time>2017-07-18T15:53:51Z</time>
      </trkpt>
      <trkpt lat="45.76599" lon="3.01761">
        <ele>803</ele>
        <time>2017-07-18T15:53:51Z</time>
      </trkpt>
      <trkpt lat="45.76601" lon="3.01758">
        <ele>802.7</ele>
        <time>2017-07-18T15:53:51Z</time>
      </trkpt>
      <trkpt lat="45.76601" lon="3.01755">
        <ele>802.5</ele>
        <time>2017-07-18T15:53:51Z</time>
      </trkpt>
      <trkpt lat="45.76602" lon="3.01752">
        <ele>802.4</ele>
        <time>2017-07-18T15:53:51Z</time>
      </trkpt>
      <trkpt lat="45.76603" lon="3.01748">
        <ele>802.2</ele>
        <time>2017-07-18T15:53:51Z</time>
      </trkpt>
      <trkpt lat="45.76604" lon="3.01745">
        <ele>802.1</ele>
        <time>2017-07-18T15:53:51Z</time>
      </trkpt>
      <trkpt lat="45.76605" lon="3.01742">
        <ele>801.7</ele>
        <time>2017-07-18T15:53:51Z</time>
      </trkpt>
      <trkpt lat="45.76606" lon="3.01739">
        <ele>801.5</ele>
        <time>2017-07-18T15:53:51Z</time>
      </trkpt>
      <trkpt lat="45.76607" lon="3.01736">
        <ele>801.3</ele>
        <time>2017-07-18T15:53:51Z</time>
      </trkpt>
      <trkpt lat="45.76608" lon="3.01734">
        <ele>801.1</ele>
        <time>2017-07-18T15:53:51Z</time>
      </trkpt>
      <trkpt lat="45.76609" lon="3.01731">
        <ele>800.8</ele>
        <time>2017-07-18T15:53:51Z</time>
      </trkpt>
      <trkpt lat="45.7661" lon="3.01729">
        <ele>800.6</ele>
        <time>2017-07-18T15:53:51Z</time>
      </trkpt>
      <trkpt lat="45.76611" lon="3.01727">
        <ele>800.4</ele>
        <time>2017-07-18T15:53:51Z</time>
      </trkpt>
      <trkpt lat="45.76612" lon="3.01723">
        <ele>800.2</ele>
        <time>2017-07-18T15:53:51Z</time>
      </trkpt>
      <trkpt lat="45.76614" lon="3.0172">
        <ele>800</ele>
        <time>2017-07-18T15:53:51Z</time>
      </trkpt>
      <trkpt lat="45.76615" lon="3.01716">
        <ele>799.9</ele>
        <time>2017-07-18T15:53:51Z</time>
      </trkpt>
      <trkpt lat="45.76615" lon="3.01713">
        <ele>799.9</ele>
        <time>2017-07-18T15:53:51Z</time>
      </trkpt>
      <trkpt lat="45.76616" lon="3.01709">
        <ele>799.9</ele>
        <time>2017-07-18T15:53:51Z</time>
      </trkpt>
      <trkpt lat="45.76616" lon="3.01705">
        <ele>800.1</ele>
        <time>2017-07-18T15:53:51Z</time>
      </trkpt>
      <trkpt lat="45.76618" lon="3.01702">
        <ele>799.8</ele>
        <time>2017-07-18T15:53:51Z</time>
      </trkpt>
      <trkpt lat="45.76619" lon="3.01699">
        <ele>799.7</ele>
        <time>2017-07-18T15:53:51Z</time>
      </trkpt>
      <trkpt lat="45.7662" lon="3.01696">
        <ele>799.6</ele>
        <time>2017-07-18T15:53:51Z</time>
      </trkpt>
      <trkpt lat="45.76621" lon="3.01692">
        <ele>799.4</ele>
        <time>2017-07-18T15:53:51Z</time>
      </trkpt>
      <trkpt lat="45.76623" lon="3.01689">
        <ele>799.2</ele>
        <time>2017-07-18T15:53:51Z</time>
      </trkpt>
      <trkpt lat="45.76624" lon="3.01685">
        <ele>799</ele>
        <time>2017-07-18T15:53:51Z</time>
      </trkpt>
      <trkpt lat="45.76626" lon="3.01681">
        <ele>798.8</ele>
        <time>2017-07-18T15:53:51Z</time>
      </trkpt>
      <trkpt lat="45.76628" lon="3.01677">
        <ele>798.7</ele>
        <time>2017-07-18T15:53:51Z</time>
      </trkpt>
      <trkpt lat="45.76629" lon="3.01674">
        <ele>798.5</ele>
        <time>2017-07-18T15:53:51Z</time>
      </trkpt>
      <trkpt lat="45.76631" lon="3.01671">
        <ele>798.4</ele>
        <time>2017-07-18T15:53:51Z</time>
      </trkpt>
      <trkpt lat="45.76632" lon="3.01668">
        <ele>798.1</ele>
        <time>2017-07-18T15:53:51Z</time>
      </trkpt>
      <trkpt lat="45.76634" lon="3.01665">
        <ele>797.9</ele>
        <time>2017-07-18T15:53:51Z</time>
      </trkpt>
      <trkpt lat="45.76636" lon="3.01662">
        <ele>797.5</ele>
        <time>2017-07-18T15:53:51Z</time>
      </trkpt>
      <trkpt lat="45.76638" lon="3.01658">
        <ele>797.2</ele>
        <time>2017-07-18T15:53:51Z</time>
      </trkpt>
      <trkpt lat="45.7664" lon="3.01656">
        <ele>796.9</ele>
        <time>2017-07-18T15:53:51Z</time>
      </trkpt>
      <trkpt lat="45.76641" lon="3.01654">
        <ele>796.7</ele>
        <time>2017-07-18T15:53:51Z</time>
      </trkpt>
      <trkpt lat="45.76643" lon="3.01652">
        <ele>796.4</ele>
        <time>2017-07-18T15:53:51Z</time>
      </trkpt>
      <trkpt lat="45.76645" lon="3.01651">
        <ele>796</ele>
        <time>2017-07-18T15:53:51Z</time>
      </trkpt>
      <trkpt lat="45.76647" lon="3.01649">
        <ele>795.7</ele>
        <time>2017-07-18T15:53:51Z</time>
      </trkpt>
      <trkpt lat="45.76649" lon="3.01647">
        <ele>795.3</ele>
        <time>2017-07-18T15:53:51Z</time>
      </trkpt>
      <trkpt lat="45.76651" lon="3.01646">
        <ele>794.9</ele>
        <time>2017-07-18T15:53:51Z</time>
      </trkpt>
      <trkpt lat="45.76653" lon="3.01644">
        <ele>794.5</ele>
        <time>2017-07-18T15:53:51Z</time>
      </trkpt>
      <trkpt lat="45.76656" lon="3.01643">
        <ele>794</ele>
        <time>2017-07-18T15:53:51Z</time>
      </trkpt>
      <trkpt lat="45.76658" lon="3.01642">
        <ele>793.6</ele>
        <time>2017-07-18T15:53:51Z</time>
      </trkpt>
      <trkpt lat="45.7666" lon="3.01641">
        <ele>793.2</ele>
        <time>2017-07-18T15:53:51Z</time>
      </trkpt>
      <trkpt lat="45.76663" lon="3.0164">
        <ele>792.7</ele>
        <time>2017-07-18T15:53:51Z</time>
      </trkpt>
      <trkpt lat="45.76665" lon="3.0164">
        <ele>792.3</ele>
        <time>2017-07-18T15:53:51Z</time>
      </trkpt>
      <trkpt lat="45.76667" lon="3.01639">
        <ele>791.9</ele>
        <time>2017-07-18T15:53:51Z</time>
      </trkpt>
      <trkpt lat="45.7667" lon="3.01639">
        <ele>791.2</ele>
        <time>2017-07-18T15:53:51Z</time>
      </trkpt>
      <trkpt lat="45.76672" lon="3.01638">
        <ele>790.6</ele>
        <time>2017-07-18T15:53:51Z</time>
      </trkpt>
      <trkpt lat="45.76674" lon="3.01637">
        <ele>790.1</ele>
        <time>2017-07-18T15:53:51Z</time>
      </trkpt>
      <trkpt lat="45.76676" lon="3.01636">
        <ele>789.5</ele>
        <time>2017-07-18T15:53:51Z</time>
      </trkpt>
      <trkpt lat="45.76679" lon="3.01635">
        <ele>788.9</ele>
        <time>2017-07-18T15:53:51Z</time>
      </trkpt>
      <trkpt lat="45.76681" lon="3.01633">
        <ele>788.4</ele>
        <time>2017-07-18T15:53:51Z</time>
      </trkpt>
      <trkpt lat="45.76684" lon="3.01632">
        <ele>787.8</ele>
        <time>2017-07-18T15:53:51Z</time>
      </trkpt>
      <trkpt lat="45.76686" lon="3.0163">
        <ele>787.4</ele>
        <time>2017-07-18T15:53:51Z</time>
      </trkpt>
      <trkpt lat="45.76688" lon="3.01628">
        <ele>787</ele>
        <time>2017-07-18T15:53:51Z</time>
      </trkpt>
      <trkpt lat="45.7669" lon="3.01626">
        <ele>786.6</ele>
        <time>2017-07-18T15:53:51Z</time>
      </trkpt>
      <trkpt lat="45.76692" lon="3.01624">
        <ele>786.3</ele>
        <time>2017-07-18T15:53:51Z</time>
      </trkpt>
      <trkpt lat="45.76694" lon="3.01621">
        <ele>786</ele>
        <time>2017-07-18T15:53:51Z</time>
      </trkpt>
      <trkpt lat="45.76695" lon="3.01618">
        <ele>785.8</ele>
        <time>2017-07-18T15:53:51Z</time>
      </trkpt>
      <trkpt lat="45.76696" lon="3.01614">
        <ele>785.9</ele>
        <time>2017-07-18T15:53:51Z</time>
      </trkpt>
      <trkpt lat="45.76697" lon="3.01611">
        <ele>785.9</ele>
        <time>2017-07-18T15:53:51Z</time>
      </trkpt>
      <trkpt lat="45.76698" lon="3.01608">
        <ele>786.1</ele>
        <time>2017-07-18T15:53:51Z</time>
      </trkpt>
      <trkpt lat="45.76698" lon="3.01605">
        <ele>786.2</ele>
        <time>2017-07-18T15:53:51Z</time>
      </trkpt>
      <trkpt lat="45.76699" lon="3.01602">
        <ele>786.2</ele>
        <time>2017-07-18T15:53:51Z</time>
      </trkpt>
      <trkpt lat="45.767" lon="3.01599">
        <ele>786.3</ele>
        <time>2017-07-18T15:53:51Z</time>
      </trkpt>
      <trkpt lat="45.767" lon="3.01595">
        <ele>786.5</ele>
        <time>2017-07-18T15:53:51Z</time>
      </trkpt>
      <trkpt lat="45.76701" lon="3.01592">
        <ele>786.5</ele>
        <time>2017-07-18T15:53:51Z</time>
      </trkpt>
      <trkpt lat="45.76702" lon="3.01589">
        <ele>786.5</ele>
        <time>2017-07-18T15:53:51Z</time>
      </trkpt>
      <trkpt lat="45.76703" lon="3.01586">
        <ele>786.5</ele>
        <time>2017-07-18T15:53:51Z</time>
      </trkpt>
      <trkpt lat="45.76705" lon="3.01583">
        <ele>786.4</ele>
        <time>2017-07-18T15:53:51Z</time>
      </trkpt>
      <trkpt lat="45.76705" lon="3.0158">
        <ele>786.3</ele>
        <time>2017-07-18T15:53:51Z</time>
      </trkpt>
      <trkpt lat="45.76706" lon="3.01577">
        <ele>786</ele>
        <time>2017-07-18T15:53:51Z</time>
      </trkpt>
      <trkpt lat="45.76707" lon="3.01574">
        <ele>785.9</ele>
        <time>2017-07-18T15:53:51Z</time>
      </trkpt>
      <trkpt lat="45.76708" lon="3.01571">
        <ele>785.7</ele>
        <time>2017-07-18T15:53:51Z</time>
      </trkpt>
      <trkpt lat="45.76708" lon="3.01568">
        <ele>785.6</ele>
        <time>2017-07-18T15:53:51Z</time>
      </trkpt>
      <trkpt lat="45.76709" lon="3.01565">
        <ele>785.5</ele>
        <time>2017-07-18T15:53:51Z</time>
      </trkpt>
      <trkpt lat="45.76709" lon="3.01562">
        <ele>785.3</ele>
        <time>2017-07-18T15:53:51Z</time>
      </trkpt>
      <trkpt lat="45.7671" lon="3.01558">
        <ele>785.1</ele>
        <time>2017-07-18T15:53:51Z</time>
      </trkpt>
      <trkpt lat="45.7671" lon="3.01555">
        <ele>785</ele>
        <time>2017-07-18T15:53:51Z</time>
      </trkpt>
      <trkpt lat="45.76711" lon="3.01552">
        <ele>785</ele>
        <time>2017-07-18T15:53:51Z</time>
      </trkpt>
      <trkpt lat="45.76711" lon="3.01549">
        <ele>784.9</ele>
        <time>2017-07-18T15:53:51Z</time>
      </trkpt>
      <trkpt lat="45.76712" lon="3.01545">
        <ele>784.8</ele>
        <time>2017-07-18T15:53:51Z</time>
      </trkpt>
      <trkpt lat="45.76712" lon="3.01542">
        <ele>784.7</ele>
        <time>2017-07-18T15:53:51Z</time>
      </trkpt>
      <trkpt lat="45.76713" lon="3.01539">
        <ele>784.5</ele>
        <time>2017-07-18T15:53:51Z</time>
      </trkpt>
      <trkpt lat="45.76714" lon="3.01535">
        <ele>784.4</ele>
        <time>2017-07-18T15:53:51Z</time>
      </trkpt>
      <trkpt lat="45.76715" lon="3.01532">
        <ele>784.2</ele>
        <time>2017-07-18T15:53:51Z</time>
      </trkpt>
      <trkpt lat="45.76715" lon="3.01528">
        <ele>784.2</ele>
        <time>2017-07-18T15:53:51Z</time>
      </trkpt>
      <trkpt lat="45.76716" lon="3.01524">
        <ele>784.2</ele>
        <time>2017-07-18T15:53:51Z</time>
      </trkpt>
      <trkpt lat="45.76716" lon="3.01521">
        <ele>784.1</ele>
        <time>2017-07-18T15:53:51Z</time>
      </trkpt>
      <trkpt lat="45.76717" lon="3.01517">
        <ele>784</ele>
        <time>2017-07-18T15:53:51Z</time>
      </trkpt>
      <trkpt lat="45.76717" lon="3.01514">
        <ele>784</ele>
        <time>2017-07-18T15:53:51Z</time>
      </trkpt>
      <trkpt lat="45.76717" lon="3.0151">
        <ele>784</ele>
        <time>2017-07-18T15:53:51Z</time>
      </trkpt>
      <trkpt lat="45.76717" lon="3.01507">
        <ele>784</ele>
        <time>2017-07-18T15:53:51Z</time>
      </trkpt>
      <trkpt lat="45.76718" lon="3.01503">
        <ele>784</ele>
        <time>2017-07-18T15:53:51Z</time>
      </trkpt>
      <trkpt lat="45.76717" lon="3.015">
        <ele>784.1</ele>
        <time>2017-07-18T15:53:51Z</time>
      </trkpt>
      <trkpt lat="45.76717" lon="3.01497">
        <ele>784.1</ele>
        <time>2017-07-18T15:53:51Z</time>
      </trkpt>
      <trkpt lat="45.76716" lon="3.01494">
        <ele>784.2</ele>
        <time>2017-07-18T15:53:51Z</time>
      </trkpt>
      <trkpt lat="45.76717" lon="3.01491">
        <ele>784.2</ele>
        <time>2017-07-18T15:53:51Z</time>
      </trkpt>
      <trkpt lat="45.76717" lon="3.01487">
        <ele>784.1</ele>
        <time>2017-07-18T15:53:51Z</time>
      </trkpt>
      <trkpt lat="45.76717" lon="3.01484">
        <ele>784.1</ele>
        <time>2017-07-18T15:53:51Z</time>
      </trkpt>
      <trkpt lat="45.76717" lon="3.01481">
        <ele>784.2</ele>
        <time>2017-07-18T15:53:51Z</time>
      </trkpt>
      <trkpt lat="45.76716" lon="3.01477">
        <ele>784.2</ele>
        <time>2017-07-18T15:53:51Z</time>
      </trkpt>
      <trkpt lat="45.76716" lon="3.01473">
        <ele>784.3</ele>
        <time>2017-07-18T15:53:51Z</time>
      </trkpt>
      <trkpt lat="45.76715" lon="3.0147">
        <ele>784.4</ele>
        <time>2017-07-18T15:53:51Z</time>
      </trkpt>
      <trkpt lat="45.76715" lon="3.01466">
        <ele>784.4</ele>
        <time>2017-07-18T15:53:51Z</time>
      </trkpt>
      <trkpt lat="45.76715" lon="3.01462">
        <ele>784.3</ele>
        <time>2017-07-18T15:53:51Z</time>
      </trkpt>
      <trkpt lat="45.76715" lon="3.01457">
        <ele>784.3</ele>
        <time>2017-07-18T15:53:51Z</time>
      </trkpt>
      <trkpt lat="45.76715" lon="3.01453">
        <ele>784.3</ele>
        <time>2017-07-18T15:53:51Z</time>
      </trkpt>
      <trkpt lat="45.76716" lon="3.0145">
        <ele>784.2</ele>
        <time>2017-07-18T15:53:51Z</time>
      </trkpt>
      <trkpt lat="45.76716" lon="3.01447">
        <ele>784.2</ele>
        <time>2017-07-18T15:53:51Z</time>
      </trkpt>
      <trkpt lat="45.76716" lon="3.01443">
        <ele>784.1</ele>
        <time>2017-07-18T15:53:51Z</time>
      </trkpt>
      <trkpt lat="45.76717" lon="3.01441">
        <ele>784.1</ele>
        <time>2017-07-18T15:53:51Z</time>
      </trkpt>
      <trkpt lat="45.76718" lon="3.01437">
        <ele>783.9</ele>
        <time>2017-07-18T15:53:51Z</time>
      </trkpt>
      <trkpt lat="45.76718" lon="3.01434">
        <ele>783.8</ele>
        <time>2017-07-18T15:53:51Z</time>
      </trkpt>
      <trkpt lat="45.7672" lon="3.01432">
        <ele>783.6</ele>
        <time>2017-07-18T15:53:51Z</time>
      </trkpt>
      <trkpt lat="45.76721" lon="3.01429">
        <ele>783.4</ele>
        <time>2017-07-18T15:53:51Z</time>
      </trkpt>
      <trkpt lat="45.76723" lon="3.01425">
        <ele>783.2</ele>
        <time>2017-07-18T15:53:51Z</time>
      </trkpt>
      <trkpt lat="45.76725" lon="3.01422">
        <ele>782.9</ele>
        <time>2017-07-18T15:53:51Z</time>
      </trkpt>
      <trkpt lat="45.76727" lon="3.0142">
        <ele>782.7</ele>
        <time>2017-07-18T15:53:51Z</time>
      </trkpt>
      <trkpt lat="45.76729" lon="3.01419">
        <ele>782.5</ele>
        <time>2017-07-18T15:53:51Z</time>
      </trkpt>
      <trkpt lat="45.7673" lon="3.01417">
        <ele>782.3</ele>
        <time>2017-07-18T15:53:51Z</time>
      </trkpt>
      <trkpt lat="45.76732" lon="3.01415">
        <ele>782.2</ele>
        <time>2017-07-18T15:53:51Z</time>
      </trkpt>
      <trkpt lat="45.76733" lon="3.01414">
        <ele>782.1</ele>
        <time>2017-07-18T15:53:51Z</time>
      </trkpt>
      <trkpt lat="45.76735" lon="3.01412">
        <ele>781.9</ele>
        <time>2017-07-18T15:53:51Z</time>
      </trkpt>
      <trkpt lat="45.76738" lon="3.01411">
        <ele>781.7</ele>
        <time>2017-07-18T15:53:51Z</time>
      </trkpt>
      <trkpt lat="45.7674" lon="3.01409">
        <ele>781.5</ele>
        <time>2017-07-18T15:53:51Z</time>
      </trkpt>
      <trkpt lat="45.76742" lon="3.01407">
        <ele>781.3</ele>
        <time>2017-07-18T15:53:51Z</time>
      </trkpt>
      <trkpt lat="45.76745" lon="3.01406">
        <ele>781.1</ele>
        <time>2017-07-18T15:53:51Z</time>
      </trkpt>
      <trkpt lat="45.76747" lon="3.01404">
        <ele>780.9</ele>
        <time>2017-07-18T15:53:51Z</time>
      </trkpt>
      <trkpt lat="45.7675" lon="3.01402">
        <ele>780.7</ele>
        <time>2017-07-18T15:53:51Z</time>
      </trkpt>
      <trkpt lat="45.76752" lon="3.01401">
        <ele>780.7</ele>
        <time>2017-07-18T15:53:51Z</time>
      </trkpt>
      <trkpt lat="45.76754" lon="3.014">
        <ele>780.8</ele>
        <time>2017-07-18T15:53:51Z</time>
      </trkpt>
      <trkpt lat="45.76757" lon="3.01398">
        <ele>780.8</ele>
        <time>2017-07-18T15:53:51Z</time>
      </trkpt>
      <trkpt lat="45.76758" lon="3.01398">
        <ele>780.8</ele>
        <time>2017-07-18T15:53:51Z</time>
      </trkpt>
      <trkpt lat="45.76761" lon="3.01395">
        <ele>780.9</ele>
        <time>2017-07-18T15:53:51Z</time>
      </trkpt>
      <trkpt lat="45.76763" lon="3.01393">
        <ele>780.9</ele>
        <time>2017-07-18T15:53:51Z</time>
      </trkpt>
      <trkpt lat="45.76766" lon="3.01391">
        <ele>781</ele>
        <time>2017-07-18T15:53:51Z</time>
      </trkpt>
      <trkpt lat="45.76768" lon="3.0139">
        <ele>781</ele>
        <time>2017-07-18T15:53:51Z</time>
      </trkpt>
      <trkpt lat="45.76771" lon="3.01388">
        <ele>781</ele>
        <time>2017-07-18T15:53:51Z</time>
      </trkpt>
      <trkpt lat="45.76773" lon="3.01387">
        <ele>781.1</ele>
        <time>2017-07-18T15:53:51Z</time>
      </trkpt>
      <trkpt lat="45.76775" lon="3.01385">
        <ele>781.1</ele>
        <time>2017-07-18T15:53:51Z</time>
      </trkpt>
      <trkpt lat="45.76777" lon="3.01383">
        <ele>781.1</ele>
        <time>2017-07-18T15:53:51Z</time>
      </trkpt>
      <trkpt lat="45.7678" lon="3.01382">
        <ele>781.2</ele>
        <time>2017-07-18T15:53:51Z</time>
      </trkpt>
      <trkpt lat="45.76782" lon="3.01381">
        <ele>781.2</ele>
        <time>2017-07-18T15:53:51Z</time>
      </trkpt>
      <trkpt lat="45.76784" lon="3.01379">
        <ele>781.2</ele>
        <time>2017-07-18T15:53:51Z</time>
      </trkpt>
      <trkpt lat="45.76786" lon="3.01378">
        <ele>781.2</ele>
        <time>2017-07-18T15:53:51Z</time>
      </trkpt>
      <trkpt lat="45.76788" lon="3.01376">
        <ele>781.3</ele>
        <time>2017-07-18T15:53:51Z</time>
      </trkpt>
      <trkpt lat="45.76791" lon="3.01375">
        <ele>781.3</ele>
        <time>2017-07-18T15:53:51Z</time>
      </trkpt>
      <trkpt lat="45.76793" lon="3.01373">
        <ele>781.3</ele>
        <time>2017-07-18T15:53:51Z</time>
      </trkpt>
      <trkpt lat="45.76795" lon="3.01372">
        <ele>781.3</ele>
        <time>2017-07-18T15:53:51Z</time>
      </trkpt>
      <trkpt lat="45.76797" lon="3.0137">
        <ele>781.3</ele>
        <time>2017-07-18T15:53:51Z</time>
      </trkpt>
      <trkpt lat="45.768" lon="3.01369">
        <ele>781.3</ele>
        <time>2017-07-18T15:53:51Z</time>
      </trkpt>
      <trkpt lat="45.76802" lon="3.01368">
        <ele>781.4</ele>
        <time>2017-07-18T15:53:51Z</time>
      </trkpt>
      <trkpt lat="45.76804" lon="3.01367">
        <ele>781.3</ele>
        <time>2017-07-18T15:53:51Z</time>
      </trkpt>
      <trkpt lat="45.76806" lon="3.01367">
        <ele>781.3</ele>
        <time>2017-07-18T15:53:51Z</time>
      </trkpt>
      <trkpt lat="45.76808" lon="3.01368">
        <ele>781.2</ele>
        <time>2017-07-18T15:53:51Z</time>
      </trkpt>
      <trkpt lat="45.7681" lon="3.0137">
        <ele>781.1</ele>
        <time>2017-07-18T15:53:51Z</time>
      </trkpt>
      <trkpt lat="45.76812" lon="3.0137">
        <ele>781.1</ele>
        <time>2017-07-18T15:53:51Z</time>
      </trkpt>
      <trkpt lat="45.76813" lon="3.01368">
        <ele>781.1</ele>
        <time>2017-07-18T15:53:51Z</time>
      </trkpt>
      <trkpt lat="45.76815" lon="3.01368">
        <ele>781.1</ele>
        <time>2017-07-18T15:53:51Z</time>
      </trkpt>
      <trkpt lat="45.76817" lon="3.01367">
        <ele>781.1</ele>
        <time>2017-07-18T15:53:51Z</time>
      </trkpt>
      <trkpt lat="45.76819" lon="3.01365">
        <ele>781.1</ele>
        <time>2017-07-18T15:53:51Z</time>
      </trkpt>
      <trkpt lat="45.76821" lon="3.01365">
        <ele>781.1</ele>
        <time>2017-07-18T15:53:51Z</time>
      </trkpt>
      <trkpt lat="45.76823" lon="3.01365">
        <ele>781.1</ele>
        <time>2017-07-18T15:53:51Z</time>
      </trkpt>
      <trkpt lat="45.76825" lon="3.01364">
        <ele>781</ele>
        <time>2017-07-18T15:53:51Z</time>
      </trkpt>
      <trkpt lat="45.76827" lon="3.01365">
        <ele>781</ele>
        <time>2017-07-18T15:53:51Z</time>
      </trkpt>
      <trkpt lat="45.76829" lon="3.01367">
        <ele>780.9</ele>
        <time>2017-07-18T15:53:51Z</time>
      </trkpt>
      <trkpt lat="45.76831" lon="3.01369">
        <ele>780.8</ele>
        <time>2017-07-18T15:53:51Z</time>
      </trkpt>
      <trkpt lat="45.76832" lon="3.01372">
        <ele>780.6</ele>
        <time>2017-07-18T15:53:51Z</time>
      </trkpt>
      <trkpt lat="45.76833" lon="3.01375">
        <ele>780.5</ele>
        <time>2017-07-18T15:53:51Z</time>
      </trkpt>
      <trkpt lat="45.76834" lon="3.01379">
        <ele>780.4</ele>
        <time>2017-07-18T15:53:51Z</time>
      </trkpt>
      <trkpt lat="45.76835" lon="3.01382">
        <ele>780.3</ele>
        <time>2017-07-18T15:53:51Z</time>
      </trkpt>
      <trkpt lat="45.76835" lon="3.01385">
        <ele>780.3</ele>
        <time>2017-07-18T15:53:51Z</time>
      </trkpt>
      <trkpt lat="45.76835" lon="3.01389">
        <ele>780.1</ele>
        <time>2017-07-18T15:53:51Z</time>
      </trkpt>
      <trkpt lat="45.76836" lon="3.01392">
        <ele>780</ele>
        <time>2017-07-18T15:53:51Z</time>
      </trkpt>
      <trkpt lat="45.76836" lon="3.01396">
        <ele>780</ele>
        <time>2017-07-18T15:53:51Z</time>
      </trkpt>
      <trkpt lat="45.76836" lon="3.01399">
        <ele>779.8</ele>
        <time>2017-07-18T15:53:51Z</time>
      </trkpt>
      <trkpt lat="45.76836" lon="3.01403">
        <ele>779.7</ele>
        <time>2017-07-18T15:53:51Z</time>
      </trkpt>
      <trkpt lat="45.76836" lon="3.01407">
        <ele>779.6</ele>
        <time>2017-07-18T15:53:51Z</time>
      </trkpt>
      <trkpt lat="45.76836" lon="3.01411">
        <ele>779.4</ele>
        <time>2017-07-18T15:53:51Z</time>
      </trkpt>
      <trkpt lat="45.76836" lon="3.01414">
        <ele>779.3</ele>
        <time>2017-07-18T15:53:51Z</time>
      </trkpt>
      <trkpt lat="45.76836" lon="3.01418">
        <ele>779.2</ele>
        <time>2017-07-18T15:53:51Z</time>
      </trkpt>
      <trkpt lat="45.76836" lon="3.01422">
        <ele>779.2</ele>
        <time>2017-07-18T15:53:51Z</time>
      </trkpt>
      <trkpt lat="45.76836" lon="3.01426">
        <ele>779.2</ele>
        <time>2017-07-18T15:53:51Z</time>
      </trkpt>
      <trkpt lat="45.76836" lon="3.0143">
        <ele>779.2</ele>
        <time>2017-07-18T15:53:51Z</time>
      </trkpt>
      <trkpt lat="45.76835" lon="3.01433">
        <ele>779.1</ele>
        <time>2017-07-18T15:53:51Z</time>
      </trkpt>
      <trkpt lat="45.76835" lon="3.01437">
        <ele>779.1</ele>
        <time>2017-07-18T15:53:51Z</time>
      </trkpt>
      <trkpt lat="45.76834" lon="3.01441">
        <ele>779.1</ele>
        <time>2017-07-18T15:53:51Z</time>
      </trkpt>
      <trkpt lat="45.76834" lon="3.01444">
        <ele>779.1</ele>
        <time>2017-07-18T15:53:51Z</time>
      </trkpt>
      <trkpt lat="45.76834" lon="3.01448">
        <ele>779.1</ele>
        <time>2017-07-18T15:53:51Z</time>
      </trkpt>
      <trkpt lat="45.76834" lon="3.01451">
        <ele>779.1</ele>
        <time>2017-07-18T15:53:51Z</time>
      </trkpt>
      <trkpt lat="45.76834" lon="3.01455">
        <ele>779</ele>
        <time>2017-07-18T15:53:51Z</time>
      </trkpt>
      <trkpt lat="45.76833" lon="3.01459">
        <ele>779</ele>
        <time>2017-07-18T15:53:51Z</time>
      </trkpt>
      <trkpt lat="45.76833" lon="3.01463">
        <ele>779</ele>
        <time>2017-07-18T15:53:51Z</time>
      </trkpt>
      <trkpt lat="45.76832" lon="3.01466">
        <ele>779</ele>
        <time>2017-07-18T15:53:51Z</time>
      </trkpt>
      <trkpt lat="45.76831" lon="3.0147">
        <ele>779</ele>
        <time>2017-07-18T15:53:51Z</time>
      </trkpt>
      <trkpt lat="45.76831" lon="3.01473">
        <ele>779</ele>
        <time>2017-07-18T15:53:51Z</time>
      </trkpt>
      <trkpt lat="45.7683" lon="3.01477">
        <ele>779</ele>
        <time>2017-07-18T15:53:51Z</time>
      </trkpt>
      <trkpt lat="45.76829" lon="3.0148">
        <ele>779</ele>
        <time>2017-07-18T15:53:51Z</time>
      </trkpt>
      <trkpt lat="45.76829" lon="3.01484">
        <ele>779</ele>
        <time>2017-07-18T15:53:51Z</time>
      </trkpt>
      <trkpt lat="45.76828" lon="3.01487">
        <ele>779</ele>
        <time>2017-07-18T15:53:51Z</time>
      </trkpt>
      <trkpt lat="45.76828" lon="3.01491">
        <ele>779</ele>
        <time>2017-07-18T15:53:51Z</time>
      </trkpt>
      <trkpt lat="45.76827" lon="3.01494">
        <ele>779</ele>
        <time>2017-07-18T15:53:51Z</time>
      </trkpt>
      <trkpt lat="45.76827" lon="3.01497">
        <ele>779</ele>
        <time>2017-07-18T15:53:51Z</time>
      </trkpt>
      <trkpt lat="45.76827" lon="3.01501">
        <ele>778.9</ele>
        <time>2017-07-18T15:53:51Z</time>
      </trkpt>
      <trkpt lat="45.76827" lon="3.01505">
        <ele>778.6</ele>
        <time>2017-07-18T15:53:51Z</time>
      </trkpt>
      <trkpt lat="45.76828" lon="3.01508">
        <ele>778.3</ele>
        <time>2017-07-18T15:53:51Z</time>
      </trkpt>
      <trkpt lat="45.76828" lon="3.01512">
        <ele>778</ele>
        <time>2017-07-18T15:53:51Z</time>
      </trkpt>
      <trkpt lat="45.76828" lon="3.01516">
        <ele>777.7</ele>
        <time>2017-07-18T15:53:51Z</time>
      </trkpt>
      <trkpt lat="45.76828" lon="3.01519">
        <ele>777.5</ele>
        <time>2017-07-18T15:53:51Z</time>
      </trkpt>
      <trkpt lat="45.76828" lon="3.01522">
        <ele>777.2</ele>
        <time>2017-07-18T15:53:51Z</time>
      </trkpt>
      <trkpt lat="45.76828" lon="3.01525">
        <ele>776.9</ele>
        <time>2017-07-18T15:53:51Z</time>
      </trkpt>
      <trkpt lat="45.76828" lon="3.01529">
        <ele>776.7</ele>
        <time>2017-07-18T15:53:51Z</time>
      </trkpt>
      <trkpt lat="45.76829" lon="3.01532">
        <ele>776.4</ele>
        <time>2017-07-18T15:53:51Z</time>
      </trkpt>
      <trkpt lat="45.7683" lon="3.01535">
        <ele>776.1</ele>
        <time>2017-07-18T15:53:51Z</time>
      </trkpt>
      <trkpt lat="45.7683" lon="3.01538">
        <ele>775.8</ele>
        <time>2017-07-18T15:53:51Z</time>
      </trkpt>
      <trkpt lat="45.76831" lon="3.01542">
        <ele>775.5</ele>
        <time>2017-07-18T15:53:51Z</time>
      </trkpt>
      <trkpt lat="45.76831" lon="3.01545">
        <ele>775.3</ele>
        <time>2017-07-18T15:53:51Z</time>
      </trkpt>
      <trkpt lat="45.76832" lon="3.01549">
        <ele>774.9</ele>
        <time>2017-07-18T15:53:51Z</time>
      </trkpt>
      <trkpt lat="45.76833" lon="3.01552">
        <ele>774.7</ele>
        <time>2017-07-18T15:53:51Z</time>
      </trkpt>
      <trkpt lat="45.76833" lon="3.01555">
        <ele>774.4</ele>
        <time>2017-07-18T15:53:51Z</time>
      </trkpt>
      <trkpt lat="45.76834" lon="3.01558">
        <ele>774.1</ele>
        <time>2017-07-18T15:53:51Z</time>
      </trkpt>
      <trkpt lat="45.76834" lon="3.01561">
        <ele>774</ele>
        <time>2017-07-18T15:53:51Z</time>
      </trkpt>
      <trkpt lat="45.76835" lon="3.01564">
        <ele>773.8</ele>
        <time>2017-07-18T15:53:51Z</time>
      </trkpt>
      <trkpt lat="45.76836" lon="3.01568">
        <ele>773.6</ele>
        <time>2017-07-18T15:53:51Z</time>
      </trkpt>
      <trkpt lat="45.76836" lon="3.01571">
        <ele>773.3</ele>
        <time>2017-07-18T15:53:51Z</time>
      </trkpt>
      <trkpt lat="45.76837" lon="3.01575">
        <ele>773.2</ele>
        <time>2017-07-18T15:53:51Z</time>
      </trkpt>
      <trkpt lat="45.76838" lon="3.01578">
        <ele>773</ele>
        <time>2017-07-18T15:53:51Z</time>
      </trkpt>
      <trkpt lat="45.76839" lon="3.01582">
        <ele>772.9</ele>
        <time>2017-07-18T15:53:51Z</time>
      </trkpt>
      <trkpt lat="45.7684" lon="3.01585">
        <ele>772.7</ele>
        <time>2017-07-18T15:53:51Z</time>
      </trkpt>
      <trkpt lat="45.76842" lon="3.01589">
        <ele>772.6</ele>
        <time>2017-07-18T15:53:51Z</time>
      </trkpt>
      <trkpt lat="45.76843" lon="3.01591">
        <ele>772.5</ele>
        <time>2017-07-18T15:53:51Z</time>
      </trkpt>
      <trkpt lat="45.76844" lon="3.01594">
        <ele>772.4</ele>
        <time>2017-07-18T15:53:51Z</time>
      </trkpt>
      <trkpt lat="45.76846" lon="3.01597">
        <ele>772.4</ele>
        <time>2017-07-18T15:53:51Z</time>
      </trkpt>
      <trkpt lat="45.76848" lon="3.016">
        <ele>772.5</ele>
        <time>2017-07-18T15:53:51Z</time>
      </trkpt>
      <trkpt lat="45.7685" lon="3.01602">
        <ele>772.5</ele>
        <time>2017-07-18T15:53:51Z</time>
      </trkpt>
      <trkpt lat="45.76852" lon="3.01604">
        <ele>772.7</ele>
        <time>2017-07-18T15:53:51Z</time>
      </trkpt>
      <trkpt lat="45.76854" lon="3.01607">
        <ele>772.8</ele>
        <time>2017-07-18T15:53:51Z</time>
      </trkpt>
      <trkpt lat="45.76856" lon="3.01608">
        <ele>772.9</ele>
        <time>2017-07-18T15:53:51Z</time>
      </trkpt>
      <trkpt lat="45.76857" lon="3.0161">
        <ele>773</ele>
        <time>2017-07-18T15:53:51Z</time>
      </trkpt>
      <trkpt lat="45.76859" lon="3.01613">
        <ele>773.1</ele>
        <time>2017-07-18T15:53:51Z</time>
      </trkpt>
      <trkpt lat="45.76861" lon="3.01615">
        <ele>773.2</ele>
        <time>2017-07-18T15:53:51Z</time>
      </trkpt>
      <trkpt lat="45.76864" lon="3.01617">
        <ele>773.4</ele>
        <time>2017-07-18T15:53:51Z</time>
      </trkpt>
      <trkpt lat="45.76865" lon="3.01619">
        <ele>773.5</ele>
        <time>2017-07-18T15:53:51Z</time>
      </trkpt>
      <trkpt lat="45.76867" lon="3.0162">
        <ele>773.7</ele>
        <time>2017-07-18T15:53:51Z</time>
      </trkpt>
      <trkpt lat="45.7687" lon="3.01621">
        <ele>774</ele>
        <time>2017-07-18T15:53:51Z</time>
      </trkpt>
      <trkpt lat="45.76872" lon="3.01622">
        <ele>774.3</ele>
        <time>2017-07-18T15:53:51Z</time>
      </trkpt>
      <trkpt lat="45.76875" lon="3.01623">
        <ele>774.6</ele>
        <time>2017-07-18T15:53:51Z</time>
      </trkpt>
      <trkpt lat="45.76877" lon="3.01625">
        <ele>774.8</ele>
        <time>2017-07-18T15:53:51Z</time>
      </trkpt>
      <trkpt lat="45.76879" lon="3.01626">
        <ele>775</ele>
        <time>2017-07-18T15:53:51Z</time>
      </trkpt>
      <trkpt lat="45.76881" lon="3.01629">
        <ele>775.1</ele>
        <time>2017-07-18T15:53:51Z</time>
      </trkpt>
      <trkpt lat="45.76882" lon="3.01631">
        <ele>775.2</ele>
        <time>2017-07-18T15:53:51Z</time>
      </trkpt>
      <trkpt lat="45.76883" lon="3.01635">
        <ele>775.2</ele>
        <time>2017-07-18T15:53:51Z</time>
      </trkpt>
      <trkpt lat="45.76884" lon="3.01638">
        <ele>775.1</ele>
        <time>2017-07-18T15:53:51Z</time>
      </trkpt>
      <trkpt lat="45.76885" lon="3.01642">
        <ele>775</ele>
        <time>2017-07-18T15:53:51Z</time>
      </trkpt>
      <trkpt lat="45.76886" lon="3.01645">
        <ele>775</ele>
        <time>2017-07-18T15:53:51Z</time>
      </trkpt>
      <trkpt lat="45.76887" lon="3.01648">
        <ele>775</ele>
        <time>2017-07-18T15:53:51Z</time>
      </trkpt>
      <trkpt lat="45.76888" lon="3.01652">
        <ele>774.9</ele>
        <time>2017-07-18T15:53:51Z</time>
      </trkpt>
      <trkpt lat="45.76889" lon="3.01655">
        <ele>774.9</ele>
        <time>2017-07-18T15:53:51Z</time>
      </trkpt>
      <trkpt lat="45.7689" lon="3.01659">
        <ele>774.9</ele>
        <time>2017-07-18T15:53:51Z</time>
      </trkpt>
      <trkpt lat="45.7689" lon="3.01662">
        <ele>774.8</ele>
        <time>2017-07-18T15:53:51Z</time>
      </trkpt>
      <trkpt lat="45.7689" lon="3.01666">
        <ele>774.6</ele>
        <time>2017-07-18T15:53:51Z</time>
      </trkpt>
      <trkpt lat="45.76891" lon="3.0167">
        <ele>774.6</ele>
        <time>2017-07-18T15:53:51Z</time>
      </trkpt>
      <trkpt lat="45.76891" lon="3.01673">
        <ele>774.5</ele>
        <time>2017-07-18T15:53:51Z</time>
      </trkpt>
      <trkpt lat="45.76891" lon="3.01677">
        <ele>774.4</ele>
        <time>2017-07-18T15:53:51Z</time>
      </trkpt>
      <trkpt lat="45.76891" lon="3.01681">
        <ele>774.2</ele>
        <time>2017-07-18T15:53:51Z</time>
      </trkpt>
      <trkpt lat="45.76891" lon="3.01685">
        <ele>774.1</ele>
        <time>2017-07-18T15:53:51Z</time>
      </trkpt>
      <trkpt lat="45.76891" lon="3.01689">
        <ele>774</ele>
        <time>2017-07-18T15:53:51Z</time>
      </trkpt>
      <trkpt lat="45.76892" lon="3.01692">
        <ele>774</ele>
        <time>2017-07-18T15:53:51Z</time>
      </trkpt>
      <trkpt lat="45.76892" lon="3.01696">
        <ele>773.9</ele>
        <time>2017-07-18T15:53:51Z</time>
      </trkpt>
      <trkpt lat="45.7689" lon="3.01698">
        <ele>773.6</ele>
        <time>2017-07-18T15:53:51Z</time>
      </trkpt>
      <trkpt lat="45.7689" lon="3.01701">
        <ele>773.4</ele>
        <time>2017-07-18T15:53:51Z</time>
      </trkpt>
      <trkpt lat="45.76888" lon="3.01703">
        <ele>773</ele>
        <time>2017-07-18T15:53:51Z</time>
      </trkpt>
      <trkpt lat="45.76887" lon="3.01706">
        <ele>772.7</ele>
        <time>2017-07-18T15:53:51Z</time>
      </trkpt>
      <trkpt lat="45.76886" lon="3.01709">
        <ele>772.5</ele>
        <time>2017-07-18T15:53:51Z</time>
      </trkpt>
      <trkpt lat="45.76886" lon="3.01712">
        <ele>772.3</ele>
        <time>2017-07-18T15:53:51Z</time>
      </trkpt>
      <trkpt lat="45.76885" lon="3.01715">
        <ele>772.1</ele>
        <time>2017-07-18T15:53:51Z</time>
      </trkpt>
      <trkpt lat="45.76884" lon="3.01719">
        <ele>771.8</ele>
        <time>2017-07-18T15:53:51Z</time>
      </trkpt>
      <trkpt lat="45.76883" lon="3.01722">
        <ele>771.5</ele>
        <time>2017-07-18T15:53:51Z</time>
      </trkpt>
      <trkpt lat="45.76882" lon="3.01726">
        <ele>771.2</ele>
        <time>2017-07-18T15:53:51Z</time>
      </trkpt>
      <trkpt lat="45.76882" lon="3.0173">
        <ele>771</ele>
        <time>2017-07-18T15:53:51Z</time>
      </trkpt>
      <trkpt lat="45.76881" lon="3.01733">
        <ele>770.8</ele>
        <time>2017-07-18T15:53:51Z</time>
      </trkpt>
      <trkpt lat="45.76881" lon="3.01736">
        <ele>770.6</ele>
        <time>2017-07-18T15:53:51Z</time>
      </trkpt>
      <trkpt lat="45.7688" lon="3.01739">
        <ele>770.3</ele>
        <time>2017-07-18T15:53:51Z</time>
      </trkpt>
      <trkpt lat="45.76879" lon="3.01743">
        <ele>770</ele>
        <time>2017-07-18T15:53:51Z</time>
      </trkpt>
      <trkpt lat="45.76877" lon="3.01746">
        <ele>769.6</ele>
        <time>2017-07-18T15:53:51Z</time>
      </trkpt>
      <trkpt lat="45.76877" lon="3.0175">
        <ele>769.4</ele>
        <time>2017-07-18T15:53:51Z</time>
      </trkpt>
      <trkpt lat="45.76876" lon="3.01753">
        <ele>769.2</ele>
        <time>2017-07-18T15:53:51Z</time>
      </trkpt>
      <trkpt lat="45.76875" lon="3.01757">
        <ele>768.9</ele>
        <time>2017-07-18T15:53:51Z</time>
      </trkpt>
      <trkpt lat="45.76874" lon="3.0176">
        <ele>768.6</ele>
        <time>2017-07-18T15:53:51Z</time>
      </trkpt>
      <trkpt lat="45.76873" lon="3.01764">
        <ele>768.4</ele>
        <time>2017-07-18T15:53:51Z</time>
      </trkpt>
      <trkpt lat="45.76872" lon="3.01768">
        <ele>768.1</ele>
        <time>2017-07-18T15:53:51Z</time>
      </trkpt>
      <trkpt lat="45.76871" lon="3.01771">
        <ele>767.8</ele>
        <time>2017-07-18T15:53:51Z</time>
      </trkpt>
      <trkpt lat="45.7687" lon="3.01775">
        <ele>767.6</ele>
        <time>2017-07-18T15:53:51Z</time>
      </trkpt>
      <trkpt lat="45.76869" lon="3.01777">
        <ele>767.4</ele>
        <time>2017-07-18T15:53:51Z</time>
      </trkpt>
      <trkpt lat="45.76868" lon="3.01779">
        <ele>767</ele>
        <time>2017-07-18T15:53:51Z</time>
      </trkpt>
      <trkpt lat="45.76866" lon="3.01781">
        <ele>766.7</ele>
        <time>2017-07-18T15:53:51Z</time>
      </trkpt>
      <trkpt lat="45.76866" lon="3.01781">
        <ele>766.6</ele>
        <time>2017-07-18T15:53:51Z</time>
      </trkpt>
      <trkpt lat="45.76865" lon="3.01782">
        <ele>766.5</ele>
        <time>2017-07-18T15:53:51Z</time>
      </trkpt>
      <trkpt lat="45.76865" lon="3.01782">
        <ele>766.5</ele>
        <time>2017-07-18T15:53:51Z</time>
      </trkpt>
      <trkpt lat="45.76865" lon="3.01788">
        <ele>766.3</ele>
        <time>2017-07-18T15:53:51Z</time>
      </trkpt>
      <trkpt lat="45.76864" lon="3.0179">
        <ele>766.1</ele>
        <time>2017-07-18T15:53:51Z</time>
      </trkpt>
      <trkpt lat="45.76863" lon="3.01793">
        <ele>765.9</ele>
        <time>2017-07-18T15:53:51Z</time>
      </trkpt>
      <trkpt lat="45.76863" lon="3.01796">
        <ele>765.8</ele>
        <time>2017-07-18T15:53:51Z</time>
      </trkpt>
      <trkpt lat="45.76862" lon="3.018">
        <ele>765.6</ele>
        <time>2017-07-18T15:53:51Z</time>
      </trkpt>
      <trkpt lat="45.76862" lon="3.01804">
        <ele>765.4</ele>
        <time>2017-07-18T15:53:51Z</time>
      </trkpt>
      <trkpt lat="45.76861" lon="3.01807">
        <ele>765.2</ele>
        <time>2017-07-18T15:53:51Z</time>
      </trkpt>
      <trkpt lat="45.76861" lon="3.01811">
        <ele>765.1</ele>
        <time>2017-07-18T15:53:51Z</time>
      </trkpt>
      <trkpt lat="45.76861" lon="3.01815">
        <ele>765</ele>
        <time>2017-07-18T15:53:51Z</time>
      </trkpt>
      <trkpt lat="45.7686" lon="3.01818">
        <ele>764.8</ele>
        <time>2017-07-18T15:53:51Z</time>
      </trkpt>
      <trkpt lat="45.7686" lon="3.01822">
        <ele>764.7</ele>
        <time>2017-07-18T15:53:51Z</time>
      </trkpt>
      <trkpt lat="45.7686" lon="3.01825">
        <ele>764.6</ele>
        <time>2017-07-18T15:53:51Z</time>
      </trkpt>
      <trkpt lat="45.7686" lon="3.01829">
        <ele>764.5</ele>
        <time>2017-07-18T15:53:51Z</time>
      </trkpt>
      <trkpt lat="45.7686" lon="3.01832">
        <ele>764.5</ele>
        <time>2017-07-18T15:53:51Z</time>
      </trkpt>
      <trkpt lat="45.7686" lon="3.01835">
        <ele>764.3</ele>
        <time>2017-07-18T15:53:51Z</time>
      </trkpt>
      <trkpt lat="45.7686" lon="3.01838">
        <ele>764</ele>
        <time>2017-07-18T15:53:51Z</time>
      </trkpt>
      <trkpt lat="45.7686" lon="3.01842">
        <ele>763.8</ele>
        <time>2017-07-18T15:53:51Z</time>
      </trkpt>
      <trkpt lat="45.7686" lon="3.01845">
        <ele>763.6</ele>
        <time>2017-07-18T15:53:51Z</time>
      </trkpt>
      <trkpt lat="45.7686" lon="3.01848">
        <ele>763.3</ele>
        <time>2017-07-18T15:53:51Z</time>
      </trkpt>
      <trkpt lat="45.7686" lon="3.01852">
        <ele>763.1</ele>
        <time>2017-07-18T15:53:51Z</time>
      </trkpt>
      <trkpt lat="45.7686" lon="3.01855">
        <ele>762.9</ele>
        <time>2017-07-18T15:53:51Z</time>
      </trkpt>
      <trkpt lat="45.7686" lon="3.01859">
        <ele>762.7</ele>
        <time>2017-07-18T15:53:51Z</time>
      </trkpt>
      <trkpt lat="45.7686" lon="3.01862">
        <ele>762.4</ele>
        <time>2017-07-18T15:53:51Z</time>
      </trkpt>
      <trkpt lat="45.76859" lon="3.01865">
        <ele>762.1</ele>
        <time>2017-07-18T15:53:51Z</time>
      </trkpt>
      <trkpt lat="45.76859" lon="3.01869">
        <ele>761.9</ele>
        <time>2017-07-18T15:53:51Z</time>
      </trkpt>
      <trkpt lat="45.7686" lon="3.01872">
        <ele>761.7</ele>
        <time>2017-07-18T15:53:51Z</time>
      </trkpt>
      <trkpt lat="45.7686" lon="3.01876">
        <ele>761.6</ele>
        <time>2017-07-18T15:53:51Z</time>
      </trkpt>
      <trkpt lat="45.7686" lon="3.01879">
        <ele>761.4</ele>
        <time>2017-07-18T15:53:51Z</time>
      </trkpt>
      <trkpt lat="45.7686" lon="3.01882">
        <ele>761.2</ele>
        <time>2017-07-18T15:53:51Z</time>
      </trkpt>
      <trkpt lat="45.76861" lon="3.01886">
        <ele>761</ele>
        <time>2017-07-18T15:53:51Z</time>
      </trkpt>
      <trkpt lat="45.76861" lon="3.01889">
        <ele>760.8</ele>
        <time>2017-07-18T15:53:51Z</time>
      </trkpt>
      <trkpt lat="45.76861" lon="3.01892">
        <ele>760.6</ele>
        <time>2017-07-18T15:53:51Z</time>
      </trkpt>
      <trkpt lat="45.76861" lon="3.01896">
        <ele>760.4</ele>
        <time>2017-07-18T15:53:51Z</time>
      </trkpt>
      <trkpt lat="45.76862" lon="3.01899">
        <ele>760.3</ele>
        <time>2017-07-18T15:53:51Z</time>
      </trkpt>
      <trkpt lat="45.76862" lon="3.01903">
        <ele>760.1</ele>
        <time>2017-07-18T15:53:51Z</time>
      </trkpt>
      <trkpt lat="45.76862" lon="3.01907">
        <ele>759.9</ele>
        <time>2017-07-18T15:53:51Z</time>
      </trkpt>
      <trkpt lat="45.76863" lon="3.0191">
        <ele>759.8</ele>
        <time>2017-07-18T15:53:51Z</time>
      </trkpt>
      <trkpt lat="45.76863" lon="3.01914">
        <ele>759.7</ele>
        <time>2017-07-18T15:53:51Z</time>
      </trkpt>
      <trkpt lat="45.76864" lon="3.01918">
        <ele>759.5</ele>
        <time>2017-07-18T15:53:51Z</time>
      </trkpt>
      <trkpt lat="45.76864" lon="3.01921">
        <ele>759.2</ele>
        <time>2017-07-18T15:53:51Z</time>
      </trkpt>
      <trkpt lat="45.76865" lon="3.01925">
        <ele>759</ele>
        <time>2017-07-18T15:53:51Z</time>
      </trkpt>
      <trkpt lat="45.76866" lon="3.01928">
        <ele>758.7</ele>
        <time>2017-07-18T15:53:51Z</time>
      </trkpt>
      <trkpt lat="45.76866" lon="3.01932">
        <ele>758.5</ele>
        <time>2017-07-18T15:53:51Z</time>
      </trkpt>
      <trkpt lat="45.76867" lon="3.01935">
        <ele>758.2</ele>
        <time>2017-07-18T15:53:51Z</time>
      </trkpt>
      <trkpt lat="45.76867" lon="3.01938">
        <ele>757.9</ele>
        <time>2017-07-18T15:53:51Z</time>
      </trkpt>
      <trkpt lat="45.76868" lon="3.01941">
        <ele>757.7</ele>
        <time>2017-07-18T15:53:51Z</time>
      </trkpt>
      <trkpt lat="45.76869" lon="3.01944">
        <ele>757.5</ele>
        <time>2017-07-18T15:53:51Z</time>
      </trkpt>
      <trkpt lat="45.76869" lon="3.01948">
        <ele>757.2</ele>
        <time>2017-07-18T15:53:51Z</time>
      </trkpt>
      <trkpt lat="45.7687" lon="3.01951">
        <ele>757</ele>
        <time>2017-07-18T15:53:51Z</time>
      </trkpt>
      <trkpt lat="45.76871" lon="3.01954">
        <ele>756.8</ele>
        <time>2017-07-18T15:53:51Z</time>
      </trkpt>
      <trkpt lat="45.76872" lon="3.01957">
        <ele>756.6</ele>
        <time>2017-07-18T15:53:51Z</time>
      </trkpt>
      <trkpt lat="45.76873" lon="3.0196">
        <ele>756.4</ele>
        <time>2017-07-18T15:53:51Z</time>
      </trkpt>
      <trkpt lat="45.76874" lon="3.01964">
        <ele>756.2</ele>
        <time>2017-07-18T15:53:51Z</time>
      </trkpt>
      <trkpt lat="45.76875" lon="3.01967">
        <ele>756</ele>
        <time>2017-07-18T15:53:51Z</time>
      </trkpt>
      <trkpt lat="45.76876" lon="3.0197">
        <ele>755.7</ele>
        <time>2017-07-18T15:53:51Z</time>
      </trkpt>
      <trkpt lat="45.76877" lon="3.01974">
        <ele>755.4</ele>
        <time>2017-07-18T15:53:51Z</time>
      </trkpt>
      <trkpt lat="45.76878" lon="3.01977">
        <ele>755.2</ele>
        <time>2017-07-18T15:53:51Z</time>
      </trkpt>
      <trkpt lat="45.76879" lon="3.0198">
        <ele>754.9</ele>
        <time>2017-07-18T15:53:51Z</time>
      </trkpt>
      <trkpt lat="45.7688" lon="3.01983">
        <ele>754.6</ele>
        <time>2017-07-18T15:53:51Z</time>
      </trkpt>
      <trkpt lat="45.7688" lon="3.01986">
        <ele>754.4</ele>
        <time>2017-07-18T15:53:51Z</time>
      </trkpt>
      <trkpt lat="45.76881" lon="3.0199">
        <ele>754</ele>
        <time>2017-07-18T15:53:51Z</time>
      </trkpt>
      <trkpt lat="45.76882" lon="3.01993">
        <ele>753.7</ele>
        <time>2017-07-18T15:53:51Z</time>
      </trkpt>
      <trkpt lat="45.76883" lon="3.01996">
        <ele>753.4</ele>
        <time>2017-07-18T15:53:51Z</time>
      </trkpt>
      <trkpt lat="45.76883" lon="3.02">
        <ele>753</ele>
        <time>2017-07-18T15:53:51Z</time>
      </trkpt>
      <trkpt lat="45.76883" lon="3.02003">
        <ele>752.7</ele>
        <time>2017-07-18T15:53:51Z</time>
      </trkpt>
      <trkpt lat="45.76884" lon="3.02006">
        <ele>752.4</ele>
        <time>2017-07-18T15:53:51Z</time>
      </trkpt>
      <trkpt lat="45.76884" lon="3.0201">
        <ele>752</ele>
        <time>2017-07-18T15:53:51Z</time>
      </trkpt>
      <trkpt lat="45.76885" lon="3.02013">
        <ele>751.7</ele>
        <time>2017-07-18T15:53:51Z</time>
      </trkpt>
      <trkpt lat="45.76885" lon="3.02017">
        <ele>751.4</ele>
        <time>2017-07-18T15:53:51Z</time>
      </trkpt>
      <trkpt lat="45.76886" lon="3.0202">
        <ele>751.1</ele>
        <time>2017-07-18T15:53:51Z</time>
      </trkpt>
      <trkpt lat="45.76886" lon="3.02024">
        <ele>750.8</ele>
        <time>2017-07-18T15:53:51Z</time>
      </trkpt>
      <trkpt lat="45.76887" lon="3.02027">
        <ele>750.5</ele>
        <time>2017-07-18T15:53:51Z</time>
      </trkpt>
      <trkpt lat="45.76887" lon="3.02031">
        <ele>750.1</ele>
        <time>2017-07-18T15:53:51Z</time>
      </trkpt>
      <trkpt lat="45.76887" lon="3.02035">
        <ele>749.7</ele>
        <time>2017-07-18T15:53:51Z</time>
      </trkpt>
      <trkpt lat="45.76887" lon="3.02038">
        <ele>749.3</ele>
        <time>2017-07-18T15:53:51Z</time>
      </trkpt>
      <trkpt lat="45.76887" lon="3.02041">
        <ele>749</ele>
        <time>2017-07-18T15:53:51Z</time>
      </trkpt>
      <trkpt lat="45.76886" lon="3.02043">
        <ele>748.7</ele>
        <time>2017-07-18T15:53:51Z</time>
      </trkpt>
      <trkpt lat="45.76886" lon="3.02045">
        <ele>748.5</ele>
        <time>2017-07-18T15:53:51Z</time>
      </trkpt>
      <trkpt lat="45.76886" lon="3.02046">
        <ele>748.4</ele>
        <time>2017-07-18T15:53:51Z</time>
      </trkpt>
      <trkpt lat="45.76886" lon="3.02046">
        <ele>748.4</ele>
        <time>2017-07-18T15:53:51Z</time>
      </trkpt>
      <trkpt lat="45.76886" lon="3.02046">
        <ele>748.4</ele>
        <time>2017-07-18T15:53:51Z</time>
      </trkpt>
      <trkpt lat="45.76887" lon="3.02048">
        <ele>748.3</ele>
        <time>2017-07-18T15:53:51Z</time>
      </trkpt>
      <trkpt lat="45.76887" lon="3.0205">
        <ele>748.1</ele>
        <time>2017-07-18T15:53:51Z</time>
      </trkpt>
      <trkpt lat="45.76888" lon="3.02052">
        <ele>747.9</ele>
        <time>2017-07-18T15:53:51Z</time>
      </trkpt>
      <trkpt lat="45.76888" lon="3.02055">
        <ele>747.6</ele>
        <time>2017-07-18T15:53:51Z</time>
      </trkpt>
      <trkpt lat="45.76889" lon="3.02058">
        <ele>747.4</ele>
        <time>2017-07-18T15:53:51Z</time>
      </trkpt>
      <trkpt lat="45.76889" lon="3.02062">
        <ele>747</ele>
        <time>2017-07-18T15:53:51Z</time>
      </trkpt>
      <trkpt lat="45.76889" lon="3.02065">
        <ele>746.7</ele>
        <time>2017-07-18T15:53:51Z</time>
      </trkpt>
      <trkpt lat="45.76889" lon="3.02068">
        <ele>746.3</ele>
        <time>2017-07-18T15:53:51Z</time>
      </trkpt>
      <trkpt lat="45.76889" lon="3.02071">
        <ele>746</ele>
        <time>2017-07-18T15:53:51Z</time>
      </trkpt>
      <trkpt lat="45.76889" lon="3.02075">
        <ele>745.6</ele>
        <time>2017-07-18T15:53:51Z</time>
      </trkpt>
      <trkpt lat="45.76889" lon="3.02078">
        <ele>745.3</ele>
        <time>2017-07-18T15:53:51Z</time>
      </trkpt>
      <trkpt lat="45.76889" lon="3.02081">
        <ele>745</ele>
        <time>2017-07-18T15:53:51Z</time>
      </trkpt>
      <trkpt lat="45.7689" lon="3.02085">
        <ele>744.7</ele>
        <time>2017-07-18T15:53:51Z</time>
      </trkpt>
      <trkpt lat="45.76891" lon="3.02088">
        <ele>744.6</ele>
        <time>2017-07-18T15:53:51Z</time>
      </trkpt>
      <trkpt lat="45.76891" lon="3.02091">
        <ele>744.4</ele>
        <time>2017-07-18T15:53:51Z</time>
      </trkpt>
      <trkpt lat="45.76891" lon="3.02094">
        <ele>744.2</ele>
        <time>2017-07-18T15:53:51Z</time>
      </trkpt>
      <trkpt lat="45.76892" lon="3.02097">
        <ele>744.1</ele>
        <time>2017-07-18T15:53:51Z</time>
      </trkpt>
      <trkpt lat="45.76893" lon="3.02101">
        <ele>744</ele>
        <time>2017-07-18T15:53:51Z</time>
      </trkpt>
      <trkpt lat="45.76894" lon="3.02104">
        <ele>743.8</ele>
        <time>2017-07-18T15:53:51Z</time>
      </trkpt>
      <trkpt lat="45.76894" lon="3.02107">
        <ele>743.7</ele>
        <time>2017-07-18T15:53:51Z</time>
      </trkpt>
      <trkpt lat="45.76895" lon="3.0211">
        <ele>743.6</ele>
        <time>2017-07-18T15:53:51Z</time>
      </trkpt>
      <trkpt lat="45.76896" lon="3.02113">
        <ele>743.4</ele>
        <time>2017-07-18T15:53:51Z</time>
      </trkpt>
      <trkpt lat="45.76896" lon="3.02115">
        <ele>743.4</ele>
        <time>2017-07-18T15:53:51Z</time>
      </trkpt>
      <trkpt lat="45.76896" lon="3.02115">
        <ele>743.4</ele>
        <time>2017-07-18T15:53:51Z</time>
      </trkpt>
      <trkpt lat="45.76898" lon="3.02125">
        <ele>742.9</ele>
        <time>2017-07-18T15:53:51Z</time>
      </trkpt>
      <trkpt lat="45.76898" lon="3.02125">
        <ele>742.8</ele>
        <time>2017-07-18T15:53:51Z</time>
      </trkpt>
      <trkpt lat="45.76898" lon="3.02126">
        <ele>742.9</ele>
        <time>2017-07-18T15:53:51Z</time>
      </trkpt>
      <trkpt lat="45.76899" lon="3.02126">
        <ele>742.9</ele>
        <time>2017-07-18T15:53:51Z</time>
      </trkpt>
      <trkpt lat="45.76899" lon="3.02126">
        <ele>742.9</ele>
        <time>2017-07-18T15:53:51Z</time>
      </trkpt>
      <trkpt lat="45.76899" lon="3.02128">
        <ele>742.8</ele>
        <time>2017-07-18T15:53:51Z</time>
      </trkpt>
      <trkpt lat="45.769" lon="3.0213">
        <ele>742.7</ele>
        <time>2017-07-18T15:53:51Z</time>
      </trkpt>
      <trkpt lat="45.769" lon="3.02133">
        <ele>742.6</ele>
        <time>2017-07-18T15:53:51Z</time>
      </trkpt>
      <trkpt lat="45.76901" lon="3.02136">
        <ele>742.5</ele>
        <time>2017-07-18T15:53:51Z</time>
      </trkpt>
      <trkpt lat="45.76902" lon="3.02139">
        <ele>742.3</ele>
        <time>2017-07-18T15:53:51Z</time>
      </trkpt>
      <trkpt lat="45.76904" lon="3.02142">
        <ele>742.4</ele>
        <time>2017-07-18T15:53:51Z</time>
      </trkpt>
      <trkpt lat="45.76906" lon="3.02143">
        <ele>742.5</ele>
        <time>2017-07-18T15:53:51Z</time>
      </trkpt>
      <trkpt lat="45.76907" lon="3.02145">
        <ele>742.5</ele>
        <time>2017-07-18T15:53:51Z</time>
      </trkpt>
      <trkpt lat="45.76909" lon="3.02147">
        <ele>742.6</ele>
        <time>2017-07-18T15:53:51Z</time>
      </trkpt>
      <trkpt lat="45.7691" lon="3.02149">
        <ele>742.5</ele>
        <time>2017-07-18T15:53:51Z</time>
      </trkpt>
      <trkpt lat="45.76912" lon="3.02152">
        <ele>742.5</ele>
        <time>2017-07-18T15:53:51Z</time>
      </trkpt>
      <trkpt lat="45.76913" lon="3.02154">
        <ele>742.5</ele>
        <time>2017-07-18T15:53:51Z</time>
      </trkpt>
      <trkpt lat="45.76914" lon="3.02156">
        <ele>742.4</ele>
        <time>2017-07-18T15:53:51Z</time>
      </trkpt>
      <trkpt lat="45.76915" lon="3.02159">
        <ele>742.4</ele>
        <time>2017-07-18T15:53:51Z</time>
      </trkpt>
      <trkpt lat="45.76916" lon="3.02161">
        <ele>742.3</ele>
        <time>2017-07-18T15:53:51Z</time>
      </trkpt>
      <trkpt lat="45.76917" lon="3.02164">
        <ele>742.2</ele>
        <time>2017-07-18T15:53:51Z</time>
      </trkpt>
      <trkpt lat="45.76919" lon="3.02166">
        <ele>741.9</ele>
        <time>2017-07-18T15:53:51Z</time>
      </trkpt>
      <trkpt lat="45.7692" lon="3.02168">
        <ele>741.6</ele>
        <time>2017-07-18T15:53:51Z</time>
      </trkpt>
      <trkpt lat="45.76921" lon="3.02171">
        <ele>741.4</ele>
        <time>2017-07-18T15:53:51Z</time>
      </trkpt>
      <trkpt lat="45.76923" lon="3.02174">
        <ele>741</ele>
        <time>2017-07-18T15:53:51Z</time>
      </trkpt>
      <trkpt lat="45.76924" lon="3.02177">
        <ele>740.8</ele>
        <time>2017-07-18T15:53:51Z</time>
      </trkpt>
      <trkpt lat="45.76926" lon="3.02179">
        <ele>740.6</ele>
        <time>2017-07-18T15:53:51Z</time>
      </trkpt>
      <trkpt lat="45.76927" lon="3.02182">
        <ele>740.3</ele>
        <time>2017-07-18T15:53:51Z</time>
      </trkpt>
      <trkpt lat="45.76929" lon="3.02185">
        <ele>740</ele>
        <time>2017-07-18T15:53:51Z</time>
      </trkpt>
      <trkpt lat="45.7693" lon="3.02188">
        <ele>739.7</ele>
        <time>2017-07-18T15:53:51Z</time>
      </trkpt>
      <trkpt lat="45.76931" lon="3.02191">
        <ele>739.5</ele>
        <time>2017-07-18T15:53:51Z</time>
      </trkpt>
      <trkpt lat="45.76933" lon="3.02193">
        <ele>739.3</ele>
        <time>2017-07-18T15:53:51Z</time>
      </trkpt>
      <trkpt lat="45.76933" lon="3.02195">
        <ele>739.1</ele>
        <time>2017-07-18T15:53:51Z</time>
      </trkpt>
      <trkpt lat="45.76935" lon="3.02197">
        <ele>738.9</ele>
        <time>2017-07-18T15:53:51Z</time>
      </trkpt>
      <trkpt lat="45.76936" lon="3.022">
        <ele>738.7</ele>
        <time>2017-07-18T15:53:51Z</time>
      </trkpt>
      <trkpt lat="45.76937" lon="3.02203">
        <ele>738.4</ele>
        <time>2017-07-18T15:53:51Z</time>
      </trkpt>
      <trkpt lat="45.76938" lon="3.02206">
        <ele>738.2</ele>
        <time>2017-07-18T15:53:51Z</time>
      </trkpt>
      <trkpt lat="45.76938" lon="3.02209">
        <ele>738</ele>
        <time>2017-07-18T15:53:51Z</time>
      </trkpt>
      <trkpt lat="45.76939" lon="3.02213">
        <ele>737.8</ele>
        <time>2017-07-18T15:53:51Z</time>
      </trkpt>
      <trkpt lat="45.7694" lon="3.02217">
        <ele>737.5</ele>
        <time>2017-07-18T15:53:51Z</time>
      </trkpt>
      <trkpt lat="45.7694" lon="3.0222">
        <ele>737.3</ele>
        <time>2017-07-18T15:53:51Z</time>
      </trkpt>
      <trkpt lat="45.76941" lon="3.02223">
        <ele>737.1</ele>
        <time>2017-07-18T15:53:51Z</time>
      </trkpt>
      <trkpt lat="45.76942" lon="3.02227">
        <ele>736.9</ele>
        <time>2017-07-18T15:53:51Z</time>
      </trkpt>
      <trkpt lat="45.76942" lon="3.02231">
        <ele>736.7</ele>
        <time>2017-07-18T15:53:51Z</time>
      </trkpt>
      <trkpt lat="45.76943" lon="3.02234">
        <ele>736.5</ele>
        <time>2017-07-18T15:53:51Z</time>
      </trkpt>
      <trkpt lat="45.76943" lon="3.02238">
        <ele>736.3</ele>
        <time>2017-07-18T15:53:51Z</time>
      </trkpt>
      <trkpt lat="45.76943" lon="3.02242">
        <ele>736.1</ele>
        <time>2017-07-18T15:53:51Z</time>
      </trkpt>
      <trkpt lat="45.76944" lon="3.02246">
        <ele>735.9</ele>
        <time>2017-07-18T15:53:51Z</time>
      </trkpt>
      <trkpt lat="45.76944" lon="3.02249">
        <ele>735.8</ele>
        <time>2017-07-18T15:53:51Z</time>
      </trkpt>
      <trkpt lat="45.76944" lon="3.02253">
        <ele>735.6</ele>
        <time>2017-07-18T15:53:51Z</time>
      </trkpt>
      <trkpt lat="45.76944" lon="3.02257">
        <ele>735.4</ele>
        <time>2017-07-18T15:53:51Z</time>
      </trkpt>
      <trkpt lat="45.76944" lon="3.02261">
        <ele>735.2</ele>
        <time>2017-07-18T15:53:51Z</time>
      </trkpt>
      <trkpt lat="45.76944" lon="3.02264">
        <ele>735</ele>
        <time>2017-07-18T15:53:51Z</time>
      </trkpt>
      <trkpt lat="45.76945" lon="3.02269">
        <ele>734.8</ele>
        <time>2017-07-18T15:53:51Z</time>
      </trkpt>
      <trkpt lat="45.76945" lon="3.02273">
        <ele>734.6</ele>
        <time>2017-07-18T15:53:51Z</time>
      </trkpt>
      <trkpt lat="45.76944" lon="3.02277">
        <ele>734.4</ele>
        <time>2017-07-18T15:53:51Z</time>
      </trkpt>
      <trkpt lat="45.76944" lon="3.02281">
        <ele>734.2</ele>
        <time>2017-07-18T15:53:51Z</time>
      </trkpt>
      <trkpt lat="45.76945" lon="3.02285">
        <ele>734</ele>
        <time>2017-07-18T15:53:51Z</time>
      </trkpt>
      <trkpt lat="45.76946" lon="3.02289">
        <ele>733.7</ele>
        <time>2017-07-18T15:53:51Z</time>
      </trkpt>
      <trkpt lat="45.76946" lon="3.02293">
        <ele>733.5</ele>
        <time>2017-07-18T15:53:51Z</time>
      </trkpt>
      <trkpt lat="45.76947" lon="3.02297">
        <ele>733.2</ele>
        <time>2017-07-18T15:53:51Z</time>
      </trkpt>
      <trkpt lat="45.76947" lon="3.02301">
        <ele>733.1</ele>
        <time>2017-07-18T15:53:51Z</time>
      </trkpt>
      <trkpt lat="45.76946" lon="3.02305">
        <ele>732.9</ele>
        <time>2017-07-18T15:53:51Z</time>
      </trkpt>
      <trkpt lat="45.76946" lon="3.02309">
        <ele>732.7</ele>
        <time>2017-07-18T15:53:51Z</time>
      </trkpt>
      <trkpt lat="45.76946" lon="3.02313">
        <ele>732.6</ele>
        <time>2017-07-18T15:53:51Z</time>
      </trkpt>
      <trkpt lat="45.76946" lon="3.02316">
        <ele>732.4</ele>
        <time>2017-07-18T15:53:51Z</time>
      </trkpt>
      <trkpt lat="45.76946" lon="3.0232">
        <ele>732.2</ele>
        <time>2017-07-18T15:53:51Z</time>
      </trkpt>
      <trkpt lat="45.76946" lon="3.02324">
        <ele>732</ele>
        <time>2017-07-18T15:53:51Z</time>
      </trkpt>
      <trkpt lat="45.76946" lon="3.02328">
        <ele>731.8</ele>
        <time>2017-07-18T15:53:51Z</time>
      </trkpt>
      <trkpt lat="45.76947" lon="3.02332">
        <ele>731.6</ele>
        <time>2017-07-18T15:53:51Z</time>
      </trkpt>
      <trkpt lat="45.76947" lon="3.02336">
        <ele>731.3</ele>
        <time>2017-07-18T15:53:51Z</time>
      </trkpt>
      <trkpt lat="45.76947" lon="3.0234">
        <ele>731</ele>
        <time>2017-07-18T15:53:51Z</time>
      </trkpt>
      <trkpt lat="45.76948" lon="3.02344">
        <ele>730.7</ele>
        <time>2017-07-18T15:53:51Z</time>
      </trkpt>
      <trkpt lat="45.76949" lon="3.02347">
        <ele>730.4</ele>
        <time>2017-07-18T15:53:51Z</time>
      </trkpt>
      <trkpt lat="45.76949" lon="3.02351">
        <ele>730.2</ele>
        <time>2017-07-18T15:53:51Z</time>
      </trkpt>
      <trkpt lat="45.7695" lon="3.02355">
        <ele>729.9</ele>
        <time>2017-07-18T15:53:51Z</time>
      </trkpt>
      <trkpt lat="45.7695" lon="3.02358">
        <ele>729.6</ele>
        <time>2017-07-18T15:53:51Z</time>
      </trkpt>
      <trkpt lat="45.76951" lon="3.02362">
        <ele>729.3</ele>
        <time>2017-07-18T15:53:51Z</time>
      </trkpt>
      <trkpt lat="45.76952" lon="3.02365">
        <ele>729</ele>
        <time>2017-07-18T15:53:51Z</time>
      </trkpt>
      <trkpt lat="45.76952" lon="3.02369">
        <ele>728.8</ele>
        <time>2017-07-18T15:53:51Z</time>
      </trkpt>
      <trkpt lat="45.76953" lon="3.02373">
        <ele>728.5</ele>
        <time>2017-07-18T15:53:51Z</time>
      </trkpt>
      <trkpt lat="45.76953" lon="3.02377">
        <ele>728.2</ele>
        <time>2017-07-18T15:53:51Z</time>
      </trkpt>
      <trkpt lat="45.76954" lon="3.0238">
        <ele>727.9</ele>
        <time>2017-07-18T15:53:51Z</time>
      </trkpt>
      <trkpt lat="45.76955" lon="3.02384">
        <ele>727.7</ele>
        <time>2017-07-18T15:53:51Z</time>
      </trkpt>
      <trkpt lat="45.76956" lon="3.02388">
        <ele>727.4</ele>
        <time>2017-07-18T15:53:51Z</time>
      </trkpt>
      <trkpt lat="45.76956" lon="3.02392">
        <ele>727.1</ele>
        <time>2017-07-18T15:53:51Z</time>
      </trkpt>
      <trkpt lat="45.76958" lon="3.02396">
        <ele>726.9</ele>
        <time>2017-07-18T15:53:51Z</time>
      </trkpt>
      <trkpt lat="45.76958" lon="3.024">
        <ele>726.6</ele>
        <time>2017-07-18T15:53:51Z</time>
      </trkpt>
      <trkpt lat="45.76959" lon="3.02404">
        <ele>726.3</ele>
        <time>2017-07-18T15:53:51Z</time>
      </trkpt>
      <trkpt lat="45.76959" lon="3.02408">
        <ele>726.1</ele>
        <time>2017-07-18T15:53:51Z</time>
      </trkpt>
      <trkpt lat="45.7696" lon="3.02412">
        <ele>725.8</ele>
        <time>2017-07-18T15:53:51Z</time>
      </trkpt>
      <trkpt lat="45.7696" lon="3.02416">
        <ele>725.5</ele>
        <time>2017-07-18T15:53:51Z</time>
      </trkpt>
      <trkpt lat="45.76961" lon="3.02421">
        <ele>725.4</ele>
        <time>2017-07-18T15:53:51Z</time>
      </trkpt>
      <trkpt lat="45.76961" lon="3.02424">
        <ele>725.3</ele>
        <time>2017-07-18T15:53:51Z</time>
      </trkpt>
      <trkpt lat="45.76962" lon="3.02428">
        <ele>725.2</ele>
        <time>2017-07-18T15:53:51Z</time>
      </trkpt>
      <trkpt lat="45.76962" lon="3.02432">
        <ele>725.1</ele>
        <time>2017-07-18T15:53:51Z</time>
      </trkpt>
      <trkpt lat="45.76962" lon="3.02436">
        <ele>724.9</ele>
        <time>2017-07-18T15:53:51Z</time>
      </trkpt>
      <trkpt lat="45.76961" lon="3.0244">
        <ele>724.8</ele>
        <time>2017-07-18T15:53:51Z</time>
      </trkpt>
      <trkpt lat="45.76961" lon="3.02443">
        <ele>724.7</ele>
        <time>2017-07-18T15:53:51Z</time>
      </trkpt>
      <trkpt lat="45.76961" lon="3.02447">
        <ele>724.5</ele>
        <time>2017-07-18T15:53:51Z</time>
      </trkpt>
      <trkpt lat="45.76961" lon="3.02451">
        <ele>724.4</ele>
        <time>2017-07-18T15:53:51Z</time>
      </trkpt>
      <trkpt lat="45.76961" lon="3.02454">
        <ele>724.3</ele>
        <time>2017-07-18T15:53:51Z</time>
      </trkpt>
      <trkpt lat="45.76961" lon="3.02458">
        <ele>724.2</ele>
        <time>2017-07-18T15:53:51Z</time>
      </trkpt>
      <trkpt lat="45.76961" lon="3.02462">
        <ele>724</ele>
        <time>2017-07-18T15:53:51Z</time>
      </trkpt>
      <trkpt lat="45.76961" lon="3.02466">
        <ele>723.9</ele>
        <time>2017-07-18T15:53:51Z</time>
      </trkpt>
      <trkpt lat="45.76962" lon="3.0247">
        <ele>723.8</ele>
        <time>2017-07-18T15:53:51Z</time>
      </trkpt>
      <trkpt lat="45.76962" lon="3.02475">
        <ele>723.7</ele>
        <time>2017-07-18T15:53:51Z</time>
      </trkpt>
      <trkpt lat="45.76962" lon="3.02479">
        <ele>723.5</ele>
        <time>2017-07-18T15:53:51Z</time>
      </trkpt>
      <trkpt lat="45.76962" lon="3.02484">
        <ele>723.4</ele>
        <time>2017-07-18T15:53:51Z</time>
      </trkpt>
      <trkpt lat="45.76963" lon="3.02488">
        <ele>723.3</ele>
        <time>2017-07-18T15:53:51Z</time>
      </trkpt>
      <trkpt lat="45.76963" lon="3.02493">
        <ele>723.2</ele>
        <time>2017-07-18T15:53:51Z</time>
      </trkpt>
      <trkpt lat="45.76962" lon="3.02497">
        <ele>723</ele>
        <time>2017-07-18T15:53:51Z</time>
      </trkpt>
      <trkpt lat="45.76962" lon="3.025">
        <ele>722.9</ele>
        <time>2017-07-18T15:53:51Z</time>
      </trkpt>
      <trkpt lat="45.76962" lon="3.02504">
        <ele>722.9</ele>
        <time>2017-07-18T15:53:51Z</time>
      </trkpt>
      <trkpt lat="45.76961" lon="3.02508">
        <ele>722.8</ele>
        <time>2017-07-18T15:53:51Z</time>
      </trkpt>
      <trkpt lat="45.7696" lon="3.02511">
        <ele>722.7</ele>
        <time>2017-07-18T15:53:51Z</time>
      </trkpt>
      <trkpt lat="45.76959" lon="3.02514">
        <ele>722.5</ele>
        <time>2017-07-18T15:53:51Z</time>
      </trkpt>
      <trkpt lat="45.76957" lon="3.02516">
        <ele>722.3</ele>
        <time>2017-07-18T15:53:51Z</time>
      </trkpt>
      <trkpt lat="45.76955" lon="3.02519">
        <ele>722.1</ele>
        <time>2017-07-18T15:53:51Z</time>
      </trkpt>
      <trkpt lat="45.76954" lon="3.02521">
        <ele>721.8</ele>
        <time>2017-07-18T15:53:51Z</time>
      </trkpt>
      <trkpt lat="45.76952" lon="3.02524">
        <ele>721.6</ele>
        <time>2017-07-18T15:53:51Z</time>
      </trkpt>
      <trkpt lat="45.76951" lon="3.02527">
        <ele>721.5</ele>
        <time>2017-07-18T15:53:51Z</time>
      </trkpt>
      <trkpt lat="45.76952" lon="3.02531">
        <ele>721.5</ele>
        <time>2017-07-18T15:53:51Z</time>
      </trkpt>
      <trkpt lat="45.76953" lon="3.02534">
        <ele>721.6</ele>
        <time>2017-07-18T15:53:51Z</time>
      </trkpt>
      <trkpt lat="45.76954" lon="3.02537">
        <ele>721.7</ele>
        <time>2017-07-18T15:53:51Z</time>
      </trkpt>
      <trkpt lat="45.76955" lon="3.0254">
        <ele>721.9</ele>
        <time>2017-07-18T15:53:51Z</time>
      </trkpt>
      <trkpt lat="45.76957" lon="3.02543">
        <ele>722.1</ele>
        <time>2017-07-18T15:53:51Z</time>
      </trkpt>
      <trkpt lat="45.76959" lon="3.02545">
        <ele>722.3</ele>
        <time>2017-07-18T15:53:51Z</time>
      </trkpt>
      <trkpt lat="45.76961" lon="3.02548">
        <ele>722.5</ele>
        <time>2017-07-18T15:53:51Z</time>
      </trkpt>
      <trkpt lat="45.76962" lon="3.02551">
        <ele>722.7</ele>
        <time>2017-07-18T15:53:51Z</time>
      </trkpt>
      <trkpt lat="45.76964" lon="3.02554">
        <ele>722.9</ele>
        <time>2017-07-18T15:53:51Z</time>
      </trkpt>
      <trkpt lat="45.76965" lon="3.02558">
        <ele>723.1</ele>
        <time>2017-07-18T15:53:51Z</time>
      </trkpt>
      <trkpt lat="45.76966" lon="3.02561">
        <ele>723.2</ele>
        <time>2017-07-18T15:53:51Z</time>
      </trkpt>
      <trkpt lat="45.76968" lon="3.02564">
        <ele>723.4</ele>
        <time>2017-07-18T15:53:51Z</time>
      </trkpt>
      <trkpt lat="45.76969" lon="3.02568">
        <ele>723.5</ele>
        <time>2017-07-18T15:53:51Z</time>
      </trkpt>
      <trkpt lat="45.7697" lon="3.02571">
        <ele>723.7</ele>
        <time>2017-07-18T15:53:51Z</time>
      </trkpt>
      <trkpt lat="45.76972" lon="3.02574">
        <ele>723.9</ele>
        <time>2017-07-18T15:53:51Z</time>
      </trkpt>
      <trkpt lat="45.76973" lon="3.02578">
        <ele>724.1</ele>
        <time>2017-07-18T15:53:51Z</time>
      </trkpt>
      <trkpt lat="45.76974" lon="3.02581">
        <ele>724.3</ele>
        <time>2017-07-18T15:53:51Z</time>
      </trkpt>
      <trkpt lat="45.76975" lon="3.02585">
        <ele>724.5</ele>
        <time>2017-07-18T15:53:51Z</time>
      </trkpt>
      <trkpt lat="45.76977" lon="3.02588">
        <ele>724.8</ele>
        <time>2017-07-18T15:53:51Z</time>
      </trkpt>
      <trkpt lat="45.76978" lon="3.02592">
        <ele>725.1</ele>
        <time>2017-07-18T15:53:51Z</time>
      </trkpt>
      <trkpt lat="45.76978" lon="3.02596">
        <ele>725.3</ele>
        <time>2017-07-18T15:53:51Z</time>
      </trkpt>
      <trkpt lat="45.76979" lon="3.026">
        <ele>725.5</ele>
        <time>2017-07-18T15:53:51Z</time>
      </trkpt>
      <trkpt lat="45.76979" lon="3.02604">
        <ele>725.7</ele>
        <time>2017-07-18T15:53:51Z</time>
      </trkpt>
      <trkpt lat="45.7698" lon="3.02607">
        <ele>725.9</ele>
        <time>2017-07-18T15:53:51Z</time>
      </trkpt>
      <trkpt lat="45.76981" lon="3.02611">
        <ele>726.1</ele>
        <time>2017-07-18T15:53:51Z</time>
      </trkpt>
      <trkpt lat="45.76982" lon="3.02615">
        <ele>726.4</ele>
        <time>2017-07-18T15:53:51Z</time>
      </trkpt>
      <trkpt lat="45.76983" lon="3.02619">
        <ele>726.6</ele>
        <time>2017-07-18T15:53:51Z</time>
      </trkpt>
      <trkpt lat="45.76984" lon="3.02623">
        <ele>726.9</ele>
        <time>2017-07-18T15:53:51Z</time>
      </trkpt>
      <trkpt lat="45.76985" lon="3.02627">
        <ele>727.1</ele>
        <time>2017-07-18T15:53:51Z</time>
      </trkpt>
      <trkpt lat="45.76986" lon="3.02631">
        <ele>727.4</ele>
        <time>2017-07-18T15:53:51Z</time>
      </trkpt>
      <trkpt lat="45.76987" lon="3.02635">
        <ele>727.7</ele>
        <time>2017-07-18T15:53:51Z</time>
      </trkpt>
      <trkpt lat="45.76989" lon="3.02638">
        <ele>727.9</ele>
        <time>2017-07-18T15:53:51Z</time>
      </trkpt>
      <trkpt lat="45.7699" lon="3.02642">
        <ele>728.3</ele>
        <time>2017-07-18T15:53:51Z</time>
      </trkpt>
      <trkpt lat="45.76991" lon="3.02645">
        <ele>728.5</ele>
        <time>2017-07-18T15:53:51Z</time>
      </trkpt>
      <trkpt lat="45.76993" lon="3.02649">
        <ele>728.8</ele>
        <time>2017-07-18T15:53:51Z</time>
      </trkpt>
      <trkpt lat="45.76994" lon="3.02652">
        <ele>729</ele>
        <time>2017-07-18T15:53:51Z</time>
      </trkpt>
      <trkpt lat="45.76996" lon="3.02656">
        <ele>729.3</ele>
        <time>2017-07-18T15:53:51Z</time>
      </trkpt>
      <trkpt lat="45.76997" lon="3.02659">
        <ele>729.5</ele>
        <time>2017-07-18T15:53:51Z</time>
      </trkpt>
      <trkpt lat="45.76998" lon="3.02663">
        <ele>729.7</ele>
        <time>2017-07-18T15:53:51Z</time>
      </trkpt>
      <trkpt lat="45.77" lon="3.02667">
        <ele>730</ele>
        <time>2017-07-18T15:53:51Z</time>
      </trkpt>
      <trkpt lat="45.77001" lon="3.0267">
        <ele>730.1</ele>
        <time>2017-07-18T15:53:51Z</time>
      </trkpt>
      <trkpt lat="45.77002" lon="3.02674">
        <ele>730.2</ele>
        <time>2017-07-18T15:53:51Z</time>
      </trkpt>
      <trkpt lat="45.77003" lon="3.02678">
        <ele>730.3</ele>
        <time>2017-07-18T15:53:51Z</time>
      </trkpt>
      <trkpt lat="45.77005" lon="3.02682">
        <ele>730.4</ele>
        <time>2017-07-18T15:53:51Z</time>
      </trkpt>
      <trkpt lat="45.77006" lon="3.02686">
        <ele>730.5</ele>
        <time>2017-07-18T15:53:51Z</time>
      </trkpt>
      <trkpt lat="45.77007" lon="3.0269">
        <ele>730.6</ele>
        <time>2017-07-18T15:53:51Z</time>
      </trkpt>
      <trkpt lat="45.77009" lon="3.02694">
        <ele>730.7</ele>
        <time>2017-07-18T15:53:51Z</time>
      </trkpt>
      <trkpt lat="45.77011" lon="3.02698">
        <ele>730.7</ele>
        <time>2017-07-18T15:53:51Z</time>
      </trkpt>
      <trkpt lat="45.77013" lon="3.02701">
        <ele>730.6</ele>
        <time>2017-07-18T15:53:51Z</time>
      </trkpt>
      <trkpt lat="45.77014" lon="3.02705">
        <ele>730.7</ele>
        <time>2017-07-18T15:53:51Z</time>
      </trkpt>
      <trkpt lat="45.77016" lon="3.02708">
        <ele>730.6</ele>
        <time>2017-07-18T15:53:51Z</time>
      </trkpt>
      <trkpt lat="45.77018" lon="3.0271">
        <ele>730.6</ele>
        <time>2017-07-18T15:53:51Z</time>
      </trkpt>
      <trkpt lat="45.7702" lon="3.02713">
        <ele>730.6</ele>
        <time>2017-07-18T15:53:51Z</time>
      </trkpt>
      <trkpt lat="45.77021" lon="3.02716">
        <ele>730.5</ele>
        <time>2017-07-18T15:53:51Z</time>
      </trkpt>
      <trkpt lat="45.77023" lon="3.02719">
        <ele>730.4</ele>
        <time>2017-07-18T15:53:51Z</time>
      </trkpt>
      <trkpt lat="45.77025" lon="3.02722">
        <ele>730.3</ele>
        <time>2017-07-18T15:53:51Z</time>
      </trkpt>
      <trkpt lat="45.77027" lon="3.02725">
        <ele>730.3</ele>
        <time>2017-07-18T15:53:51Z</time>
      </trkpt>
      <trkpt lat="45.77029" lon="3.02729">
        <ele>730.3</ele>
        <time>2017-07-18T15:53:51Z</time>
      </trkpt>
      <trkpt lat="45.7703" lon="3.02732">
        <ele>730.4</ele>
        <time>2017-07-18T15:53:51Z</time>
      </trkpt>
      <trkpt lat="45.77032" lon="3.02736">
        <ele>730.4</ele>
        <time>2017-07-18T15:53:51Z</time>
      </trkpt>
      <trkpt lat="45.77033" lon="3.0274">
        <ele>730.5</ele>
        <time>2017-07-18T15:53:51Z</time>
      </trkpt>
      <trkpt lat="45.77034" lon="3.02744">
        <ele>730.7</ele>
        <time>2017-07-18T15:53:51Z</time>
      </trkpt>
      <trkpt lat="45.77035" lon="3.02747">
        <ele>730.8</ele>
        <time>2017-07-18T15:53:51Z</time>
      </trkpt>
      <trkpt lat="45.77036" lon="3.02751">
        <ele>730.9</ele>
        <time>2017-07-18T15:53:51Z</time>
      </trkpt>
      <trkpt lat="45.77037" lon="3.02755">
        <ele>731.1</ele>
        <time>2017-07-18T15:53:51Z</time>
      </trkpt>
      <trkpt lat="45.77038" lon="3.02758">
        <ele>731.3</ele>
        <time>2017-07-18T15:53:51Z</time>
      </trkpt>
      <trkpt lat="45.7704" lon="3.02762">
        <ele>731.4</ele>
        <time>2017-07-18T15:53:51Z</time>
      </trkpt>
      <trkpt lat="45.77042" lon="3.02766">
        <ele>731.6</ele>
        <time>2017-07-18T15:53:51Z</time>
      </trkpt>
      <trkpt lat="45.77043" lon="3.0277">
        <ele>731.8</ele>
        <time>2017-07-18T15:53:51Z</time>
      </trkpt>
      <trkpt lat="45.77044" lon="3.02774">
        <ele>732</ele>
        <time>2017-07-18T15:53:51Z</time>
      </trkpt>
      <trkpt lat="45.77045" lon="3.02777">
        <ele>732.1</ele>
        <time>2017-07-18T15:53:51Z</time>
      </trkpt>
      <trkpt lat="45.77047" lon="3.02781">
        <ele>732.3</ele>
        <time>2017-07-18T15:53:51Z</time>
      </trkpt>
      <trkpt lat="45.77049" lon="3.02785">
        <ele>732.4</ele>
        <time>2017-07-18T15:53:51Z</time>
      </trkpt>
      <trkpt lat="45.77051" lon="3.02788">
        <ele>732.4</ele>
        <time>2017-07-18T15:53:51Z</time>
      </trkpt>
      <trkpt lat="45.77052" lon="3.02791">
        <ele>732.6</ele>
        <time>2017-07-18T15:53:51Z</time>
      </trkpt>
      <trkpt lat="45.77054" lon="3.02795">
        <ele>732.7</ele>
        <time>2017-07-18T15:53:51Z</time>
      </trkpt>
      <trkpt lat="45.77055" lon="3.02798">
        <ele>732.8</ele>
        <time>2017-07-18T15:53:51Z</time>
      </trkpt>
      <trkpt lat="45.77057" lon="3.02801">
        <ele>733</ele>
        <time>2017-07-18T15:53:51Z</time>
      </trkpt>
      <trkpt lat="45.77058" lon="3.02804">
        <ele>733</ele>
        <time>2017-07-18T15:53:51Z</time>
      </trkpt>
      <trkpt lat="45.7706" lon="3.02807">
        <ele>733.1</ele>
        <time>2017-07-18T15:53:51Z</time>
      </trkpt>
      <trkpt lat="45.77062" lon="3.02811">
        <ele>733.4</ele>
        <time>2017-07-18T15:53:51Z</time>
      </trkpt>
      <trkpt lat="45.77063" lon="3.02815">
        <ele>733.6</ele>
        <time>2017-07-18T15:53:51Z</time>
      </trkpt>
      <trkpt lat="45.77064" lon="3.02817">
        <ele>733.7</ele>
        <time>2017-07-18T15:53:51Z</time>
      </trkpt>
      <trkpt lat="45.77065" lon="3.02821">
        <ele>733.9</ele>
        <time>2017-07-18T15:53:51Z</time>
      </trkpt>
      <trkpt lat="45.77066" lon="3.02824">
        <ele>734.1</ele>
        <time>2017-07-18T15:53:51Z</time>
      </trkpt>
      <trkpt lat="45.77068" lon="3.02827">
        <ele>734.2</ele>
        <time>2017-07-18T15:53:51Z</time>
      </trkpt>
      <trkpt lat="45.77069" lon="3.02831">
        <ele>734.5</ele>
        <time>2017-07-18T15:53:51Z</time>
      </trkpt>
      <trkpt lat="45.7707" lon="3.02834">
        <ele>734.6</ele>
        <time>2017-07-18T15:53:51Z</time>
      </trkpt>
      <trkpt lat="45.77072" lon="3.02838">
        <ele>734.7</ele>
        <time>2017-07-18T15:53:51Z</time>
      </trkpt>
      <trkpt lat="45.77072" lon="3.02842">
        <ele>734.8</ele>
        <time>2017-07-18T15:53:51Z</time>
      </trkpt>
      <trkpt lat="45.77073" lon="3.02846">
        <ele>735</ele>
        <time>2017-07-18T15:53:51Z</time>
      </trkpt>
      <trkpt lat="45.77074" lon="3.0285">
        <ele>735.2</ele>
        <time>2017-07-18T15:53:51Z</time>
      </trkpt>
      <trkpt lat="45.77074" lon="3.02854">
        <ele>735.3</ele>
        <time>2017-07-18T15:53:51Z</time>
      </trkpt>
      <trkpt lat="45.77075" lon="3.02858">
        <ele>735.5</ele>
        <time>2017-07-18T15:53:51Z</time>
      </trkpt>
      <trkpt lat="45.77075" lon="3.02862">
        <ele>735.7</ele>
        <time>2017-07-18T15:53:51Z</time>
      </trkpt>
      <trkpt lat="45.77076" lon="3.02866">
        <ele>735.9</ele>
        <time>2017-07-18T15:53:51Z</time>
      </trkpt>
      <trkpt lat="45.77076" lon="3.0287">
        <ele>736.1</ele>
        <time>2017-07-18T15:53:51Z</time>
      </trkpt>
      <trkpt lat="45.77077" lon="3.02873">
        <ele>736.2</ele>
        <time>2017-07-18T15:53:51Z</time>
      </trkpt>
      <trkpt lat="45.77077" lon="3.02877">
        <ele>736.4</ele>
        <time>2017-07-18T15:53:51Z</time>
      </trkpt>
      <trkpt lat="45.77078" lon="3.0288">
        <ele>736.4</ele>
        <time>2017-07-18T15:53:51Z</time>
      </trkpt>
      <trkpt lat="45.77079" lon="3.02883">
        <ele>736.5</ele>
        <time>2017-07-18T15:53:51Z</time>
      </trkpt>
      <trkpt lat="45.77081" lon="3.02886">
        <ele>736.5</ele>
        <time>2017-07-18T15:53:51Z</time>
      </trkpt>
      <trkpt lat="45.77082" lon="3.0289">
        <ele>736.5</ele>
        <time>2017-07-18T15:53:51Z</time>
      </trkpt>
      <trkpt lat="45.77084" lon="3.02893">
        <ele>736.5</ele>
        <time>2017-07-18T15:53:51Z</time>
      </trkpt>
      <trkpt lat="45.77086" lon="3.02896">
        <ele>736.5</ele>
        <time>2017-07-18T15:53:51Z</time>
      </trkpt>
      <trkpt lat="45.77088" lon="3.02899">
        <ele>736.6</ele>
        <time>2017-07-18T15:53:51Z</time>
      </trkpt>
      <trkpt lat="45.77089" lon="3.02903">
        <ele>736.6</ele>
        <time>2017-07-18T15:53:51Z</time>
      </trkpt>
      <trkpt lat="45.77091" lon="3.02905">
        <ele>736.6</ele>
        <time>2017-07-18T15:53:51Z</time>
      </trkpt>
      <trkpt lat="45.77093" lon="3.02908">
        <ele>736.6</ele>
        <time>2017-07-18T15:53:51Z</time>
      </trkpt>
      <trkpt lat="45.77095" lon="3.0291">
        <ele>736.7</ele>
        <time>2017-07-18T15:53:51Z</time>
      </trkpt>
      <trkpt lat="45.77097" lon="3.02913">
        <ele>736.7</ele>
        <time>2017-07-18T15:53:51Z</time>
      </trkpt>
      <trkpt lat="45.771" lon="3.02915">
        <ele>736.7</ele>
        <time>2017-07-18T15:53:51Z</time>
      </trkpt>
      <trkpt lat="45.77102" lon="3.02917">
        <ele>736.7</ele>
        <time>2017-07-18T15:53:51Z</time>
      </trkpt>
      <trkpt lat="45.77104" lon="3.02919">
        <ele>736.7</ele>
        <time>2017-07-18T15:53:51Z</time>
      </trkpt>
      <trkpt lat="45.77107" lon="3.0292">
        <ele>736.7</ele>
        <time>2017-07-18T15:53:51Z</time>
      </trkpt>
      <trkpt lat="45.77109" lon="3.02922">
        <ele>736.8</ele>
        <time>2017-07-18T15:53:51Z</time>
      </trkpt>
      <trkpt lat="45.77111" lon="3.02924">
        <ele>736.8</ele>
        <time>2017-07-18T15:53:51Z</time>
      </trkpt>
      <trkpt lat="45.77114" lon="3.02926">
        <ele>736.9</ele>
        <time>2017-07-18T15:53:51Z</time>
      </trkpt>
      <trkpt lat="45.77116" lon="3.02927">
        <ele>736.9</ele>
        <time>2017-07-18T15:53:51Z</time>
      </trkpt>
      <trkpt lat="45.77119" lon="3.02929">
        <ele>736.8</ele>
        <time>2017-07-18T15:53:51Z</time>
      </trkpt>
      <trkpt lat="45.77121" lon="3.0293">
        <ele>736.8</ele>
        <time>2017-07-18T15:53:51Z</time>
      </trkpt>
      <trkpt lat="45.77124" lon="3.02932">
        <ele>736.9</ele>
        <time>2017-07-18T15:53:51Z</time>
      </trkpt>
      <trkpt lat="45.77126" lon="3.02934">
        <ele>736.9</ele>
        <time>2017-07-18T15:53:51Z</time>
      </trkpt>
      <trkpt lat="45.77129" lon="3.02936">
        <ele>736.9</ele>
        <time>2017-07-18T15:53:51Z</time>
      </trkpt>
      <trkpt lat="45.77131" lon="3.02938">
        <ele>737</ele>
        <time>2017-07-18T15:53:51Z</time>
      </trkpt>
      <trkpt lat="45.77134" lon="3.02939">
        <ele>737</ele>
        <time>2017-07-18T15:53:51Z</time>
      </trkpt>
      <trkpt lat="45.77136" lon="3.02941">
        <ele>737</ele>
        <time>2017-07-18T15:53:51Z</time>
      </trkpt>
      <trkpt lat="45.77139" lon="3.02943">
        <ele>737.1</ele>
        <time>2017-07-18T15:53:51Z</time>
      </trkpt>
      <trkpt lat="45.77141" lon="3.02945">
        <ele>737.2</ele>
        <time>2017-07-18T15:53:51Z</time>
      </trkpt>
      <trkpt lat="45.77144" lon="3.02947">
        <ele>737.2</ele>
        <time>2017-07-18T15:53:51Z</time>
      </trkpt>
      <trkpt lat="45.77146" lon="3.0295">
        <ele>737.3</ele>
        <time>2017-07-18T15:53:51Z</time>
      </trkpt>
      <trkpt lat="45.77149" lon="3.02952">
        <ele>737.4</ele>
        <time>2017-07-18T15:53:51Z</time>
      </trkpt>
      <trkpt lat="45.77151" lon="3.02954">
        <ele>737.5</ele>
        <time>2017-07-18T15:53:51Z</time>
      </trkpt>
      <trkpt lat="45.77154" lon="3.02956">
        <ele>737.5</ele>
        <time>2017-07-18T15:53:51Z</time>
      </trkpt>
      <trkpt lat="45.77156" lon="3.02958">
        <ele>737.6</ele>
        <time>2017-07-18T15:53:51Z</time>
      </trkpt>
      <trkpt lat="45.77159" lon="3.02959">
        <ele>737.6</ele>
        <time>2017-07-18T15:53:51Z</time>
      </trkpt>
      <trkpt lat="45.77161" lon="3.02961">
        <ele>737.7</ele>
        <time>2017-07-18T15:53:51Z</time>
      </trkpt>
      <trkpt lat="45.77164" lon="3.02963">
        <ele>737.7</ele>
        <time>2017-07-18T15:53:51Z</time>
      </trkpt>
      <trkpt lat="45.77166" lon="3.02964">
        <ele>737.8</ele>
        <time>2017-07-18T15:53:51Z</time>
      </trkpt>
      <trkpt lat="45.77169" lon="3.02966">
        <ele>737.6</ele>
        <time>2017-07-18T15:53:51Z</time>
      </trkpt>
      <trkpt lat="45.77172" lon="3.02968">
        <ele>737.5</ele>
        <time>2017-07-18T15:53:51Z</time>
      </trkpt>
      <trkpt lat="45.77174" lon="3.0297">
        <ele>737.3</ele>
        <time>2017-07-18T15:53:51Z</time>
      </trkpt>
      <trkpt lat="45.77177" lon="3.02971">
        <ele>737.1</ele>
        <time>2017-07-18T15:53:51Z</time>
      </trkpt>
      <trkpt lat="45.7718" lon="3.02973">
        <ele>737</ele>
        <time>2017-07-18T15:53:51Z</time>
      </trkpt>
      <trkpt lat="45.77182" lon="3.02975">
        <ele>736.8</ele>
        <time>2017-07-18T15:53:51Z</time>
      </trkpt>
      <trkpt lat="45.77186" lon="3.02976">
        <ele>736.5</ele>
        <time>2017-07-18T15:53:51Z</time>
      </trkpt>
      <trkpt lat="45.77188" lon="3.02978">
        <ele>736.4</ele>
        <time>2017-07-18T15:53:51Z</time>
      </trkpt>
      <trkpt lat="45.77191" lon="3.02979">
        <ele>736.1</ele>
        <time>2017-07-18T15:53:51Z</time>
      </trkpt>
      <trkpt lat="45.77193" lon="3.0298">
        <ele>735.9</ele>
        <time>2017-07-18T15:53:51Z</time>
      </trkpt>
      <trkpt lat="45.77196" lon="3.02981">
        <ele>735.8</ele>
        <time>2017-07-18T15:53:51Z</time>
      </trkpt>
      <trkpt lat="45.77198" lon="3.02982">
        <ele>735.6</ele>
        <time>2017-07-18T15:53:51Z</time>
      </trkpt>
      <trkpt lat="45.772" lon="3.02984">
        <ele>735.5</ele>
        <time>2017-07-18T15:53:51Z</time>
      </trkpt>
      <trkpt lat="45.77203" lon="3.02985">
        <ele>735.3</ele>
        <time>2017-07-18T15:53:51Z</time>
      </trkpt>
      <trkpt lat="45.77205" lon="3.02987">
        <ele>735.2</ele>
        <time>2017-07-18T15:53:51Z</time>
      </trkpt>
      <trkpt lat="45.77208" lon="3.02989">
        <ele>735.2</ele>
        <time>2017-07-18T15:53:51Z</time>
      </trkpt>
      <trkpt lat="45.7721" lon="3.02991">
        <ele>735.1</ele>
        <time>2017-07-18T15:53:51Z</time>
      </trkpt>
      <trkpt lat="45.77213" lon="3.02993">
        <ele>735</ele>
        <time>2017-07-18T15:53:51Z</time>
      </trkpt>
      <trkpt lat="45.77215" lon="3.02995">
        <ele>734.9</ele>
        <time>2017-07-18T15:53:51Z</time>
      </trkpt>
      <trkpt lat="45.77218" lon="3.02996">
        <ele>734.8</ele>
        <time>2017-07-18T15:53:51Z</time>
      </trkpt>
      <trkpt lat="45.7722" lon="3.02998">
        <ele>734.7</ele>
        <time>2017-07-18T15:53:51Z</time>
      </trkpt>
      <trkpt lat="45.77222" lon="3.03">
        <ele>734.7</ele>
        <time>2017-07-18T15:53:51Z</time>
      </trkpt>
      <trkpt lat="45.77225" lon="3.03003">
        <ele>734.8</ele>
        <time>2017-07-18T15:53:51Z</time>
      </trkpt>
      <trkpt lat="45.77227" lon="3.03005">
        <ele>734.8</ele>
        <time>2017-07-18T15:53:51Z</time>
      </trkpt>
      <trkpt lat="45.77229" lon="3.03007">
        <ele>735</ele>
        <time>2017-07-18T15:53:51Z</time>
      </trkpt>
      <trkpt lat="45.77231" lon="3.03009">
        <ele>735</ele>
        <time>2017-07-18T15:53:51Z</time>
      </trkpt>
      <trkpt lat="45.77234" lon="3.03011">
        <ele>735.2</ele>
        <time>2017-07-18T15:53:51Z</time>
      </trkpt>
      <trkpt lat="45.77236" lon="3.03013">
        <ele>735.4</ele>
        <time>2017-07-18T15:53:51Z</time>
      </trkpt>
      <trkpt lat="45.77238" lon="3.03015">
        <ele>735.5</ele>
        <time>2017-07-18T15:53:51Z</time>
      </trkpt>
      <trkpt lat="45.77241" lon="3.03017">
        <ele>735.6</ele>
        <time>2017-07-18T15:53:51Z</time>
      </trkpt>
      <trkpt lat="45.77243" lon="3.03019">
        <ele>735.7</ele>
        <time>2017-07-18T15:53:51Z</time>
      </trkpt>
      <trkpt lat="45.77245" lon="3.03021">
        <ele>735.7</ele>
        <time>2017-07-18T15:53:51Z</time>
      </trkpt>
      <trkpt lat="45.77248" lon="3.03021">
        <ele>735.6</ele>
        <time>2017-07-18T15:53:51Z</time>
      </trkpt>
      <trkpt lat="45.7725" lon="3.03022">
        <ele>735.6</ele>
        <time>2017-07-18T15:53:51Z</time>
      </trkpt>
      <trkpt lat="45.7725" lon="3.03022">
        <ele>735.5</ele>
        <time>2017-07-18T15:53:51Z</time>
      </trkpt>
      <trkpt lat="45.77251" lon="3.03023">
        <ele>735.6</ele>
        <time>2017-07-18T15:53:51Z</time>
      </trkpt>
      <trkpt lat="45.77253" lon="3.03025">
        <ele>735.7</ele>
        <time>2017-07-18T15:53:51Z</time>
      </trkpt>
      <trkpt lat="45.77255" lon="3.03026">
        <ele>735.8</ele>
        <time>2017-07-18T15:53:51Z</time>
      </trkpt>
      <trkpt lat="45.77257" lon="3.03028">
        <ele>735.9</ele>
        <time>2017-07-18T15:53:51Z</time>
      </trkpt>
      <trkpt lat="45.77259" lon="3.0303">
        <ele>736</ele>
        <time>2017-07-18T15:53:51Z</time>
      </trkpt>
      <trkpt lat="45.77261" lon="3.0303">
        <ele>735.9</ele>
        <time>2017-07-18T15:53:51Z</time>
      </trkpt>
      <trkpt lat="45.77264" lon="3.03032">
        <ele>735.9</ele>
        <time>2017-07-18T15:53:51Z</time>
      </trkpt>
      <trkpt lat="45.77265" lon="3.03033">
        <ele>735.9</ele>
        <time>2017-07-18T15:53:51Z</time>
      </trkpt>
      <trkpt lat="45.77267" lon="3.03034">
        <ele>735.9</ele>
        <time>2017-07-18T15:53:51Z</time>
      </trkpt>
      <trkpt lat="45.77269" lon="3.03035">
        <ele>735.9</ele>
        <time>2017-07-18T15:53:51Z</time>
      </trkpt>
      <trkpt lat="45.77271" lon="3.03035">
        <ele>735.8</ele>
        <time>2017-07-18T15:53:51Z</time>
      </trkpt>
      <trkpt lat="45.77272" lon="3.03036">
        <ele>735.7</ele>
        <time>2017-07-18T15:53:51Z</time>
      </trkpt>
      <trkpt lat="45.77274" lon="3.03036">
        <ele>735.6</ele>
        <time>2017-07-18T15:53:51Z</time>
      </trkpt>
      <trkpt lat="45.77276" lon="3.03037">
        <ele>735.4</ele>
        <time>2017-07-18T15:53:51Z</time>
      </trkpt>
      <trkpt lat="45.77278" lon="3.03038">
        <ele>735.3</ele>
        <time>2017-07-18T15:53:51Z</time>
      </trkpt>
      <trkpt lat="45.7728" lon="3.03037">
        <ele>735.1</ele>
        <time>2017-07-18T15:53:51Z</time>
      </trkpt>
      <trkpt lat="45.77281" lon="3.03037">
        <ele>734.9</ele>
        <time>2017-07-18T15:53:51Z</time>
      </trkpt>
      <trkpt lat="45.77281" lon="3.03037">
        <ele>734.9</ele>
        <time>2017-07-18T15:53:51Z</time>
      </trkpt>
      <trkpt lat="45.77281" lon="3.03037">
        <ele>734.9</ele>
        <time>2017-07-18T15:53:51Z</time>
      </trkpt>
      <trkpt lat="45.77284" lon="3.03044">
        <ele>735.9</ele>
        <time>2017-07-18T15:53:51Z</time>
      </trkpt>
      <trkpt lat="45.77286" lon="3.03045">
        <ele>735.9</ele>
        <time>2017-07-18T15:53:51Z</time>
      </trkpt>
      <trkpt lat="45.77288" lon="3.03047">
        <ele>735.9</ele>
        <time>2017-07-18T15:53:51Z</time>
      </trkpt>
      <trkpt lat="45.7729" lon="3.03048">
        <ele>735.8</ele>
        <time>2017-07-18T15:53:51Z</time>
      </trkpt>
      <trkpt lat="45.77293" lon="3.03049">
        <ele>735.7</ele>
        <time>2017-07-18T15:53:51Z</time>
      </trkpt>
      <trkpt lat="45.77295" lon="3.0305">
        <ele>735.7</ele>
        <time>2017-07-18T15:53:51Z</time>
      </trkpt>
      <trkpt lat="45.77297" lon="3.03052">
        <ele>735.7</ele>
        <time>2017-07-18T15:53:51Z</time>
      </trkpt>
      <trkpt lat="45.773" lon="3.03053">
        <ele>735.6</ele>
        <time>2017-07-18T15:53:51Z</time>
      </trkpt>
      <trkpt lat="45.77302" lon="3.03054">
        <ele>735.7</ele>
        <time>2017-07-18T15:53:51Z</time>
      </trkpt>
      <trkpt lat="45.77304" lon="3.03056">
        <ele>735.7</ele>
        <time>2017-07-18T15:53:51Z</time>
      </trkpt>
      <trkpt lat="45.77306" lon="3.03058">
        <ele>735.7</ele>
        <time>2017-07-18T15:53:51Z</time>
      </trkpt>
      <trkpt lat="45.77309" lon="3.03059">
        <ele>735.7</ele>
        <time>2017-07-18T15:53:51Z</time>
      </trkpt>
      <trkpt lat="45.77311" lon="3.03061">
        <ele>735.8</ele>
        <time>2017-07-18T15:53:51Z</time>
      </trkpt>
      <trkpt lat="45.77313" lon="3.03062">
        <ele>735.7</ele>
        <time>2017-07-18T15:53:51Z</time>
      </trkpt>
      <trkpt lat="45.77316" lon="3.03064">
        <ele>735.7</ele>
        <time>2017-07-18T15:53:51Z</time>
      </trkpt>
      <trkpt lat="45.77318" lon="3.03065">
        <ele>735.7</ele>
        <time>2017-07-18T15:53:51Z</time>
      </trkpt>
      <trkpt lat="45.77321" lon="3.03067">
        <ele>735.6</ele>
        <time>2017-07-18T15:53:51Z</time>
      </trkpt>
      <trkpt lat="45.77323" lon="3.03068">
        <ele>735.6</ele>
        <time>2017-07-18T15:53:51Z</time>
      </trkpt>
      <trkpt lat="45.77325" lon="3.0307">
        <ele>735.7</ele>
        <time>2017-07-18T15:53:51Z</time>
      </trkpt>
      <trkpt lat="45.77328" lon="3.03072">
        <ele>735.7</ele>
        <time>2017-07-18T15:53:51Z</time>
      </trkpt>
      <trkpt lat="45.77331" lon="3.03075">
        <ele>735.8</ele>
        <time>2017-07-18T15:53:51Z</time>
      </trkpt>
      <trkpt lat="45.77333" lon="3.03077">
        <ele>735.8</ele>
        <time>2017-07-18T15:53:51Z</time>
      </trkpt>
      <trkpt lat="45.77335" lon="3.03079">
        <ele>735.8</ele>
        <time>2017-07-18T15:53:51Z</time>
      </trkpt>
      <trkpt lat="45.77337" lon="3.03081">
        <ele>735.9</ele>
        <time>2017-07-18T15:53:51Z</time>
      </trkpt>
      <trkpt lat="45.7734" lon="3.03083">
        <ele>735.8</ele>
        <time>2017-07-18T15:53:51Z</time>
      </trkpt>
      <trkpt lat="45.77343" lon="3.03086">
        <ele>735.6</ele>
        <time>2017-07-18T15:53:51Z</time>
      </trkpt>
      <trkpt lat="45.77345" lon="3.03088">
        <ele>735.5</ele>
        <time>2017-07-18T15:53:51Z</time>
      </trkpt>
      <trkpt lat="45.77348" lon="3.0309">
        <ele>735.3</ele>
        <time>2017-07-18T15:53:51Z</time>
      </trkpt>
      <trkpt lat="45.77351" lon="3.03092">
        <ele>735</ele>
        <time>2017-07-18T15:53:51Z</time>
      </trkpt>
      <trkpt lat="45.77353" lon="3.03095">
        <ele>735.1</ele>
        <time>2017-07-18T15:53:51Z</time>
      </trkpt>
      <trkpt lat="45.77353" lon="3.03097">
        <ele>735.3</ele>
        <time>2017-07-18T15:53:51Z</time>
      </trkpt>
      <trkpt lat="45.77355" lon="3.03099">
        <ele>735.3</ele>
        <time>2017-07-18T15:53:51Z</time>
      </trkpt>
      <trkpt lat="45.77357" lon="3.03101">
        <ele>735.3</ele>
        <time>2017-07-18T15:53:51Z</time>
      </trkpt>
      <trkpt lat="45.77358" lon="3.03103">
        <ele>735.3</ele>
        <time>2017-07-18T15:53:51Z</time>
      </trkpt>
      <trkpt lat="45.7736" lon="3.03106">
        <ele>735.4</ele>
        <time>2017-07-18T15:53:51Z</time>
      </trkpt>
      <trkpt lat="45.77362" lon="3.03108">
        <ele>735.4</ele>
        <time>2017-07-18T15:53:51Z</time>
      </trkpt>
      <trkpt lat="45.77364" lon="3.03111">
        <ele>735.3</ele>
        <time>2017-07-18T15:53:51Z</time>
      </trkpt>
      <trkpt lat="45.77366" lon="3.03114">
        <ele>735.3</ele>
        <time>2017-07-18T15:53:51Z</time>
      </trkpt>
      <trkpt lat="45.77369" lon="3.03116">
        <ele>735.1</ele>
        <time>2017-07-18T15:53:51Z</time>
      </trkpt>
      <trkpt lat="45.77371" lon="3.03118">
        <ele>735</ele>
        <time>2017-07-18T15:53:51Z</time>
      </trkpt>
      <trkpt lat="45.77373" lon="3.0312">
        <ele>735</ele>
        <time>2017-07-18T15:53:51Z</time>
      </trkpt>
      <trkpt lat="45.77374" lon="3.03121">
        <ele>734.9</ele>
        <time>2017-07-18T15:53:51Z</time>
      </trkpt>
      <trkpt lat="45.77376" lon="3.03123">
        <ele>734.8</ele>
        <time>2017-07-18T15:53:51Z</time>
      </trkpt>
      <trkpt lat="45.77378" lon="3.03125">
        <ele>734.6</ele>
        <time>2017-07-18T15:53:51Z</time>
      </trkpt>
      <trkpt lat="45.7738" lon="3.03127">
        <ele>734.6</ele>
        <time>2017-07-18T15:53:51Z</time>
      </trkpt>
      <trkpt lat="45.77382" lon="3.03128">
        <ele>734.4</ele>
        <time>2017-07-18T15:53:51Z</time>
      </trkpt>
      <trkpt lat="45.77384" lon="3.0313">
        <ele>734.1</ele>
        <time>2017-07-18T15:53:51Z</time>
      </trkpt>
      <trkpt lat="45.77387" lon="3.03131">
        <ele>734</ele>
        <time>2017-07-18T15:53:51Z</time>
      </trkpt>
      <trkpt lat="45.77389" lon="3.03133">
        <ele>733.8</ele>
        <time>2017-07-18T15:53:51Z</time>
      </trkpt>
      <trkpt lat="45.77391" lon="3.03135">
        <ele>733.7</ele>
        <time>2017-07-18T15:53:51Z</time>
      </trkpt>
      <trkpt lat="45.77393" lon="3.03137">
        <ele>733.6</ele>
        <time>2017-07-18T15:53:51Z</time>
      </trkpt>
      <trkpt lat="45.77395" lon="3.0314">
        <ele>733.5</ele>
        <time>2017-07-18T15:53:51Z</time>
      </trkpt>
      <trkpt lat="45.77397" lon="3.03142">
        <ele>733.4</ele>
        <time>2017-07-18T15:53:51Z</time>
      </trkpt>
      <trkpt lat="45.774" lon="3.03145">
        <ele>733.3</ele>
        <time>2017-07-18T15:53:51Z</time>
      </trkpt>
      <trkpt lat="45.77402" lon="3.03147">
        <ele>733.1</ele>
        <time>2017-07-18T15:53:51Z</time>
      </trkpt>
      <trkpt lat="45.77404" lon="3.03149">
        <ele>733.1</ele>
        <time>2017-07-18T15:53:51Z</time>
      </trkpt>
      <trkpt lat="45.77406" lon="3.03151">
        <ele>732.9</ele>
        <time>2017-07-18T15:53:51Z</time>
      </trkpt>
      <trkpt lat="45.77409" lon="3.03153">
        <ele>732.8</ele>
        <time>2017-07-18T15:53:51Z</time>
      </trkpt>
      <trkpt lat="45.77411" lon="3.03155">
        <ele>732.6</ele>
        <time>2017-07-18T15:53:51Z</time>
      </trkpt>
      <trkpt lat="45.77413" lon="3.03157">
        <ele>732.4</ele>
        <time>2017-07-18T15:53:51Z</time>
      </trkpt>
      <trkpt lat="45.77415" lon="3.03159">
        <ele>732.2</ele>
        <time>2017-07-18T15:53:51Z</time>
      </trkpt>
      <trkpt lat="45.77417" lon="3.0316">
        <ele>732.1</ele>
        <time>2017-07-18T15:53:51Z</time>
      </trkpt>
      <trkpt lat="45.7742" lon="3.03162">
        <ele>732.1</ele>
        <time>2017-07-18T15:53:51Z</time>
      </trkpt>
      <trkpt lat="45.77422" lon="3.03164">
        <ele>732.1</ele>
        <time>2017-07-18T15:53:51Z</time>
      </trkpt>
      <trkpt lat="45.77424" lon="3.03167">
        <ele>732.1</ele>
        <time>2017-07-18T15:53:51Z</time>
      </trkpt>
      <trkpt lat="45.77426" lon="3.03168">
        <ele>732</ele>
        <time>2017-07-18T15:53:51Z</time>
      </trkpt>
      <trkpt lat="45.77428" lon="3.03169">
        <ele>731.9</ele>
        <time>2017-07-18T15:53:51Z</time>
      </trkpt>
      <trkpt lat="45.7743" lon="3.0317">
        <ele>731.8</ele>
        <time>2017-07-18T15:53:51Z</time>
      </trkpt>
      <trkpt lat="45.77433" lon="3.03171">
        <ele>731.6</ele>
        <time>2017-07-18T15:53:51Z</time>
      </trkpt>
      <trkpt lat="45.77435" lon="3.03172">
        <ele>731.3</ele>
        <time>2017-07-18T15:53:51Z</time>
      </trkpt>
      <trkpt lat="45.77437" lon="3.03172">
        <ele>731.1</ele>
        <time>2017-07-18T15:53:51Z</time>
      </trkpt>
      <trkpt lat="45.77439" lon="3.03173">
        <ele>731.1</ele>
        <time>2017-07-18T15:53:51Z</time>
      </trkpt>
      <trkpt lat="45.7744" lon="3.03173">
        <ele>730.8</ele>
        <time>2017-07-18T15:53:51Z</time>
      </trkpt>
      <trkpt lat="45.77442" lon="3.03171">
        <ele>730.4</ele>
        <time>2017-07-18T15:53:51Z</time>
      </trkpt>
      <trkpt lat="45.77444" lon="3.0317">
        <ele>730.1</ele>
        <time>2017-07-18T15:53:51Z</time>
      </trkpt>
      <trkpt lat="45.77447" lon="3.0317">
        <ele>729.8</ele>
        <time>2017-07-18T15:53:51Z</time>
      </trkpt>
      <trkpt lat="45.77449" lon="3.03171">
        <ele>729.5</ele>
        <time>2017-07-18T15:53:51Z</time>
      </trkpt>
      <trkpt lat="45.77452" lon="3.03171">
        <ele>729.3</ele>
        <time>2017-07-18T15:53:51Z</time>
      </trkpt>
      <trkpt lat="45.77454" lon="3.0317">
        <ele>729</ele>
        <time>2017-07-18T15:53:51Z</time>
      </trkpt>
      <trkpt lat="45.77455" lon="3.03169">
        <ele>728.6</ele>
        <time>2017-07-18T15:53:51Z</time>
      </trkpt>
      <trkpt lat="45.77457" lon="3.03169">
        <ele>728.4</ele>
        <time>2017-07-18T15:53:51Z</time>
      </trkpt>
      <trkpt lat="45.77459" lon="3.03168">
        <ele>728</ele>
        <time>2017-07-18T15:53:51Z</time>
      </trkpt>
      <trkpt lat="45.77461" lon="3.03167">
        <ele>727.6</ele>
        <time>2017-07-18T15:53:51Z</time>
      </trkpt>
      <trkpt lat="45.77463" lon="3.03166">
        <ele>727.4</ele>
        <time>2017-07-18T15:53:51Z</time>
      </trkpt>
      <trkpt lat="45.77465" lon="3.03165">
        <ele>727</ele>
        <time>2017-07-18T15:53:51Z</time>
      </trkpt>
      <trkpt lat="45.77467" lon="3.03165">
        <ele>726.8</ele>
        <time>2017-07-18T15:53:51Z</time>
      </trkpt>
      <trkpt lat="45.77468" lon="3.03164">
        <ele>726.5</ele>
        <time>2017-07-18T15:53:51Z</time>
      </trkpt>
      <trkpt lat="45.77471" lon="3.03162">
        <ele>726.1</ele>
        <time>2017-07-18T15:53:51Z</time>
      </trkpt>
      <trkpt lat="45.77473" lon="3.03162">
        <ele>725.8</ele>
        <time>2017-07-18T15:53:51Z</time>
      </trkpt>
      <trkpt lat="45.77475" lon="3.03162">
        <ele>725.6</ele>
        <time>2017-07-18T15:53:51Z</time>
      </trkpt>
      <trkpt lat="45.77477" lon="3.03162">
        <ele>725.4</ele>
        <time>2017-07-18T15:53:51Z</time>
      </trkpt>
      <trkpt lat="45.77478" lon="3.03162">
        <ele>725.2</ele>
        <time>2017-07-18T15:53:51Z</time>
      </trkpt>
      <trkpt lat="45.7748" lon="3.03163">
        <ele>725</ele>
        <time>2017-07-18T15:53:51Z</time>
      </trkpt>
      <trkpt lat="45.77482" lon="3.03163">
        <ele>724.9</ele>
        <time>2017-07-18T15:53:51Z</time>
      </trkpt>
      <trkpt lat="45.77483" lon="3.03164">
        <ele>724.8</ele>
        <time>2017-07-18T15:53:51Z</time>
      </trkpt>
      <trkpt lat="45.77484" lon="3.03166">
        <ele>724.8</ele>
        <time>2017-07-18T15:53:51Z</time>
      </trkpt>
      <trkpt lat="45.77486" lon="3.03167">
        <ele>724.8</ele>
        <time>2017-07-18T15:53:51Z</time>
      </trkpt>
      <trkpt lat="45.77487" lon="3.03168">
        <ele>724.7</ele>
        <time>2017-07-18T15:53:51Z</time>
      </trkpt>
      <trkpt lat="45.77489" lon="3.0317">
        <ele>724.7</ele>
        <time>2017-07-18T15:53:51Z</time>
      </trkpt>
      <trkpt lat="45.77491" lon="3.03171">
        <ele>724.7</ele>
        <time>2017-07-18T15:53:51Z</time>
      </trkpt>
      <trkpt lat="45.77493" lon="3.03172">
        <ele>724.6</ele>
        <time>2017-07-18T15:53:51Z</time>
      </trkpt>
      <trkpt lat="45.77495" lon="3.03173">
        <ele>724.5</ele>
        <time>2017-07-18T15:53:51Z</time>
      </trkpt>
      <trkpt lat="45.77497" lon="3.03173">
        <ele>724.4</ele>
        <time>2017-07-18T15:53:51Z</time>
      </trkpt>
      <trkpt lat="45.77497" lon="3.03173">
        <ele>724.2</ele>
        <time>2017-07-18T15:53:51Z</time>
      </trkpt>
      <trkpt lat="45.77497" lon="3.03173">
        <ele>724.2</ele>
        <time>2017-07-18T15:53:51Z</time>
      </trkpt>
      <trkpt lat="45.775" lon="3.0317">
        <ele>723.5</ele>
        <time>2017-07-18T15:53:51Z</time>
      </trkpt>
      <trkpt lat="45.77502" lon="3.03168">
        <ele>723</ele>
        <time>2017-07-18T15:53:51Z</time>
      </trkpt>
      <trkpt lat="45.77504" lon="3.03165">
        <ele>722.5</ele>
        <time>2017-07-18T15:53:51Z</time>
      </trkpt>
      <trkpt lat="45.77504" lon="3.03162">
        <ele>722.2</ele>
        <time>2017-07-18T15:53:51Z</time>
      </trkpt>
      <trkpt lat="45.77504" lon="3.03159">
        <ele>722</ele>
        <time>2017-07-18T15:53:51Z</time>
      </trkpt>
      <trkpt lat="45.77504" lon="3.03155">
        <ele>721.7</ele>
        <time>2017-07-18T15:53:51Z</time>
      </trkpt>
      <trkpt lat="45.77503" lon="3.03152">
        <ele>721.5</ele>
        <time>2017-07-18T15:53:51Z</time>
      </trkpt>
      <trkpt lat="45.77503" lon="3.03149">
        <ele>721.3</ele>
        <time>2017-07-18T15:53:51Z</time>
      </trkpt>
      <trkpt lat="45.77502" lon="3.03145">
        <ele>721.1</ele>
        <time>2017-07-18T15:53:51Z</time>
      </trkpt>
      <trkpt lat="45.77501" lon="3.03142">
        <ele>720.8</ele>
        <time>2017-07-18T15:53:51Z</time>
      </trkpt>
      <trkpt lat="45.775" lon="3.03138">
        <ele>720.6</ele>
        <time>2017-07-18T15:53:51Z</time>
      </trkpt>
      <trkpt lat="45.77499" lon="3.03135">
        <ele>720.5</ele>
        <time>2017-07-18T15:53:51Z</time>
      </trkpt>
      <trkpt lat="45.77498" lon="3.03132">
        <ele>720.3</ele>
        <time>2017-07-18T15:53:51Z</time>
      </trkpt>
      <trkpt lat="45.77497" lon="3.03128">
        <ele>720.1</ele>
        <time>2017-07-18T15:53:51Z</time>
      </trkpt>
      <trkpt lat="45.77497" lon="3.03125">
        <ele>719.8</ele>
        <time>2017-07-18T15:53:51Z</time>
      </trkpt>
      <trkpt lat="45.77497" lon="3.03121">
        <ele>719.5</ele>
        <time>2017-07-18T15:53:51Z</time>
      </trkpt>
      <trkpt lat="45.77497" lon="3.03118">
        <ele>719.2</ele>
        <time>2017-07-18T15:53:51Z</time>
      </trkpt>
      <trkpt lat="45.77498" lon="3.03115">
        <ele>718.8</ele>
        <time>2017-07-18T15:53:51Z</time>
      </trkpt>
      <trkpt lat="45.775" lon="3.03112">
        <ele>718.4</ele>
        <time>2017-07-18T15:53:51Z</time>
      </trkpt>
      <trkpt lat="45.77502" lon="3.03109">
        <ele>718.2</ele>
        <time>2017-07-18T15:53:51Z</time>
      </trkpt>
      <trkpt lat="45.77504" lon="3.03108">
        <ele>718</ele>
        <time>2017-07-18T15:53:51Z</time>
      </trkpt>
      <trkpt lat="45.77507" lon="3.03108">
        <ele>718</ele>
        <time>2017-07-18T15:53:51Z</time>
      </trkpt>
      <trkpt lat="45.77509" lon="3.03108">
        <ele>718</ele>
        <time>2017-07-18T15:53:51Z</time>
      </trkpt>
      <trkpt lat="45.77511" lon="3.03109">
        <ele>718</ele>
        <time>2017-07-18T15:53:51Z</time>
      </trkpt>
      <trkpt lat="45.77513" lon="3.0311">
        <ele>718.1</ele>
        <time>2017-07-18T15:53:51Z</time>
      </trkpt>
      <trkpt lat="45.77516" lon="3.03111">
        <ele>718.1</ele>
        <time>2017-07-18T15:53:51Z</time>
      </trkpt>
      <trkpt lat="45.77518" lon="3.03112">
        <ele>718.1</ele>
        <time>2017-07-18T15:53:51Z</time>
      </trkpt>
      <trkpt lat="45.77521" lon="3.03112">
        <ele>718.1</ele>
        <time>2017-07-18T15:53:51Z</time>
      </trkpt>
      <trkpt lat="45.77524" lon="3.03113">
        <ele>718.1</ele>
        <time>2017-07-18T15:53:51Z</time>
      </trkpt>
      <trkpt lat="45.77526" lon="3.03114">
        <ele>718.1</ele>
        <time>2017-07-18T15:53:51Z</time>
      </trkpt>
      <trkpt lat="45.77528" lon="3.03116">
        <ele>718.1</ele>
        <time>2017-07-18T15:53:51Z</time>
      </trkpt>
      <trkpt lat="45.77531" lon="3.03117">
        <ele>718.1</ele>
        <time>2017-07-18T15:53:51Z</time>
      </trkpt>
      <trkpt lat="45.77534" lon="3.03118">
        <ele>718</ele>
        <time>2017-07-18T15:53:51Z</time>
      </trkpt>
      <trkpt lat="45.77536" lon="3.03119">
        <ele>718</ele>
        <time>2017-07-18T15:53:51Z</time>
      </trkpt>
      <trkpt lat="45.77539" lon="3.0312">
        <ele>718</ele>
        <time>2017-07-18T15:53:51Z</time>
      </trkpt>
      <trkpt lat="45.77541" lon="3.03122">
        <ele>717.9</ele>
        <time>2017-07-18T15:53:51Z</time>
      </trkpt>
      <trkpt lat="45.77544" lon="3.03123">
        <ele>717.9</ele>
        <time>2017-07-18T15:53:51Z</time>
      </trkpt>
      <trkpt lat="45.77546" lon="3.03125">
        <ele>717.8</ele>
        <time>2017-07-18T15:53:51Z</time>
      </trkpt>
      <trkpt lat="45.77548" lon="3.03127">
        <ele>717.8</ele>
        <time>2017-07-18T15:53:51Z</time>
      </trkpt>
      <trkpt lat="45.77551" lon="3.03129">
        <ele>717.7</ele>
        <time>2017-07-18T15:53:51Z</time>
      </trkpt>
      <trkpt lat="45.77553" lon="3.03131">
        <ele>717.6</ele>
        <time>2017-07-18T15:53:51Z</time>
      </trkpt>
      <trkpt lat="45.77555" lon="3.03133">
        <ele>717.6</ele>
        <time>2017-07-18T15:53:51Z</time>
      </trkpt>
      <trkpt lat="45.77557" lon="3.03136">
        <ele>717.5</ele>
        <time>2017-07-18T15:53:51Z</time>
      </trkpt>
      <trkpt lat="45.77559" lon="3.03137">
        <ele>717.3</ele>
        <time>2017-07-18T15:53:51Z</time>
      </trkpt>
      <trkpt lat="45.77562" lon="3.03139">
        <ele>717.2</ele>
        <time>2017-07-18T15:53:51Z</time>
      </trkpt>
      <trkpt lat="45.77564" lon="3.03141">
        <ele>717.1</ele>
        <time>2017-07-18T15:53:51Z</time>
      </trkpt>
      <trkpt lat="45.77566" lon="3.03143">
        <ele>716.9</ele>
        <time>2017-07-18T15:53:51Z</time>
      </trkpt>
      <trkpt lat="45.77569" lon="3.03144">
        <ele>716.7</ele>
        <time>2017-07-18T15:53:51Z</time>
      </trkpt>
      <trkpt lat="45.77571" lon="3.03145">
        <ele>716.6</ele>
        <time>2017-07-18T15:53:51Z</time>
      </trkpt>
      <trkpt lat="45.77574" lon="3.03146">
        <ele>716.4</ele>
        <time>2017-07-18T15:53:51Z</time>
      </trkpt>
      <trkpt lat="45.77577" lon="3.03145">
        <ele>716.2</ele>
        <time>2017-07-18T15:53:51Z</time>
      </trkpt>
      <trkpt lat="45.7758" lon="3.03144">
        <ele>716</ele>
        <time>2017-07-18T15:53:51Z</time>
      </trkpt>
      <trkpt lat="45.77583" lon="3.03143">
        <ele>715.9</ele>
        <time>2017-07-18T15:53:51Z</time>
      </trkpt>
      <trkpt lat="45.77586" lon="3.03142">
        <ele>715.8</ele>
        <time>2017-07-18T15:53:51Z</time>
      </trkpt>
      <trkpt lat="45.77588" lon="3.0314">
        <ele>715.8</ele>
        <time>2017-07-18T15:53:51Z</time>
      </trkpt>
      <trkpt lat="45.77591" lon="3.0314">
        <ele>715.8</ele>
        <time>2017-07-18T15:53:51Z</time>
      </trkpt>
      <trkpt lat="45.77593" lon="3.03139">
        <ele>715.8</ele>
        <time>2017-07-18T15:53:51Z</time>
      </trkpt>
      <trkpt lat="45.77596" lon="3.03136">
        <ele>715.8</ele>
        <time>2017-07-18T15:53:51Z</time>
      </trkpt>
      <trkpt lat="45.77599" lon="3.03133">
        <ele>715.8</ele>
        <time>2017-07-18T15:53:51Z</time>
      </trkpt>
      <trkpt lat="45.77602" lon="3.03131">
        <ele>715.8</ele>
        <time>2017-07-18T15:53:51Z</time>
      </trkpt>
      <trkpt lat="45.77605" lon="3.03127">
        <ele>715.8</ele>
        <time>2017-07-18T15:53:51Z</time>
      </trkpt>
      <trkpt lat="45.77608" lon="3.03126">
        <ele>715.8</ele>
        <time>2017-07-18T15:53:51Z</time>
      </trkpt>
      <trkpt lat="45.77611" lon="3.03124">
        <ele>715.7</ele>
        <time>2017-07-18T15:53:51Z</time>
      </trkpt>
      <trkpt lat="45.77613" lon="3.03123">
        <ele>715.6</ele>
        <time>2017-07-18T15:53:51Z</time>
      </trkpt>
      <trkpt lat="45.77616" lon="3.03123">
        <ele>715.6</ele>
        <time>2017-07-18T15:53:51Z</time>
      </trkpt>
      <trkpt lat="45.77618" lon="3.03124">
        <ele>715.5</ele>
        <time>2017-07-18T15:53:51Z</time>
      </trkpt>
      <trkpt lat="45.77621" lon="3.03125">
        <ele>715.4</ele>
        <time>2017-07-18T15:53:51Z</time>
      </trkpt>
      <trkpt lat="45.77623" lon="3.03126">
        <ele>715.3</ele>
        <time>2017-07-18T15:53:51Z</time>
      </trkpt>
      <trkpt lat="45.77626" lon="3.03127">
        <ele>715.2</ele>
        <time>2017-07-18T15:53:51Z</time>
      </trkpt>
      <trkpt lat="45.77628" lon="3.03128">
        <ele>715.1</ele>
        <time>2017-07-18T15:53:51Z</time>
      </trkpt>
      <trkpt lat="45.77631" lon="3.03129">
        <ele>715</ele>
        <time>2017-07-18T15:53:51Z</time>
      </trkpt>
      <trkpt lat="45.77633" lon="3.03131">
        <ele>714.9</ele>
        <time>2017-07-18T15:53:51Z</time>
      </trkpt>
      <trkpt lat="45.77635" lon="3.03133">
        <ele>714.8</ele>
        <time>2017-07-18T15:53:51Z</time>
      </trkpt>
      <trkpt lat="45.77638" lon="3.03134">
        <ele>714.7</ele>
        <time>2017-07-18T15:53:51Z</time>
      </trkpt>
      <trkpt lat="45.77641" lon="3.03135">
        <ele>714.7</ele>
        <time>2017-07-18T15:53:51Z</time>
      </trkpt>
      <trkpt lat="45.77643" lon="3.03136">
        <ele>714.6</ele>
        <time>2017-07-18T15:53:51Z</time>
      </trkpt>
      <trkpt lat="45.77646" lon="3.03138">
        <ele>714.5</ele>
        <time>2017-07-18T15:53:51Z</time>
      </trkpt>
      <trkpt lat="45.77649" lon="3.03139">
        <ele>714.4</ele>
        <time>2017-07-18T15:53:51Z</time>
      </trkpt>
      <trkpt lat="45.77651" lon="3.0314">
        <ele>714.4</ele>
        <time>2017-07-18T15:53:51Z</time>
      </trkpt>
      <trkpt lat="45.77654" lon="3.03141">
        <ele>714.3</ele>
        <time>2017-07-18T15:53:51Z</time>
      </trkpt>
      <trkpt lat="45.77657" lon="3.03142">
        <ele>714.2</ele>
        <time>2017-07-18T15:53:51Z</time>
      </trkpt>
      <trkpt lat="45.77659" lon="3.03143">
        <ele>714.2</ele>
        <time>2017-07-18T15:53:51Z</time>
      </trkpt>
      <trkpt lat="45.77662" lon="3.03144">
        <ele>714.1</ele>
        <time>2017-07-18T15:53:51Z</time>
      </trkpt>
      <trkpt lat="45.77664" lon="3.03146">
        <ele>714.1</ele>
        <time>2017-07-18T15:53:51Z</time>
      </trkpt>
      <trkpt lat="45.77667" lon="3.03147">
        <ele>714</ele>
        <time>2017-07-18T15:53:51Z</time>
      </trkpt>
      <trkpt lat="45.77669" lon="3.03149">
        <ele>714</ele>
        <time>2017-07-18T15:53:51Z</time>
      </trkpt>
      <trkpt lat="45.77672" lon="3.0315">
        <ele>713.9</ele>
        <time>2017-07-18T15:53:51Z</time>
      </trkpt>
      <trkpt lat="45.77674" lon="3.03151">
        <ele>713.9</ele>
        <time>2017-07-18T15:53:51Z</time>
      </trkpt>
      <trkpt lat="45.77676" lon="3.03152">
        <ele>713.8</ele>
        <time>2017-07-18T15:53:51Z</time>
      </trkpt>
      <trkpt lat="45.77679" lon="3.03153">
        <ele>713.8</ele>
        <time>2017-07-18T15:53:51Z</time>
      </trkpt>
      <trkpt lat="45.77681" lon="3.03154">
        <ele>713.7</ele>
        <time>2017-07-18T15:53:51Z</time>
      </trkpt>
      <trkpt lat="45.77683" lon="3.03156">
        <ele>713.7</ele>
        <time>2017-07-18T15:53:51Z</time>
      </trkpt>
      <trkpt lat="45.77686" lon="3.03157">
        <ele>713.6</ele>
        <time>2017-07-18T15:53:51Z</time>
      </trkpt>
      <trkpt lat="45.77689" lon="3.03159">
        <ele>713.5</ele>
        <time>2017-07-18T15:53:51Z</time>
      </trkpt>
      <trkpt lat="45.7769" lon="3.03162">
        <ele>713.5</ele>
        <time>2017-07-18T15:53:51Z</time>
      </trkpt>
      <trkpt lat="45.77692" lon="3.03165">
        <ele>713.4</ele>
        <time>2017-07-18T15:53:51Z</time>
      </trkpt>
      <trkpt lat="45.77694" lon="3.03167">
        <ele>713.3</ele>
        <time>2017-07-18T15:53:51Z</time>
      </trkpt>
      <trkpt lat="45.77696" lon="3.03171">
        <ele>713.2</ele>
        <time>2017-07-18T15:53:51Z</time>
      </trkpt>
      <trkpt lat="45.77699" lon="3.03173">
        <ele>713.1</ele>
        <time>2017-07-18T15:53:51Z</time>
      </trkpt>
      <trkpt lat="45.777" lon="3.03176">
        <ele>713</ele>
        <time>2017-07-18T15:53:51Z</time>
      </trkpt>
      <trkpt lat="45.77702" lon="3.03178">
        <ele>712.9</ele>
        <time>2017-07-18T15:53:51Z</time>
      </trkpt>
      <trkpt lat="45.77704" lon="3.03181">
        <ele>712.8</ele>
        <time>2017-07-18T15:53:51Z</time>
      </trkpt>
      <trkpt lat="45.77706" lon="3.03183">
        <ele>712.7</ele>
        <time>2017-07-18T15:53:51Z</time>
      </trkpt>
      <trkpt lat="45.77708" lon="3.03185">
        <ele>712.6</ele>
        <time>2017-07-18T15:53:51Z</time>
      </trkpt>
      <trkpt lat="45.77711" lon="3.03187">
        <ele>712.5</ele>
        <time>2017-07-18T15:53:51Z</time>
      </trkpt>
      <trkpt lat="45.77713" lon="3.03188">
        <ele>712.4</ele>
        <time>2017-07-18T15:53:51Z</time>
      </trkpt>
      <trkpt lat="45.77716" lon="3.03188">
        <ele>712.3</ele>
        <time>2017-07-18T15:53:51Z</time>
      </trkpt>
      <trkpt lat="45.77718" lon="3.03188">
        <ele>712.2</ele>
        <time>2017-07-18T15:53:51Z</time>
      </trkpt>
      <trkpt lat="45.77721" lon="3.03188">
        <ele>712.2</ele>
        <time>2017-07-18T15:53:51Z</time>
      </trkpt>
      <trkpt lat="45.77722" lon="3.03188">
        <ele>712.2</ele>
        <time>2017-07-18T15:53:51Z</time>
      </trkpt>
      <trkpt lat="45.77722" lon="3.03188">
        <ele>712.1</ele>
        <time>2017-07-18T15:53:51Z</time>
      </trkpt>
      <trkpt lat="45.77722" lon="3.03191">
        <ele>712.1</ele>
        <time>2017-07-18T15:53:51Z</time>
      </trkpt>
      <trkpt lat="45.7772" lon="3.03194">
        <ele>712.1</ele>
        <time>2017-07-18T15:53:51Z</time>
      </trkpt>
      <trkpt lat="45.77722" lon="3.03193">
        <ele>712</ele>
        <time>2017-07-18T15:53:51Z</time>
      </trkpt>
      <trkpt lat="45.77723" lon="3.03192">
        <ele>712</ele>
        <time>2017-07-18T15:53:51Z</time>
      </trkpt>
      <trkpt lat="45.77726" lon="3.03191">
        <ele>712</ele>
        <time>2017-07-18T15:53:51Z</time>
      </trkpt>
      <trkpt lat="45.77727" lon="3.03191">
        <ele>712</ele>
        <time>2017-07-18T15:53:51Z</time>
      </trkpt>
      <trkpt lat="45.77729" lon="3.03191">
        <ele>711.9</ele>
        <time>2017-07-18T15:53:51Z</time>
      </trkpt>
      <trkpt lat="45.77731" lon="3.03189">
        <ele>711.9</ele>
        <time>2017-07-18T15:53:51Z</time>
      </trkpt>
      <trkpt lat="45.77734" lon="3.03187">
        <ele>711.9</ele>
        <time>2017-07-18T15:53:51Z</time>
      </trkpt>
      <trkpt lat="45.77736" lon="3.03185">
        <ele>711.9</ele>
        <time>2017-07-18T15:53:51Z</time>
      </trkpt>
      <trkpt lat="45.7774" lon="3.03182">
        <ele>711.9</ele>
        <time>2017-07-18T15:53:51Z</time>
      </trkpt>
      <trkpt lat="45.77742" lon="3.03179">
        <ele>711.9</ele>
        <time>2017-07-18T15:53:51Z</time>
      </trkpt>
      <trkpt lat="45.77745" lon="3.03176">
        <ele>711.9</ele>
        <time>2017-07-18T15:53:51Z</time>
      </trkpt>
      <trkpt lat="45.77747" lon="3.03173">
        <ele>711.9</ele>
        <time>2017-07-18T15:53:51Z</time>
      </trkpt>
      <trkpt lat="45.77749" lon="3.03169">
        <ele>711.9</ele>
        <time>2017-07-18T15:53:51Z</time>
      </trkpt>
      <trkpt lat="45.77752" lon="3.03166">
        <ele>712</ele>
        <time>2017-07-18T15:53:51Z</time>
      </trkpt>
      <trkpt lat="45.77754" lon="3.03161">
        <ele>712</ele>
        <time>2017-07-18T15:53:51Z</time>
      </trkpt>
      <trkpt lat="45.77755" lon="3.03157">
        <ele>712.1</ele>
        <time>2017-07-18T15:53:51Z</time>
      </trkpt>
      <trkpt lat="45.77757" lon="3.03154">
        <ele>712.1</ele>
        <time>2017-07-18T15:53:51Z</time>
      </trkpt>
      <trkpt lat="45.77757" lon="3.0315">
        <ele>712.2</ele>
        <time>2017-07-18T15:53:51Z</time>
      </trkpt>
      <trkpt lat="45.77758" lon="3.03146">
        <ele>712.3</ele>
        <time>2017-07-18T15:53:51Z</time>
      </trkpt>
      <trkpt lat="45.77759" lon="3.03143">
        <ele>712.4</ele>
        <time>2017-07-18T15:53:51Z</time>
      </trkpt>
      <trkpt lat="45.7776" lon="3.03139">
        <ele>712.5</ele>
        <time>2017-07-18T15:53:51Z</time>
      </trkpt>
      <trkpt lat="45.77761" lon="3.03135">
        <ele>712.7</ele>
        <time>2017-07-18T15:53:51Z</time>
      </trkpt>
      <trkpt lat="45.77762" lon="3.03132">
        <ele>712.7</ele>
        <time>2017-07-18T15:53:51Z</time>
      </trkpt>
      <trkpt lat="45.77764" lon="3.03129">
        <ele>712.9</ele>
        <time>2017-07-18T15:53:51Z</time>
      </trkpt>
      <trkpt lat="45.77765" lon="3.03126">
        <ele>713</ele>
        <time>2017-07-18T15:53:51Z</time>
      </trkpt>
      <trkpt lat="45.77766" lon="3.03123">
        <ele>713.1</ele>
        <time>2017-07-18T15:53:51Z</time>
      </trkpt>
      <trkpt lat="45.77768" lon="3.0312">
        <ele>713.2</ele>
        <time>2017-07-18T15:53:51Z</time>
      </trkpt>
      <trkpt lat="45.77769" lon="3.03117">
        <ele>713.3</ele>
        <time>2017-07-18T15:53:51Z</time>
      </trkpt>
      <trkpt lat="45.7777" lon="3.03114">
        <ele>713.4</ele>
        <time>2017-07-18T15:53:51Z</time>
      </trkpt>
      <trkpt lat="45.77772" lon="3.03112">
        <ele>713.6</ele>
        <time>2017-07-18T15:53:51Z</time>
      </trkpt>
      <trkpt lat="45.77773" lon="3.0311">
        <ele>713.7</ele>
        <time>2017-07-18T15:53:51Z</time>
      </trkpt>
      <trkpt lat="45.77775" lon="3.03109">
        <ele>713.7</ele>
        <time>2017-07-18T15:53:51Z</time>
      </trkpt>
      <trkpt lat="45.77777" lon="3.03108">
        <ele>713.8</ele>
        <time>2017-07-18T15:53:51Z</time>
      </trkpt>
      <trkpt lat="45.77778" lon="3.03108">
        <ele>713.8</ele>
        <time>2017-07-18T15:53:51Z</time>
      </trkpt>
      <trkpt lat="45.77781" lon="3.03107">
        <ele>713.9</ele>
        <time>2017-07-18T15:53:51Z</time>
      </trkpt>
      <trkpt lat="45.77782" lon="3.03106">
        <ele>714</ele>
        <time>2017-07-18T15:53:51Z</time>
      </trkpt>
      <trkpt lat="45.77785" lon="3.03104">
        <ele>714.1</ele>
        <time>2017-07-18T15:53:51Z</time>
      </trkpt>
      <trkpt lat="45.77788" lon="3.03103">
        <ele>714.2</ele>
        <time>2017-07-18T15:53:51Z</time>
      </trkpt>
      <trkpt lat="45.7779" lon="3.03103">
        <ele>714.3</ele>
        <time>2017-07-18T15:53:51Z</time>
      </trkpt>
      <trkpt lat="45.77792" lon="3.03102">
        <ele>714.4</ele>
        <time>2017-07-18T15:53:51Z</time>
      </trkpt>
      <trkpt lat="45.77794" lon="3.03101">
        <ele>714.5</ele>
        <time>2017-07-18T15:53:51Z</time>
      </trkpt>
      <trkpt lat="45.77796" lon="3.031">
        <ele>714.6</ele>
        <time>2017-07-18T15:53:51Z</time>
      </trkpt>
      <trkpt lat="45.77798" lon="3.03099">
        <ele>714.7</ele>
        <time>2017-07-18T15:53:51Z</time>
      </trkpt>
      <trkpt lat="45.778" lon="3.03097">
        <ele>714.9</ele>
        <time>2017-07-18T15:53:51Z</time>
      </trkpt>
      <trkpt lat="45.77802" lon="3.03094">
        <ele>715.1</ele>
        <time>2017-07-18T15:53:51Z</time>
      </trkpt>
      <trkpt lat="45.77804" lon="3.03091">
        <ele>715.4</ele>
        <time>2017-07-18T15:53:51Z</time>
      </trkpt>
      <trkpt lat="45.77805" lon="3.03089">
        <ele>715.6</ele>
        <time>2017-07-18T15:53:51Z</time>
      </trkpt>
      <trkpt lat="45.77805" lon="3.03088">
        <ele>715.6</ele>
        <time>2017-07-18T15:53:51Z</time>
      </trkpt>
      <trkpt lat="45.77805" lon="3.03088">
        <ele>715.7</ele>
        <time>2017-07-18T15:53:51Z</time>
      </trkpt>
      <trkpt lat="45.77808" lon="3.0309">
        <ele>715.6</ele>
        <time>2017-07-18T15:53:51Z</time>
      </trkpt>
      <trkpt lat="45.77809" lon="3.03089">
        <ele>715.7</ele>
        <time>2017-07-18T15:53:51Z</time>
      </trkpt>
      <trkpt lat="45.77809" lon="3.03089">
        <ele>715.7</ele>
        <time>2017-07-18T15:53:51Z</time>
      </trkpt>
      <trkpt lat="45.77809" lon="3.03091">
        <ele>715.6</ele>
        <time>2017-07-18T15:53:51Z</time>
      </trkpt>
      <trkpt lat="45.77809" lon="3.03092">
        <ele>715.5</ele>
        <time>2017-07-18T15:53:51Z</time>
      </trkpt>
      <trkpt lat="45.77809" lon="3.03092">
        <ele>715.5</ele>
        <time>2017-07-18T15:53:51Z</time>
      </trkpt>
      <trkpt lat="45.7781" lon="3.03088">
        <ele>715.8</ele>
        <time>2017-07-18T15:53:51Z</time>
      </trkpt>
      <trkpt lat="45.77809" lon="3.03086">
        <ele>715.9</ele>
        <time>2017-07-18T15:53:51Z</time>
      </trkpt>
      <trkpt lat="45.77808" lon="3.03082">
        <ele>716.4</ele>
        <time>2017-07-18T15:53:51Z</time>
      </trkpt>
      <trkpt lat="45.77807" lon="3.03079">
        <ele>716.8</ele>
        <time>2017-07-18T15:53:51Z</time>
      </trkpt>
      <trkpt lat="45.77804" lon="3.03076">
        <ele>717.2</ele>
        <time>2017-07-18T15:53:51Z</time>
      </trkpt>
      <trkpt lat="45.77803" lon="3.03074">
        <ele>717.6</ele>
        <time>2017-07-18T15:53:51Z</time>
      </trkpt>
      <trkpt lat="45.77801" lon="3.03072">
        <ele>717.8</ele>
        <time>2017-07-18T15:53:51Z</time>
      </trkpt>
      <trkpt lat="45.77799" lon="3.03069">
        <ele>718.3</ele>
        <time>2017-07-18T15:53:51Z</time>
      </trkpt>
      <trkpt lat="45.77796" lon="3.03067">
        <ele>718.5</ele>
        <time>2017-07-18T15:53:51Z</time>
      </trkpt>
      <trkpt lat="45.77794" lon="3.03064">
        <ele>718.8</ele>
        <time>2017-07-18T15:53:51Z</time>
      </trkpt>
      <trkpt lat="45.77792" lon="3.03061">
        <ele>719.2</ele>
        <time>2017-07-18T15:53:51Z</time>
      </trkpt>
      <trkpt lat="45.77789" lon="3.0306">
        <ele>719.2</ele>
        <time>2017-07-18T15:53:51Z</time>
      </trkpt>
      <trkpt lat="45.77787" lon="3.03057">
        <ele>719.5</ele>
        <time>2017-07-18T15:53:51Z</time>
      </trkpt>
      <trkpt lat="45.77785" lon="3.03056">
        <ele>719.4</ele>
        <time>2017-07-18T15:53:51Z</time>
      </trkpt>
      <trkpt lat="45.77782" lon="3.03054">
        <ele>719.5</ele>
        <time>2017-07-18T15:53:51Z</time>
      </trkpt>
      <trkpt lat="45.7778" lon="3.03052">
        <ele>719.7</ele>
        <time>2017-07-18T15:53:51Z</time>
      </trkpt>
      <trkpt lat="45.77778" lon="3.03048">
        <ele>720.1</ele>
        <time>2017-07-18T15:53:51Z</time>
      </trkpt>
      <trkpt lat="45.77776" lon="3.03045">
        <ele>720.4</ele>
        <time>2017-07-18T15:53:51Z</time>
      </trkpt>
      <trkpt lat="45.77774" lon="3.03043">
        <ele>720.5</ele>
        <time>2017-07-18T15:53:51Z</time>
      </trkpt>
      <trkpt lat="45.77772" lon="3.03041">
        <ele>720.6</ele>
        <time>2017-07-18T15:53:51Z</time>
      </trkpt>
      <trkpt lat="45.77771" lon="3.03037">
        <ele>721</ele>
        <time>2017-07-18T15:53:51Z</time>
      </trkpt>
      <trkpt lat="45.77769" lon="3.03035">
        <ele>721.1</ele>
        <time>2017-07-18T15:53:51Z</time>
      </trkpt>
      <trkpt lat="45.77766" lon="3.03032">
        <ele>721.3</ele>
        <time>2017-07-18T15:53:51Z</time>
      </trkpt>
      <trkpt lat="45.77764" lon="3.03028">
        <ele>721.5</ele>
        <time>2017-07-18T15:53:51Z</time>
      </trkpt>
      <trkpt lat="45.77762" lon="3.03024">
        <ele>721.7</ele>
        <time>2017-07-18T15:53:51Z</time>
      </trkpt>
      <trkpt lat="45.7776" lon="3.03021">
        <ele>721.9</ele>
        <time>2017-07-18T15:53:51Z</time>
      </trkpt>
      <trkpt lat="45.77758" lon="3.03018">
        <ele>722</ele>
        <time>2017-07-18T15:53:51Z</time>
      </trkpt>
      <trkpt lat="45.77755" lon="3.03015">
        <ele>722</ele>
        <time>2017-07-18T15:53:51Z</time>
      </trkpt>
      <trkpt lat="45.77754" lon="3.03013">
        <ele>722.1</ele>
        <time>2017-07-18T15:53:51Z</time>
      </trkpt>
      <trkpt lat="45.77752" lon="3.0301">
        <ele>722.2</ele>
        <time>2017-07-18T15:53:51Z</time>
      </trkpt>
      <trkpt lat="45.7775" lon="3.03008">
        <ele>722.2</ele>
        <time>2017-07-18T15:53:51Z</time>
      </trkpt>
      <trkpt lat="45.77748" lon="3.03005">
        <ele>722.3</ele>
        <time>2017-07-18T15:53:51Z</time>
      </trkpt>
      <trkpt lat="45.77746" lon="3.03003">
        <ele>722.5</ele>
        <time>2017-07-18T15:53:51Z</time>
      </trkpt>
      <trkpt lat="45.77744" lon="3.03001">
        <ele>722.6</ele>
        <time>2017-07-18T15:53:51Z</time>
      </trkpt>
      <trkpt lat="45.77742" lon="3.02998">
        <ele>722.7</ele>
        <time>2017-07-18T15:53:51Z</time>
      </trkpt>
      <trkpt lat="45.77739" lon="3.02996">
        <ele>722.8</ele>
        <time>2017-07-18T15:53:51Z</time>
      </trkpt>
      <trkpt lat="45.77738" lon="3.02994">
        <ele>722.9</ele>
        <time>2017-07-18T15:53:51Z</time>
      </trkpt>
      <trkpt lat="45.77735" lon="3.02993">
        <ele>722.9</ele>
        <time>2017-07-18T15:53:51Z</time>
      </trkpt>
      <trkpt lat="45.77733" lon="3.02991">
        <ele>723</ele>
        <time>2017-07-18T15:53:51Z</time>
      </trkpt>
      <trkpt lat="45.77731" lon="3.02988">
        <ele>723.2</ele>
        <time>2017-07-18T15:53:51Z</time>
      </trkpt>
      <trkpt lat="45.7773" lon="3.02986">
        <ele>723.3</ele>
        <time>2017-07-18T15:53:51Z</time>
      </trkpt>
      <trkpt lat="45.77728" lon="3.02983">
        <ele>723.5</ele>
        <time>2017-07-18T15:53:51Z</time>
      </trkpt>
      <trkpt lat="45.77727" lon="3.02979">
        <ele>723.7</ele>
        <time>2017-07-18T15:53:51Z</time>
      </trkpt>
      <trkpt lat="45.77724" lon="3.02977">
        <ele>723.7</ele>
        <time>2017-07-18T15:53:51Z</time>
      </trkpt>
      <trkpt lat="45.77723" lon="3.02972">
        <ele>724</ele>
        <time>2017-07-18T15:53:51Z</time>
      </trkpt>
      <trkpt lat="45.77721" lon="3.02969">
        <ele>724.2</ele>
        <time>2017-07-18T15:53:51Z</time>
      </trkpt>
      <trkpt lat="45.77719" lon="3.02967">
        <ele>724.3</ele>
        <time>2017-07-18T15:53:51Z</time>
      </trkpt>
      <trkpt lat="45.77718" lon="3.02964">
        <ele>724.4</ele>
        <time>2017-07-18T15:53:51Z</time>
      </trkpt>
      <trkpt lat="45.77716" lon="3.02961">
        <ele>724.6</ele>
        <time>2017-07-18T15:53:51Z</time>
      </trkpt>
      <trkpt lat="45.77715" lon="3.02958">
        <ele>724.7</ele>
        <time>2017-07-18T15:53:51Z</time>
      </trkpt>
      <trkpt lat="45.77713" lon="3.02956">
        <ele>724.8</ele>
        <time>2017-07-18T15:53:51Z</time>
      </trkpt>
      <trkpt lat="45.77712" lon="3.02953">
        <ele>725</ele>
        <time>2017-07-18T15:53:51Z</time>
      </trkpt>
      <trkpt lat="45.7771" lon="3.0295">
        <ele>725.1</ele>
        <time>2017-07-18T15:53:51Z</time>
      </trkpt>
      <trkpt lat="45.77709" lon="3.02947">
        <ele>725.2</ele>
        <time>2017-07-18T15:53:51Z</time>
      </trkpt>
      <trkpt lat="45.77707" lon="3.02944">
        <ele>725.3</ele>
        <time>2017-07-18T15:53:51Z</time>
      </trkpt>
      <trkpt lat="45.77706" lon="3.02941">
        <ele>725.4</ele>
        <time>2017-07-18T15:53:51Z</time>
      </trkpt>
      <trkpt lat="45.77705" lon="3.02937">
        <ele>725.7</ele>
        <time>2017-07-18T15:53:51Z</time>
      </trkpt>
      <trkpt lat="45.77704" lon="3.02934">
        <ele>725.8</ele>
        <time>2017-07-18T15:53:51Z</time>
      </trkpt>
      <trkpt lat="45.77702" lon="3.0293">
        <ele>726</ele>
        <time>2017-07-18T15:53:51Z</time>
      </trkpt>
      <trkpt lat="45.77701" lon="3.02926">
        <ele>726.2</ele>
        <time>2017-07-18T15:53:51Z</time>
      </trkpt>
      <trkpt lat="45.77701" lon="3.02922">
        <ele>726.5</ele>
        <time>2017-07-18T15:53:51Z</time>
      </trkpt>
      <trkpt lat="45.777" lon="3.02918">
        <ele>726.8</ele>
        <time>2017-07-18T15:53:51Z</time>
      </trkpt>
      <trkpt lat="45.777" lon="3.02914">
        <ele>726.9</ele>
        <time>2017-07-18T15:53:51Z</time>
      </trkpt>
      <trkpt lat="45.777" lon="3.0291">
        <ele>727</ele>
        <time>2017-07-18T15:53:51Z</time>
      </trkpt>
      <trkpt lat="45.77699" lon="3.02907">
        <ele>727</ele>
        <time>2017-07-18T15:53:51Z</time>
      </trkpt>
      <trkpt lat="45.77699" lon="3.02903">
        <ele>727.1</ele>
        <time>2017-07-18T15:53:51Z</time>
      </trkpt>
      <trkpt lat="45.77699" lon="3.029">
        <ele>727.2</ele>
        <time>2017-07-18T15:53:51Z</time>
      </trkpt>
      <trkpt lat="45.77699" lon="3.02897">
        <ele>727.3</ele>
        <time>2017-07-18T15:53:51Z</time>
      </trkpt>
      <trkpt lat="45.77699" lon="3.02894">
        <ele>727.4</ele>
        <time>2017-07-18T15:53:51Z</time>
      </trkpt>
      <trkpt lat="45.77699" lon="3.0289">
        <ele>727.5</ele>
        <time>2017-07-18T15:53:51Z</time>
      </trkpt>
      <trkpt lat="45.77699" lon="3.02887">
        <ele>727.5</ele>
        <time>2017-07-18T15:53:51Z</time>
      </trkpt>
      <trkpt lat="45.77699" lon="3.02883">
        <ele>727.7</ele>
        <time>2017-07-18T15:53:51Z</time>
      </trkpt>
      <trkpt lat="45.77699" lon="3.02879">
        <ele>727.8</ele>
        <time>2017-07-18T15:53:51Z</time>
      </trkpt>
      <trkpt lat="45.77699" lon="3.02876">
        <ele>727.8</ele>
        <time>2017-07-18T15:53:51Z</time>
      </trkpt>
      <trkpt lat="45.77698" lon="3.02873">
        <ele>727.9</ele>
        <time>2017-07-18T15:53:51Z</time>
      </trkpt>
      <trkpt lat="45.77698" lon="3.02869">
        <ele>728</ele>
        <time>2017-07-18T15:53:51Z</time>
      </trkpt>
      <trkpt lat="45.77698" lon="3.02865">
        <ele>728.1</ele>
        <time>2017-07-18T15:53:51Z</time>
      </trkpt>
      <trkpt lat="45.77698" lon="3.02859">
        <ele>728.2</ele>
        <time>2017-07-18T15:53:51Z</time>
      </trkpt>
      <trkpt lat="45.77697" lon="3.02855">
        <ele>728.3</ele>
        <time>2017-07-18T15:53:51Z</time>
      </trkpt>
      <trkpt lat="45.77697" lon="3.0285">
        <ele>728.4</ele>
        <time>2017-07-18T15:53:51Z</time>
      </trkpt>
      <trkpt lat="45.77697" lon="3.02846">
        <ele>728.6</ele>
        <time>2017-07-18T15:53:51Z</time>
      </trkpt>
      <trkpt lat="45.77697" lon="3.02842">
        <ele>728.7</ele>
        <time>2017-07-18T15:53:51Z</time>
      </trkpt>
      <trkpt lat="45.77697" lon="3.02838">
        <ele>728.7</ele>
        <time>2017-07-18T15:53:51Z</time>
      </trkpt>
      <trkpt lat="45.77696" lon="3.02833">
        <ele>728.9</ele>
        <time>2017-07-18T15:53:51Z</time>
      </trkpt>
      <trkpt lat="45.77696" lon="3.02829">
        <ele>729</ele>
        <time>2017-07-18T15:53:51Z</time>
      </trkpt>
      <trkpt lat="45.77697" lon="3.02825">
        <ele>729.2</ele>
        <time>2017-07-18T15:53:51Z</time>
      </trkpt>
      <trkpt lat="45.77696" lon="3.02821">
        <ele>729.4</ele>
        <time>2017-07-18T15:53:51Z</time>
      </trkpt>
      <trkpt lat="45.77696" lon="3.02818">
        <ele>729.5</ele>
        <time>2017-07-18T15:53:51Z</time>
      </trkpt>
      <trkpt lat="45.77695" lon="3.02814">
        <ele>729.6</ele>
        <time>2017-07-18T15:53:51Z</time>
      </trkpt>
      <trkpt lat="45.77695" lon="3.0281">
        <ele>729.7</ele>
        <time>2017-07-18T15:53:51Z</time>
      </trkpt>
      <trkpt lat="45.77695" lon="3.02806">
        <ele>729.9</ele>
        <time>2017-07-18T15:53:51Z</time>
      </trkpt>
      <trkpt lat="45.77694" lon="3.02802">
        <ele>730</ele>
        <time>2017-07-18T15:53:51Z</time>
      </trkpt>
      <trkpt lat="45.77694" lon="3.02799">
        <ele>730.1</ele>
        <time>2017-07-18T15:53:51Z</time>
      </trkpt>
      <trkpt lat="45.77694" lon="3.02795">
        <ele>730.3</ele>
        <time>2017-07-18T15:53:51Z</time>
      </trkpt>
      <trkpt lat="45.77693" lon="3.02792">
        <ele>730.4</ele>
        <time>2017-07-18T15:53:51Z</time>
      </trkpt>
      <trkpt lat="45.77692" lon="3.02789">
        <ele>730.4</ele>
        <time>2017-07-18T15:53:51Z</time>
      </trkpt>
      <trkpt lat="45.77691" lon="3.02786">
        <ele>730.5</ele>
        <time>2017-07-18T15:53:51Z</time>
      </trkpt>
      <trkpt lat="45.77691" lon="3.02783">
        <ele>730.6</ele>
        <time>2017-07-18T15:53:51Z</time>
      </trkpt>
      <trkpt lat="45.77691" lon="3.02779">
        <ele>730.7</ele>
        <time>2017-07-18T15:53:51Z</time>
      </trkpt>
      <trkpt lat="45.7769" lon="3.02775">
        <ele>730.8</ele>
        <time>2017-07-18T15:53:51Z</time>
      </trkpt>
      <trkpt lat="45.77689" lon="3.02772">
        <ele>730.9</ele>
        <time>2017-07-18T15:53:51Z</time>
      </trkpt>
      <trkpt lat="45.77689" lon="3.02769">
        <ele>731</ele>
        <time>2017-07-18T15:53:51Z</time>
      </trkpt>
      <trkpt lat="45.77688" lon="3.02766">
        <ele>731.1</ele>
        <time>2017-07-18T15:53:51Z</time>
      </trkpt>
      <trkpt lat="45.77688" lon="3.02762">
        <ele>731.2</ele>
        <time>2017-07-18T15:53:51Z</time>
      </trkpt>
      <trkpt lat="45.77687" lon="3.02758">
        <ele>731.4</ele>
        <time>2017-07-18T15:53:51Z</time>
      </trkpt>
      <trkpt lat="45.77687" lon="3.02753">
        <ele>731.6</ele>
        <time>2017-07-18T15:53:51Z</time>
      </trkpt>
      <trkpt lat="45.77686" lon="3.02748">
        <ele>731.7</ele>
        <time>2017-07-18T15:53:51Z</time>
      </trkpt>
      <trkpt lat="45.77685" lon="3.02745">
        <ele>731.6</ele>
        <time>2017-07-18T15:53:51Z</time>
      </trkpt>
      <trkpt lat="45.77684" lon="3.02742">
        <ele>731.7</ele>
        <time>2017-07-18T15:53:51Z</time>
      </trkpt>
      <trkpt lat="45.77684" lon="3.02737">
        <ele>731.7</ele>
        <time>2017-07-18T15:53:51Z</time>
      </trkpt>
      <trkpt lat="45.77683" lon="3.02734">
        <ele>731.7</ele>
        <time>2017-07-18T15:53:51Z</time>
      </trkpt>
      <trkpt lat="45.77682" lon="3.0273">
        <ele>731.7</ele>
        <time>2017-07-18T15:53:51Z</time>
      </trkpt>
      <trkpt lat="45.77681" lon="3.02724">
        <ele>731.8</ele>
        <time>2017-07-18T15:53:51Z</time>
      </trkpt>
      <trkpt lat="45.7768" lon="3.02721">
        <ele>731.8</ele>
        <time>2017-07-18T15:53:51Z</time>
      </trkpt>
      <trkpt lat="45.7768" lon="3.02717">
        <ele>731.8</ele>
        <time>2017-07-18T15:53:51Z</time>
      </trkpt>
      <trkpt lat="45.77678" lon="3.02712">
        <ele>731.8</ele>
        <time>2017-07-18T15:53:51Z</time>
      </trkpt>
      <trkpt lat="45.77678" lon="3.02709">
        <ele>731.8</ele>
        <time>2017-07-18T15:53:51Z</time>
      </trkpt>
      <trkpt lat="45.77677" lon="3.02705">
        <ele>731.9</ele>
        <time>2017-07-18T15:53:51Z</time>
      </trkpt>
      <trkpt lat="45.77677" lon="3.02701">
        <ele>732</ele>
        <time>2017-07-18T15:53:51Z</time>
      </trkpt>
      <trkpt lat="45.77676" lon="3.02697">
        <ele>732</ele>
        <time>2017-07-18T15:53:51Z</time>
      </trkpt>
      <trkpt lat="45.77675" lon="3.02693">
        <ele>732</ele>
        <time>2017-07-18T15:53:51Z</time>
      </trkpt>
      <trkpt lat="45.77674" lon="3.0269">
        <ele>732</ele>
        <time>2017-07-18T15:53:51Z</time>
      </trkpt>
      <trkpt lat="45.77674" lon="3.02686">
        <ele>732.1</ele>
        <time>2017-07-18T15:53:51Z</time>
      </trkpt>
      <trkpt lat="45.77673" lon="3.02682">
        <ele>732.1</ele>
        <time>2017-07-18T15:53:51Z</time>
      </trkpt>
      <trkpt lat="45.77673" lon="3.02679">
        <ele>732.1</ele>
        <time>2017-07-18T15:53:51Z</time>
      </trkpt>
      <trkpt lat="45.77672" lon="3.02675">
        <ele>732.2</ele>
        <time>2017-07-18T15:53:51Z</time>
      </trkpt>
      <trkpt lat="45.77671" lon="3.02672">
        <ele>732.2</ele>
        <time>2017-07-18T15:53:51Z</time>
      </trkpt>
      <trkpt lat="45.7767" lon="3.02668">
        <ele>732.2</ele>
        <time>2017-07-18T15:53:51Z</time>
      </trkpt>
      <trkpt lat="45.7767" lon="3.02664">
        <ele>732.4</ele>
        <time>2017-07-18T15:53:51Z</time>
      </trkpt>
      <trkpt lat="45.77669" lon="3.02661">
        <ele>732.6</ele>
        <time>2017-07-18T15:53:51Z</time>
      </trkpt>
      <trkpt lat="45.77668" lon="3.02658">
        <ele>732.7</ele>
        <time>2017-07-18T15:53:51Z</time>
      </trkpt>
      <trkpt lat="45.77667" lon="3.02654">
        <ele>732.9</ele>
        <time>2017-07-18T15:53:51Z</time>
      </trkpt>
      <trkpt lat="45.77666" lon="3.02651">
        <ele>733.2</ele>
        <time>2017-07-18T15:53:51Z</time>
      </trkpt>
      <trkpt lat="45.77664" lon="3.02648">
        <ele>733.3</ele>
        <time>2017-07-18T15:53:51Z</time>
      </trkpt>
      <trkpt lat="45.77663" lon="3.02644">
        <ele>733.7</ele>
        <time>2017-07-18T15:53:51Z</time>
      </trkpt>
      <trkpt lat="45.77662" lon="3.02641">
        <ele>733.9</ele>
        <time>2017-07-18T15:53:51Z</time>
      </trkpt>
      <trkpt lat="45.77661" lon="3.02635">
        <ele>734.3</ele>
        <time>2017-07-18T15:53:51Z</time>
      </trkpt>
      <trkpt lat="45.7766" lon="3.02632">
        <ele>734.6</ele>
        <time>2017-07-18T15:53:51Z</time>
      </trkpt>
      <trkpt lat="45.77659" lon="3.02628">
        <ele>734.8</ele>
        <time>2017-07-18T15:53:51Z</time>
      </trkpt>
      <trkpt lat="45.77658" lon="3.02625">
        <ele>735</ele>
        <time>2017-07-18T15:53:51Z</time>
      </trkpt>
      <trkpt lat="45.77656" lon="3.02621">
        <ele>735.3</ele>
        <time>2017-07-18T15:53:51Z</time>
      </trkpt>
      <trkpt lat="45.77656" lon="3.02617">
        <ele>735.5</ele>
        <time>2017-07-18T15:53:51Z</time>
      </trkpt>
      <trkpt lat="45.77655" lon="3.02612">
        <ele>735.8</ele>
        <time>2017-07-18T15:53:51Z</time>
      </trkpt>
      <trkpt lat="45.77654" lon="3.02608">
        <ele>736.1</ele>
        <time>2017-07-18T15:53:51Z</time>
      </trkpt>
      <trkpt lat="45.77653" lon="3.02604">
        <ele>736.4</ele>
        <time>2017-07-18T15:53:51Z</time>
      </trkpt>
      <trkpt lat="45.77652" lon="3.02601">
        <ele>736.6</ele>
        <time>2017-07-18T15:53:51Z</time>
      </trkpt>
      <trkpt lat="45.77652" lon="3.02597">
        <ele>736.8</ele>
        <time>2017-07-18T15:53:51Z</time>
      </trkpt>
      <trkpt lat="45.77651" lon="3.02594">
        <ele>736.9</ele>
        <time>2017-07-18T15:53:51Z</time>
      </trkpt>
      <trkpt lat="45.7765" lon="3.02591">
        <ele>737.1</ele>
        <time>2017-07-18T15:53:51Z</time>
      </trkpt>
      <trkpt lat="45.77649" lon="3.02588">
        <ele>737.3</ele>
        <time>2017-07-18T15:53:51Z</time>
      </trkpt>
      <trkpt lat="45.77649" lon="3.02585">
        <ele>737.5</ele>
        <time>2017-07-18T15:53:51Z</time>
      </trkpt>
      <trkpt lat="45.77648" lon="3.02582">
        <ele>737.6</ele>
        <time>2017-07-18T15:53:51Z</time>
      </trkpt>
      <trkpt lat="45.77647" lon="3.02578">
        <ele>738</ele>
        <time>2017-07-18T15:53:51Z</time>
      </trkpt>
      <trkpt lat="45.77645" lon="3.02575">
        <ele>738.3</ele>
        <time>2017-07-18T15:53:51Z</time>
      </trkpt>
      <trkpt lat="45.77645" lon="3.02569">
        <ele>738.8</ele>
        <time>2017-07-18T15:53:51Z</time>
      </trkpt>
      <trkpt lat="45.77644" lon="3.02565">
        <ele>739.1</ele>
        <time>2017-07-18T15:53:51Z</time>
      </trkpt>
      <trkpt lat="45.77642" lon="3.0256">
        <ele>739.6</ele>
        <time>2017-07-18T15:53:51Z</time>
      </trkpt>
      <trkpt lat="45.77641" lon="3.02556">
        <ele>739.9</ele>
        <time>2017-07-18T15:53:51Z</time>
      </trkpt>
      <trkpt lat="45.7764" lon="3.02551">
        <ele>740.2</ele>
        <time>2017-07-18T15:53:51Z</time>
      </trkpt>
      <trkpt lat="45.7764" lon="3.02548">
        <ele>740.5</ele>
        <time>2017-07-18T15:53:51Z</time>
      </trkpt>
      <trkpt lat="45.77638" lon="3.02544">
        <ele>740.7</ele>
        <time>2017-07-18T15:53:51Z</time>
      </trkpt>
      <trkpt lat="45.77637" lon="3.0254">
        <ele>741</ele>
        <time>2017-07-18T15:53:51Z</time>
      </trkpt>
      <trkpt lat="45.77637" lon="3.02536">
        <ele>741.4</ele>
        <time>2017-07-18T15:53:51Z</time>
      </trkpt>
      <trkpt lat="45.77636" lon="3.02531">
        <ele>741.6</ele>
        <time>2017-07-18T15:53:51Z</time>
      </trkpt>
      <trkpt lat="45.77634" lon="3.02528">
        <ele>741.8</ele>
        <time>2017-07-18T15:53:51Z</time>
      </trkpt>
      <trkpt lat="45.77632" lon="3.02525">
        <ele>741.8</ele>
        <time>2017-07-18T15:53:51Z</time>
      </trkpt>
      <trkpt lat="45.77631" lon="3.02521">
        <ele>742.1</ele>
        <time>2017-07-18T15:53:51Z</time>
      </trkpt>
      <trkpt lat="45.77629" lon="3.02518">
        <ele>742.1</ele>
        <time>2017-07-18T15:53:51Z</time>
      </trkpt>
      <trkpt lat="45.77628" lon="3.02515">
        <ele>742.2</ele>
        <time>2017-07-18T15:53:51Z</time>
      </trkpt>
      <trkpt lat="45.77626" lon="3.02513">
        <ele>742.2</ele>
        <time>2017-07-18T15:53:51Z</time>
      </trkpt>
      <trkpt lat="45.77625" lon="3.02509">
        <ele>742.3</ele>
        <time>2017-07-18T15:53:51Z</time>
      </trkpt>
      <trkpt lat="45.77623" lon="3.02506">
        <ele>742.4</ele>
        <time>2017-07-18T15:53:51Z</time>
      </trkpt>
      <trkpt lat="45.77621" lon="3.02502">
        <ele>742.4</ele>
        <time>2017-07-18T15:53:51Z</time>
      </trkpt>
      <trkpt lat="45.7762" lon="3.02499">
        <ele>742.4</ele>
        <time>2017-07-18T15:53:51Z</time>
      </trkpt>
      <trkpt lat="45.77618" lon="3.02495">
        <ele>742.2</ele>
        <time>2017-07-18T15:53:51Z</time>
      </trkpt>
      <trkpt lat="45.77617" lon="3.02492">
        <ele>742.1</ele>
        <time>2017-07-18T15:53:51Z</time>
      </trkpt>
      <trkpt lat="45.77616" lon="3.02488">
        <ele>742</ele>
        <time>2017-07-18T15:53:51Z</time>
      </trkpt>
      <trkpt lat="45.77615" lon="3.02484">
        <ele>741.9</ele>
        <time>2017-07-18T15:53:51Z</time>
      </trkpt>
      <trkpt lat="45.77614" lon="3.02481">
        <ele>741.9</ele>
        <time>2017-07-18T15:53:51Z</time>
      </trkpt>
      <trkpt lat="45.77614" lon="3.02478">
        <ele>741.8</ele>
        <time>2017-07-18T15:53:51Z</time>
      </trkpt>
      <trkpt lat="45.77613" lon="3.02475">
        <ele>741.8</ele>
        <time>2017-07-18T15:53:51Z</time>
      </trkpt>
      <trkpt lat="45.7761" lon="3.0247">
        <ele>741.5</ele>
        <time>2017-07-18T15:53:51Z</time>
      </trkpt>
      <trkpt lat="45.77609" lon="3.02466">
        <ele>741.3</ele>
        <time>2017-07-18T15:53:51Z</time>
      </trkpt>
      <trkpt lat="45.77608" lon="3.02463">
        <ele>741.3</ele>
        <time>2017-07-18T15:53:51Z</time>
      </trkpt>
      <trkpt lat="45.77607" lon="3.02461">
        <ele>741.2</ele>
        <time>2017-07-18T15:53:51Z</time>
      </trkpt>
      <trkpt lat="45.77607" lon="3.02457">
        <ele>741.1</ele>
        <time>2017-07-18T15:53:51Z</time>
      </trkpt>
      <trkpt lat="45.77604" lon="3.02454">
        <ele>740.8</ele>
        <time>2017-07-18T15:53:51Z</time>
      </trkpt>
      <trkpt lat="45.77603" lon="3.02451">
        <ele>740.6</ele>
        <time>2017-07-18T15:53:51Z</time>
      </trkpt>
      <trkpt lat="45.77601" lon="3.02448">
        <ele>740.3</ele>
        <time>2017-07-18T15:53:51Z</time>
      </trkpt>
      <trkpt lat="45.776" lon="3.02445">
        <ele>740.2</ele>
        <time>2017-07-18T15:53:51Z</time>
      </trkpt>
      <trkpt lat="45.77599" lon="3.02442">
        <ele>740.1</ele>
        <time>2017-07-18T15:53:51Z</time>
      </trkpt>
      <trkpt lat="45.77598" lon="3.02438">
        <ele>740.1</ele>
        <time>2017-07-18T15:53:51Z</time>
      </trkpt>
      <trkpt lat="45.77597" lon="3.02435">
        <ele>740</ele>
        <time>2017-07-18T15:53:51Z</time>
      </trkpt>
      <trkpt lat="45.77596" lon="3.02432">
        <ele>739.8</ele>
        <time>2017-07-18T15:53:51Z</time>
      </trkpt>
      <trkpt lat="45.77596" lon="3.02427">
        <ele>739.7</ele>
        <time>2017-07-18T15:53:51Z</time>
      </trkpt>
      <trkpt lat="45.77595" lon="3.02425">
        <ele>739.6</ele>
        <time>2017-07-18T15:53:51Z</time>
      </trkpt>
      <trkpt lat="45.77594" lon="3.02421">
        <ele>739.5</ele>
        <time>2017-07-18T15:53:51Z</time>
      </trkpt>
      <trkpt lat="45.77593" lon="3.02418">
        <ele>739.4</ele>
        <time>2017-07-18T15:53:51Z</time>
      </trkpt>
      <trkpt lat="45.77592" lon="3.02415">
        <ele>739.2</ele>
        <time>2017-07-18T15:53:51Z</time>
      </trkpt>
      <trkpt lat="45.7759" lon="3.02412">
        <ele>738.9</ele>
        <time>2017-07-18T15:53:51Z</time>
      </trkpt>
      <trkpt lat="45.77589" lon="3.02409">
        <ele>738.7</ele>
        <time>2017-07-18T15:53:51Z</time>
      </trkpt>
      <trkpt lat="45.77588" lon="3.02405">
        <ele>738.5</ele>
        <time>2017-07-18T15:53:51Z</time>
      </trkpt>
      <trkpt lat="45.77587" lon="3.02402">
        <ele>738.4</ele>
        <time>2017-07-18T15:53:51Z</time>
      </trkpt>
      <trkpt lat="45.77587" lon="3.02397">
        <ele>738.4</ele>
        <time>2017-07-18T15:53:51Z</time>
      </trkpt>
      <trkpt lat="45.77587" lon="3.02393">
        <ele>738.3</ele>
        <time>2017-07-18T15:53:51Z</time>
      </trkpt>
      <trkpt lat="45.77587" lon="3.02389">
        <ele>738.2</ele>
        <time>2017-07-18T15:53:51Z</time>
      </trkpt>
      <trkpt lat="45.77586" lon="3.02386">
        <ele>738.1</ele>
        <time>2017-07-18T15:53:51Z</time>
      </trkpt>
      <trkpt lat="45.77586" lon="3.02383">
        <ele>737.9</ele>
        <time>2017-07-18T15:53:51Z</time>
      </trkpt>
      <trkpt lat="45.77585" lon="3.0238">
        <ele>737.8</ele>
        <time>2017-07-18T15:53:51Z</time>
      </trkpt>
      <trkpt lat="45.77584" lon="3.02377">
        <ele>737.7</ele>
        <time>2017-07-18T15:53:51Z</time>
      </trkpt>
      <trkpt lat="45.77584" lon="3.02373">
        <ele>737.6</ele>
        <time>2017-07-18T15:53:51Z</time>
      </trkpt>
      <trkpt lat="45.77583" lon="3.0237">
        <ele>737.4</ele>
        <time>2017-07-18T15:53:51Z</time>
      </trkpt>
      <trkpt lat="45.77583" lon="3.02367">
        <ele>737.3</ele>
        <time>2017-07-18T15:53:51Z</time>
      </trkpt>
      <trkpt lat="45.77582" lon="3.02364">
        <ele>737.3</ele>
        <time>2017-07-18T15:53:51Z</time>
      </trkpt>
      <trkpt lat="45.77582" lon="3.02359">
        <ele>737.2</ele>
        <time>2017-07-18T15:53:51Z</time>
      </trkpt>
      <trkpt lat="45.77581" lon="3.02355">
        <ele>737.1</ele>
        <time>2017-07-18T15:53:51Z</time>
      </trkpt>
      <trkpt lat="45.7758" lon="3.02351">
        <ele>737</ele>
        <time>2017-07-18T15:53:51Z</time>
      </trkpt>
      <trkpt lat="45.7758" lon="3.02348">
        <ele>736.9</ele>
        <time>2017-07-18T15:53:51Z</time>
      </trkpt>
      <trkpt lat="45.77579" lon="3.02344">
        <ele>736.8</ele>
        <time>2017-07-18T15:53:51Z</time>
      </trkpt>
      <trkpt lat="45.77579" lon="3.0234">
        <ele>736.8</ele>
        <time>2017-07-18T15:53:51Z</time>
      </trkpt>
      <trkpt lat="45.77578" lon="3.02337">
        <ele>736.7</ele>
        <time>2017-07-18T15:53:51Z</time>
      </trkpt>
      <trkpt lat="45.77578" lon="3.02333">
        <ele>736.6</ele>
        <time>2017-07-18T15:53:51Z</time>
      </trkpt>
      <trkpt lat="45.77577" lon="3.02329">
        <ele>736.5</ele>
        <time>2017-07-18T15:53:51Z</time>
      </trkpt>
      <trkpt lat="45.77576" lon="3.02326">
        <ele>736.4</ele>
        <time>2017-07-18T15:53:51Z</time>
      </trkpt>
      <trkpt lat="45.77575" lon="3.02323">
        <ele>736.3</ele>
        <time>2017-07-18T15:53:51Z</time>
      </trkpt>
      <trkpt lat="45.77574" lon="3.02319">
        <ele>736.2</ele>
        <time>2017-07-18T15:53:51Z</time>
      </trkpt>
      <trkpt lat="45.77573" lon="3.02317">
        <ele>736.1</ele>
        <time>2017-07-18T15:53:51Z</time>
      </trkpt>
      <trkpt lat="45.77572" lon="3.02312">
        <ele>736.1</ele>
        <time>2017-07-18T15:53:51Z</time>
      </trkpt>
      <trkpt lat="45.77571" lon="3.02308">
        <ele>736</ele>
        <time>2017-07-18T15:53:51Z</time>
      </trkpt>
      <trkpt lat="45.77571" lon="3.02304">
        <ele>735.9</ele>
        <time>2017-07-18T15:53:51Z</time>
      </trkpt>
      <trkpt lat="45.7757" lon="3.02301">
        <ele>735.8</ele>
        <time>2017-07-18T15:53:51Z</time>
      </trkpt>
      <trkpt lat="45.7757" lon="3.02297">
        <ele>735.8</ele>
        <time>2017-07-18T15:53:51Z</time>
      </trkpt>
      <trkpt lat="45.77569" lon="3.02294">
        <ele>735.8</ele>
        <time>2017-07-18T15:53:51Z</time>
      </trkpt>
      <trkpt lat="45.77569" lon="3.0229">
        <ele>735.7</ele>
        <time>2017-07-18T15:53:51Z</time>
      </trkpt>
      <trkpt lat="45.77569" lon="3.02287">
        <ele>735.7</ele>
        <time>2017-07-18T15:53:51Z</time>
      </trkpt>
      <trkpt lat="45.77569" lon="3.02283">
        <ele>735.7</ele>
        <time>2017-07-18T15:53:51Z</time>
      </trkpt>
      <trkpt lat="45.77568" lon="3.02279">
        <ele>735.6</ele>
        <time>2017-07-18T15:53:51Z</time>
      </trkpt>
      <trkpt lat="45.77568" lon="3.02275">
        <ele>735.6</ele>
        <time>2017-07-18T15:53:51Z</time>
      </trkpt>
      <trkpt lat="45.77567" lon="3.02271">
        <ele>735.5</ele>
        <time>2017-07-18T15:53:51Z</time>
      </trkpt>
      <trkpt lat="45.77567" lon="3.02268">
        <ele>735.5</ele>
        <time>2017-07-18T15:53:51Z</time>
      </trkpt>
      <trkpt lat="45.77566" lon="3.02264">
        <ele>735.4</ele>
        <time>2017-07-18T15:53:51Z</time>
      </trkpt>
      <trkpt lat="45.77565" lon="3.02261">
        <ele>735.4</ele>
        <time>2017-07-18T15:53:51Z</time>
      </trkpt>
      <trkpt lat="45.77565" lon="3.02256">
        <ele>735.4</ele>
        <time>2017-07-18T15:53:51Z</time>
      </trkpt>
      <trkpt lat="45.77564" lon="3.02252">
        <ele>735.3</ele>
        <time>2017-07-18T15:53:51Z</time>
      </trkpt>
      <trkpt lat="45.77563" lon="3.0225">
        <ele>735.3</ele>
        <time>2017-07-18T15:53:51Z</time>
      </trkpt>
      <trkpt lat="45.77563" lon="3.02247">
        <ele>735.4</ele>
        <time>2017-07-18T15:53:51Z</time>
      </trkpt>
      <trkpt lat="45.77563" lon="3.02243">
        <ele>735.6</ele>
        <time>2017-07-18T15:53:51Z</time>
      </trkpt>
      <trkpt lat="45.77562" lon="3.02239">
        <ele>735.8</ele>
        <time>2017-07-18T15:53:51Z</time>
      </trkpt>
      <trkpt lat="45.77562" lon="3.02235">
        <ele>736</ele>
        <time>2017-07-18T15:53:51Z</time>
      </trkpt>
      <trkpt lat="45.77561" lon="3.02232">
        <ele>736.1</ele>
        <time>2017-07-18T15:53:51Z</time>
      </trkpt>
      <trkpt lat="45.77561" lon="3.02229">
        <ele>736.2</ele>
        <time>2017-07-18T15:53:51Z</time>
      </trkpt>
      <trkpt lat="45.7756" lon="3.02227">
        <ele>736.3</ele>
        <time>2017-07-18T15:53:51Z</time>
      </trkpt>
      <trkpt lat="45.7756" lon="3.02223">
        <ele>736.5</ele>
        <time>2017-07-18T15:53:51Z</time>
      </trkpt>
      <trkpt lat="45.7756" lon="3.0222">
        <ele>736.7</ele>
        <time>2017-07-18T15:53:51Z</time>
      </trkpt>
      <trkpt lat="45.77561" lon="3.02217">
        <ele>736.9</ele>
        <time>2017-07-18T15:53:51Z</time>
      </trkpt>
      <trkpt lat="45.77562" lon="3.02214">
        <ele>737.1</ele>
        <time>2017-07-18T15:53:51Z</time>
      </trkpt>
      <trkpt lat="45.77562" lon="3.02211">
        <ele>737.2</ele>
        <time>2017-07-18T15:53:51Z</time>
      </trkpt>
      <trkpt lat="45.77562" lon="3.02212">
        <ele>737.2</ele>
        <time>2017-07-18T15:53:51Z</time>
      </trkpt>
      <trkpt lat="45.77565" lon="3.0221">
        <ele>737.4</ele>
        <time>2017-07-18T15:53:51Z</time>
      </trkpt>
      <trkpt lat="45.77567" lon="3.02208">
        <ele>737.6</ele>
        <time>2017-07-18T15:53:51Z</time>
      </trkpt>
      <trkpt lat="45.77569" lon="3.02207">
        <ele>737.8</ele>
        <time>2017-07-18T15:53:51Z</time>
      </trkpt>
      <trkpt lat="45.77572" lon="3.02206">
        <ele>738</ele>
        <time>2017-07-18T15:53:51Z</time>
      </trkpt>
      <trkpt lat="45.77574" lon="3.02205">
        <ele>738.2</ele>
        <time>2017-07-18T15:53:51Z</time>
      </trkpt>
      <trkpt lat="45.77577" lon="3.02205">
        <ele>738.3</ele>
        <time>2017-07-18T15:53:51Z</time>
      </trkpt>
      <trkpt lat="45.77579" lon="3.02205">
        <ele>738.5</ele>
        <time>2017-07-18T15:53:51Z</time>
      </trkpt>
      <trkpt lat="45.77582" lon="3.02204">
        <ele>738.7</ele>
        <time>2017-07-18T15:53:51Z</time>
      </trkpt>
      <trkpt lat="45.77585" lon="3.02204">
        <ele>738.9</ele>
        <time>2017-07-18T15:53:51Z</time>
      </trkpt>
      <trkpt lat="45.77587" lon="3.02203">
        <ele>739.2</ele>
        <time>2017-07-18T15:53:51Z</time>
      </trkpt>
      <trkpt lat="45.7759" lon="3.02203">
        <ele>739.5</ele>
        <time>2017-07-18T15:53:51Z</time>
      </trkpt>
      <trkpt lat="45.77592" lon="3.02203">
        <ele>739.7</ele>
        <time>2017-07-18T15:53:51Z</time>
      </trkpt>
      <trkpt lat="45.77595" lon="3.02203">
        <ele>740</ele>
        <time>2017-07-18T15:53:51Z</time>
      </trkpt>
      <trkpt lat="45.77598" lon="3.02201">
        <ele>740.4</ele>
        <time>2017-07-18T15:53:51Z</time>
      </trkpt>
      <trkpt lat="45.77601" lon="3.022">
        <ele>740.8</ele>
        <time>2017-07-18T15:53:51Z</time>
      </trkpt>
      <trkpt lat="45.77604" lon="3.02198">
        <ele>741.1</ele>
        <time>2017-07-18T15:53:51Z</time>
      </trkpt>
      <trkpt lat="45.77607" lon="3.02196">
        <ele>741.4</ele>
        <time>2017-07-18T15:53:51Z</time>
      </trkpt>
      <trkpt lat="45.77609" lon="3.02193">
        <ele>741.8</ele>
        <time>2017-07-18T15:53:51Z</time>
      </trkpt>
      <trkpt lat="45.77612" lon="3.02191">
        <ele>742.1</ele>
        <time>2017-07-18T15:53:51Z</time>
      </trkpt>
      <trkpt lat="45.77615" lon="3.0219">
        <ele>742.3</ele>
        <time>2017-07-18T15:53:51Z</time>
      </trkpt>
      <trkpt lat="45.77617" lon="3.02189">
        <ele>742.6</ele>
        <time>2017-07-18T15:53:51Z</time>
      </trkpt>
      <trkpt lat="45.7762" lon="3.02188">
        <ele>742.8</ele>
        <time>2017-07-18T15:53:51Z</time>
      </trkpt>
      <trkpt lat="45.77623" lon="3.02187">
        <ele>743.1</ele>
        <time>2017-07-18T15:53:51Z</time>
      </trkpt>
      <trkpt lat="45.77626" lon="3.02186">
        <ele>743.3</ele>
        <time>2017-07-18T15:53:51Z</time>
      </trkpt>
      <trkpt lat="45.77628" lon="3.02184">
        <ele>743.6</ele>
        <time>2017-07-18T15:53:51Z</time>
      </trkpt>
      <trkpt lat="45.77631" lon="3.02183">
        <ele>743.8</ele>
        <time>2017-07-18T15:53:51Z</time>
      </trkpt>
      <trkpt lat="45.77633" lon="3.02181">
        <ele>744</ele>
        <time>2017-07-18T15:53:51Z</time>
      </trkpt>
      <trkpt lat="45.77636" lon="3.02179">
        <ele>744.2</ele>
        <time>2017-07-18T15:53:51Z</time>
      </trkpt>
      <trkpt lat="45.77638" lon="3.02176">
        <ele>744.3</ele>
        <time>2017-07-18T15:53:51Z</time>
      </trkpt>
      <trkpt lat="45.77639" lon="3.02173">
        <ele>744.4</ele>
        <time>2017-07-18T15:53:51Z</time>
      </trkpt>
      <trkpt lat="45.77641" lon="3.0217">
        <ele>744.5</ele>
        <time>2017-07-18T15:53:51Z</time>
      </trkpt>
      <trkpt lat="45.77642" lon="3.02166">
        <ele>744.5</ele>
        <time>2017-07-18T15:53:51Z</time>
      </trkpt>
      <trkpt lat="45.77643" lon="3.02163">
        <ele>744.9</ele>
        <time>2017-07-18T15:53:51Z</time>
      </trkpt>
      <trkpt lat="45.77644" lon="3.0216">
        <ele>745.2</ele>
        <time>2017-07-18T15:53:51Z</time>
      </trkpt>
      <trkpt lat="45.77644" lon="3.02156">
        <ele>745.6</ele>
        <time>2017-07-18T15:53:51Z</time>
      </trkpt>
      <trkpt lat="45.77644" lon="3.02153">
        <ele>746</ele>
        <time>2017-07-18T15:53:51Z</time>
      </trkpt>
      <trkpt lat="45.77644" lon="3.02149">
        <ele>746.4</ele>
        <time>2017-07-18T15:53:51Z</time>
      </trkpt>
      <trkpt lat="45.77645" lon="3.02146">
        <ele>746.7</ele>
        <time>2017-07-18T15:53:51Z</time>
      </trkpt>
      <trkpt lat="45.77645" lon="3.02143">
        <ele>747</ele>
        <time>2017-07-18T15:53:51Z</time>
      </trkpt>
      <trkpt lat="45.77646" lon="3.02139">
        <ele>747.4</ele>
        <time>2017-07-18T15:53:51Z</time>
      </trkpt>
      <trkpt lat="45.77647" lon="3.02135">
        <ele>747.8</ele>
        <time>2017-07-18T15:53:51Z</time>
      </trkpt>
      <trkpt lat="45.77648" lon="3.02132">
        <ele>748.2</ele>
        <time>2017-07-18T15:53:51Z</time>
      </trkpt>
      <trkpt lat="45.77649" lon="3.02128">
        <ele>748.6</ele>
        <time>2017-07-18T15:53:51Z</time>
      </trkpt>
      <trkpt lat="45.7765" lon="3.02126">
        <ele>748.8</ele>
        <time>2017-07-18T15:53:51Z</time>
      </trkpt>
      <trkpt lat="45.77651" lon="3.02124">
        <ele>749</ele>
        <time>2017-07-18T15:53:51Z</time>
      </trkpt>
      <trkpt lat="45.77653" lon="3.02122">
        <ele>749.2</ele>
        <time>2017-07-18T15:53:51Z</time>
      </trkpt>
      <trkpt lat="45.77655" lon="3.02121">
        <ele>749.4</ele>
        <time>2017-07-18T15:53:51Z</time>
      </trkpt>
      <trkpt lat="45.77657" lon="3.0212">
        <ele>749.6</ele>
        <time>2017-07-18T15:53:51Z</time>
      </trkpt>
      <trkpt lat="45.77659" lon="3.0212">
        <ele>749.6</ele>
        <time>2017-07-18T15:53:51Z</time>
      </trkpt>
      <trkpt lat="45.77662" lon="3.02121">
        <ele>749.7</ele>
        <time>2017-07-18T15:53:51Z</time>
      </trkpt>
      <trkpt lat="45.77664" lon="3.02119">
        <ele>749.9</ele>
        <time>2017-07-18T15:53:51Z</time>
      </trkpt>
      <trkpt lat="45.77667" lon="3.02119">
        <ele>750</ele>
        <time>2017-07-18T15:53:51Z</time>
      </trkpt>
      <trkpt lat="45.7767" lon="3.02119">
        <ele>750.3</ele>
        <time>2017-07-18T15:53:51Z</time>
      </trkpt>
      <trkpt lat="45.77672" lon="3.02118">
        <ele>750.7</ele>
        <time>2017-07-18T15:53:51Z</time>
      </trkpt>
      <trkpt lat="45.77674" lon="3.02115">
        <ele>751.2</ele>
        <time>2017-07-18T15:53:51Z</time>
      </trkpt>
      <trkpt lat="45.77676" lon="3.02113">
        <ele>751.6</ele>
        <time>2017-07-18T15:53:51Z</time>
      </trkpt>
      <trkpt lat="45.77677" lon="3.02111">
        <ele>751.9</ele>
        <time>2017-07-18T15:53:51Z</time>
      </trkpt>
      <trkpt lat="45.77679" lon="3.02109">
        <ele>752.3</ele>
        <time>2017-07-18T15:53:51Z</time>
      </trkpt>
      <trkpt lat="45.77681" lon="3.02106">
        <ele>752.7</ele>
        <time>2017-07-18T15:53:51Z</time>
      </trkpt>
      <trkpt lat="45.77682" lon="3.02103">
        <ele>753.1</ele>
        <time>2017-07-18T15:53:51Z</time>
      </trkpt>
      <trkpt lat="45.77684" lon="3.02103">
        <ele>753.2</ele>
        <time>2017-07-18T15:53:51Z</time>
      </trkpt>
      <trkpt lat="45.77685" lon="3.02101">
        <ele>753.5</ele>
        <time>2017-07-18T15:53:51Z</time>
      </trkpt>
      <trkpt lat="45.77686" lon="3.02098">
        <ele>753.9</ele>
        <time>2017-07-18T15:53:51Z</time>
      </trkpt>
      <trkpt lat="45.77687" lon="3.02096">
        <ele>754.1</ele>
        <time>2017-07-18T15:53:51Z</time>
      </trkpt>
      <trkpt lat="45.7769" lon="3.02093">
        <ele>754.6</ele>
        <time>2017-07-18T15:53:51Z</time>
      </trkpt>
      <trkpt lat="45.7769" lon="3.02091">
        <ele>754.7</ele>
        <time>2017-07-18T15:53:51Z</time>
      </trkpt>
      <trkpt lat="45.77692" lon="3.02087">
        <ele>755.2</ele>
        <time>2017-07-18T15:53:51Z</time>
      </trkpt>
      <trkpt lat="45.77693" lon="3.02083">
        <ele>755.5</ele>
        <time>2017-07-18T15:53:51Z</time>
      </trkpt>
      <trkpt lat="45.77693" lon="3.02079">
        <ele>756</ele>
        <time>2017-07-18T15:53:51Z</time>
      </trkpt>
      <trkpt lat="45.77694" lon="3.02076">
        <ele>756.3</ele>
        <time>2017-07-18T15:53:51Z</time>
      </trkpt>
      <trkpt lat="45.77695" lon="3.02072">
        <ele>756.7</ele>
        <time>2017-07-18T15:53:51Z</time>
      </trkpt>
      <trkpt lat="45.77696" lon="3.02071">
        <ele>756.9</ele>
        <time>2017-07-18T15:53:51Z</time>
      </trkpt>
      <trkpt lat="45.77697" lon="3.02068">
        <ele>757.1</ele>
        <time>2017-07-18T15:53:51Z</time>
      </trkpt>
      <trkpt lat="45.77696" lon="3.02065">
        <ele>757.4</ele>
        <time>2017-07-18T15:53:51Z</time>
      </trkpt>
      <trkpt lat="45.77697" lon="3.02062">
        <ele>757.6</ele>
        <time>2017-07-18T15:53:51Z</time>
      </trkpt>
      <trkpt lat="45.77697" lon="3.0206">
        <ele>757.8</ele>
        <time>2017-07-18T15:53:51Z</time>
      </trkpt>
      <trkpt lat="45.77699" lon="3.02057">
        <ele>758.2</ele>
        <time>2017-07-18T15:53:51Z</time>
      </trkpt>
      <trkpt lat="45.77701" lon="3.02054">
        <ele>758.6</ele>
        <time>2017-07-18T15:53:51Z</time>
      </trkpt>
      <trkpt lat="45.77703" lon="3.02051">
        <ele>758.9</ele>
        <time>2017-07-18T15:53:51Z</time>
      </trkpt>
      <trkpt lat="45.77704" lon="3.02047">
        <ele>759.4</ele>
        <time>2017-07-18T15:53:51Z</time>
      </trkpt>
      <trkpt lat="45.77706" lon="3.02043">
        <ele>759.7</ele>
        <time>2017-07-18T15:53:51Z</time>
      </trkpt>
      <trkpt lat="45.77707" lon="3.02041">
        <ele>760</ele>
        <time>2017-07-18T15:53:51Z</time>
      </trkpt>
      <trkpt lat="45.77708" lon="3.02037">
        <ele>760.3</ele>
        <time>2017-07-18T15:53:51Z</time>
      </trkpt>
      <trkpt lat="45.7771" lon="3.02035">
        <ele>760.6</ele>
        <time>2017-07-18T15:53:51Z</time>
      </trkpt>
      <trkpt lat="45.77711" lon="3.02032">
        <ele>760.9</ele>
        <time>2017-07-18T15:53:51Z</time>
      </trkpt>
      <trkpt lat="45.77713" lon="3.02029">
        <ele>761.1</ele>
        <time>2017-07-18T15:53:51Z</time>
      </trkpt>
      <trkpt lat="45.77715" lon="3.02027">
        <ele>761.4</ele>
        <time>2017-07-18T15:53:51Z</time>
      </trkpt>
      <trkpt lat="45.77716" lon="3.02024">
        <ele>761.6</ele>
        <time>2017-07-18T15:53:51Z</time>
      </trkpt>
      <trkpt lat="45.77717" lon="3.02022">
        <ele>761.8</ele>
        <time>2017-07-18T15:53:51Z</time>
      </trkpt>
      <trkpt lat="45.77719" lon="3.02019">
        <ele>762.1</ele>
        <time>2017-07-18T15:53:51Z</time>
      </trkpt>
      <trkpt lat="45.7772" lon="3.02016">
        <ele>762.3</ele>
        <time>2017-07-18T15:53:51Z</time>
      </trkpt>
      <trkpt lat="45.77721" lon="3.02013">
        <ele>762.5</ele>
        <time>2017-07-18T15:53:51Z</time>
      </trkpt>
      <trkpt lat="45.77722" lon="3.0201">
        <ele>762.7</ele>
        <time>2017-07-18T15:53:51Z</time>
      </trkpt>
      <trkpt lat="45.77723" lon="3.02007">
        <ele>763</ele>
        <time>2017-07-18T15:53:51Z</time>
      </trkpt>
      <trkpt lat="45.77724" lon="3.02003">
        <ele>763.2</ele>
        <time>2017-07-18T15:53:51Z</time>
      </trkpt>
      <trkpt lat="45.77725" lon="3.02">
        <ele>763.4</ele>
        <time>2017-07-18T15:53:51Z</time>
      </trkpt>
      <trkpt lat="45.77726" lon="3.01996">
        <ele>763.6</ele>
        <time>2017-07-18T15:53:51Z</time>
      </trkpt>
      <trkpt lat="45.77727" lon="3.01992">
        <ele>763.7</ele>
        <time>2017-07-18T15:53:51Z</time>
      </trkpt>
      <trkpt lat="45.77728" lon="3.01988">
        <ele>763.9</ele>
        <time>2017-07-18T15:53:51Z</time>
      </trkpt>
      <trkpt lat="45.77728" lon="3.01984">
        <ele>764.1</ele>
        <time>2017-07-18T15:53:51Z</time>
      </trkpt>
      <trkpt lat="45.7773" lon="3.0198">
        <ele>764.2</ele>
        <time>2017-07-18T15:53:51Z</time>
      </trkpt>
      <trkpt lat="45.7773" lon="3.01977">
        <ele>764.3</ele>
        <time>2017-07-18T15:53:51Z</time>
      </trkpt>
      <trkpt lat="45.77731" lon="3.01973">
        <ele>764.5</ele>
        <time>2017-07-18T15:53:51Z</time>
      </trkpt>
      <trkpt lat="45.77731" lon="3.01969">
        <ele>764.6</ele>
        <time>2017-07-18T15:53:51Z</time>
      </trkpt>
      <trkpt lat="45.77732" lon="3.01966">
        <ele>764.7</ele>
        <time>2017-07-18T15:53:51Z</time>
      </trkpt>
      <trkpt lat="45.77732" lon="3.01962">
        <ele>764.9</ele>
        <time>2017-07-18T15:53:51Z</time>
      </trkpt>
      <trkpt lat="45.77733" lon="3.01959">
        <ele>765</ele>
        <time>2017-07-18T15:53:51Z</time>
      </trkpt>
      <trkpt lat="45.77734" lon="3.01955">
        <ele>765.1</ele>
        <time>2017-07-18T15:53:51Z</time>
      </trkpt>
      <trkpt lat="45.77734" lon="3.01951">
        <ele>765.2</ele>
        <time>2017-07-18T15:53:51Z</time>
      </trkpt>
      <trkpt lat="45.77735" lon="3.01947">
        <ele>765.4</ele>
        <time>2017-07-18T15:53:51Z</time>
      </trkpt>
      <trkpt lat="45.77735" lon="3.01943">
        <ele>765.5</ele>
        <time>2017-07-18T15:53:51Z</time>
      </trkpt>
      <trkpt lat="45.77736" lon="3.01939">
        <ele>765.6</ele>
        <time>2017-07-18T15:53:51Z</time>
      </trkpt>
      <trkpt lat="45.77737" lon="3.01936">
        <ele>765.7</ele>
        <time>2017-07-18T15:53:51Z</time>
      </trkpt>
      <trkpt lat="45.77738" lon="3.01934">
        <ele>765.8</ele>
        <time>2017-07-18T15:53:51Z</time>
      </trkpt>
      <trkpt lat="45.77739" lon="3.01931">
        <ele>765.8</ele>
        <time>2017-07-18T15:53:51Z</time>
      </trkpt>
      <trkpt lat="45.7774" lon="3.01928">
        <ele>765.9</ele>
        <time>2017-07-18T15:53:51Z</time>
      </trkpt>
      <trkpt lat="45.77741" lon="3.01924">
        <ele>766</ele>
        <time>2017-07-18T15:53:51Z</time>
      </trkpt>
      <trkpt lat="45.77742" lon="3.0192">
        <ele>766.1</ele>
        <time>2017-07-18T15:53:51Z</time>
      </trkpt>
      <trkpt lat="45.77743" lon="3.01918">
        <ele>766.1</ele>
        <time>2017-07-18T15:53:51Z</time>
      </trkpt>
      <trkpt lat="45.77744" lon="3.01917">
        <ele>766.2</ele>
        <time>2017-07-18T15:53:51Z</time>
      </trkpt>
      <trkpt lat="45.77746" lon="3.01915">
        <ele>766.2</ele>
        <time>2017-07-18T15:53:51Z</time>
      </trkpt>
      <trkpt lat="45.77747" lon="3.01911">
        <ele>766.3</ele>
        <time>2017-07-18T15:53:51Z</time>
      </trkpt>
      <trkpt lat="45.77748" lon="3.01907">
        <ele>766.5</ele>
        <time>2017-07-18T15:53:51Z</time>
      </trkpt>
      <trkpt lat="45.7775" lon="3.01903">
        <ele>766.7</ele>
        <time>2017-07-18T15:53:51Z</time>
      </trkpt>
      <trkpt lat="45.77751" lon="3.019">
        <ele>766.9</ele>
        <time>2017-07-18T15:53:51Z</time>
      </trkpt>
      <trkpt lat="45.77753" lon="3.01896">
        <ele>767.2</ele>
        <time>2017-07-18T15:53:51Z</time>
      </trkpt>
      <trkpt lat="45.77754" lon="3.01892">
        <ele>767.4</ele>
        <time>2017-07-18T15:53:51Z</time>
      </trkpt>
      <trkpt lat="45.77756" lon="3.01889">
        <ele>767.6</ele>
        <time>2017-07-18T15:53:51Z</time>
      </trkpt>
      <trkpt lat="45.77756" lon="3.01886">
        <ele>767.8</ele>
        <time>2017-07-18T15:53:51Z</time>
      </trkpt>
      <trkpt lat="45.77757" lon="3.01883">
        <ele>767.9</ele>
        <time>2017-07-18T15:53:51Z</time>
      </trkpt>
      <trkpt lat="45.77757" lon="3.0188">
        <ele>768.1</ele>
        <time>2017-07-18T15:53:51Z</time>
      </trkpt>
      <trkpt lat="45.77757" lon="3.01877">
        <ele>768.2</ele>
        <time>2017-07-18T15:53:51Z</time>
      </trkpt>
      <trkpt lat="45.77757" lon="3.01874">
        <ele>768.3</ele>
        <time>2017-07-18T15:53:51Z</time>
      </trkpt>
      <trkpt lat="45.77758" lon="3.01871">
        <ele>768.5</ele>
        <time>2017-07-18T15:53:51Z</time>
      </trkpt>
      <trkpt lat="45.77758" lon="3.01868">
        <ele>768.6</ele>
        <time>2017-07-18T15:53:51Z</time>
      </trkpt>
      <trkpt lat="45.77758" lon="3.01866">
        <ele>768.7</ele>
        <time>2017-07-18T15:53:51Z</time>
      </trkpt>
      <trkpt lat="45.77758" lon="3.01862">
        <ele>768.9</ele>
        <time>2017-07-18T15:53:51Z</time>
      </trkpt>
      <trkpt lat="45.77758" lon="3.01859">
        <ele>769</ele>
        <time>2017-07-18T15:53:51Z</time>
      </trkpt>
      <trkpt lat="45.77758" lon="3.01856">
        <ele>769.2</ele>
        <time>2017-07-18T15:53:51Z</time>
      </trkpt>
      <trkpt lat="45.77759" lon="3.01852">
        <ele>769.3</ele>
        <time>2017-07-18T15:53:51Z</time>
      </trkpt>
      <trkpt lat="45.77759" lon="3.01849">
        <ele>769.4</ele>
        <time>2017-07-18T15:53:51Z</time>
      </trkpt>
      <trkpt lat="45.77759" lon="3.01846">
        <ele>769.6</ele>
        <time>2017-07-18T15:53:51Z</time>
      </trkpt>
      <trkpt lat="45.7776" lon="3.01843">
        <ele>769.8</ele>
        <time>2017-07-18T15:53:51Z</time>
      </trkpt>
      <trkpt lat="45.77761" lon="3.01839">
        <ele>769.9</ele>
        <time>2017-07-18T15:53:51Z</time>
      </trkpt>
      <trkpt lat="45.77762" lon="3.01834">
        <ele>770.1</ele>
        <time>2017-07-18T15:53:51Z</time>
      </trkpt>
      <trkpt lat="45.77763" lon="3.0183">
        <ele>770.4</ele>
        <time>2017-07-18T15:53:51Z</time>
      </trkpt>
      <trkpt lat="45.77765" lon="3.01826">
        <ele>770.9</ele>
        <time>2017-07-18T15:53:51Z</time>
      </trkpt>
      <trkpt lat="45.77766" lon="3.01821">
        <ele>771.3</ele>
        <time>2017-07-18T15:53:51Z</time>
      </trkpt>
      <trkpt lat="45.77768" lon="3.01815">
        <ele>771.9</ele>
        <time>2017-07-18T15:53:51Z</time>
      </trkpt>
      <trkpt lat="45.77769" lon="3.01812">
        <ele>772.1</ele>
        <time>2017-07-18T15:53:51Z</time>
      </trkpt>
      <trkpt lat="45.77771" lon="3.01809">
        <ele>772.4</ele>
        <time>2017-07-18T15:53:51Z</time>
      </trkpt>
      <trkpt lat="45.77772" lon="3.01806">
        <ele>772.7</ele>
        <time>2017-07-18T15:53:51Z</time>
      </trkpt>
      <trkpt lat="45.77773" lon="3.01803">
        <ele>773</ele>
        <time>2017-07-18T15:53:51Z</time>
      </trkpt>
      <trkpt lat="45.77774" lon="3.01799">
        <ele>773.3</ele>
        <time>2017-07-18T15:53:51Z</time>
      </trkpt>
      <trkpt lat="45.77775" lon="3.01796">
        <ele>773.6</ele>
        <time>2017-07-18T15:53:51Z</time>
      </trkpt>
      <trkpt lat="45.77776" lon="3.01793">
        <ele>773.9</ele>
        <time>2017-07-18T15:53:51Z</time>
      </trkpt>
      <trkpt lat="45.77776" lon="3.01789">
        <ele>774.2</ele>
        <time>2017-07-18T15:53:51Z</time>
      </trkpt>
      <trkpt lat="45.77777" lon="3.01785">
        <ele>774.6</ele>
        <time>2017-07-18T15:53:51Z</time>
      </trkpt>
      <trkpt lat="45.77777" lon="3.01781">
        <ele>774.9</ele>
        <time>2017-07-18T15:53:51Z</time>
      </trkpt>
      <trkpt lat="45.77778" lon="3.01777">
        <ele>775.3</ele>
        <time>2017-07-18T15:53:51Z</time>
      </trkpt>
      <trkpt lat="45.77778" lon="3.01773">
        <ele>775.6</ele>
        <time>2017-07-18T15:53:51Z</time>
      </trkpt>
      <trkpt lat="45.77779" lon="3.01769">
        <ele>776</ele>
        <time>2017-07-18T15:53:51Z</time>
      </trkpt>
      <trkpt lat="45.77779" lon="3.01765">
        <ele>776.3</ele>
        <time>2017-07-18T15:53:51Z</time>
      </trkpt>
      <trkpt lat="45.7778" lon="3.01761">
        <ele>776.7</ele>
        <time>2017-07-18T15:53:51Z</time>
      </trkpt>
      <trkpt lat="45.77781" lon="3.01757">
        <ele>777</ele>
        <time>2017-07-18T15:53:51Z</time>
      </trkpt>
      <trkpt lat="45.77782" lon="3.01753">
        <ele>777.3</ele>
        <time>2017-07-18T15:53:51Z</time>
      </trkpt>
      <trkpt lat="45.77784" lon="3.0175">
        <ele>777.6</ele>
        <time>2017-07-18T15:53:51Z</time>
      </trkpt>
      <trkpt lat="45.77785" lon="3.01746">
        <ele>777.8</ele>
        <time>2017-07-18T15:53:51Z</time>
      </trkpt>
      <trkpt lat="45.77787" lon="3.01743">
        <ele>777.9</ele>
        <time>2017-07-18T15:53:51Z</time>
      </trkpt>
      <trkpt lat="45.77789" lon="3.01739">
        <ele>778.1</ele>
        <time>2017-07-18T15:53:51Z</time>
      </trkpt>
      <trkpt lat="45.77791" lon="3.01737">
        <ele>778.1</ele>
        <time>2017-07-18T15:53:51Z</time>
      </trkpt>
      <trkpt lat="45.77793" lon="3.01734">
        <ele>778.2</ele>
        <time>2017-07-18T15:53:51Z</time>
      </trkpt>
      <trkpt lat="45.77794" lon="3.01731">
        <ele>778.4</ele>
        <time>2017-07-18T15:53:51Z</time>
      </trkpt>
      <trkpt lat="45.77796" lon="3.01727">
        <ele>778.5</ele>
        <time>2017-07-18T15:53:51Z</time>
      </trkpt>
      <trkpt lat="45.77798" lon="3.01724">
        <ele>778.6</ele>
        <time>2017-07-18T15:53:51Z</time>
      </trkpt>
      <trkpt lat="45.778" lon="3.01721">
        <ele>778.7</ele>
        <time>2017-07-18T15:53:51Z</time>
      </trkpt>
      <trkpt lat="45.77801" lon="3.01719">
        <ele>778.8</ele>
        <time>2017-07-18T15:53:51Z</time>
      </trkpt>
      <trkpt lat="45.77802" lon="3.01715">
        <ele>778.9</ele>
        <time>2017-07-18T15:53:51Z</time>
      </trkpt>
      <trkpt lat="45.77804" lon="3.01711">
        <ele>779.1</ele>
        <time>2017-07-18T15:53:51Z</time>
      </trkpt>
      <trkpt lat="45.77805" lon="3.01708">
        <ele>779.2</ele>
        <time>2017-07-18T15:53:51Z</time>
      </trkpt>
      <trkpt lat="45.77807" lon="3.01705">
        <ele>779.3</ele>
        <time>2017-07-18T15:53:51Z</time>
      </trkpt>
      <trkpt lat="45.77808" lon="3.01702">
        <ele>779.4</ele>
        <time>2017-07-18T15:53:51Z</time>
      </trkpt>
      <trkpt lat="45.77809" lon="3.01698">
        <ele>779.5</ele>
        <time>2017-07-18T15:53:51Z</time>
      </trkpt>
      <trkpt lat="45.77809" lon="3.01695">
        <ele>779.7</ele>
        <time>2017-07-18T15:53:51Z</time>
      </trkpt>
      <trkpt lat="45.7781" lon="3.01691">
        <ele>779.8</ele>
        <time>2017-07-18T15:53:51Z</time>
      </trkpt>
      <trkpt lat="45.77811" lon="3.01688">
        <ele>779.9</ele>
        <time>2017-07-18T15:53:51Z</time>
      </trkpt>
      <trkpt lat="45.77811" lon="3.01685">
        <ele>780</ele>
        <time>2017-07-18T15:53:51Z</time>
      </trkpt>
      <trkpt lat="45.77813" lon="3.01682">
        <ele>780.1</ele>
        <time>2017-07-18T15:53:51Z</time>
      </trkpt>
      <trkpt lat="45.77814" lon="3.01679">
        <ele>780.2</ele>
        <time>2017-07-18T15:53:51Z</time>
      </trkpt>
      <trkpt lat="45.77815" lon="3.01676">
        <ele>780.3</ele>
        <time>2017-07-18T15:53:51Z</time>
      </trkpt>
      <trkpt lat="45.77816" lon="3.01674">
        <ele>780.3</ele>
        <time>2017-07-18T15:53:51Z</time>
      </trkpt>
      <trkpt lat="45.77817" lon="3.01672">
        <ele>780.4</ele>
        <time>2017-07-18T15:53:51Z</time>
      </trkpt>
      <trkpt lat="45.77822" lon="3.01669">
        <ele>780.3</ele>
        <time>2017-07-18T15:53:51Z</time>
      </trkpt>
      <trkpt lat="45.77821" lon="3.01666">
        <ele>780.5</ele>
        <time>2017-07-18T15:53:51Z</time>
      </trkpt>
      <trkpt lat="45.7782" lon="3.01663">
        <ele>780.6</ele>
        <time>2017-07-18T15:53:51Z</time>
      </trkpt>
      <trkpt lat="45.77819" lon="3.01662">
        <ele>780.6</ele>
        <time>2017-07-18T15:53:51Z</time>
      </trkpt>
      <trkpt lat="45.7782" lon="3.01661">
        <ele>780.7</ele>
        <time>2017-07-18T15:53:51Z</time>
      </trkpt>
      <trkpt lat="45.77821" lon="3.01658">
        <ele>780.7</ele>
        <time>2017-07-18T15:53:51Z</time>
      </trkpt>
      <trkpt lat="45.77822" lon="3.01655">
        <ele>780.8</ele>
        <time>2017-07-18T15:53:51Z</time>
      </trkpt>
      <trkpt lat="45.77823" lon="3.01651">
        <ele>780.9</ele>
        <time>2017-07-18T15:53:51Z</time>
      </trkpt>
      <trkpt lat="45.77824" lon="3.01648">
        <ele>781</ele>
        <time>2017-07-18T15:53:51Z</time>
      </trkpt>
      <trkpt lat="45.77825" lon="3.01646">
        <ele>781</ele>
        <time>2017-07-18T15:53:51Z</time>
      </trkpt>
      <trkpt lat="45.77826" lon="3.01643">
        <ele>781.1</ele>
        <time>2017-07-18T15:53:51Z</time>
      </trkpt>
      <trkpt lat="45.77827" lon="3.0164">
        <ele>781.2</ele>
        <time>2017-07-18T15:53:51Z</time>
      </trkpt>
      <trkpt lat="45.77828" lon="3.01636">
        <ele>781.3</ele>
        <time>2017-07-18T15:53:51Z</time>
      </trkpt>
      <trkpt lat="45.77829" lon="3.01632">
        <ele>781.4</ele>
        <time>2017-07-18T15:53:51Z</time>
      </trkpt>
      <trkpt lat="45.7783" lon="3.01628">
        <ele>781.5</ele>
        <time>2017-07-18T15:53:51Z</time>
      </trkpt>
      <trkpt lat="45.77831" lon="3.01625">
        <ele>781.6</ele>
        <time>2017-07-18T15:53:51Z</time>
      </trkpt>
      <trkpt lat="45.77832" lon="3.01621">
        <ele>781.7</ele>
        <time>2017-07-18T15:53:51Z</time>
      </trkpt>
      <trkpt lat="45.77833" lon="3.01617">
        <ele>781.8</ele>
        <time>2017-07-18T15:53:51Z</time>
      </trkpt>
      <trkpt lat="45.77833" lon="3.01613">
        <ele>782</ele>
        <time>2017-07-18T15:53:51Z</time>
      </trkpt>
      <trkpt lat="45.77834" lon="3.01608">
        <ele>782.1</ele>
        <time>2017-07-18T15:53:51Z</time>
      </trkpt>
      <trkpt lat="45.77835" lon="3.01605">
        <ele>782.2</ele>
        <time>2017-07-18T15:53:51Z</time>
      </trkpt>
      <trkpt lat="45.77835" lon="3.016">
        <ele>782.3</ele>
        <time>2017-07-18T15:53:51Z</time>
      </trkpt>
      <trkpt lat="45.77836" lon="3.01596">
        <ele>782.4</ele>
        <time>2017-07-18T15:53:51Z</time>
      </trkpt>
      <trkpt lat="45.77836" lon="3.01592">
        <ele>782.5</ele>
        <time>2017-07-18T15:53:51Z</time>
      </trkpt>
      <trkpt lat="45.77837" lon="3.01589">
        <ele>782.6</ele>
        <time>2017-07-18T15:53:51Z</time>
      </trkpt>
      <trkpt lat="45.77838" lon="3.01584">
        <ele>782.8</ele>
        <time>2017-07-18T15:53:51Z</time>
      </trkpt>
      <trkpt lat="45.77838" lon="3.01579">
        <ele>782.8</ele>
        <time>2017-07-18T15:53:51Z</time>
      </trkpt>
      <trkpt lat="45.77839" lon="3.01575">
        <ele>782.9</ele>
        <time>2017-07-18T15:53:51Z</time>
      </trkpt>
      <trkpt lat="45.77839" lon="3.01571">
        <ele>782.9</ele>
        <time>2017-07-18T15:53:51Z</time>
      </trkpt>
      <trkpt lat="45.77839" lon="3.01567">
        <ele>782.9</ele>
        <time>2017-07-18T15:53:51Z</time>
      </trkpt>
      <trkpt lat="45.77839" lon="3.01564">
        <ele>783</ele>
        <time>2017-07-18T15:53:51Z</time>
      </trkpt>
      <trkpt lat="45.7784" lon="3.0156">
        <ele>783</ele>
        <time>2017-07-18T15:53:51Z</time>
      </trkpt>
      <trkpt lat="45.7784" lon="3.01556">
        <ele>783</ele>
        <time>2017-07-18T15:53:51Z</time>
      </trkpt>
      <trkpt lat="45.7784" lon="3.01553">
        <ele>783.1</ele>
        <time>2017-07-18T15:53:51Z</time>
      </trkpt>
      <trkpt lat="45.7784" lon="3.0155">
        <ele>783.1</ele>
        <time>2017-07-18T15:53:51Z</time>
      </trkpt>
      <trkpt lat="45.7784" lon="3.01547">
        <ele>783.2</ele>
        <time>2017-07-18T15:53:51Z</time>
      </trkpt>
      <trkpt lat="45.7784" lon="3.01544">
        <ele>783.2</ele>
        <time>2017-07-18T15:53:51Z</time>
      </trkpt>
      <trkpt lat="45.7784" lon="3.0154">
        <ele>783.2</ele>
        <time>2017-07-18T15:53:51Z</time>
      </trkpt>
      <trkpt lat="45.7784" lon="3.01537">
        <ele>783.3</ele>
        <time>2017-07-18T15:53:51Z</time>
      </trkpt>
      <trkpt lat="45.7784" lon="3.01534">
        <ele>783.3</ele>
        <time>2017-07-18T15:53:51Z</time>
      </trkpt>
      <trkpt lat="45.7784" lon="3.0153">
        <ele>783.4</ele>
        <time>2017-07-18T15:53:51Z</time>
      </trkpt>
      <trkpt lat="45.7784" lon="3.01527">
        <ele>783.4</ele>
        <time>2017-07-18T15:53:51Z</time>
      </trkpt>
      <trkpt lat="45.7784" lon="3.01523">
        <ele>783.5</ele>
        <time>2017-07-18T15:53:51Z</time>
      </trkpt>
      <trkpt lat="45.7784" lon="3.01519">
        <ele>783.5</ele>
        <time>2017-07-18T15:53:51Z</time>
      </trkpt>
      <trkpt lat="45.7784" lon="3.01514">
        <ele>783.6</ele>
        <time>2017-07-18T15:53:51Z</time>
      </trkpt>
      <trkpt lat="45.77841" lon="3.0151">
        <ele>783.6</ele>
        <time>2017-07-18T15:53:51Z</time>
      </trkpt>
      <trkpt lat="45.77841" lon="3.01506">
        <ele>783.6</ele>
        <time>2017-07-18T15:53:51Z</time>
      </trkpt>
      <trkpt lat="45.77841" lon="3.01503">
        <ele>783.7</ele>
        <time>2017-07-18T15:53:51Z</time>
      </trkpt>
      <trkpt lat="45.77841" lon="3.01499">
        <ele>783.7</ele>
        <time>2017-07-18T15:53:51Z</time>
      </trkpt>
      <trkpt lat="45.77842" lon="3.01495">
        <ele>783.8</ele>
        <time>2017-07-18T15:53:51Z</time>
      </trkpt>
      <trkpt lat="45.77843" lon="3.01491">
        <ele>783.9</ele>
        <time>2017-07-18T15:53:51Z</time>
      </trkpt>
      <trkpt lat="45.77843" lon="3.01487">
        <ele>784</ele>
        <time>2017-07-18T15:53:51Z</time>
      </trkpt>
      <trkpt lat="45.77844" lon="3.01483">
        <ele>784.1</ele>
        <time>2017-07-18T15:53:51Z</time>
      </trkpt>
      <trkpt lat="45.77845" lon="3.01479">
        <ele>784.2</ele>
        <time>2017-07-18T15:53:51Z</time>
      </trkpt>
      <trkpt lat="45.77845" lon="3.01475">
        <ele>784.3</ele>
        <time>2017-07-18T15:53:51Z</time>
      </trkpt>
      <trkpt lat="45.77846" lon="3.01472">
        <ele>784.4</ele>
        <time>2017-07-18T15:53:51Z</time>
      </trkpt>
      <trkpt lat="45.77847" lon="3.01468">
        <ele>784.5</ele>
        <time>2017-07-18T15:53:51Z</time>
      </trkpt>
      <trkpt lat="45.77848" lon="3.01464">
        <ele>784.6</ele>
        <time>2017-07-18T15:53:51Z</time>
      </trkpt>
      <trkpt lat="45.77849" lon="3.01461">
        <ele>784.6</ele>
        <time>2017-07-18T15:53:51Z</time>
      </trkpt>
      <trkpt lat="45.7785" lon="3.01457">
        <ele>784.7</ele>
        <time>2017-07-18T15:53:51Z</time>
      </trkpt>
      <trkpt lat="45.77852" lon="3.01454">
        <ele>784.8</ele>
        <time>2017-07-18T15:53:51Z</time>
      </trkpt>
      <trkpt lat="45.77853" lon="3.0145">
        <ele>784.9</ele>
        <time>2017-07-18T15:53:51Z</time>
      </trkpt>
      <trkpt lat="45.77854" lon="3.01447">
        <ele>785</ele>
        <time>2017-07-18T15:53:51Z</time>
      </trkpt>
      <trkpt lat="45.77856" lon="3.01443">
        <ele>785.1</ele>
        <time>2017-07-18T15:53:51Z</time>
      </trkpt>
      <trkpt lat="45.77857" lon="3.0144">
        <ele>785.2</ele>
        <time>2017-07-18T15:53:51Z</time>
      </trkpt>
      <trkpt lat="45.77858" lon="3.01436">
        <ele>785.3</ele>
        <time>2017-07-18T15:53:51Z</time>
      </trkpt>
      <trkpt lat="45.7786" lon="3.01433">
        <ele>785.4</ele>
        <time>2017-07-18T15:53:51Z</time>
      </trkpt>
      <trkpt lat="45.77861" lon="3.0143">
        <ele>785.5</ele>
        <time>2017-07-18T15:53:51Z</time>
      </trkpt>
      <trkpt lat="45.77862" lon="3.01427">
        <ele>785.6</ele>
        <time>2017-07-18T15:53:51Z</time>
      </trkpt>
      <trkpt lat="45.77863" lon="3.01423">
        <ele>785.8</ele>
        <time>2017-07-18T15:53:51Z</time>
      </trkpt>
      <trkpt lat="45.77865" lon="3.0142">
        <ele>785.9</ele>
        <time>2017-07-18T15:53:51Z</time>
      </trkpt>
      <trkpt lat="45.77866" lon="3.01417">
        <ele>786</ele>
        <time>2017-07-18T15:53:51Z</time>
      </trkpt>
      <trkpt lat="45.77867" lon="3.01413">
        <ele>786.2</ele>
        <time>2017-07-18T15:53:51Z</time>
      </trkpt>
      <trkpt lat="45.77869" lon="3.0141">
        <ele>786.3</ele>
        <time>2017-07-18T15:53:51Z</time>
      </trkpt>
      <trkpt lat="45.7787" lon="3.01407">
        <ele>786.5</ele>
        <time>2017-07-18T15:53:51Z</time>
      </trkpt>
      <trkpt lat="45.7787" lon="3.01404">
        <ele>786.7</ele>
        <time>2017-07-18T15:53:51Z</time>
      </trkpt>
      <trkpt lat="45.77871" lon="3.014">
        <ele>786.9</ele>
        <time>2017-07-18T15:53:51Z</time>
      </trkpt>
      <trkpt lat="45.77872" lon="3.01397">
        <ele>787</ele>
        <time>2017-07-18T15:53:51Z</time>
      </trkpt>
      <trkpt lat="45.77872" lon="3.01393">
        <ele>787.2</ele>
        <time>2017-07-18T15:53:51Z</time>
      </trkpt>
      <trkpt lat="45.77872" lon="3.01389">
        <ele>787.4</ele>
        <time>2017-07-18T15:53:51Z</time>
      </trkpt>
      <trkpt lat="45.77873" lon="3.01386">
        <ele>787.6</ele>
        <time>2017-07-18T15:53:51Z</time>
      </trkpt>
      <trkpt lat="45.77874" lon="3.01382">
        <ele>787.8</ele>
        <time>2017-07-18T15:53:51Z</time>
      </trkpt>
      <trkpt lat="45.77875" lon="3.01379">
        <ele>788</ele>
        <time>2017-07-18T15:53:51Z</time>
      </trkpt>
      <trkpt lat="45.77875" lon="3.01375">
        <ele>788.2</ele>
        <time>2017-07-18T15:53:51Z</time>
      </trkpt>
      <trkpt lat="45.77876" lon="3.01372">
        <ele>788.4</ele>
        <time>2017-07-18T15:53:51Z</time>
      </trkpt>
      <trkpt lat="45.77876" lon="3.01369">
        <ele>788.6</ele>
        <time>2017-07-18T15:53:51Z</time>
      </trkpt>
      <trkpt lat="45.77877" lon="3.01366">
        <ele>788.8</ele>
        <time>2017-07-18T15:53:51Z</time>
      </trkpt>
      <trkpt lat="45.77878" lon="3.01363">
        <ele>789</ele>
        <time>2017-07-18T15:53:51Z</time>
      </trkpt>
      <trkpt lat="45.77879" lon="3.0136">
        <ele>789.2</ele>
        <time>2017-07-18T15:53:51Z</time>
      </trkpt>
      <trkpt lat="45.7788" lon="3.01358">
        <ele>789.4</ele>
        <time>2017-07-18T15:53:51Z</time>
      </trkpt>
      <trkpt lat="45.77881" lon="3.01355">
        <ele>789.6</ele>
        <time>2017-07-18T15:53:51Z</time>
      </trkpt>
      <trkpt lat="45.77883" lon="3.0135">
        <ele>790</ele>
        <time>2017-07-18T15:53:51Z</time>
      </trkpt>
      <trkpt lat="45.77884" lon="3.01346">
        <ele>790.3</ele>
        <time>2017-07-18T15:53:51Z</time>
      </trkpt>
      <trkpt lat="45.77886" lon="3.01343">
        <ele>790.6</ele>
        <time>2017-07-18T15:53:51Z</time>
      </trkpt>
      <trkpt lat="45.77888" lon="3.01339">
        <ele>790.9</ele>
        <time>2017-07-18T15:53:51Z</time>
      </trkpt>
      <trkpt lat="45.77889" lon="3.01336">
        <ele>791.2</ele>
        <time>2017-07-18T15:53:51Z</time>
      </trkpt>
      <trkpt lat="45.77891" lon="3.01333">
        <ele>791.4</ele>
        <time>2017-07-18T15:53:51Z</time>
      </trkpt>
      <trkpt lat="45.77892" lon="3.01331">
        <ele>791.6</ele>
        <time>2017-07-18T15:53:51Z</time>
      </trkpt>
      <trkpt lat="45.77893" lon="3.01329">
        <ele>791.8</ele>
        <time>2017-07-18T15:53:51Z</time>
      </trkpt>
      <trkpt lat="45.77893" lon="3.01327">
        <ele>791.9</ele>
        <time>2017-07-18T15:53:51Z</time>
      </trkpt>
      <trkpt lat="45.77898" lon="3.01322">
        <ele>792.4</ele>
        <time>2017-07-18T15:53:51Z</time>
      </trkpt>
      <trkpt lat="45.77899" lon="3.01318">
        <ele>792.7</ele>
        <time>2017-07-18T15:53:51Z</time>
      </trkpt>
      <trkpt lat="45.77901" lon="3.01316">
        <ele>792.9</ele>
        <time>2017-07-18T15:53:51Z</time>
      </trkpt>
      <trkpt lat="45.77903" lon="3.01314">
        <ele>793.1</ele>
        <time>2017-07-18T15:53:51Z</time>
      </trkpt>
      <trkpt lat="45.77904" lon="3.01311">
        <ele>793.3</ele>
        <time>2017-07-18T15:53:51Z</time>
      </trkpt>
      <trkpt lat="45.77906" lon="3.01309">
        <ele>793.5</ele>
        <time>2017-07-18T15:53:51Z</time>
      </trkpt>
      <trkpt lat="45.77908" lon="3.01305">
        <ele>793.8</ele>
        <time>2017-07-18T15:53:51Z</time>
      </trkpt>
      <trkpt lat="45.7791" lon="3.01302">
        <ele>794.1</ele>
        <time>2017-07-18T15:53:51Z</time>
      </trkpt>
      <trkpt lat="45.77912" lon="3.013">
        <ele>794.3</ele>
        <time>2017-07-18T15:53:51Z</time>
      </trkpt>
      <trkpt lat="45.77913" lon="3.01299">
        <ele>794.5</ele>
        <time>2017-07-18T15:53:51Z</time>
      </trkpt>
      <trkpt lat="45.77915" lon="3.01297">
        <ele>794.6</ele>
        <time>2017-07-18T15:53:51Z</time>
      </trkpt>
      <trkpt lat="45.77917" lon="3.01296">
        <ele>794.8</ele>
        <time>2017-07-18T15:53:51Z</time>
      </trkpt>
      <trkpt lat="45.7792" lon="3.01296">
        <ele>795</ele>
        <time>2017-07-18T15:53:51Z</time>
      </trkpt>
      <trkpt lat="45.77922" lon="3.01294">
        <ele>795.3</ele>
        <time>2017-07-18T15:53:51Z</time>
      </trkpt>
      <trkpt lat="45.77924" lon="3.01294">
        <ele>795.5</ele>
        <time>2017-07-18T15:53:51Z</time>
      </trkpt>
      <trkpt lat="45.77926" lon="3.01294">
        <ele>795.7</ele>
        <time>2017-07-18T15:53:51Z</time>
      </trkpt>
      <trkpt lat="45.77929" lon="3.01294">
        <ele>795.9</ele>
        <time>2017-07-18T15:53:51Z</time>
      </trkpt>
      <trkpt lat="45.77931" lon="3.01293">
        <ele>796.1</ele>
        <time>2017-07-18T15:53:51Z</time>
      </trkpt>
      <trkpt lat="45.77933" lon="3.01293">
        <ele>796.3</ele>
        <time>2017-07-18T15:53:51Z</time>
      </trkpt>
      <trkpt lat="45.77937" lon="3.01292">
        <ele>796.7</ele>
        <time>2017-07-18T15:53:51Z</time>
      </trkpt>
      <trkpt lat="45.77939" lon="3.01291">
        <ele>796.9</ele>
        <time>2017-07-18T15:53:51Z</time>
      </trkpt>
      <trkpt lat="45.77942" lon="3.01291">
        <ele>797.1</ele>
        <time>2017-07-18T15:53:51Z</time>
      </trkpt>
      <trkpt lat="45.77944" lon="3.01291">
        <ele>797.4</ele>
        <time>2017-07-18T15:53:51Z</time>
      </trkpt>
      <trkpt lat="45.77947" lon="3.01291">
        <ele>797.6</ele>
        <time>2017-07-18T15:53:51Z</time>
      </trkpt>
      <trkpt lat="45.7795" lon="3.01291">
        <ele>797.8</ele>
        <time>2017-07-18T15:53:51Z</time>
      </trkpt>
      <trkpt lat="45.77953" lon="3.01291">
        <ele>798.1</ele>
        <time>2017-07-18T15:53:51Z</time>
      </trkpt>
      <trkpt lat="45.77956" lon="3.01289">
        <ele>798.5</ele>
        <time>2017-07-18T15:53:51Z</time>
      </trkpt>
      <trkpt lat="45.77959" lon="3.01289">
        <ele>798.7</ele>
        <time>2017-07-18T15:53:51Z</time>
      </trkpt>
      <trkpt lat="45.77962" lon="3.01289">
        <ele>799.1</ele>
        <time>2017-07-18T15:53:51Z</time>
      </trkpt>
      <trkpt lat="45.77965" lon="3.01289">
        <ele>799.3</ele>
        <time>2017-07-18T15:53:51Z</time>
      </trkpt>
      <trkpt lat="45.77968" lon="3.01289">
        <ele>799.5</ele>
        <time>2017-07-18T15:53:51Z</time>
      </trkpt>
      <trkpt lat="45.77971" lon="3.01288">
        <ele>799.8</ele>
        <time>2017-07-18T15:53:51Z</time>
      </trkpt>
      <trkpt lat="45.77974" lon="3.01288">
        <ele>800.1</ele>
        <time>2017-07-18T15:53:51Z</time>
      </trkpt>
      <trkpt lat="45.77976" lon="3.01288">
        <ele>800.3</ele>
        <time>2017-07-18T15:53:51Z</time>
      </trkpt>
      <trkpt lat="45.77979" lon="3.01287">
        <ele>800.6</ele>
        <time>2017-07-18T15:53:51Z</time>
      </trkpt>
      <trkpt lat="45.77982" lon="3.01287">
        <ele>800.9</ele>
        <time>2017-07-18T15:53:51Z</time>
      </trkpt>
      <trkpt lat="45.77985" lon="3.01287">
        <ele>801.1</ele>
        <time>2017-07-18T15:53:51Z</time>
      </trkpt>
      <trkpt lat="45.77988" lon="3.01286">
        <ele>801.5</ele>
        <time>2017-07-18T15:53:51Z</time>
      </trkpt>
      <trkpt lat="45.77991" lon="3.01285">
        <ele>801.8</ele>
        <time>2017-07-18T15:53:51Z</time>
      </trkpt>
      <trkpt lat="45.77994" lon="3.01285">
        <ele>802.1</ele>
        <time>2017-07-18T15:53:51Z</time>
      </trkpt>
      <trkpt lat="45.77997" lon="3.01285">
        <ele>802.4</ele>
        <time>2017-07-18T15:53:51Z</time>
      </trkpt>
      <trkpt lat="45.77999" lon="3.01284">
        <ele>802.7</ele>
        <time>2017-07-18T15:53:51Z</time>
      </trkpt>
      <trkpt lat="45.78002" lon="3.01284">
        <ele>802.9</ele>
        <time>2017-07-18T15:53:51Z</time>
      </trkpt>
      <trkpt lat="45.78005" lon="3.01284">
        <ele>803.1</ele>
        <time>2017-07-18T15:53:51Z</time>
      </trkpt>
      <trkpt lat="45.78007" lon="3.01284">
        <ele>803.3</ele>
        <time>2017-07-18T15:53:51Z</time>
      </trkpt>
      <trkpt lat="45.7801" lon="3.01284">
        <ele>803.5</ele>
        <time>2017-07-18T15:53:51Z</time>
      </trkpt>
      <trkpt lat="45.78013" lon="3.01284">
        <ele>803.7</ele>
        <time>2017-07-18T15:53:51Z</time>
      </trkpt>
      <trkpt lat="45.78015" lon="3.01284">
        <ele>803.9</ele>
        <time>2017-07-18T15:53:51Z</time>
      </trkpt>
      <trkpt lat="45.78018" lon="3.01283">
        <ele>804.2</ele>
        <time>2017-07-18T15:53:51Z</time>
      </trkpt>
      <trkpt lat="45.78021" lon="3.01283">
        <ele>804.4</ele>
        <time>2017-07-18T15:53:51Z</time>
      </trkpt>
      <trkpt lat="45.78024" lon="3.01282">
        <ele>804.7</ele>
        <time>2017-07-18T15:53:51Z</time>
      </trkpt>
      <trkpt lat="45.78027" lon="3.01282">
        <ele>805</ele>
        <time>2017-07-18T15:53:51Z</time>
      </trkpt>
      <trkpt lat="45.7803" lon="3.0128">
        <ele>805.4</ele>
        <time>2017-07-18T15:53:51Z</time>
      </trkpt>
      <trkpt lat="45.78033" lon="3.01277">
        <ele>805.9</ele>
        <time>2017-07-18T15:53:51Z</time>
      </trkpt>
      <trkpt lat="45.78036" lon="3.01275">
        <ele>806.3</ele>
        <time>2017-07-18T15:53:51Z</time>
      </trkpt>
      <trkpt lat="45.78039" lon="3.01274">
        <ele>806.7</ele>
        <time>2017-07-18T15:53:51Z</time>
      </trkpt>
      <trkpt lat="45.78041" lon="3.01273">
        <ele>806.9</ele>
        <time>2017-07-18T15:53:51Z</time>
      </trkpt>
      <trkpt lat="45.78044" lon="3.01274">
        <ele>807</ele>
        <time>2017-07-18T15:53:51Z</time>
      </trkpt>
      <trkpt lat="45.78046" lon="3.01274">
        <ele>807.2</ele>
        <time>2017-07-18T15:53:51Z</time>
      </trkpt>
      <trkpt lat="45.78048" lon="3.01274">
        <ele>807.3</ele>
        <time>2017-07-18T15:53:51Z</time>
      </trkpt>
      <trkpt lat="45.78051" lon="3.01273">
        <ele>807.6</ele>
        <time>2017-07-18T15:53:51Z</time>
      </trkpt>
      <trkpt lat="45.78053" lon="3.01272">
        <ele>807.9</ele>
        <time>2017-07-18T15:53:51Z</time>
      </trkpt>
      <trkpt lat="45.78056" lon="3.01271">
        <ele>808.2</ele>
        <time>2017-07-18T15:53:51Z</time>
      </trkpt>
      <trkpt lat="45.78059" lon="3.01269">
        <ele>808.5</ele>
        <time>2017-07-18T15:53:51Z</time>
      </trkpt>
      <trkpt lat="45.78062" lon="3.01268">
        <ele>808.9</ele>
        <time>2017-07-18T15:53:51Z</time>
      </trkpt>
      <trkpt lat="45.78064" lon="3.01266">
        <ele>809.2</ele>
        <time>2017-07-18T15:53:51Z</time>
      </trkpt>
      <trkpt lat="45.78067" lon="3.01265">
        <ele>809.5</ele>
        <time>2017-07-18T15:53:51Z</time>
      </trkpt>
      <trkpt lat="45.78069" lon="3.01264">
        <ele>809.8</ele>
        <time>2017-07-18T15:53:51Z</time>
      </trkpt>
      <trkpt lat="45.78072" lon="3.01263">
        <ele>810</ele>
        <time>2017-07-18T15:53:51Z</time>
      </trkpt>
      <trkpt lat="45.78074" lon="3.01262">
        <ele>810.3</ele>
        <time>2017-07-18T15:53:51Z</time>
      </trkpt>
      <trkpt lat="45.78077" lon="3.0126">
        <ele>810.7</ele>
        <time>2017-07-18T15:53:51Z</time>
      </trkpt>
      <trkpt lat="45.7808" lon="3.01258">
        <ele>811.1</ele>
        <time>2017-07-18T15:53:51Z</time>
      </trkpt>
      <trkpt lat="45.78082" lon="3.01256">
        <ele>811.4</ele>
        <time>2017-07-18T15:53:51Z</time>
      </trkpt>
      <trkpt lat="45.78085" lon="3.01254">
        <ele>811.7</ele>
        <time>2017-07-18T15:53:51Z</time>
      </trkpt>
      <trkpt lat="45.78087" lon="3.01252">
        <ele>812.1</ele>
        <time>2017-07-18T15:53:51Z</time>
      </trkpt>
      <trkpt lat="45.78089" lon="3.0125">
        <ele>812.4</ele>
        <time>2017-07-18T15:53:51Z</time>
      </trkpt>
      <trkpt lat="45.78091" lon="3.01248">
        <ele>812.7</ele>
        <time>2017-07-18T15:53:51Z</time>
      </trkpt>
      <trkpt lat="45.78093" lon="3.01248">
        <ele>812.9</ele>
        <time>2017-07-18T15:53:51Z</time>
      </trkpt>
      <trkpt lat="45.78095" lon="3.01247">
        <ele>813.2</ele>
        <time>2017-07-18T15:53:51Z</time>
      </trkpt>
      <trkpt lat="45.78098" lon="3.01246">
        <ele>813.4</ele>
        <time>2017-07-18T15:53:51Z</time>
      </trkpt>
      <trkpt lat="45.781" lon="3.01244">
        <ele>813.7</ele>
        <time>2017-07-18T15:53:51Z</time>
      </trkpt>
      <trkpt lat="45.78102" lon="3.01242">
        <ele>814</ele>
        <time>2017-07-18T15:53:51Z</time>
      </trkpt>
      <trkpt lat="45.78105" lon="3.0124">
        <ele>814.4</ele>
        <time>2017-07-18T15:53:51Z</time>
      </trkpt>
      <trkpt lat="45.78107" lon="3.01238">
        <ele>814.7</ele>
        <time>2017-07-18T15:53:51Z</time>
      </trkpt>
      <trkpt lat="45.7811" lon="3.01237">
        <ele>814.9</ele>
        <time>2017-07-18T15:53:51Z</time>
      </trkpt>
      <trkpt lat="45.78112" lon="3.01235">
        <ele>815.2</ele>
        <time>2017-07-18T15:53:51Z</time>
      </trkpt>
      <trkpt lat="45.78114" lon="3.01234">
        <ele>815.5</ele>
        <time>2017-07-18T15:53:51Z</time>
      </trkpt>
      <trkpt lat="45.78116" lon="3.01233">
        <ele>815.7</ele>
        <time>2017-07-18T15:53:51Z</time>
      </trkpt>
      <trkpt lat="45.78119" lon="3.01231">
        <ele>816</ele>
        <time>2017-07-18T15:53:51Z</time>
      </trkpt>
      <trkpt lat="45.78121" lon="3.01228">
        <ele>816.4</ele>
        <time>2017-07-18T15:53:51Z</time>
      </trkpt>
      <trkpt lat="45.78124" lon="3.01226">
        <ele>816.6</ele>
        <time>2017-07-18T15:53:51Z</time>
      </trkpt>
      <trkpt lat="45.78126" lon="3.01225">
        <ele>816.9</ele>
        <time>2017-07-18T15:53:51Z</time>
      </trkpt>
      <trkpt lat="45.78128" lon="3.01224">
        <ele>817.1</ele>
        <time>2017-07-18T15:53:51Z</time>
      </trkpt>
      <trkpt lat="45.78131" lon="3.01223">
        <ele>817.3</ele>
        <time>2017-07-18T15:53:51Z</time>
      </trkpt>
      <trkpt lat="45.78133" lon="3.01223">
        <ele>817.4</ele>
        <time>2017-07-18T15:53:51Z</time>
      </trkpt>
      <trkpt lat="45.78135" lon="3.01221">
        <ele>817.6</ele>
        <time>2017-07-18T15:53:51Z</time>
      </trkpt>
      <trkpt lat="45.78137" lon="3.0122">
        <ele>817.8</ele>
        <time>2017-07-18T15:53:51Z</time>
      </trkpt>
      <trkpt lat="45.78139" lon="3.01218">
        <ele>818.1</ele>
        <time>2017-07-18T15:53:51Z</time>
      </trkpt>
      <trkpt lat="45.78141" lon="3.01216">
        <ele>818.3</ele>
        <time>2017-07-18T15:53:51Z</time>
      </trkpt>
      <trkpt lat="45.78143" lon="3.01214">
        <ele>818.5</ele>
        <time>2017-07-18T15:53:51Z</time>
      </trkpt>
      <trkpt lat="45.78145" lon="3.01214">
        <ele>818.6</ele>
        <time>2017-07-18T15:53:51Z</time>
      </trkpt>
      <trkpt lat="45.78148" lon="3.01213">
        <ele>818.8</ele>
        <time>2017-07-18T15:53:51Z</time>
      </trkpt>
      <trkpt lat="45.78151" lon="3.01212">
        <ele>819</ele>
        <time>2017-07-18T15:53:51Z</time>
      </trkpt>
      <trkpt lat="45.78153" lon="3.0121">
        <ele>819.2</ele>
        <time>2017-07-18T15:53:51Z</time>
      </trkpt>
      <trkpt lat="45.78155" lon="3.01208">
        <ele>819.4</ele>
        <time>2017-07-18T15:53:51Z</time>
      </trkpt>
      <trkpt lat="45.78157" lon="3.01206">
        <ele>819.7</ele>
        <time>2017-07-18T15:53:51Z</time>
      </trkpt>
      <trkpt lat="45.78158" lon="3.01204">
        <ele>819.8</ele>
        <time>2017-07-18T15:53:51Z</time>
      </trkpt>
      <trkpt lat="45.78158" lon="3.01203">
        <ele>819.9</ele>
        <time>2017-07-18T15:53:51Z</time>
      </trkpt>
      <trkpt lat="45.78159" lon="3.01203">
        <ele>819.9</ele>
        <time>2017-07-18T15:53:51Z</time>
      </trkpt>
      <trkpt lat="45.7816" lon="3.01202">
        <ele>820</ele>
        <time>2017-07-18T15:53:51Z</time>
      </trkpt>
      <trkpt lat="45.7816" lon="3.01202">
        <ele>820.1</ele>
        <time>2017-07-18T15:53:51Z</time>
      </trkpt>
      <trkpt lat="45.78161" lon="3.01202">
        <ele>820.1</ele>
        <time>2017-07-18T15:53:51Z</time>
      </trkpt>
      <trkpt lat="45.78163" lon="3.01202">
        <ele>820.1</ele>
        <time>2017-07-18T15:53:51Z</time>
      </trkpt>
      <trkpt lat="45.78165" lon="3.01202">
        <ele>820.2</ele>
        <time>2017-07-18T15:53:51Z</time>
      </trkpt>
      <trkpt lat="45.78167" lon="3.01203">
        <ele>820.3</ele>
        <time>2017-07-18T15:53:51Z</time>
      </trkpt>
      <trkpt lat="45.78169" lon="3.01203">
        <ele>820.4</ele>
        <time>2017-07-18T15:53:51Z</time>
      </trkpt>
      <trkpt lat="45.78171" lon="3.01203">
        <ele>820.6</ele>
        <time>2017-07-18T15:53:51Z</time>
      </trkpt>
      <trkpt lat="45.78173" lon="3.01203">
        <ele>820.7</ele>
        <time>2017-07-18T15:53:51Z</time>
      </trkpt>
      <trkpt lat="45.78176" lon="3.01203">
        <ele>820.9</ele>
        <time>2017-07-18T15:53:51Z</time>
      </trkpt>
      <trkpt lat="45.78178" lon="3.01203">
        <ele>821.2</ele>
        <time>2017-07-18T15:53:51Z</time>
      </trkpt>
      <trkpt lat="45.78181" lon="3.01202">
        <ele>821.4</ele>
        <time>2017-07-18T15:53:51Z</time>
      </trkpt>
      <trkpt lat="45.78183" lon="3.01201">
        <ele>821.6</ele>
        <time>2017-07-18T15:53:51Z</time>
      </trkpt>
      <trkpt lat="45.78185" lon="3.012">
        <ele>821.8</ele>
        <time>2017-07-18T15:53:51Z</time>
      </trkpt>
      <trkpt lat="45.78186" lon="3.01199">
        <ele>822</ele>
        <time>2017-07-18T15:53:51Z</time>
      </trkpt>
      <trkpt lat="45.78189" lon="3.01196">
        <ele>822.3</ele>
        <time>2017-07-18T15:53:51Z</time>
      </trkpt>
      <trkpt lat="45.78191" lon="3.01194">
        <ele>822.6</ele>
        <time>2017-07-18T15:53:51Z</time>
      </trkpt>
      <trkpt lat="45.78192" lon="3.01195">
        <ele>822.7</ele>
        <time>2017-07-18T15:53:51Z</time>
      </trkpt>
      <trkpt lat="45.78195" lon="3.01191">
        <ele>823.2</ele>
        <time>2017-07-18T15:53:51Z</time>
      </trkpt>
      <trkpt lat="45.78197" lon="3.01189">
        <ele>823.5</ele>
        <time>2017-07-18T15:53:51Z</time>
      </trkpt>
      <trkpt lat="45.782" lon="3.01188">
        <ele>823.7</ele>
        <time>2017-07-18T15:53:51Z</time>
      </trkpt>
      <trkpt lat="45.78202" lon="3.01187">
        <ele>824</ele>
        <time>2017-07-18T15:53:51Z</time>
      </trkpt>
      <trkpt lat="45.78204" lon="3.01186">
        <ele>824.3</ele>
        <time>2017-07-18T15:53:51Z</time>
      </trkpt>
      <trkpt lat="45.78206" lon="3.01185">
        <ele>824.5</ele>
        <time>2017-07-18T15:53:51Z</time>
      </trkpt>
      <trkpt lat="45.78209" lon="3.01183">
        <ele>824.8</ele>
        <time>2017-07-18T15:53:51Z</time>
      </trkpt>
      <trkpt lat="45.78211" lon="3.01181">
        <ele>825.2</ele>
        <time>2017-07-18T15:53:51Z</time>
      </trkpt>
      <trkpt lat="45.78214" lon="3.0118">
        <ele>825.5</ele>
        <time>2017-07-18T15:53:51Z</time>
      </trkpt>
      <trkpt lat="45.78217" lon="3.01179">
        <ele>825.8</ele>
        <time>2017-07-18T15:53:51Z</time>
      </trkpt>
      <trkpt lat="45.7822" lon="3.01179">
        <ele>826.1</ele>
        <time>2017-07-18T15:53:51Z</time>
      </trkpt>
      <trkpt lat="45.78222" lon="3.01179">
        <ele>826.4</ele>
        <time>2017-07-18T15:53:51Z</time>
      </trkpt>
      <trkpt lat="45.78225" lon="3.01178">
        <ele>826.7</ele>
        <time>2017-07-18T15:53:51Z</time>
      </trkpt>
      <trkpt lat="45.78227" lon="3.01177">
        <ele>827</ele>
        <time>2017-07-18T15:53:51Z</time>
      </trkpt>
      <trkpt lat="45.7823" lon="3.01176">
        <ele>827.3</ele>
        <time>2017-07-18T15:53:51Z</time>
      </trkpt>
      <trkpt lat="45.78233" lon="3.01175">
        <ele>827.6</ele>
        <time>2017-07-18T15:53:51Z</time>
      </trkpt>
      <trkpt lat="45.78235" lon="3.01175">
        <ele>827.9</ele>
        <time>2017-07-18T15:53:51Z</time>
      </trkpt>
      <trkpt lat="45.78238" lon="3.01174">
        <ele>828.2</ele>
        <time>2017-07-18T15:53:51Z</time>
      </trkpt>
      <trkpt lat="45.78241" lon="3.01175">
        <ele>828.4</ele>
        <time>2017-07-18T15:53:51Z</time>
      </trkpt>
      <trkpt lat="45.78243" lon="3.01175">
        <ele>828.6</ele>
        <time>2017-07-18T15:53:51Z</time>
      </trkpt>
      <trkpt lat="45.78246" lon="3.01175">
        <ele>828.8</ele>
        <time>2017-07-18T15:53:51Z</time>
      </trkpt>
      <trkpt lat="45.78248" lon="3.01176">
        <ele>829</ele>
        <time>2017-07-18T15:53:51Z</time>
      </trkpt>
      <trkpt lat="45.78252" lon="3.01178">
        <ele>829.1</ele>
        <time>2017-07-18T15:53:51Z</time>
      </trkpt>
      <trkpt lat="45.78254" lon="3.01178">
        <ele>829.2</ele>
        <time>2017-07-18T15:53:51Z</time>
      </trkpt>
      <trkpt lat="45.78257" lon="3.01179">
        <ele>829.3</ele>
        <time>2017-07-18T15:53:51Z</time>
      </trkpt>
      <trkpt lat="45.78259" lon="3.0118">
        <ele>829.4</ele>
        <time>2017-07-18T15:53:51Z</time>
      </trkpt>
      <trkpt lat="45.78262" lon="3.01182">
        <ele>829.4</ele>
        <time>2017-07-18T15:53:51Z</time>
      </trkpt>
      <trkpt lat="45.78264" lon="3.01183">
        <ele>829.5</ele>
        <time>2017-07-18T15:53:51Z</time>
      </trkpt>
      <trkpt lat="45.78266" lon="3.01184">
        <ele>829.6</ele>
        <time>2017-07-18T15:53:51Z</time>
      </trkpt>
      <trkpt lat="45.78269" lon="3.01186">
        <ele>829.6</ele>
        <time>2017-07-18T15:53:51Z</time>
      </trkpt>
      <trkpt lat="45.78272" lon="3.01187">
        <ele>829.8</ele>
        <time>2017-07-18T15:53:51Z</time>
      </trkpt>
      <trkpt lat="45.78274" lon="3.01188">
        <ele>829.9</ele>
        <time>2017-07-18T15:53:51Z</time>
      </trkpt>
      <trkpt lat="45.78277" lon="3.01189">
        <ele>829.9</ele>
        <time>2017-07-18T15:53:51Z</time>
      </trkpt>
      <trkpt lat="45.78279" lon="3.01191">
        <ele>830</ele>
        <time>2017-07-18T15:53:51Z</time>
      </trkpt>
      <trkpt lat="45.78282" lon="3.01193">
        <ele>830</ele>
        <time>2017-07-18T15:53:51Z</time>
      </trkpt>
      <trkpt lat="45.78284" lon="3.01194">
        <ele>830.1</ele>
        <time>2017-07-18T15:53:51Z</time>
      </trkpt>
      <trkpt lat="45.78286" lon="3.01194">
        <ele>830.3</ele>
        <time>2017-07-18T15:53:51Z</time>
      </trkpt>
      <trkpt lat="45.78289" lon="3.01195">
        <ele>830.4</ele>
        <time>2017-07-18T15:53:51Z</time>
      </trkpt>
      <trkpt lat="45.78291" lon="3.01195">
        <ele>830.5</ele>
        <time>2017-07-18T15:53:51Z</time>
      </trkpt>
      <trkpt lat="45.78294" lon="3.01195">
        <ele>830.7</ele>
        <time>2017-07-18T15:53:51Z</time>
      </trkpt>
      <trkpt lat="45.78296" lon="3.01196">
        <ele>830.9</ele>
        <time>2017-07-18T15:53:51Z</time>
      </trkpt>
      <trkpt lat="45.78298" lon="3.01196">
        <ele>831.1</ele>
        <time>2017-07-18T15:53:51Z</time>
      </trkpt>
      <trkpt lat="45.78301" lon="3.01196">
        <ele>831.3</ele>
        <time>2017-07-18T15:53:51Z</time>
      </trkpt>
      <trkpt lat="45.78303" lon="3.01195">
        <ele>831.5</ele>
        <time>2017-07-18T15:53:51Z</time>
      </trkpt>
      <trkpt lat="45.78305" lon="3.01195">
        <ele>831.7</ele>
        <time>2017-07-18T15:53:51Z</time>
      </trkpt>
      <trkpt lat="45.78307" lon="3.01194">
        <ele>831.9</ele>
        <time>2017-07-18T15:53:51Z</time>
      </trkpt>
      <trkpt lat="45.78308" lon="3.01192">
        <ele>832.2</ele>
        <time>2017-07-18T15:53:51Z</time>
      </trkpt>
      <trkpt lat="45.78309" lon="3.0119">
        <ele>832.4</ele>
        <time>2017-07-18T15:53:51Z</time>
      </trkpt>
      <trkpt lat="45.7831" lon="3.01188">
        <ele>832.7</ele>
        <time>2017-07-18T15:53:51Z</time>
      </trkpt>
      <trkpt lat="45.78312" lon="3.01186">
        <ele>833</ele>
        <time>2017-07-18T15:53:51Z</time>
      </trkpt>
      <trkpt lat="45.78314" lon="3.01183">
        <ele>833.3</ele>
        <time>2017-07-18T15:53:51Z</time>
      </trkpt>
      <trkpt lat="45.78315" lon="3.01181">
        <ele>833.6</ele>
        <time>2017-07-18T15:53:51Z</time>
      </trkpt>
      <trkpt lat="45.78315" lon="3.01178">
        <ele>833.8</ele>
        <time>2017-07-18T15:53:51Z</time>
      </trkpt>
      <trkpt lat="45.78317" lon="3.01177">
        <ele>834</ele>
        <time>2017-07-18T15:53:51Z</time>
      </trkpt>
      <trkpt lat="45.78319" lon="3.01177">
        <ele>834.2</ele>
        <time>2017-07-18T15:53:51Z</time>
      </trkpt>
      <trkpt lat="45.78321" lon="3.01179">
        <ele>834.2</ele>
        <time>2017-07-18T15:53:51Z</time>
      </trkpt>
      <trkpt lat="45.78321" lon="3.01179">
        <ele>834.2</ele>
        <time>2017-07-18T15:53:51Z</time>
      </trkpt>
      <trkpt lat="45.78321" lon="3.01179">
        <ele>834.2</ele>
        <time>2017-07-18T15:53:51Z</time>
      </trkpt>
      <trkpt lat="45.78321" lon="3.01179">
        <ele>834.2</ele>
        <time>2017-07-18T15:53:51Z</time>
      </trkpt>
      <trkpt lat="45.78321" lon="3.01179">
        <ele>834.2</ele>
        <time>2017-07-18T15:53:51Z</time>
      </trkpt>
      <trkpt lat="45.78321" lon="3.01179">
        <ele>834.2</ele>
        <time>2017-07-18T15:53:51Z</time>
      </trkpt>
      <trkpt lat="45.78321" lon="3.01179">
        <ele>834.2</ele>
        <time>2017-07-18T15:53:51Z</time>
      </trkpt>
      <trkpt lat="45.78322" lon="3.01179">
        <ele>834.2</ele>
        <time>2017-07-18T15:53:51Z</time>
      </trkpt>
      <trkpt lat="45.78322" lon="3.01179">
        <ele>834.2</ele>
        <time>2017-07-18T15:53:51Z</time>
      </trkpt>
      <trkpt lat="45.78322" lon="3.01179">
        <ele>834.2</ele>
        <time>2017-07-18T15:53:51Z</time>
      </trkpt>
    </trkseg>
  </trk>
</gpx>